<?xml version="1.0" encoding="UTF-8" standalone="no" ?>
<gpx xmlns="http://www.topografix.com/GPX/1/1" xmlns:xsi="http://www.w3.org/2001/XMLSchema-instance" xsi:schemaLocation="http://www.topografix.com/GPX/1/1 http://www.topografix.com/GPX/1/1/gpx.xsd" version="1.1" creator="VisuGPX - https://www.visugpx.com">
  <metadata>
    <name>Pornichet 05/12/2021</name>
    <desc><![CDATA[Sortie vtt dimanche 05 décembre 2021]]></desc>
  </metadata>
  <trk>
    <name><![CDATA[Pornichet Cyclisme]]></name>
    <trkseg>
      <trkpt lat="47.264" lon="-2.31563">
        <ele>9.4</ele>
        <time>2021-12-05T08:01:17.000Z</time>
      </trkpt>
      <trkpt lat="47.26402" lon="-2.3158">
        <ele>9.5</ele>
        <time>2021-12-05T08:01:20.000Z</time>
      </trkpt>
      <trkpt lat="47.26402" lon="-2.31585">
        <ele>0.40000000596046</ele>
        <time>2021-12-05T08:01:21.000Z</time>
      </trkpt>
      <trkpt lat="47.26402" lon="-2.31591">
        <ele>1.2000000476837</ele>
        <time>2021-12-05T08:01:22.000Z</time>
      </trkpt>
      <trkpt lat="47.26403" lon="-2.31606">
        <ele>1.2000000476837</ele>
        <time>2021-12-05T08:01:25.000Z</time>
      </trkpt>
      <trkpt lat="47.26405" lon="-2.31647">
        <ele>1.2000000476837</ele>
        <time>2021-12-05T08:01:33.000Z</time>
      </trkpt>
      <trkpt lat="47.26406" lon="-2.31657">
        <ele>1.2000000476837</ele>
        <time>2021-12-05T08:01:35.000Z</time>
      </trkpt>
      <trkpt lat="47.26401" lon="-2.31664">
        <ele>1.2000000476837</ele>
        <time>2021-12-05T08:01:37.000Z</time>
      </trkpt>
      <trkpt lat="47.2639" lon="-2.3167">
        <ele>1.2000000476837</ele>
        <time>2021-12-05T08:01:40.000Z</time>
      </trkpt>
      <trkpt lat="47.26381" lon="-2.31675">
        <ele>0.40000000596046</ele>
        <time>2021-12-05T08:01:42.000Z</time>
      </trkpt>
      <trkpt lat="47.26376" lon="-2.31678">
        <ele>-0.20000000298023</ele>
        <time>2021-12-05T08:01:43.000Z</time>
      </trkpt>
      <trkpt lat="47.26371" lon="-2.31681">
        <ele>-1</ele>
        <time>2021-12-05T08:01:44.000Z</time>
      </trkpt>
      <trkpt lat="47.26366" lon="-2.31684">
        <ele>-1.6000000238419</ele>
        <time>2021-12-05T08:01:45.000Z</time>
      </trkpt>
      <trkpt lat="47.26361" lon="-2.31688">
        <ele>-2.2000000476837</ele>
        <time>2021-12-05T08:01:46.000Z</time>
      </trkpt>
      <trkpt lat="47.2635" lon="-2.31694">
        <ele>-2.2000000476837</ele>
        <time>2021-12-05T08:01:48.000Z</time>
      </trkpt>
      <trkpt lat="47.26322" lon="-2.31709">
        <ele>-2.2000000476837</ele>
        <time>2021-12-05T08:01:53.000Z</time>
      </trkpt>
      <trkpt lat="47.26316" lon="-2.31712">
        <ele>-2.2000000476837</ele>
        <time>2021-12-05T08:01:54.000Z</time>
      </trkpt>
      <trkpt lat="47.2631" lon="-2.31714">
        <ele>-2.7999999523163</ele>
        <time>2021-12-05T08:01:55.000Z</time>
      </trkpt>
      <trkpt lat="47.26306" lon="-2.31716">
        <ele>-3.2000000476837</ele>
        <time>2021-12-05T08:01:56.000Z</time>
      </trkpt>
      <trkpt lat="47.26302" lon="-2.31719">
        <ele>-3.5999999046326</ele>
        <time>2021-12-05T08:01:57.000Z</time>
      </trkpt>
      <trkpt lat="47.263" lon="-2.31724">
        <ele>-4</ele>
        <time>2021-12-05T08:01:58.000Z</time>
      </trkpt>
      <trkpt lat="47.26298" lon="-2.31728">
        <ele>-4.4000000953674</ele>
        <time>2021-12-05T08:01:59.000Z</time>
      </trkpt>
      <trkpt lat="47.26297" lon="-2.31742">
        <ele>-4.4000000953674</ele>
        <time>2021-12-05T08:02:02.000Z</time>
      </trkpt>
      <trkpt lat="47.26299" lon="-2.31759">
        <ele>-4.4000000953674</ele>
        <time>2021-12-05T08:02:04.000Z</time>
      </trkpt>
      <trkpt lat="47.263" lon="-2.31777">
        <ele>-4.4000000953674</ele>
        <time>2021-12-05T08:02:08.000Z</time>
      </trkpt>
      <trkpt lat="47.26301" lon="-2.31808">
        <ele>-4.4000000953674</ele>
        <time>2021-12-05T08:02:13.000Z</time>
      </trkpt>
      <trkpt lat="47.26298" lon="-2.31846">
        <ele>-4.4000000953674</ele>
        <time>2021-12-05T08:02:19.000Z</time>
      </trkpt>
      <trkpt lat="47.26297" lon="-2.31863">
        <ele>-4.4000000953674</ele>
        <time>2021-12-05T08:02:22.000Z</time>
      </trkpt>
      <trkpt lat="47.26296" lon="-2.31879">
        <ele>-4.4000000953674</ele>
        <time>2021-12-05T08:02:25.000Z</time>
      </trkpt>
      <trkpt lat="47.26294" lon="-2.31882">
        <ele>-4.4000000953674</ele>
        <time>2021-12-05T08:02:26.000Z</time>
      </trkpt>
      <trkpt lat="47.26289" lon="-2.31887">
        <ele>-4.8000001907349</ele>
        <time>2021-12-05T08:02:28.000Z</time>
      </trkpt>
      <trkpt lat="47.26286" lon="-2.31889">
        <ele>-5.4000000953674</ele>
        <time>2021-12-05T08:02:29.000Z</time>
      </trkpt>
      <trkpt lat="47.26283" lon="-2.31892">
        <ele>-5.8000001907349</ele>
        <time>2021-12-05T08:02:30.000Z</time>
      </trkpt>
      <trkpt lat="47.2628" lon="-2.31896">
        <ele>-6.1999998092651</ele>
        <time>2021-12-05T08:02:31.000Z</time>
      </trkpt>
      <trkpt lat="47.26277" lon="-2.319">
        <ele>-6.5999999046326</ele>
        <time>2021-12-05T08:02:32.000Z</time>
      </trkpt>
      <trkpt lat="47.26272" lon="-2.31909">
        <ele>-6.5999999046326</ele>
        <time>2021-12-05T08:02:34.000Z</time>
      </trkpt>
      <trkpt lat="47.26259" lon="-2.31935">
        <ele>-6.5999999046326</ele>
        <time>2021-12-05T08:02:40.000Z</time>
      </trkpt>
      <trkpt lat="47.26244" lon="-2.31958">
        <ele>-6.5999999046326</ele>
        <time>2021-12-05T08:02:46.000Z</time>
      </trkpt>
      <trkpt lat="47.26226" lon="-2.3198">
        <ele>-6.5999999046326</ele>
        <time>2021-12-05T08:02:53.000Z</time>
      </trkpt>
      <trkpt lat="47.26223" lon="-2.31984">
        <ele>-6.5999999046326</ele>
        <time>2021-12-05T08:02:54.000Z</time>
      </trkpt>
      <trkpt lat="47.26208" lon="-2.31996">
        <ele>-6.5999999046326</ele>
        <time>2021-12-05T08:02:59.000Z</time>
      </trkpt>
      <trkpt lat="47.26204" lon="-2.32005">
        <ele>-6.5999999046326</ele>
        <time>2021-12-05T08:03:02.000Z</time>
      </trkpt>
      <trkpt lat="47.26203" lon="-2.32008">
        <ele>-6.5999999046326</ele>
        <time>2021-12-05T08:03:03.000Z</time>
      </trkpt>
      <trkpt lat="47.26196" lon="-2.32016">
        <ele>-6.5999999046326</ele>
        <time>2021-12-05T08:03:07.000Z</time>
      </trkpt>
      <trkpt lat="47.26192" lon="-2.32017">
        <ele>-6.5999999046326</ele>
        <time>2021-12-05T08:03:09.000Z</time>
      </trkpt>
      <trkpt lat="47.2618" lon="-2.32021">
        <ele>-6.5999999046326</ele>
        <time>2021-12-05T08:03:13.000Z</time>
      </trkpt>
      <trkpt lat="47.26164" lon="-2.32034">
        <ele>-6.5999999046326</ele>
        <time>2021-12-05T08:03:18.000Z</time>
      </trkpt>
      <trkpt lat="47.26161" lon="-2.32038">
        <ele>-6.5999999046326</ele>
        <time>2021-12-05T08:03:19.000Z</time>
      </trkpt>
      <trkpt lat="47.26151" lon="-2.32067">
        <ele>-6.5999999046326</ele>
        <time>2021-12-05T08:03:24.000Z</time>
      </trkpt>
      <trkpt lat="47.26149" lon="-2.32073">
        <ele>-6.5999999046326</ele>
        <time>2021-12-05T08:03:25.000Z</time>
      </trkpt>
      <trkpt lat="47.26144" lon="-2.3209">
        <ele>-6.5999999046326</ele>
        <time>2021-12-05T08:03:28.000Z</time>
      </trkpt>
      <trkpt lat="47.26138" lon="-2.32113">
        <ele>-6.5999999046326</ele>
        <time>2021-12-05T08:03:32.000Z</time>
      </trkpt>
      <trkpt lat="47.26123" lon="-2.32158">
        <ele>-6.5999999046326</ele>
        <time>2021-12-05T08:03:40.000Z</time>
      </trkpt>
      <trkpt lat="47.26107" lon="-2.32197">
        <ele>-6.5999999046326</ele>
        <time>2021-12-05T08:03:47.000Z</time>
      </trkpt>
      <trkpt lat="47.26085" lon="-2.32234">
        <ele>-6.5999999046326</ele>
        <time>2021-12-05T08:03:54.000Z</time>
      </trkpt>
      <trkpt lat="47.26074" lon="-2.32248">
        <ele>-6.5999999046326</ele>
        <time>2021-12-05T08:03:57.000Z</time>
      </trkpt>
      <trkpt lat="47.26064" lon="-2.32262">
        <ele>-6.5999999046326</ele>
        <time>2021-12-05T08:04:00.000Z</time>
      </trkpt>
      <trkpt lat="47.26048" lon="-2.3228">
        <ele>-6.5999999046326</ele>
        <time>2021-12-05T08:04:04.000Z</time>
      </trkpt>
      <trkpt lat="47.26044" lon="-2.32283">
        <ele>-6.5999999046326</ele>
        <time>2021-12-05T08:04:05.000Z</time>
      </trkpt>
      <trkpt lat="47.26037" lon="-2.32292">
        <ele>-6.5999999046326</ele>
        <time>2021-12-05T08:04:07.000Z</time>
      </trkpt>
      <trkpt lat="47.26021" lon="-2.32311">
        <ele>-7</ele>
        <time>2021-12-05T08:04:11.000Z</time>
      </trkpt>
      <trkpt lat="47.26017" lon="-2.32315">
        <ele>-7.4000000953674</ele>
        <time>2021-12-05T08:04:12.000Z</time>
      </trkpt>
      <trkpt lat="47.26013" lon="-2.32319">
        <ele>-7.8000001907349</ele>
        <time>2021-12-05T08:04:13.000Z</time>
      </trkpt>
      <trkpt lat="47.26009" lon="-2.32324">
        <ele>-8.1999998092651</ele>
        <time>2021-12-05T08:04:14.000Z</time>
      </trkpt>
      <trkpt lat="47.26005" lon="-2.32329">
        <ele>-8.6000003814697</ele>
        <time>2021-12-05T08:04:15.000Z</time>
      </trkpt>
      <trkpt lat="47.2597" lon="-2.32371">
        <ele>-8.6000003814697</ele>
        <time>2021-12-05T08:04:24.000Z</time>
      </trkpt>
      <trkpt lat="47.25941" lon="-2.32414">
        <ele>-8.6000003814697</ele>
        <time>2021-12-05T08:04:33.000Z</time>
      </trkpt>
      <trkpt lat="47.25915" lon="-2.32446">
        <ele>-8.6000003814697</ele>
        <time>2021-12-05T08:04:40.000Z</time>
      </trkpt>
      <trkpt lat="47.25894" lon="-2.32469">
        <ele>-8.6000003814697</ele>
        <time>2021-12-05T08:04:46.000Z</time>
      </trkpt>
      <trkpt lat="47.25891" lon="-2.32472">
        <ele>-8.6000003814697</ele>
        <time>2021-12-05T08:04:47.000Z</time>
      </trkpt>
      <trkpt lat="47.25887" lon="-2.32474">
        <ele>-8.6000003814697</ele>
        <time>2021-12-05T08:04:48.000Z</time>
      </trkpt>
      <trkpt lat="47.2587" lon="-2.32479">
        <ele>-8.6000003814697</ele>
        <time>2021-12-05T08:04:52.000Z</time>
      </trkpt>
      <trkpt lat="47.25861" lon="-2.3248">
        <ele>-8.6000003814697</ele>
        <time>2021-12-05T08:04:54.000Z</time>
      </trkpt>
      <trkpt lat="47.25847" lon="-2.32477">
        <ele>-8.6000003814697</ele>
        <time>2021-12-05T08:04:57.000Z</time>
      </trkpt>
      <trkpt lat="47.25843" lon="-2.32475">
        <ele>-8.6000003814697</ele>
        <time>2021-12-05T08:04:58.000Z</time>
      </trkpt>
      <trkpt lat="47.25815" lon="-2.32462">
        <ele>-8.6000003814697</ele>
        <time>2021-12-05T08:05:04.000Z</time>
      </trkpt>
      <trkpt lat="47.25811" lon="-2.32461">
        <ele>-8.6000003814697</ele>
        <time>2021-12-05T08:05:05.000Z</time>
      </trkpt>
      <trkpt lat="47.25798" lon="-2.32462">
        <ele>-8.6000003814697</ele>
        <time>2021-12-05T08:05:08.000Z</time>
      </trkpt>
      <trkpt lat="47.25786" lon="-2.32458">
        <ele>-8.6000003814697</ele>
        <time>2021-12-05T08:05:11.000Z</time>
      </trkpt>
      <trkpt lat="47.25782" lon="-2.32454">
        <ele>-8.6000003814697</ele>
        <time>2021-12-05T08:05:12.000Z</time>
      </trkpt>
      <trkpt lat="47.2577" lon="-2.32433">
        <ele>-8.6000003814697</ele>
        <time>2021-12-05T08:05:16.000Z</time>
      </trkpt>
      <trkpt lat="47.25755" lon="-2.32428">
        <ele>-8.6000003814697</ele>
        <time>2021-12-05T08:05:19.000Z</time>
      </trkpt>
      <trkpt lat="47.25749" lon="-2.32428">
        <ele>-8.6000003814697</ele>
        <time>2021-12-05T08:05:20.000Z</time>
      </trkpt>
      <trkpt lat="47.25714" lon="-2.32427">
        <ele>-8.6000003814697</ele>
        <time>2021-12-05T08:05:26.000Z</time>
      </trkpt>
      <trkpt lat="47.25704" lon="-2.32425">
        <ele>-8.6000003814697</ele>
        <time>2021-12-05T08:05:28.000Z</time>
      </trkpt>
      <trkpt lat="47.25683" lon="-2.32424">
        <ele>-8.6000003814697</ele>
        <time>2021-12-05T08:05:32.000Z</time>
      </trkpt>
      <trkpt lat="47.25669" lon="-2.32424">
        <ele>-8.6000003814697</ele>
        <time>2021-12-05T08:05:35.000Z</time>
      </trkpt>
      <trkpt lat="47.25663" lon="-2.32434">
        <ele>-8.6000003814697</ele>
        <time>2021-12-05T08:05:37.000Z</time>
      </trkpt>
      <trkpt lat="47.25665" lon="-2.32452">
        <ele>-8.6000003814697</ele>
        <time>2021-12-05T08:05:40.000Z</time>
      </trkpt>
      <trkpt lat="47.25666" lon="-2.32458">
        <ele>-8.6000003814697</ele>
        <time>2021-12-05T08:05:41.000Z</time>
      </trkpt>
      <trkpt lat="47.25681" lon="-2.32501">
        <ele>-8.6000003814697</ele>
        <time>2021-12-05T08:05:49.000Z</time>
      </trkpt>
      <trkpt lat="47.25687" lon="-2.32523">
        <ele>-8.1999998092651</ele>
        <time>2021-12-05T08:05:53.000Z</time>
      </trkpt>
      <trkpt lat="47.25688" lon="-2.32529">
        <ele>-7.8000001907349</ele>
        <time>2021-12-05T08:05:54.000Z</time>
      </trkpt>
      <trkpt lat="47.2569" lon="-2.32534">
        <ele>-7.4000000953674</ele>
        <time>2021-12-05T08:05:55.000Z</time>
      </trkpt>
      <trkpt lat="47.25692" lon="-2.3254">
        <ele>-7</ele>
        <time>2021-12-05T08:05:56.000Z</time>
      </trkpt>
      <trkpt lat="47.25694" lon="-2.32545">
        <ele>-6.4000000953674</ele>
        <time>2021-12-05T08:05:57.000Z</time>
      </trkpt>
      <trkpt lat="47.25704" lon="-2.32575">
        <ele>-6.4000000953674</ele>
        <time>2021-12-05T08:06:03.000Z</time>
      </trkpt>
      <trkpt lat="47.25707" lon="-2.32586">
        <ele>-6</ele>
        <time>2021-12-05T08:06:05.000Z</time>
      </trkpt>
      <trkpt lat="47.25709" lon="-2.32592">
        <ele>-5.5999999046326</ele>
        <time>2021-12-05T08:06:06.000Z</time>
      </trkpt>
      <trkpt lat="47.2571" lon="-2.32597">
        <ele>-5.1999998092651</ele>
        <time>2021-12-05T08:06:07.000Z</time>
      </trkpt>
      <trkpt lat="47.25711" lon="-2.32602">
        <ele>-4.8000001907349</ele>
        <time>2021-12-05T08:06:08.000Z</time>
      </trkpt>
      <trkpt lat="47.25712" lon="-2.32608">
        <ele>-4.4000000953674</ele>
        <time>2021-12-05T08:06:09.000Z</time>
      </trkpt>
      <trkpt lat="47.25711" lon="-2.32613">
        <ele>-4.4000000953674</ele>
        <time>2021-12-05T08:06:10.000Z</time>
      </trkpt>
      <trkpt lat="47.25709" lon="-2.32619">
        <ele>-4.4000000953674</ele>
        <time>2021-12-05T08:06:11.000Z</time>
      </trkpt>
      <trkpt lat="47.25702" lon="-2.32626">
        <ele>-4.4000000953674</ele>
        <time>2021-12-05T08:06:13.000Z</time>
      </trkpt>
      <trkpt lat="47.25691" lon="-2.32632">
        <ele>-4.4000000953674</ele>
        <time>2021-12-05T08:06:16.000Z</time>
      </trkpt>
      <trkpt lat="47.25684" lon="-2.32635">
        <ele>-4.4000000953674</ele>
        <time>2021-12-05T08:06:18.000Z</time>
      </trkpt>
      <trkpt lat="47.25653" lon="-2.32649">
        <ele>-4.4000000953674</ele>
        <time>2021-12-05T08:06:26.000Z</time>
      </trkpt>
      <trkpt lat="47.25649" lon="-2.32651">
        <ele>-4.4000000953674</ele>
        <time>2021-12-05T08:06:27.000Z</time>
      </trkpt>
      <trkpt lat="47.25645" lon="-2.32653">
        <ele>-4</ele>
        <time>2021-12-05T08:06:28.000Z</time>
      </trkpt>
      <trkpt lat="47.25641" lon="-2.32654">
        <ele>-3.5999999046326</ele>
        <time>2021-12-05T08:06:29.000Z</time>
      </trkpt>
      <trkpt lat="47.25637" lon="-2.32656">
        <ele>-3.2000000476837</ele>
        <time>2021-12-05T08:06:30.000Z</time>
      </trkpt>
      <trkpt lat="47.25633" lon="-2.32657">
        <ele>-2.7999999523163</ele>
        <time>2021-12-05T08:06:31.000Z</time>
      </trkpt>
      <trkpt lat="47.25629" lon="-2.32659">
        <ele>-2.4000000953674</ele>
        <time>2021-12-05T08:06:32.000Z</time>
      </trkpt>
      <trkpt lat="47.25593" lon="-2.32676">
        <ele>-2.4000000953674</ele>
        <time>2021-12-05T08:06:41.000Z</time>
      </trkpt>
      <trkpt lat="47.25559" lon="-2.3269">
        <ele>-2.4000000953674</ele>
        <time>2021-12-05T08:06:49.000Z</time>
      </trkpt>
      <trkpt lat="47.25526" lon="-2.327">
        <ele>-2.4000000953674</ele>
        <time>2021-12-05T08:06:56.000Z</time>
      </trkpt>
      <trkpt lat="47.25507" lon="-2.32702">
        <ele>-2.4000000953674</ele>
        <time>2021-12-05T08:07:00.000Z</time>
      </trkpt>
      <trkpt lat="47.25498" lon="-2.32703">
        <ele>-2.4000000953674</ele>
        <time>2021-12-05T08:07:02.000Z</time>
      </trkpt>
      <trkpt lat="47.25489" lon="-2.32705">
        <ele>-2.4000000953674</ele>
        <time>2021-12-05T08:07:04.000Z</time>
      </trkpt>
      <trkpt lat="47.25475" lon="-2.32714">
        <ele>-2.4000000953674</ele>
        <time>2021-12-05T08:07:07.000Z</time>
      </trkpt>
      <trkpt lat="47.2546" lon="-2.32733">
        <ele>-2.4000000953674</ele>
        <time>2021-12-05T08:07:11.000Z</time>
      </trkpt>
      <trkpt lat="47.25457" lon="-2.32738">
        <ele>-2.4000000953674</ele>
        <time>2021-12-05T08:07:12.000Z</time>
      </trkpt>
      <trkpt lat="47.25453" lon="-2.32742">
        <ele>-2.4000000953674</ele>
        <time>2021-12-05T08:07:13.000Z</time>
      </trkpt>
      <trkpt lat="47.25435" lon="-2.32768">
        <ele>-2.4000000953674</ele>
        <time>2021-12-05T08:07:18.000Z</time>
      </trkpt>
      <trkpt lat="47.25434" lon="-2.32775">
        <ele>-2.4000000953674</ele>
        <time>2021-12-05T08:07:19.000Z</time>
      </trkpt>
      <trkpt lat="47.25429" lon="-2.32786">
        <ele>-2.4000000953674</ele>
        <time>2021-12-05T08:07:21.000Z</time>
      </trkpt>
      <trkpt lat="47.25419" lon="-2.32801">
        <ele>-2.4000000953674</ele>
        <time>2021-12-05T08:07:24.000Z</time>
      </trkpt>
      <trkpt lat="47.25415" lon="-2.32806">
        <ele>-2.4000000953674</ele>
        <time>2021-12-05T08:07:25.000Z</time>
      </trkpt>
      <trkpt lat="47.25408" lon="-2.32817">
        <ele>-2.4000000953674</ele>
        <time>2021-12-05T08:07:27.000Z</time>
      </trkpt>
      <trkpt lat="47.25397" lon="-2.32833">
        <ele>-2.4000000953674</ele>
        <time>2021-12-05T08:07:30.000Z</time>
      </trkpt>
      <trkpt lat="47.25385" lon="-2.32849">
        <ele>-2.7999999523163</ele>
        <time>2021-12-05T08:07:33.000Z</time>
      </trkpt>
      <trkpt lat="47.25381" lon="-2.32853">
        <ele>-3.2000000476837</ele>
        <time>2021-12-05T08:07:34.000Z</time>
      </trkpt>
      <trkpt lat="47.25376" lon="-2.32858">
        <ele>-3.5999999046326</ele>
        <time>2021-12-05T08:07:35.000Z</time>
      </trkpt>
      <trkpt lat="47.25373" lon="-2.32862">
        <ele>-4</ele>
        <time>2021-12-05T08:07:36.000Z</time>
      </trkpt>
      <trkpt lat="47.25368" lon="-2.32866">
        <ele>-4.5999999046326</ele>
        <time>2021-12-05T08:07:37.000Z</time>
      </trkpt>
      <trkpt lat="47.25335" lon="-2.32898">
        <ele>-4.5999999046326</ele>
        <time>2021-12-05T08:07:45.000Z</time>
      </trkpt>
      <trkpt lat="47.2531" lon="-2.32924">
        <ele>-4.5999999046326</ele>
        <time>2021-12-05T08:07:51.000Z</time>
      </trkpt>
      <trkpt lat="47.25308" lon="-2.3293">
        <ele>-4.5999999046326</ele>
        <time>2021-12-05T08:07:52.000Z</time>
      </trkpt>
      <trkpt lat="47.25309" lon="-2.32948">
        <ele>-4.5999999046326</ele>
        <time>2021-12-05T08:07:55.000Z</time>
      </trkpt>
      <trkpt lat="47.25316" lon="-2.32965">
        <ele>-4.5999999046326</ele>
        <time>2021-12-05T08:07:58.000Z</time>
      </trkpt>
      <trkpt lat="47.25319" lon="-2.32971">
        <ele>-4.5999999046326</ele>
        <time>2021-12-05T08:07:59.000Z</time>
      </trkpt>
      <trkpt lat="47.25339" lon="-2.3302">
        <ele>-4.5999999046326</ele>
        <time>2021-12-05T08:08:07.000Z</time>
      </trkpt>
      <trkpt lat="47.25357" lon="-2.33065">
        <ele>-4.5999999046326</ele>
        <time>2021-12-05T08:08:15.000Z</time>
      </trkpt>
      <trkpt lat="47.2536" lon="-2.33074">
        <ele>-4.5999999046326</ele>
        <time>2021-12-05T08:08:17.000Z</time>
      </trkpt>
      <trkpt lat="47.25365" lon="-2.3309">
        <ele>-4.5999999046326</ele>
        <time>2021-12-05T08:08:22.000Z</time>
      </trkpt>
      <trkpt lat="47.25365" lon="-2.33092">
        <ele>-5</ele>
        <time>2021-12-05T08:08:26.000Z</time>
      </trkpt>
      <trkpt lat="47.25369" lon="-2.33099">
        <ele>-6.5999999046326</ele>
        <time>2021-12-05T08:10:59.000Z</time>
      </trkpt>
      <trkpt lat="47.25371" lon="-2.33103">
        <ele>-6.5999999046326</ele>
        <time>2021-12-05T08:11:01.000Z</time>
      </trkpt>
      <trkpt lat="47.25375" lon="-2.33112">
        <ele>-6.5999999046326</ele>
        <time>2021-12-05T08:11:04.000Z</time>
      </trkpt>
      <trkpt lat="47.25388" lon="-2.33138">
        <ele>-6.5999999046326</ele>
        <time>2021-12-05T08:11:12.000Z</time>
      </trkpt>
      <trkpt lat="47.25391" lon="-2.33137">
        <ele>-6.5999999046326</ele>
        <time>2021-12-05T08:11:13.000Z</time>
      </trkpt>
      <trkpt lat="47.25397" lon="-2.33133">
        <ele>-6.5999999046326</ele>
        <time>2021-12-05T08:11:15.000Z</time>
      </trkpt>
      <trkpt lat="47.25412" lon="-2.33126">
        <ele>-6.5999999046326</ele>
        <time>2021-12-05T08:11:21.000Z</time>
      </trkpt>
      <trkpt lat="47.25433" lon="-2.33117">
        <ele>-6.5999999046326</ele>
        <time>2021-12-05T08:11:29.000Z</time>
      </trkpt>
      <trkpt lat="47.25436" lon="-2.33116">
        <ele>-7</ele>
        <time>2021-12-05T08:11:30.000Z</time>
      </trkpt>
      <trkpt lat="47.25439" lon="-2.33115">
        <ele>-7.4000000953674</ele>
        <time>2021-12-05T08:11:31.000Z</time>
      </trkpt>
      <trkpt lat="47.25442" lon="-2.33114">
        <ele>-7.8000001907349</ele>
        <time>2021-12-05T08:11:32.000Z</time>
      </trkpt>
      <trkpt lat="47.25445" lon="-2.33112">
        <ele>-8.1999998092651</ele>
        <time>2021-12-05T08:11:33.000Z</time>
      </trkpt>
      <trkpt lat="47.25448" lon="-2.33111">
        <ele>-8.6000003814697</ele>
        <time>2021-12-05T08:11:34.000Z</time>
      </trkpt>
      <trkpt lat="47.2546" lon="-2.33104">
        <ele>-8.6000003814697</ele>
        <time>2021-12-05T08:11:38.000Z</time>
      </trkpt>
      <trkpt lat="47.2548" lon="-2.33095">
        <ele>-8.6000003814697</ele>
        <time>2021-12-05T08:11:45.000Z</time>
      </trkpt>
      <trkpt lat="47.25494" lon="-2.3309">
        <ele>-8.6000003814697</ele>
        <time>2021-12-05T08:11:51.000Z</time>
      </trkpt>
      <trkpt lat="47.25496" lon="-2.33093">
        <ele>-8.6000003814697</ele>
        <time>2021-12-05T08:11:52.000Z</time>
      </trkpt>
      <trkpt lat="47.25498" lon="-2.33105">
        <ele>-8.6000003814697</ele>
        <time>2021-12-05T08:11:55.000Z</time>
      </trkpt>
      <trkpt lat="47.255" lon="-2.33114">
        <ele>-8.6000003814697</ele>
        <time>2021-12-05T08:11:57.000Z</time>
      </trkpt>
      <trkpt lat="47.25502" lon="-2.33139">
        <ele>-8.6000003814697</ele>
        <time>2021-12-05T08:12:02.000Z</time>
      </trkpt>
      <trkpt lat="47.25508" lon="-2.33184">
        <ele>-8.6000003814697</ele>
        <time>2021-12-05T08:12:11.000Z</time>
      </trkpt>
      <trkpt lat="47.25514" lon="-2.33228">
        <ele>-8.6000003814697</ele>
        <time>2021-12-05T08:12:19.000Z</time>
      </trkpt>
      <trkpt lat="47.2552" lon="-2.33271">
        <ele>-8.6000003814697</ele>
        <time>2021-12-05T08:12:27.000Z</time>
      </trkpt>
      <trkpt lat="47.25527" lon="-2.33319">
        <ele>-8.6000003814697</ele>
        <time>2021-12-05T08:12:35.000Z</time>
      </trkpt>
      <trkpt lat="47.25533" lon="-2.3337">
        <ele>-8.6000003814697</ele>
        <time>2021-12-05T08:12:44.000Z</time>
      </trkpt>
      <trkpt lat="47.25541" lon="-2.33416">
        <ele>-8.6000003814697</ele>
        <time>2021-12-05T08:12:52.000Z</time>
      </trkpt>
      <trkpt lat="47.25555" lon="-2.33459">
        <ele>-8.6000003814697</ele>
        <time>2021-12-05T08:13:00.000Z</time>
      </trkpt>
      <trkpt lat="47.25557" lon="-2.33464">
        <ele>-8.6000003814697</ele>
        <time>2021-12-05T08:13:01.000Z</time>
      </trkpt>
      <trkpt lat="47.25565" lon="-2.33476">
        <ele>-8.6000003814697</ele>
        <time>2021-12-05T08:13:04.000Z</time>
      </trkpt>
      <trkpt lat="47.25571" lon="-2.33486">
        <ele>-8.6000003814697</ele>
        <time>2021-12-05T08:13:06.000Z</time>
      </trkpt>
      <trkpt lat="47.25599" lon="-2.33524">
        <ele>-8.6000003814697</ele>
        <time>2021-12-05T08:13:15.000Z</time>
      </trkpt>
      <trkpt lat="47.25628" lon="-2.33552">
        <ele>-8.6000003814697</ele>
        <time>2021-12-05T08:13:23.000Z</time>
      </trkpt>
      <trkpt lat="47.25647" lon="-2.33564">
        <ele>-8.6000003814697</ele>
        <time>2021-12-05T08:13:28.000Z</time>
      </trkpt>
      <trkpt lat="47.25665" lon="-2.33574">
        <ele>-8.6000003814697</ele>
        <time>2021-12-05T08:13:33.000Z</time>
      </trkpt>
      <trkpt lat="47.25679" lon="-2.33577">
        <ele>-8.6000003814697</ele>
        <time>2021-12-05T08:13:36.000Z</time>
      </trkpt>
      <trkpt lat="47.25712" lon="-2.3358">
        <ele>-8.6000003814697</ele>
        <time>2021-12-05T08:13:44.000Z</time>
      </trkpt>
      <trkpt lat="47.25746" lon="-2.33578">
        <ele>-8.6000003814697</ele>
        <time>2021-12-05T08:13:52.000Z</time>
      </trkpt>
      <trkpt lat="47.25754" lon="-2.33577">
        <ele>-8.6000003814697</ele>
        <time>2021-12-05T08:13:54.000Z</time>
      </trkpt>
      <trkpt lat="47.25777" lon="-2.33576">
        <ele>-8.6000003814697</ele>
        <time>2021-12-05T08:13:59.000Z</time>
      </trkpt>
      <trkpt lat="47.25798" lon="-2.33575">
        <ele>-8.6000003814697</ele>
        <time>2021-12-05T08:14:04.000Z</time>
      </trkpt>
      <trkpt lat="47.25807" lon="-2.33574">
        <ele>-8.6000003814697</ele>
        <time>2021-12-05T08:14:06.000Z</time>
      </trkpt>
      <trkpt lat="47.25811" lon="-2.33574">
        <ele>-8.6000003814697</ele>
        <time>2021-12-05T08:14:07.000Z</time>
      </trkpt>
      <trkpt lat="47.25853" lon="-2.33572">
        <ele>-9</ele>
        <time>2021-12-05T08:14:16.000Z</time>
      </trkpt>
      <trkpt lat="47.25857" lon="-2.33571">
        <ele>-9.3999996185303</ele>
        <time>2021-12-05T08:14:17.000Z</time>
      </trkpt>
      <trkpt lat="47.25861" lon="-2.33571">
        <ele>-10</ele>
        <time>2021-12-05T08:14:18.000Z</time>
      </trkpt>
      <trkpt lat="47.25865" lon="-2.3357">
        <ele>-10.39999961853</ele>
        <time>2021-12-05T08:14:19.000Z</time>
      </trkpt>
      <trkpt lat="47.2587" lon="-2.33568">
        <ele>-10.800000190735</ele>
        <time>2021-12-05T08:14:20.000Z</time>
      </trkpt>
      <trkpt lat="47.25877" lon="-2.33564">
        <ele>-10.800000190735</ele>
        <time>2021-12-05T08:14:22.000Z</time>
      </trkpt>
      <trkpt lat="47.25886" lon="-2.3356">
        <ele>-10.800000190735</ele>
        <time>2021-12-05T08:14:24.000Z</time>
      </trkpt>
      <trkpt lat="47.25903" lon="-2.3355">
        <ele>-10.800000190735</ele>
        <time>2021-12-05T08:14:28.000Z</time>
      </trkpt>
      <trkpt lat="47.25907" lon="-2.33546">
        <ele>-10.800000190735</ele>
        <time>2021-12-05T08:14:29.000Z</time>
      </trkpt>
      <trkpt lat="47.25937" lon="-2.3352">
        <ele>-10.800000190735</ele>
        <time>2021-12-05T08:14:36.000Z</time>
      </trkpt>
      <trkpt lat="47.25946" lon="-2.33512">
        <ele>-11.199999809265</ele>
        <time>2021-12-05T08:14:38.000Z</time>
      </trkpt>
      <trkpt lat="47.2595" lon="-2.33508">
        <ele>-11.60000038147</ele>
        <time>2021-12-05T08:14:39.000Z</time>
      </trkpt>
      <trkpt lat="47.25954" lon="-2.33504">
        <ele>-12</ele>
        <time>2021-12-05T08:14:40.000Z</time>
      </trkpt>
      <trkpt lat="47.25959" lon="-2.335">
        <ele>-12.39999961853</ele>
        <time>2021-12-05T08:14:41.000Z</time>
      </trkpt>
      <trkpt lat="47.25963" lon="-2.33497">
        <ele>-12.800000190735</ele>
        <time>2021-12-05T08:14:42.000Z</time>
      </trkpt>
      <trkpt lat="47.25968" lon="-2.33496">
        <ele>-12.800000190735</ele>
        <time>2021-12-05T08:14:43.000Z</time>
      </trkpt>
      <trkpt lat="47.26007" lon="-2.3349">
        <ele>-12.800000190735</ele>
        <time>2021-12-05T08:14:51.000Z</time>
      </trkpt>
      <trkpt lat="47.26024" lon="-2.33483">
        <ele>-12.800000190735</ele>
        <time>2021-12-05T08:14:55.000Z</time>
      </trkpt>
      <trkpt lat="47.26031" lon="-2.33477">
        <ele>-12.800000190735</ele>
        <time>2021-12-05T08:14:57.000Z</time>
      </trkpt>
      <trkpt lat="47.26035" lon="-2.33474">
        <ele>-12.800000190735</ele>
        <time>2021-12-05T08:14:58.000Z</time>
      </trkpt>
      <trkpt lat="47.26042" lon="-2.33458">
        <ele>-12.800000190735</ele>
        <time>2021-12-05T08:15:01.000Z</time>
      </trkpt>
      <trkpt lat="47.26045" lon="-2.33453">
        <ele>-12.800000190735</ele>
        <time>2021-12-05T08:15:02.000Z</time>
      </trkpt>
      <trkpt lat="47.26057" lon="-2.33435">
        <ele>-12.800000190735</ele>
        <time>2021-12-05T08:15:06.000Z</time>
      </trkpt>
      <trkpt lat="47.2606" lon="-2.33429">
        <ele>-12.800000190735</ele>
        <time>2021-12-05T08:15:07.000Z</time>
      </trkpt>
      <trkpt lat="47.26073" lon="-2.33408">
        <ele>-12.800000190735</ele>
        <time>2021-12-05T08:15:11.000Z</time>
      </trkpt>
      <trkpt lat="47.26076" lon="-2.33405">
        <ele>-12.800000190735</ele>
        <time>2021-12-05T08:15:12.000Z</time>
      </trkpt>
      <trkpt lat="47.2608" lon="-2.33403">
        <ele>-12.800000190735</ele>
        <time>2021-12-05T08:15:13.000Z</time>
      </trkpt>
      <trkpt lat="47.26092" lon="-2.33404">
        <ele>-12.800000190735</ele>
        <time>2021-12-05T08:15:15.000Z</time>
      </trkpt>
      <trkpt lat="47.26109" lon="-2.33414">
        <ele>-12.800000190735</ele>
        <time>2021-12-05T08:15:19.000Z</time>
      </trkpt>
      <trkpt lat="47.26112" lon="-2.33419">
        <ele>-12.800000190735</ele>
        <time>2021-12-05T08:15:20.000Z</time>
      </trkpt>
      <trkpt lat="47.26123" lon="-2.33432">
        <ele>-12.800000190735</ele>
        <time>2021-12-05T08:15:23.000Z</time>
      </trkpt>
      <trkpt lat="47.26131" lon="-2.33436">
        <ele>-12.800000190735</ele>
        <time>2021-12-05T08:15:25.000Z</time>
      </trkpt>
      <trkpt lat="47.2614" lon="-2.33433">
        <ele>-12.800000190735</ele>
        <time>2021-12-05T08:15:27.000Z</time>
      </trkpt>
      <trkpt lat="47.26144" lon="-2.33432">
        <ele>-12.800000190735</ele>
        <time>2021-12-05T08:15:28.000Z</time>
      </trkpt>
      <trkpt lat="47.26163" lon="-2.33439">
        <ele>-12.800000190735</ele>
        <time>2021-12-05T08:15:32.000Z</time>
      </trkpt>
      <trkpt lat="47.26196" lon="-2.33442">
        <ele>-12.800000190735</ele>
        <time>2021-12-05T08:15:38.000Z</time>
      </trkpt>
      <trkpt lat="47.26234" lon="-2.33434">
        <ele>-12.800000190735</ele>
        <time>2021-12-05T08:15:45.000Z</time>
      </trkpt>
      <trkpt lat="47.26275" lon="-2.33425">
        <ele>-12.800000190735</ele>
        <time>2021-12-05T08:15:53.000Z</time>
      </trkpt>
      <trkpt lat="47.2629" lon="-2.33423">
        <ele>-12.800000190735</ele>
        <time>2021-12-05T08:15:56.000Z</time>
      </trkpt>
      <trkpt lat="47.2631" lon="-2.33419">
        <ele>-12.800000190735</ele>
        <time>2021-12-05T08:16:00.000Z</time>
      </trkpt>
      <trkpt lat="47.26325" lon="-2.33403">
        <ele>-12.800000190735</ele>
        <time>2021-12-05T08:16:04.000Z</time>
      </trkpt>
      <trkpt lat="47.26339" lon="-2.33394">
        <ele>-12.800000190735</ele>
        <time>2021-12-05T08:16:07.000Z</time>
      </trkpt>
      <trkpt lat="47.26349" lon="-2.3339">
        <ele>-12.800000190735</ele>
        <time>2021-12-05T08:16:09.000Z</time>
      </trkpt>
      <trkpt lat="47.26388" lon="-2.33367">
        <ele>-12.800000190735</ele>
        <time>2021-12-05T08:16:17.000Z</time>
      </trkpt>
      <trkpt lat="47.26434" lon="-2.33335">
        <ele>-12.800000190735</ele>
        <time>2021-12-05T08:16:27.000Z</time>
      </trkpt>
      <trkpt lat="47.26473" lon="-2.33305">
        <ele>-12.800000190735</ele>
        <time>2021-12-05T08:16:36.000Z</time>
      </trkpt>
      <trkpt lat="47.26486" lon="-2.33299">
        <ele>-12.800000190735</ele>
        <time>2021-12-05T08:16:39.000Z</time>
      </trkpt>
      <trkpt lat="47.26497" lon="-2.33293">
        <ele>-12.800000190735</ele>
        <time>2021-12-05T08:16:42.000Z</time>
      </trkpt>
      <trkpt lat="47.26501" lon="-2.33292">
        <ele>-12.800000190735</ele>
        <time>2021-12-05T08:16:43.000Z</time>
      </trkpt>
      <trkpt lat="47.26514" lon="-2.33293">
        <ele>-12.800000190735</ele>
        <time>2021-12-05T08:16:46.000Z</time>
      </trkpt>
      <trkpt lat="47.26526" lon="-2.33312">
        <ele>-12.800000190735</ele>
        <time>2021-12-05T08:16:50.000Z</time>
      </trkpt>
      <trkpt lat="47.26527" lon="-2.33332">
        <ele>-12.800000190735</ele>
        <time>2021-12-05T08:16:53.000Z</time>
      </trkpt>
      <trkpt lat="47.26527" lon="-2.3334">
        <ele>-12.800000190735</ele>
        <time>2021-12-05T08:16:54.000Z</time>
      </trkpt>
      <trkpt lat="47.26527" lon="-2.33347">
        <ele>-12.800000190735</ele>
        <time>2021-12-05T08:16:55.000Z</time>
      </trkpt>
      <trkpt lat="47.26532" lon="-2.33368">
        <ele>-12.800000190735</ele>
        <time>2021-12-05T08:16:58.000Z</time>
      </trkpt>
      <trkpt lat="47.26534" lon="-2.33375">
        <ele>-12.800000190735</ele>
        <time>2021-12-05T08:16:59.000Z</time>
      </trkpt>
      <trkpt lat="47.26542" lon="-2.33408">
        <ele>-12.800000190735</ele>
        <time>2021-12-05T08:17:05.000Z</time>
      </trkpt>
      <trkpt lat="47.26548" lon="-2.3344">
        <ele>-12.800000190735</ele>
        <time>2021-12-05T08:17:12.000Z</time>
      </trkpt>
      <trkpt lat="47.26556" lon="-2.33485">
        <ele>-12.800000190735</ele>
        <time>2021-12-05T08:17:19.000Z</time>
      </trkpt>
      <trkpt lat="47.26557" lon="-2.33492">
        <ele>-13.199999809265</ele>
        <time>2021-12-05T08:17:20.000Z</time>
      </trkpt>
      <trkpt lat="47.26559" lon="-2.33498">
        <ele>-13.60000038147</ele>
        <time>2021-12-05T08:17:21.000Z</time>
      </trkpt>
      <trkpt lat="47.26561" lon="-2.33504">
        <ele>-14</ele>
        <time>2021-12-05T08:17:22.000Z</time>
      </trkpt>
      <trkpt lat="47.26563" lon="-2.3351">
        <ele>-14.39999961853</ele>
        <time>2021-12-05T08:17:23.000Z</time>
      </trkpt>
      <trkpt lat="47.26565" lon="-2.33515">
        <ele>-14.800000190735</ele>
        <time>2021-12-05T08:17:24.000Z</time>
      </trkpt>
      <trkpt lat="47.26566" lon="-2.33522">
        <ele>-14.800000190735</ele>
        <time>2021-12-05T08:17:25.000Z</time>
      </trkpt>
      <trkpt lat="47.26569" lon="-2.33548">
        <ele>-14.800000190735</ele>
        <time>2021-12-05T08:17:29.000Z</time>
      </trkpt>
      <trkpt lat="47.26574" lon="-2.33595">
        <ele>-14.800000190735</ele>
        <time>2021-12-05T08:17:36.000Z</time>
      </trkpt>
      <trkpt lat="47.26578" lon="-2.33614">
        <ele>-14.800000190735</ele>
        <time>2021-12-05T08:17:39.000Z</time>
      </trkpt>
      <trkpt lat="47.26578" lon="-2.3362">
        <ele>-14.39999961853</ele>
        <time>2021-12-05T08:17:40.000Z</time>
      </trkpt>
      <trkpt lat="47.26579" lon="-2.33626">
        <ele>-14</ele>
        <time>2021-12-05T08:17:41.000Z</time>
      </trkpt>
      <trkpt lat="47.26579" lon="-2.33633">
        <ele>-13.60000038147</ele>
        <time>2021-12-05T08:17:42.000Z</time>
      </trkpt>
      <trkpt lat="47.26579" lon="-2.33639">
        <ele>-13.199999809265</ele>
        <time>2021-12-05T08:17:43.000Z</time>
      </trkpt>
      <trkpt lat="47.26579" lon="-2.33646">
        <ele>-12.800000190735</ele>
        <time>2021-12-05T08:17:44.000Z</time>
      </trkpt>
      <trkpt lat="47.26582" lon="-2.33664">
        <ele>-12.800000190735</ele>
        <time>2021-12-05T08:17:47.000Z</time>
      </trkpt>
      <trkpt lat="47.26587" lon="-2.33673">
        <ele>-12.800000190735</ele>
        <time>2021-12-05T08:17:49.000Z</time>
      </trkpt>
      <trkpt lat="47.26595" lon="-2.33687">
        <ele>-12.800000190735</ele>
        <time>2021-12-05T08:17:52.000Z</time>
      </trkpt>
      <trkpt lat="47.26598" lon="-2.33691">
        <ele>-12.800000190735</ele>
        <time>2021-12-05T08:17:53.000Z</time>
      </trkpt>
      <trkpt lat="47.26605" lon="-2.33697">
        <ele>-12.39999961853</ele>
        <time>2021-12-05T08:17:55.000Z</time>
      </trkpt>
      <trkpt lat="47.26609" lon="-2.33699">
        <ele>-11.60000038147</ele>
        <time>2021-12-05T08:17:56.000Z</time>
      </trkpt>
      <trkpt lat="47.26613" lon="-2.337">
        <ele>-11.199999809265</ele>
        <time>2021-12-05T08:17:57.000Z</time>
      </trkpt>
      <trkpt lat="47.26617" lon="-2.337">
        <ele>-10.800000190735</ele>
        <time>2021-12-05T08:17:58.000Z</time>
      </trkpt>
      <trkpt lat="47.26643" lon="-2.33701">
        <ele>-10.800000190735</ele>
        <time>2021-12-05T08:18:03.000Z</time>
      </trkpt>
      <trkpt lat="47.26647" lon="-2.33701">
        <ele>-10.800000190735</ele>
        <time>2021-12-05T08:18:04.000Z</time>
      </trkpt>
      <trkpt lat="47.26677" lon="-2.33701">
        <ele>-10.800000190735</ele>
        <time>2021-12-05T08:18:10.000Z</time>
      </trkpt>
      <trkpt lat="47.26719" lon="-2.33699">
        <ele>-10.800000190735</ele>
        <time>2021-12-05T08:18:18.000Z</time>
      </trkpt>
      <trkpt lat="47.2675" lon="-2.33699">
        <ele>-10.800000190735</ele>
        <time>2021-12-05T08:18:24.000Z</time>
      </trkpt>
      <trkpt lat="47.26755" lon="-2.337">
        <ele>-10.800000190735</ele>
        <time>2021-12-05T08:18:25.000Z</time>
      </trkpt>
      <trkpt lat="47.26768" lon="-2.33701">
        <ele>-10.800000190735</ele>
        <time>2021-12-05T08:18:28.000Z</time>
      </trkpt>
      <trkpt lat="47.26776" lon="-2.33697">
        <ele>-10.800000190735</ele>
        <time>2021-12-05T08:18:30.000Z</time>
      </trkpt>
      <trkpt lat="47.26779" lon="-2.3368">
        <ele>-10.800000190735</ele>
        <time>2021-12-05T08:18:33.000Z</time>
      </trkpt>
      <trkpt lat="47.26779" lon="-2.33657">
        <ele>-10.800000190735</ele>
        <time>2021-12-05T08:18:36.000Z</time>
      </trkpt>
      <trkpt lat="47.26779" lon="-2.33641">
        <ele>-10.800000190735</ele>
        <time>2021-12-05T08:18:38.000Z</time>
      </trkpt>
      <trkpt lat="47.26779" lon="-2.33616">
        <ele>-11.199999809265</ele>
        <time>2021-12-05T08:18:41.000Z</time>
      </trkpt>
      <trkpt lat="47.26779" lon="-2.33607">
        <ele>-11.60000038147</ele>
        <time>2021-12-05T08:18:42.000Z</time>
      </trkpt>
      <trkpt lat="47.26779" lon="-2.33599">
        <ele>-12.199999809265</ele>
        <time>2021-12-05T08:18:43.000Z</time>
      </trkpt>
      <trkpt lat="47.26779" lon="-2.3359">
        <ele>-13</ele>
        <time>2021-12-05T08:18:44.000Z</time>
      </trkpt>
      <trkpt lat="47.2678" lon="-2.33582">
        <ele>-13</ele>
        <time>2021-12-05T08:18:45.000Z</time>
      </trkpt>
      <trkpt lat="47.26781" lon="-2.33575">
        <ele>-13</ele>
        <time>2021-12-05T08:18:46.000Z</time>
      </trkpt>
      <trkpt lat="47.26788" lon="-2.33565">
        <ele>-13</ele>
        <time>2021-12-05T08:18:48.000Z</time>
      </trkpt>
      <trkpt lat="47.26797" lon="-2.33562">
        <ele>-13</ele>
        <time>2021-12-05T08:18:50.000Z</time>
      </trkpt>
      <trkpt lat="47.26806" lon="-2.33558">
        <ele>-13</ele>
        <time>2021-12-05T08:18:52.000Z</time>
      </trkpt>
      <trkpt lat="47.2683" lon="-2.3355">
        <ele>-13</ele>
        <time>2021-12-05T08:18:57.000Z</time>
      </trkpt>
      <trkpt lat="47.26839" lon="-2.33547">
        <ele>-13</ele>
        <time>2021-12-05T08:18:59.000Z</time>
      </trkpt>
      <trkpt lat="47.26858" lon="-2.33538">
        <ele>-13</ele>
        <time>2021-12-05T08:19:03.000Z</time>
      </trkpt>
      <trkpt lat="47.26863" lon="-2.33536">
        <ele>-13</ele>
        <time>2021-12-05T08:19:04.000Z</time>
      </trkpt>
      <trkpt lat="47.26878" lon="-2.33534">
        <ele>-13</ele>
        <time>2021-12-05T08:19:07.000Z</time>
      </trkpt>
      <trkpt lat="47.26886" lon="-2.33528">
        <ele>-13</ele>
        <time>2021-12-05T08:19:09.000Z</time>
      </trkpt>
      <trkpt lat="47.26889" lon="-2.33512">
        <ele>-13</ele>
        <time>2021-12-05T08:19:12.000Z</time>
      </trkpt>
      <trkpt lat="47.26887" lon="-2.33501">
        <ele>-13</ele>
        <time>2021-12-05T08:19:14.000Z</time>
      </trkpt>
      <trkpt lat="47.26886" lon="-2.33497">
        <ele>-12.60000038147</ele>
        <time>2021-12-05T08:19:15.000Z</time>
      </trkpt>
      <trkpt lat="47.26885" lon="-2.33492">
        <ele>-12.199999809265</ele>
        <time>2021-12-05T08:19:16.000Z</time>
      </trkpt>
      <trkpt lat="47.26885" lon="-2.33487">
        <ele>-11.800000190735</ele>
        <time>2021-12-05T08:19:17.000Z</time>
      </trkpt>
      <trkpt lat="47.26884" lon="-2.33482">
        <ele>-11.39999961853</ele>
        <time>2021-12-05T08:19:18.000Z</time>
      </trkpt>
      <trkpt lat="47.26884" lon="-2.33478">
        <ele>-11</ele>
        <time>2021-12-05T08:19:19.000Z</time>
      </trkpt>
      <trkpt lat="47.26882" lon="-2.3347">
        <ele>-10.39999961853</ele>
        <time>2021-12-05T08:19:21.000Z</time>
      </trkpt>
      <trkpt lat="47.26882" lon="-2.33465">
        <ele>-10</ele>
        <time>2021-12-05T08:19:22.000Z</time>
      </trkpt>
      <trkpt lat="47.26881" lon="-2.33461">
        <ele>-9.6000003814697</ele>
        <time>2021-12-05T08:19:23.000Z</time>
      </trkpt>
      <trkpt lat="47.2688" lon="-2.33457">
        <ele>-9.1999998092651</ele>
        <time>2021-12-05T08:19:24.000Z</time>
      </trkpt>
      <trkpt lat="47.2688" lon="-2.33453">
        <ele>-8.8000001907349</ele>
        <time>2021-12-05T08:19:25.000Z</time>
      </trkpt>
      <trkpt lat="47.26879" lon="-2.33443">
        <ele>-8.1999998092651</ele>
        <time>2021-12-05T08:19:28.000Z</time>
      </trkpt>
      <trkpt lat="47.26879" lon="-2.33439">
        <ele>-7.8000001907349</ele>
        <time>2021-12-05T08:19:29.000Z</time>
      </trkpt>
      <trkpt lat="47.2688" lon="-2.33436">
        <ele>-7.4000000953674</ele>
        <time>2021-12-05T08:19:30.000Z</time>
      </trkpt>
      <trkpt lat="47.2688" lon="-2.33432">
        <ele>-7</ele>
        <time>2021-12-05T08:19:31.000Z</time>
      </trkpt>
      <trkpt lat="47.26881" lon="-2.33429">
        <ele>-6.4000000953674</ele>
        <time>2021-12-05T08:19:32.000Z</time>
      </trkpt>
      <trkpt lat="47.26883" lon="-2.33424">
        <ele>-6</ele>
        <time>2021-12-05T08:19:34.000Z</time>
      </trkpt>
      <trkpt lat="47.26884" lon="-2.33421">
        <ele>-5.5999999046326</ele>
        <time>2021-12-05T08:19:35.000Z</time>
      </trkpt>
      <trkpt lat="47.26886" lon="-2.33419">
        <ele>-5.1999998092651</ele>
        <time>2021-12-05T08:19:36.000Z</time>
      </trkpt>
      <trkpt lat="47.26887" lon="-2.33417">
        <ele>-4.8000001907349</ele>
        <time>2021-12-05T08:19:37.000Z</time>
      </trkpt>
      <trkpt lat="47.26889" lon="-2.33416">
        <ele>-4.4000000953674</ele>
        <time>2021-12-05T08:19:38.000Z</time>
      </trkpt>
      <trkpt lat="47.26891" lon="-2.33414">
        <ele>-4.4000000953674</ele>
        <time>2021-12-05T08:19:39.000Z</time>
      </trkpt>
      <trkpt lat="47.26898" lon="-2.33411">
        <ele>-3.7999999523163</ele>
        <time>2021-12-05T08:19:42.000Z</time>
      </trkpt>
      <trkpt lat="47.269" lon="-2.3341">
        <ele>-3.4000000953674</ele>
        <time>2021-12-05T08:19:43.000Z</time>
      </trkpt>
      <trkpt lat="47.26903" lon="-2.33409">
        <ele>-3</ele>
        <time>2021-12-05T08:19:44.000Z</time>
      </trkpt>
      <trkpt lat="47.26905" lon="-2.33408">
        <ele>-2.5999999046326</ele>
        <time>2021-12-05T08:19:45.000Z</time>
      </trkpt>
      <trkpt lat="47.26908" lon="-2.33406">
        <ele>-2</ele>
        <time>2021-12-05T08:19:46.000Z</time>
      </trkpt>
      <trkpt lat="47.26915" lon="-2.33403">
        <ele>-2</ele>
        <time>2021-12-05T08:19:49.000Z</time>
      </trkpt>
      <trkpt lat="47.26934" lon="-2.33392">
        <ele>-1.2000000476837</ele>
        <time>2021-12-05T08:19:57.000Z</time>
      </trkpt>
      <trkpt lat="47.26937" lon="-2.3339">
        <ele>-0.80000001192093</ele>
        <time>2021-12-05T08:19:58.000Z</time>
      </trkpt>
      <trkpt lat="47.2694" lon="-2.33389">
        <ele>-0.40000000596046</ele>
        <time>2021-12-05T08:19:59.000Z</time>
      </trkpt>
      <trkpt lat="47.26943" lon="-2.33388">
        <ele>19</ele>
        <time>2021-12-05T08:20:00.000Z</time>
      </trkpt>
      <trkpt lat="47.26959" lon="-2.33381">
        <ele>19.7</ele>
        <time>2021-12-05T08:20:06.000Z</time>
      </trkpt>
      <trkpt lat="47.2697" lon="-2.33373">
        <ele>20</ele>
        <time>2021-12-05T08:20:11.000Z</time>
      </trkpt>
      <trkpt lat="47.2697" lon="-2.33369">
        <ele>20</ele>
        <time>2021-12-05T08:20:12.000Z</time>
      </trkpt>
      <trkpt lat="47.26966" lon="-2.33356">
        <ele>20.2</ele>
        <time>2021-12-05T08:20:15.000Z</time>
      </trkpt>
      <trkpt lat="47.26963" lon="-2.33345">
        <ele>20.4</ele>
        <time>2021-12-05T08:20:17.000Z</time>
      </trkpt>
      <trkpt lat="47.2695" lon="-2.33305">
        <ele>20.2</ele>
        <time>2021-12-05T08:20:24.000Z</time>
      </trkpt>
      <trkpt lat="47.26933" lon="-2.33252">
        <ele>19.6</ele>
        <time>2021-12-05T08:20:33.000Z</time>
      </trkpt>
      <trkpt lat="47.2693" lon="-2.33241">
        <ele>19.6</ele>
        <time>2021-12-05T08:20:35.000Z</time>
      </trkpt>
      <trkpt lat="47.26931" lon="-2.33225">
        <ele>20</ele>
        <time>2021-12-05T08:20:38.000Z</time>
      </trkpt>
      <trkpt lat="47.26945" lon="-2.33215">
        <ele>20</ele>
        <time>2021-12-05T08:20:42.000Z</time>
      </trkpt>
      <trkpt lat="47.26965" lon="-2.33202">
        <ele>0.40000000596046</ele>
        <time>2021-12-05T08:20:47.000Z</time>
      </trkpt>
      <trkpt lat="47.26968" lon="-2.33199">
        <ele>0.80000001192093</ele>
        <time>2021-12-05T08:20:48.000Z</time>
      </trkpt>
      <trkpt lat="47.26972" lon="-2.33195">
        <ele>1.2000000476837</ele>
        <time>2021-12-05T08:20:49.000Z</time>
      </trkpt>
      <trkpt lat="47.26975" lon="-2.33191">
        <ele>1.6000000238419</ele>
        <time>2021-12-05T08:20:50.000Z</time>
      </trkpt>
      <trkpt lat="47.26979" lon="-2.33187">
        <ele>2</ele>
        <time>2021-12-05T08:20:51.000Z</time>
      </trkpt>
      <trkpt lat="47.26987" lon="-2.33177">
        <ele>2</ele>
        <time>2021-12-05T08:20:53.000Z</time>
      </trkpt>
      <trkpt lat="47.26991" lon="-2.33173">
        <ele>2</ele>
        <time>2021-12-05T08:20:54.000Z</time>
      </trkpt>
      <trkpt lat="47.27025" lon="-2.33143">
        <ele>2</ele>
        <time>2021-12-05T08:21:02.000Z</time>
      </trkpt>
      <trkpt lat="47.27069" lon="-2.33098">
        <ele>2</ele>
        <time>2021-12-05T08:21:12.000Z</time>
      </trkpt>
      <trkpt lat="47.27098" lon="-2.33068">
        <ele>2</ele>
        <time>2021-12-05T08:21:19.000Z</time>
      </trkpt>
      <trkpt lat="47.27136" lon="-2.33038">
        <ele>2</ele>
        <time>2021-12-05T08:21:27.000Z</time>
      </trkpt>
      <trkpt lat="47.27145" lon="-2.33031">
        <ele>2</ele>
        <time>2021-12-05T08:21:29.000Z</time>
      </trkpt>
      <trkpt lat="47.27177" lon="-2.33006">
        <ele>2</ele>
        <time>2021-12-05T08:21:36.000Z</time>
      </trkpt>
      <trkpt lat="47.2721" lon="-2.32984">
        <ele>2</ele>
        <time>2021-12-05T08:21:43.000Z</time>
      </trkpt>
      <trkpt lat="47.27217" lon="-2.32984">
        <ele>2</ele>
        <time>2021-12-05T08:21:45.000Z</time>
      </trkpt>
      <trkpt lat="47.27221" lon="-2.32987">
        <ele>2</ele>
        <time>2021-12-05T08:21:46.000Z</time>
      </trkpt>
      <trkpt lat="47.2723" lon="-2.33001">
        <ele>2</ele>
        <time>2021-12-05T08:21:49.000Z</time>
      </trkpt>
      <trkpt lat="47.27232" lon="-2.33007">
        <ele>2</ele>
        <time>2021-12-05T08:21:50.000Z</time>
      </trkpt>
      <trkpt lat="47.27259" lon="-2.33052">
        <ele>2</ele>
        <time>2021-12-05T08:21:59.000Z</time>
      </trkpt>
      <trkpt lat="47.27279" lon="-2.3308">
        <ele>2</ele>
        <time>2021-12-05T08:22:06.000Z</time>
      </trkpt>
      <trkpt lat="47.27295" lon="-2.33101">
        <ele>2</ele>
        <time>2021-12-05T08:22:11.000Z</time>
      </trkpt>
      <trkpt lat="47.27298" lon="-2.33104">
        <ele>2</ele>
        <time>2021-12-05T08:22:12.000Z</time>
      </trkpt>
      <trkpt lat="47.27311" lon="-2.33104">
        <ele>2</ele>
        <time>2021-12-05T08:22:15.000Z</time>
      </trkpt>
      <trkpt lat="47.27323" lon="-2.33092">
        <ele>2</ele>
        <time>2021-12-05T08:22:19.000Z</time>
      </trkpt>
      <trkpt lat="47.27325" lon="-2.33087">
        <ele>2</ele>
        <time>2021-12-05T08:22:20.000Z</time>
      </trkpt>
      <trkpt lat="47.27336" lon="-2.33055">
        <ele>2</ele>
        <time>2021-12-05T08:22:25.000Z</time>
      </trkpt>
      <trkpt lat="47.27351" lon="-2.3301">
        <ele>2</ele>
        <time>2021-12-05T08:22:32.000Z</time>
      </trkpt>
      <trkpt lat="47.2737" lon="-2.32965">
        <ele>2</ele>
        <time>2021-12-05T08:22:40.000Z</time>
      </trkpt>
      <trkpt lat="47.27385" lon="-2.32937">
        <ele>2</ele>
        <time>2021-12-05T08:22:45.000Z</time>
      </trkpt>
      <trkpt lat="47.27389" lon="-2.32934">
        <ele>2</ele>
        <time>2021-12-05T08:22:46.000Z</time>
      </trkpt>
      <trkpt lat="47.274" lon="-2.32934">
        <ele>2</ele>
        <time>2021-12-05T08:22:50.000Z</time>
      </trkpt>
      <trkpt lat="47.27407" lon="-2.32949">
        <ele>2</ele>
        <time>2021-12-05T08:22:54.000Z</time>
      </trkpt>
      <trkpt lat="47.27409" lon="-2.32954">
        <ele>2</ele>
        <time>2021-12-05T08:22:55.000Z</time>
      </trkpt>
      <trkpt lat="47.27419" lon="-2.32988">
        <ele>2</ele>
        <time>2021-12-05T08:23:01.000Z</time>
      </trkpt>
      <trkpt lat="47.27421" lon="-2.32994">
        <ele>2</ele>
        <time>2021-12-05T08:23:02.000Z</time>
      </trkpt>
      <trkpt lat="47.27432" lon="-2.33036">
        <ele>2</ele>
        <time>2021-12-05T08:23:09.000Z</time>
      </trkpt>
      <trkpt lat="47.27434" lon="-2.33041">
        <ele>2.5999999046326</ele>
        <time>2021-12-05T08:23:10.000Z</time>
      </trkpt>
      <trkpt lat="47.27436" lon="-2.33045">
        <ele>3</ele>
        <time>2021-12-05T08:23:11.000Z</time>
      </trkpt>
      <trkpt lat="47.27439" lon="-2.33048">
        <ele>3.4000000953674</ele>
        <time>2021-12-05T08:23:12.000Z</time>
      </trkpt>
      <trkpt lat="47.27442" lon="-2.33048">
        <ele>3.7999999523163</ele>
        <time>2021-12-05T08:23:13.000Z</time>
      </trkpt>
      <trkpt lat="47.27446" lon="-2.33048">
        <ele>4.1999998092651</ele>
        <time>2021-12-05T08:23:14.000Z</time>
      </trkpt>
      <trkpt lat="47.27457" lon="-2.33042">
        <ele>4.1999998092651</ele>
        <time>2021-12-05T08:23:17.000Z</time>
      </trkpt>
      <trkpt lat="47.27469" lon="-2.33021">
        <ele>4.1999998092651</ele>
        <time>2021-12-05T08:23:21.000Z</time>
      </trkpt>
      <trkpt lat="47.27471" lon="-2.33014">
        <ele>4.1999998092651</ele>
        <time>2021-12-05T08:23:22.000Z</time>
      </trkpt>
      <trkpt lat="47.27489" lon="-2.3296">
        <ele>3.7999999523163</ele>
        <time>2021-12-05T08:23:29.000Z</time>
      </trkpt>
      <trkpt lat="47.27492" lon="-2.32952">
        <ele>3.4000000953674</ele>
        <time>2021-12-05T08:23:30.000Z</time>
      </trkpt>
      <trkpt lat="47.27495" lon="-2.32943">
        <ele>3</ele>
        <time>2021-12-05T08:23:31.000Z</time>
      </trkpt>
      <trkpt lat="47.27498" lon="-2.32934">
        <ele>2.5999999046326</ele>
        <time>2021-12-05T08:23:32.000Z</time>
      </trkpt>
      <trkpt lat="47.275" lon="-2.32925">
        <ele>2.2000000476837</ele>
        <time>2021-12-05T08:23:33.000Z</time>
      </trkpt>
      <trkpt lat="47.27508" lon="-2.32898">
        <ele>2.2000000476837</ele>
        <time>2021-12-05T08:23:36.000Z</time>
      </trkpt>
      <trkpt lat="47.2751" lon="-2.32889">
        <ele>1.6000000238419</ele>
        <time>2021-12-05T08:23:37.000Z</time>
      </trkpt>
      <trkpt lat="47.27514" lon="-2.3288">
        <ele>1.2000000476837</ele>
        <time>2021-12-05T08:23:38.000Z</time>
      </trkpt>
      <trkpt lat="47.27518" lon="-2.32872">
        <ele>0.80000001192093</ele>
        <time>2021-12-05T08:23:39.000Z</time>
      </trkpt>
      <trkpt lat="47.27522" lon="-2.32865">
        <ele>-0.20000000298023</ele>
        <time>2021-12-05T08:23:40.000Z</time>
      </trkpt>
      <trkpt lat="47.27526" lon="-2.32859">
        <ele>-0.20000000298023</ele>
        <time>2021-12-05T08:23:41.000Z</time>
      </trkpt>
      <trkpt lat="47.27542" lon="-2.32844">
        <ele>-0.20000000298023</ele>
        <time>2021-12-05T08:23:44.000Z</time>
      </trkpt>
      <trkpt lat="47.27547" lon="-2.32841">
        <ele>-0.20000000298023</ele>
        <time>2021-12-05T08:23:45.000Z</time>
      </trkpt>
      <trkpt lat="47.27558" lon="-2.32836">
        <ele>-0.20000000298023</ele>
        <time>2021-12-05T08:23:47.000Z</time>
      </trkpt>
      <trkpt lat="47.27567" lon="-2.32833">
        <ele>-0.20000000298023</ele>
        <time>2021-12-05T08:23:49.000Z</time>
      </trkpt>
      <trkpt lat="47.27569" lon="-2.3283">
        <ele>-0.60000002384186</ele>
        <time>2021-12-05T08:23:50.000Z</time>
      </trkpt>
      <trkpt lat="47.27569" lon="-2.32826">
        <ele>-1</ele>
        <time>2021-12-05T08:23:51.000Z</time>
      </trkpt>
      <trkpt lat="47.2757" lon="-2.32823">
        <ele>-1.3999999761581</ele>
        <time>2021-12-05T08:23:52.000Z</time>
      </trkpt>
      <trkpt lat="47.27571" lon="-2.32819">
        <ele>-1.7999999523163</ele>
        <time>2021-12-05T08:23:53.000Z</time>
      </trkpt>
      <trkpt lat="47.27572" lon="-2.32815">
        <ele>-2.2000000476837</ele>
        <time>2021-12-05T08:23:54.000Z</time>
      </trkpt>
      <trkpt lat="47.27574" lon="-2.32796">
        <ele>-2.2000000476837</ele>
        <time>2021-12-05T08:23:57.000Z</time>
      </trkpt>
      <trkpt lat="47.27578" lon="-2.32776">
        <ele>-2.5999999046326</ele>
        <time>2021-12-05T08:24:00.000Z</time>
      </trkpt>
      <trkpt lat="47.2758" lon="-2.32771">
        <ele>-3</ele>
        <time>2021-12-05T08:24:01.000Z</time>
      </trkpt>
      <trkpt lat="47.27583" lon="-2.32766">
        <ele>-3.4000000953674</ele>
        <time>2021-12-05T08:24:02.000Z</time>
      </trkpt>
      <trkpt lat="47.27585" lon="-2.3276">
        <ele>-3.7999999523163</ele>
        <time>2021-12-05T08:24:03.000Z</time>
      </trkpt>
      <trkpt lat="47.27587" lon="-2.32754">
        <ele>-4.1999998092651</ele>
        <time>2021-12-05T08:24:04.000Z</time>
      </trkpt>
      <trkpt lat="47.27587" lon="-2.32742">
        <ele>-4.8000001907349</ele>
        <time>2021-12-05T08:24:06.000Z</time>
      </trkpt>
      <trkpt lat="47.27587" lon="-2.32736">
        <ele>-5.1999998092651</ele>
        <time>2021-12-05T08:24:07.000Z</time>
      </trkpt>
      <trkpt lat="47.27588" lon="-2.3273">
        <ele>-5.5999999046326</ele>
        <time>2021-12-05T08:24:08.000Z</time>
      </trkpt>
      <trkpt lat="47.2759" lon="-2.32723">
        <ele>-6.1999998092651</ele>
        <time>2021-12-05T08:24:09.000Z</time>
      </trkpt>
      <trkpt lat="47.27593" lon="-2.32716">
        <ele>-7</ele>
        <time>2021-12-05T08:24:10.000Z</time>
      </trkpt>
      <trkpt lat="47.27596" lon="-2.3271">
        <ele>-7.5999999046326</ele>
        <time>2021-12-05T08:24:11.000Z</time>
      </trkpt>
      <trkpt lat="47.27599" lon="-2.32703">
        <ele>-8.1999998092651</ele>
        <time>2021-12-05T08:24:12.000Z</time>
      </trkpt>
      <trkpt lat="47.27602" lon="-2.32697">
        <ele>-9</ele>
        <time>2021-12-05T08:24:13.000Z</time>
      </trkpt>
      <trkpt lat="47.27608" lon="-2.32688">
        <ele>-9</ele>
        <time>2021-12-05T08:24:15.000Z</time>
      </trkpt>
      <trkpt lat="47.27617" lon="-2.32689">
        <ele>-9.3999996185303</ele>
        <time>2021-12-05T08:24:18.000Z</time>
      </trkpt>
      <trkpt lat="47.2762" lon="-2.32691">
        <ele>-9.8000001907349</ele>
        <time>2021-12-05T08:24:19.000Z</time>
      </trkpt>
      <trkpt lat="47.27623" lon="-2.32695">
        <ele>-10.199999809265</ele>
        <time>2021-12-05T08:24:20.000Z</time>
      </trkpt>
      <trkpt lat="47.27627" lon="-2.32699">
        <ele>-10.60000038147</ele>
        <time>2021-12-05T08:24:21.000Z</time>
      </trkpt>
      <trkpt lat="47.2763" lon="-2.32702">
        <ele>-11</ele>
        <time>2021-12-05T08:24:22.000Z</time>
      </trkpt>
      <trkpt lat="47.27633" lon="-2.32705">
        <ele>-11</ele>
        <time>2021-12-05T08:24:23.000Z</time>
      </trkpt>
      <trkpt lat="47.27656" lon="-2.32713">
        <ele>-11</ele>
        <time>2021-12-05T08:24:28.000Z</time>
      </trkpt>
      <trkpt lat="47.27671" lon="-2.32721">
        <ele>-11</ele>
        <time>2021-12-05T08:24:32.000Z</time>
      </trkpt>
      <trkpt lat="47.27684" lon="-2.32722">
        <ele>-11</ele>
        <time>2021-12-05T08:24:36.000Z</time>
      </trkpt>
      <trkpt lat="47.27698" lon="-2.32714">
        <ele>-11</ele>
        <time>2021-12-05T08:24:42.000Z</time>
      </trkpt>
      <trkpt lat="47.2771" lon="-2.32696">
        <ele>-11</ele>
        <time>2021-12-05T08:24:47.000Z</time>
      </trkpt>
      <trkpt lat="47.27715" lon="-2.32689">
        <ele>-11</ele>
        <time>2021-12-05T08:24:49.000Z</time>
      </trkpt>
      <trkpt lat="47.2772" lon="-2.32684">
        <ele>-11</ele>
        <time>2021-12-05T08:24:51.000Z</time>
      </trkpt>
      <trkpt lat="47.27724" lon="-2.32678">
        <ele>-10.39999961853</ele>
        <time>2021-12-05T08:24:53.000Z</time>
      </trkpt>
      <trkpt lat="47.27726" lon="-2.32675">
        <ele>-9.6000003814697</ele>
        <time>2021-12-05T08:24:54.000Z</time>
      </trkpt>
      <trkpt lat="47.27728" lon="-2.32672">
        <ele>-9</ele>
        <time>2021-12-05T08:24:55.000Z</time>
      </trkpt>
      <trkpt lat="47.2773" lon="-2.32669">
        <ele>-8.6000003814697</ele>
        <time>2021-12-05T08:24:56.000Z</time>
      </trkpt>
      <trkpt lat="47.27733" lon="-2.32662">
        <ele>-8.1999998092651</ele>
        <time>2021-12-05T08:24:58.000Z</time>
      </trkpt>
      <trkpt lat="47.27735" lon="-2.32659">
        <ele>-7.8000001907349</ele>
        <time>2021-12-05T08:24:59.000Z</time>
      </trkpt>
      <trkpt lat="47.27736" lon="-2.32656">
        <ele>-7.4000000953674</ele>
        <time>2021-12-05T08:25:00.000Z</time>
      </trkpt>
      <trkpt lat="47.27738" lon="-2.32652">
        <ele>-6.8000001907349</ele>
        <time>2021-12-05T08:25:01.000Z</time>
      </trkpt>
      <trkpt lat="47.27739" lon="-2.32648">
        <ele>-6.4000000953674</ele>
        <time>2021-12-05T08:25:02.000Z</time>
      </trkpt>
      <trkpt lat="47.27743" lon="-2.32641">
        <ele>-6</ele>
        <time>2021-12-05T08:25:04.000Z</time>
      </trkpt>
      <trkpt lat="47.27744" lon="-2.32638">
        <ele>-5.5999999046326</ele>
        <time>2021-12-05T08:25:05.000Z</time>
      </trkpt>
      <trkpt lat="47.27745" lon="-2.32635">
        <ele>-5</ele>
        <time>2021-12-05T08:25:06.000Z</time>
      </trkpt>
      <trkpt lat="47.27747" lon="-2.32631">
        <ele>-4.5999999046326</ele>
        <time>2021-12-05T08:25:07.000Z</time>
      </trkpt>
      <trkpt lat="47.27748" lon="-2.32627">
        <ele>-4.1999998092651</ele>
        <time>2021-12-05T08:25:08.000Z</time>
      </trkpt>
      <trkpt lat="47.2775" lon="-2.32623">
        <ele>-4.1999998092651</ele>
        <time>2021-12-05T08:25:09.000Z</time>
      </trkpt>
      <trkpt lat="47.27764" lon="-2.32601">
        <ele>-3.7999999523163</ele>
        <time>2021-12-05T08:25:15.000Z</time>
      </trkpt>
      <trkpt lat="47.27766" lon="-2.32597">
        <ele>-3.2000000476837</ele>
        <time>2021-12-05T08:25:16.000Z</time>
      </trkpt>
      <trkpt lat="47.27768" lon="-2.32593">
        <ele>-2.7999999523163</ele>
        <time>2021-12-05T08:25:17.000Z</time>
      </trkpt>
      <trkpt lat="47.2777" lon="-2.32588">
        <ele>-2</ele>
        <time>2021-12-05T08:25:18.000Z</time>
      </trkpt>
      <trkpt lat="47.27781" lon="-2.32574">
        <ele>-2</ele>
        <time>2021-12-05T08:25:22.000Z</time>
      </trkpt>
      <trkpt lat="47.27797" lon="-2.3255">
        <ele>-2</ele>
        <time>2021-12-05T08:25:29.000Z</time>
      </trkpt>
      <trkpt lat="47.27805" lon="-2.32539">
        <ele>-1.6000000238419</ele>
        <time>2021-12-05T08:25:32.000Z</time>
      </trkpt>
      <trkpt lat="47.27807" lon="-2.32535">
        <ele>-1.2000000476837</ele>
        <time>2021-12-05T08:25:33.000Z</time>
      </trkpt>
      <trkpt lat="47.27809" lon="-2.32532">
        <ele>-0.80000001192093</ele>
        <time>2021-12-05T08:25:34.000Z</time>
      </trkpt>
      <trkpt lat="47.27811" lon="-2.32528">
        <ele>-0.40000000596046</ele>
        <time>2021-12-05T08:25:35.000Z</time>
      </trkpt>
      <trkpt lat="47.27813" lon="-2.32524">
        <ele>20.7</ele>
        <time>2021-12-05T08:25:36.000Z</time>
      </trkpt>
      <trkpt lat="47.27829" lon="-2.32501">
        <ele>20.1</ele>
        <time>2021-12-05T08:25:42.000Z</time>
      </trkpt>
      <trkpt lat="47.27849" lon="-2.32471">
        <ele>20.5</ele>
        <time>2021-12-05T08:25:49.000Z</time>
      </trkpt>
      <trkpt lat="47.27862" lon="-2.32458">
        <ele>20</ele>
        <time>2021-12-05T08:25:53.000Z</time>
      </trkpt>
      <trkpt lat="47.27878" lon="-2.32439">
        <ele>19.9</ele>
        <time>2021-12-05T08:25:58.000Z</time>
      </trkpt>
      <trkpt lat="47.27895" lon="-2.3241">
        <ele>19</ele>
        <time>2021-12-05T08:26:04.000Z</time>
      </trkpt>
      <trkpt lat="47.27902" lon="-2.32398">
        <ele>19</ele>
        <time>2021-12-05T08:26:07.000Z</time>
      </trkpt>
      <trkpt lat="47.27905" lon="-2.3239">
        <ele>19</ele>
        <time>2021-12-05T08:26:09.000Z</time>
      </trkpt>
      <trkpt lat="47.27912" lon="-2.3239">
        <ele>19</ele>
        <time>2021-12-05T08:26:12.000Z</time>
      </trkpt>
      <trkpt lat="47.27919" lon="-2.32395">
        <ele>19</ele>
        <time>2021-12-05T08:26:15.000Z</time>
      </trkpt>
      <trkpt lat="47.27924" lon="-2.32396">
        <ele>19</ele>
        <time>2021-12-05T08:26:17.000Z</time>
      </trkpt>
      <trkpt lat="47.27944" lon="-2.32401">
        <ele>19</ele>
        <time>2021-12-05T08:26:23.000Z</time>
      </trkpt>
      <trkpt lat="47.27964" lon="-2.32405">
        <ele>18.6</ele>
        <time>2021-12-05T08:26:30.000Z</time>
      </trkpt>
      <trkpt lat="47.27976" lon="-2.32412">
        <ele>18.2</ele>
        <time>2021-12-05T08:26:34.000Z</time>
      </trkpt>
      <trkpt lat="47.2799" lon="-2.32419">
        <ele>-0.40000000596046</ele>
        <time>2021-12-05T08:26:38.000Z</time>
      </trkpt>
      <trkpt lat="47.27994" lon="-2.3242">
        <ele>-0.80000001192093</ele>
        <time>2021-12-05T08:26:39.000Z</time>
      </trkpt>
      <trkpt lat="47.27998" lon="-2.32422">
        <ele>-1.2000000476837</ele>
        <time>2021-12-05T08:26:40.000Z</time>
      </trkpt>
      <trkpt lat="47.28001" lon="-2.32423">
        <ele>-1.6000000238419</ele>
        <time>2021-12-05T08:26:41.000Z</time>
      </trkpt>
      <trkpt lat="47.28005" lon="-2.32424">
        <ele>-2</ele>
        <time>2021-12-05T08:26:42.000Z</time>
      </trkpt>
      <trkpt lat="47.28024" lon="-2.32428">
        <ele>-2</ele>
        <time>2021-12-05T08:26:47.000Z</time>
      </trkpt>
      <trkpt lat="47.28049" lon="-2.32431">
        <ele>-2</ele>
        <time>2021-12-05T08:26:54.000Z</time>
      </trkpt>
      <trkpt lat="47.28076" lon="-2.32431">
        <ele>-2</ele>
        <time>2021-12-05T08:27:01.000Z</time>
      </trkpt>
      <trkpt lat="47.28096" lon="-2.32436">
        <ele>-2</ele>
        <time>2021-12-05T08:27:07.000Z</time>
      </trkpt>
      <trkpt lat="47.28117" lon="-2.32453">
        <ele>-2</ele>
        <time>2021-12-05T08:27:14.000Z</time>
      </trkpt>
      <trkpt lat="47.28137" lon="-2.32457">
        <ele>-2</ele>
        <time>2021-12-05T08:27:18.000Z</time>
      </trkpt>
      <trkpt lat="47.28141" lon="-2.32457">
        <ele>-2</ele>
        <time>2021-12-05T08:27:19.000Z</time>
      </trkpt>
      <trkpt lat="47.28155" lon="-2.32454">
        <ele>-2</ele>
        <time>2021-12-05T08:27:22.000Z</time>
      </trkpt>
      <trkpt lat="47.28171" lon="-2.32452">
        <ele>-2</ele>
        <time>2021-12-05T08:27:25.000Z</time>
      </trkpt>
      <trkpt lat="47.28208" lon="-2.32458">
        <ele>-2</ele>
        <time>2021-12-05T08:27:32.000Z</time>
      </trkpt>
      <trkpt lat="47.28213" lon="-2.3246">
        <ele>-2</ele>
        <time>2021-12-05T08:27:33.000Z</time>
      </trkpt>
      <trkpt lat="47.2823" lon="-2.32475">
        <ele>-2</ele>
        <time>2021-12-05T08:27:37.000Z</time>
      </trkpt>
      <trkpt lat="47.28234" lon="-2.3248">
        <ele>-2.4000000953674</ele>
        <time>2021-12-05T08:27:38.000Z</time>
      </trkpt>
      <trkpt lat="47.28238" lon="-2.32484">
        <ele>-2.7999999523163</ele>
        <time>2021-12-05T08:27:39.000Z</time>
      </trkpt>
      <trkpt lat="47.28242" lon="-2.32489">
        <ele>-3.2000000476837</ele>
        <time>2021-12-05T08:27:40.000Z</time>
      </trkpt>
      <trkpt lat="47.28246" lon="-2.32495">
        <ele>-3.5999999046326</ele>
        <time>2021-12-05T08:27:41.000Z</time>
      </trkpt>
      <trkpt lat="47.2825" lon="-2.325">
        <ele>-4</ele>
        <time>2021-12-05T08:27:42.000Z</time>
      </trkpt>
      <trkpt lat="47.28254" lon="-2.32504">
        <ele>-4</ele>
        <time>2021-12-05T08:27:43.000Z</time>
      </trkpt>
      <trkpt lat="47.28257" lon="-2.32508">
        <ele>-4</ele>
        <time>2021-12-05T08:27:44.000Z</time>
      </trkpt>
      <trkpt lat="47.28271" lon="-2.32518">
        <ele>-4</ele>
        <time>2021-12-05T08:27:47.000Z</time>
      </trkpt>
      <trkpt lat="47.28276" lon="-2.3252">
        <ele>-4</ele>
        <time>2021-12-05T08:27:48.000Z</time>
      </trkpt>
      <trkpt lat="47.28281" lon="-2.3252">
        <ele>-4</ele>
        <time>2021-12-05T08:27:49.000Z</time>
      </trkpt>
      <trkpt lat="47.283" lon="-2.32521">
        <ele>-4</ele>
        <time>2021-12-05T08:27:53.000Z</time>
      </trkpt>
      <trkpt lat="47.28334" lon="-2.32521">
        <ele>-4</ele>
        <time>2021-12-05T08:28:00.000Z</time>
      </trkpt>
      <trkpt lat="47.28355" lon="-2.32522">
        <ele>-4</ele>
        <time>2021-12-05T08:28:06.000Z</time>
      </trkpt>
      <trkpt lat="47.28361" lon="-2.32531">
        <ele>-4</ele>
        <time>2021-12-05T08:28:09.000Z</time>
      </trkpt>
      <trkpt lat="47.28362" lon="-2.32536">
        <ele>-4</ele>
        <time>2021-12-05T08:28:10.000Z</time>
      </trkpt>
      <trkpt lat="47.28364" lon="-2.32565">
        <ele>-4</ele>
        <time>2021-12-05T08:28:15.000Z</time>
      </trkpt>
      <trkpt lat="47.28367" lon="-2.32575">
        <ele>-4</ele>
        <time>2021-12-05T08:28:17.000Z</time>
      </trkpt>
      <trkpt lat="47.28373" lon="-2.32581">
        <ele>-4</ele>
        <time>2021-12-05T08:28:19.000Z</time>
      </trkpt>
      <trkpt lat="47.28387" lon="-2.32581">
        <ele>-4</ele>
        <time>2021-12-05T08:28:23.000Z</time>
      </trkpt>
      <trkpt lat="47.284" lon="-2.32597">
        <ele>-4</ele>
        <time>2021-12-05T08:28:27.000Z</time>
      </trkpt>
      <trkpt lat="47.28408" lon="-2.32614">
        <ele>-4</ele>
        <time>2021-12-05T08:28:31.000Z</time>
      </trkpt>
      <trkpt lat="47.28408" lon="-2.3262">
        <ele>-4</ele>
        <time>2021-12-05T08:28:32.000Z</time>
      </trkpt>
      <trkpt lat="47.28405" lon="-2.32633">
        <ele>-4</ele>
        <time>2021-12-05T08:28:34.000Z</time>
      </trkpt>
      <trkpt lat="47.28395" lon="-2.32679">
        <ele>-4</ele>
        <time>2021-12-05T08:28:40.000Z</time>
      </trkpt>
      <trkpt lat="47.28384" lon="-2.3273">
        <ele>-4</ele>
        <time>2021-12-05T08:28:46.000Z</time>
      </trkpt>
      <trkpt lat="47.2837" lon="-2.32797">
        <ele>-4</ele>
        <time>2021-12-05T08:28:54.000Z</time>
      </trkpt>
      <trkpt lat="47.28368" lon="-2.32813">
        <ele>-4.4000000953674</ele>
        <time>2021-12-05T08:28:56.000Z</time>
      </trkpt>
      <trkpt lat="47.28367" lon="-2.32822">
        <ele>-4.8000001907349</ele>
        <time>2021-12-05T08:28:57.000Z</time>
      </trkpt>
      <trkpt lat="47.28367" lon="-2.3283">
        <ele>-5.1999998092651</ele>
        <time>2021-12-05T08:28:58.000Z</time>
      </trkpt>
      <trkpt lat="47.28367" lon="-2.32838">
        <ele>-5.8000001907349</ele>
        <time>2021-12-05T08:28:59.000Z</time>
      </trkpt>
      <trkpt lat="47.28367" lon="-2.32847">
        <ele>-6.1999998092651</ele>
        <time>2021-12-05T08:29:00.000Z</time>
      </trkpt>
      <trkpt lat="47.28368" lon="-2.32892">
        <ele>-6.1999998092651</ele>
        <time>2021-12-05T08:29:05.000Z</time>
      </trkpt>
      <trkpt lat="47.28367" lon="-2.32901">
        <ele>-6.1999998092651</ele>
        <time>2021-12-05T08:29:06.000Z</time>
      </trkpt>
      <trkpt lat="47.28363" lon="-2.32918">
        <ele>-6.1999998092651</ele>
        <time>2021-12-05T08:29:08.000Z</time>
      </trkpt>
      <trkpt lat="47.28355" lon="-2.32938">
        <ele>-6.1999998092651</ele>
        <time>2021-12-05T08:29:11.000Z</time>
      </trkpt>
      <trkpt lat="47.28341" lon="-2.32951">
        <ele>-6.1999998092651</ele>
        <time>2021-12-05T08:29:14.000Z</time>
      </trkpt>
      <trkpt lat="47.28336" lon="-2.32955">
        <ele>-6.1999998092651</ele>
        <time>2021-12-05T08:29:15.000Z</time>
      </trkpt>
      <trkpt lat="47.2829" lon="-2.3299">
        <ele>-6.1999998092651</ele>
        <time>2021-12-05T08:29:23.000Z</time>
      </trkpt>
      <trkpt lat="47.28273" lon="-2.33003">
        <ele>-6.1999998092651</ele>
        <time>2021-12-05T08:29:26.000Z</time>
      </trkpt>
      <trkpt lat="47.28258" lon="-2.33015">
        <ele>-6.1999998092651</ele>
        <time>2021-12-05T08:29:29.000Z</time>
      </trkpt>
      <trkpt lat="47.28228" lon="-2.33043">
        <ele>-6.1999998092651</ele>
        <time>2021-12-05T08:29:35.000Z</time>
      </trkpt>
      <trkpt lat="47.28214" lon="-2.33062">
        <ele>-6.1999998092651</ele>
        <time>2021-12-05T08:29:38.000Z</time>
      </trkpt>
      <trkpt lat="47.28203" lon="-2.33082">
        <ele>-6.1999998092651</ele>
        <time>2021-12-05T08:29:41.000Z</time>
      </trkpt>
      <trkpt lat="47.28192" lon="-2.33112">
        <ele>-6.1999998092651</ele>
        <time>2021-12-05T08:29:45.000Z</time>
      </trkpt>
      <trkpt lat="47.28189" lon="-2.33128">
        <ele>-6.1999998092651</ele>
        <time>2021-12-05T08:29:47.000Z</time>
      </trkpt>
      <trkpt lat="47.28188" lon="-2.33145">
        <ele>-6.1999998092651</ele>
        <time>2021-12-05T08:29:49.000Z</time>
      </trkpt>
      <trkpt lat="47.28187" lon="-2.33168">
        <ele>-6.1999998092651</ele>
        <time>2021-12-05T08:29:52.000Z</time>
      </trkpt>
      <trkpt lat="47.28188" lon="-2.33217">
        <ele>-6.1999998092651</ele>
        <time>2021-12-05T08:29:58.000Z</time>
      </trkpt>
      <trkpt lat="47.28187" lon="-2.33233">
        <ele>-6.1999998092651</ele>
        <time>2021-12-05T08:30:00.000Z</time>
      </trkpt>
      <trkpt lat="47.28182" lon="-2.33266">
        <ele>-6.1999998092651</ele>
        <time>2021-12-05T08:30:04.000Z</time>
      </trkpt>
      <trkpt lat="47.28175" lon="-2.33303">
        <ele>-6.1999998092651</ele>
        <time>2021-12-05T08:30:09.000Z</time>
      </trkpt>
      <trkpt lat="47.28171" lon="-2.33317">
        <ele>-6.1999998092651</ele>
        <time>2021-12-05T08:30:11.000Z</time>
      </trkpt>
      <trkpt lat="47.28159" lon="-2.33344">
        <ele>-6.1999998092651</ele>
        <time>2021-12-05T08:30:15.000Z</time>
      </trkpt>
      <trkpt lat="47.28132" lon="-2.33405">
        <ele>-6.1999998092651</ele>
        <time>2021-12-05T08:30:24.000Z</time>
      </trkpt>
      <trkpt lat="47.2811" lon="-2.33454">
        <ele>-5.8000001907349</ele>
        <time>2021-12-05T08:30:31.000Z</time>
      </trkpt>
      <trkpt lat="47.28107" lon="-2.3346">
        <ele>-5.4000000953674</ele>
        <time>2021-12-05T08:30:32.000Z</time>
      </trkpt>
      <trkpt lat="47.28104" lon="-2.33467">
        <ele>-5</ele>
        <time>2021-12-05T08:30:33.000Z</time>
      </trkpt>
      <trkpt lat="47.28101" lon="-2.33474">
        <ele>-4.5999999046326</ele>
        <time>2021-12-05T08:30:34.000Z</time>
      </trkpt>
      <trkpt lat="47.28098" lon="-2.3348">
        <ele>-4.1999998092651</ele>
        <time>2021-12-05T08:30:35.000Z</time>
      </trkpt>
      <trkpt lat="47.28085" lon="-2.33506">
        <ele>-4.1999998092651</ele>
        <time>2021-12-05T08:30:39.000Z</time>
      </trkpt>
      <trkpt lat="47.28081" lon="-2.33511">
        <ele>-4.1999998092651</ele>
        <time>2021-12-05T08:30:40.000Z</time>
      </trkpt>
      <trkpt lat="47.28076" lon="-2.33525">
        <ele>-4.1999998092651</ele>
        <time>2021-12-05T08:30:42.000Z</time>
      </trkpt>
      <trkpt lat="47.28076" lon="-2.33546">
        <ele>-4.1999998092651</ele>
        <time>2021-12-05T08:30:45.000Z</time>
      </trkpt>
      <trkpt lat="47.28079" lon="-2.33562">
        <ele>-4.1999998092651</ele>
        <time>2021-12-05T08:30:47.000Z</time>
      </trkpt>
      <trkpt lat="47.28086" lon="-2.33591">
        <ele>-4.1999998092651</ele>
        <time>2021-12-05T08:30:51.000Z</time>
      </trkpt>
      <trkpt lat="47.28089" lon="-2.33606">
        <ele>-4.1999998092651</ele>
        <time>2021-12-05T08:30:53.000Z</time>
      </trkpt>
      <trkpt lat="47.28091" lon="-2.33627">
        <ele>-4.1999998092651</ele>
        <time>2021-12-05T08:30:56.000Z</time>
      </trkpt>
      <trkpt lat="47.28096" lon="-2.3365">
        <ele>-4.1999998092651</ele>
        <time>2021-12-05T08:31:00.000Z</time>
      </trkpt>
      <trkpt lat="47.28101" lon="-2.3366">
        <ele>-4.1999998092651</ele>
        <time>2021-12-05T08:31:02.000Z</time>
      </trkpt>
      <trkpt lat="47.28109" lon="-2.33675">
        <ele>-4.1999998092651</ele>
        <time>2021-12-05T08:31:05.000Z</time>
      </trkpt>
      <trkpt lat="47.28127" lon="-2.33696">
        <ele>-4.1999998092651</ele>
        <time>2021-12-05T08:31:10.000Z</time>
      </trkpt>
      <trkpt lat="47.2813" lon="-2.33701">
        <ele>-3.7999999523163</ele>
        <time>2021-12-05T08:31:11.000Z</time>
      </trkpt>
      <trkpt lat="47.28133" lon="-2.33707">
        <ele>-3.2000000476837</ele>
        <time>2021-12-05T08:31:12.000Z</time>
      </trkpt>
      <trkpt lat="47.28135" lon="-2.33713">
        <ele>-2.7999999523163</ele>
        <time>2021-12-05T08:31:13.000Z</time>
      </trkpt>
      <trkpt lat="47.28138" lon="-2.33719">
        <ele>-2.4000000953674</ele>
        <time>2021-12-05T08:31:14.000Z</time>
      </trkpt>
      <trkpt lat="47.28141" lon="-2.33725">
        <ele>-2</ele>
        <time>2021-12-05T08:31:15.000Z</time>
      </trkpt>
      <trkpt lat="47.28144" lon="-2.3373">
        <ele>-2</ele>
        <time>2021-12-05T08:31:16.000Z</time>
      </trkpt>
      <trkpt lat="47.2816" lon="-2.33749">
        <ele>-2</ele>
        <time>2021-12-05T08:31:20.000Z</time>
      </trkpt>
      <trkpt lat="47.28194" lon="-2.33785">
        <ele>-2</ele>
        <time>2021-12-05T08:31:28.000Z</time>
      </trkpt>
      <trkpt lat="47.28199" lon="-2.33789">
        <ele>-2</ele>
        <time>2021-12-05T08:31:29.000Z</time>
      </trkpt>
      <trkpt lat="47.28222" lon="-2.338">
        <ele>-2</ele>
        <time>2021-12-05T08:31:33.000Z</time>
      </trkpt>
      <trkpt lat="47.28239" lon="-2.33808">
        <ele>-2</ele>
        <time>2021-12-05T08:31:36.000Z</time>
      </trkpt>
      <trkpt lat="47.28254" lon="-2.33818">
        <ele>-2</ele>
        <time>2021-12-05T08:31:39.000Z</time>
      </trkpt>
      <trkpt lat="47.28262" lon="-2.33828">
        <ele>-2</ele>
        <time>2021-12-05T08:31:41.000Z</time>
      </trkpt>
      <trkpt lat="47.28269" lon="-2.33841">
        <ele>-1.6000000238419</ele>
        <time>2021-12-05T08:31:43.000Z</time>
      </trkpt>
      <trkpt lat="47.28272" lon="-2.33848">
        <ele>-1.2000000476837</ele>
        <time>2021-12-05T08:31:44.000Z</time>
      </trkpt>
      <trkpt lat="47.28274" lon="-2.33855">
        <ele>-0.80000001192093</ele>
        <time>2021-12-05T08:31:45.000Z</time>
      </trkpt>
      <trkpt lat="47.28277" lon="-2.33862">
        <ele>-0.40000000596046</ele>
        <time>2021-12-05T08:31:46.000Z</time>
      </trkpt>
      <trkpt lat="47.2828" lon="-2.33869">
        <ele>21.8</ele>
        <time>2021-12-05T08:31:47.000Z</time>
      </trkpt>
      <trkpt lat="47.28293" lon="-2.33902">
        <ele>21.8</ele>
        <time>2021-12-05T08:31:52.000Z</time>
      </trkpt>
      <trkpt lat="47.28303" lon="-2.33926">
        <ele>22.4</ele>
        <time>2021-12-05T08:31:56.000Z</time>
      </trkpt>
      <trkpt lat="47.28309" lon="-2.33932">
        <ele>22.7</ele>
        <time>2021-12-05T08:31:58.000Z</time>
      </trkpt>
      <trkpt lat="47.28321" lon="-2.33924">
        <ele>22.8</ele>
        <time>2021-12-05T08:32:01.000Z</time>
      </trkpt>
      <trkpt lat="47.28325" lon="-2.3392">
        <ele>22.8</ele>
        <time>2021-12-05T08:32:02.000Z</time>
      </trkpt>
      <trkpt lat="47.28344" lon="-2.33902">
        <ele>0.40000000596046</ele>
        <time>2021-12-05T08:32:07.000Z</time>
      </trkpt>
      <trkpt lat="47.28348" lon="-2.33899">
        <ele>0.80000001192093</ele>
        <time>2021-12-05T08:32:08.000Z</time>
      </trkpt>
      <trkpt lat="47.28352" lon="-2.33895">
        <ele>1.2000000476837</ele>
        <time>2021-12-05T08:32:09.000Z</time>
      </trkpt>
      <trkpt lat="47.28356" lon="-2.33891">
        <ele>1.6000000238419</ele>
        <time>2021-12-05T08:32:10.000Z</time>
      </trkpt>
      <trkpt lat="47.2836" lon="-2.33887">
        <ele>2</ele>
        <time>2021-12-05T08:32:11.000Z</time>
      </trkpt>
      <trkpt lat="47.28386" lon="-2.33864">
        <ele>2</ele>
        <time>2021-12-05T08:32:17.000Z</time>
      </trkpt>
      <trkpt lat="47.2842" lon="-2.33831">
        <ele>2.4000000953674</ele>
        <time>2021-12-05T08:32:25.000Z</time>
      </trkpt>
      <trkpt lat="47.28425" lon="-2.33827">
        <ele>2.7999999523163</ele>
        <time>2021-12-05T08:32:26.000Z</time>
      </trkpt>
      <trkpt lat="47.28429" lon="-2.33822">
        <ele>3.2000000476837</ele>
        <time>2021-12-05T08:32:27.000Z</time>
      </trkpt>
      <trkpt lat="47.28433" lon="-2.33818">
        <ele>3.5999999046326</ele>
        <time>2021-12-05T08:32:28.000Z</time>
      </trkpt>
      <trkpt lat="47.28438" lon="-2.33814">
        <ele>4</ele>
        <time>2021-12-05T08:32:29.000Z</time>
      </trkpt>
      <trkpt lat="47.28454" lon="-2.33796">
        <ele>4</ele>
        <time>2021-12-05T08:32:33.000Z</time>
      </trkpt>
      <trkpt lat="47.28492" lon="-2.33751">
        <ele>4</ele>
        <time>2021-12-05T08:32:42.000Z</time>
      </trkpt>
      <trkpt lat="47.28512" lon="-2.33733">
        <ele>4</ele>
        <time>2021-12-05T08:32:46.000Z</time>
      </trkpt>
      <trkpt lat="47.28524" lon="-2.3373">
        <ele>4</ele>
        <time>2021-12-05T08:32:48.000Z</time>
      </trkpt>
      <trkpt lat="47.28535" lon="-2.33731">
        <ele>4</ele>
        <time>2021-12-05T08:32:50.000Z</time>
      </trkpt>
      <trkpt lat="47.28558" lon="-2.33729">
        <ele>4</ele>
        <time>2021-12-05T08:32:54.000Z</time>
      </trkpt>
      <trkpt lat="47.28586" lon="-2.33733">
        <ele>4</ele>
        <time>2021-12-05T08:32:59.000Z</time>
      </trkpt>
      <trkpt lat="47.28614" lon="-2.33723">
        <ele>4</ele>
        <time>2021-12-05T08:33:04.000Z</time>
      </trkpt>
      <trkpt lat="47.28636" lon="-2.33714">
        <ele>4.4000000953674</ele>
        <time>2021-12-05T08:33:08.000Z</time>
      </trkpt>
      <trkpt lat="47.28642" lon="-2.33712">
        <ele>4.8000001907349</ele>
        <time>2021-12-05T08:33:09.000Z</time>
      </trkpt>
      <trkpt lat="47.28647" lon="-2.33709">
        <ele>5.1999998092651</ele>
        <time>2021-12-05T08:33:10.000Z</time>
      </trkpt>
      <trkpt lat="47.28653" lon="-2.33707">
        <ele>5.8000001907349</ele>
        <time>2021-12-05T08:33:11.000Z</time>
      </trkpt>
      <trkpt lat="47.28659" lon="-2.33705">
        <ele>6.1999998092651</ele>
        <time>2021-12-05T08:33:12.000Z</time>
      </trkpt>
      <trkpt lat="47.28681" lon="-2.33696">
        <ele>6.1999998092651</ele>
        <time>2021-12-05T08:33:16.000Z</time>
      </trkpt>
      <trkpt lat="47.28697" lon="-2.3369">
        <ele>6.1999998092651</ele>
        <time>2021-12-05T08:33:19.000Z</time>
      </trkpt>
      <trkpt lat="47.28713" lon="-2.33691">
        <ele>6.1999998092651</ele>
        <time>2021-12-05T08:33:22.000Z</time>
      </trkpt>
      <trkpt lat="47.28718" lon="-2.33693">
        <ele>6.1999998092651</ele>
        <time>2021-12-05T08:33:23.000Z</time>
      </trkpt>
      <trkpt lat="47.28733" lon="-2.33703">
        <ele>6.1999998092651</ele>
        <time>2021-12-05T08:33:26.000Z</time>
      </trkpt>
      <trkpt lat="47.28751" lon="-2.33729">
        <ele>6.1999998092651</ele>
        <time>2021-12-05T08:33:31.000Z</time>
      </trkpt>
      <trkpt lat="47.28756" lon="-2.33746">
        <ele>6.1999998092651</ele>
        <time>2021-12-05T08:33:34.000Z</time>
      </trkpt>
      <trkpt lat="47.28759" lon="-2.33756">
        <ele>6.1999998092651</ele>
        <time>2021-12-05T08:33:36.000Z</time>
      </trkpt>
      <trkpt lat="47.28762" lon="-2.33756">
        <ele>6.1999998092651</ele>
        <time>2021-12-05T08:33:37.000Z</time>
      </trkpt>
      <trkpt lat="47.28766" lon="-2.33749">
        <ele>6.1999998092651</ele>
        <time>2021-12-05T08:33:39.000Z</time>
      </trkpt>
      <trkpt lat="47.28763" lon="-2.33724">
        <ele>6.1999998092651</ele>
        <time>2021-12-05T08:33:43.000Z</time>
      </trkpt>
      <trkpt lat="47.28763" lon="-2.33717">
        <ele>6.1999998092651</ele>
        <time>2021-12-05T08:33:44.000Z</time>
      </trkpt>
      <trkpt lat="47.28762" lon="-2.33709">
        <ele>5.5999999046326</ele>
        <time>2021-12-05T08:33:45.000Z</time>
      </trkpt>
      <trkpt lat="47.28762" lon="-2.33702">
        <ele>5.1999998092651</ele>
        <time>2021-12-05T08:33:46.000Z</time>
      </trkpt>
      <trkpt lat="47.28761" lon="-2.33694">
        <ele>4.8000001907349</ele>
        <time>2021-12-05T08:33:47.000Z</time>
      </trkpt>
      <trkpt lat="47.2876" lon="-2.33686">
        <ele>4.4000000953674</ele>
        <time>2021-12-05T08:33:48.000Z</time>
      </trkpt>
      <trkpt lat="47.2876" lon="-2.33678">
        <ele>4</ele>
        <time>2021-12-05T08:33:49.000Z</time>
      </trkpt>
      <trkpt lat="47.28759" lon="-2.3367">
        <ele>4</ele>
        <time>2021-12-05T08:33:50.000Z</time>
      </trkpt>
      <trkpt lat="47.2875" lon="-2.33601">
        <ele>4</ele>
        <time>2021-12-05T08:33:58.000Z</time>
      </trkpt>
      <trkpt lat="47.28743" lon="-2.33567">
        <ele>3.5999999046326</ele>
        <time>2021-12-05T08:34:02.000Z</time>
      </trkpt>
      <trkpt lat="47.2874" lon="-2.33558">
        <ele>3.2000000476837</ele>
        <time>2021-12-05T08:34:03.000Z</time>
      </trkpt>
      <trkpt lat="47.28737" lon="-2.33549">
        <ele>2.7999999523163</ele>
        <time>2021-12-05T08:34:04.000Z</time>
      </trkpt>
      <trkpt lat="47.28734" lon="-2.3354">
        <ele>2.4000000953674</ele>
        <time>2021-12-05T08:34:05.000Z</time>
      </trkpt>
      <trkpt lat="47.28731" lon="-2.33532">
        <ele>2</ele>
        <time>2021-12-05T08:34:06.000Z</time>
      </trkpt>
      <trkpt lat="47.28725" lon="-2.33516">
        <ele>2</ele>
        <time>2021-12-05T08:34:08.000Z</time>
      </trkpt>
      <trkpt lat="47.28724" lon="-2.33508">
        <ele>2</ele>
        <time>2021-12-05T08:34:09.000Z</time>
      </trkpt>
      <trkpt lat="47.28733" lon="-2.3349">
        <ele>2</ele>
        <time>2021-12-05T08:34:12.000Z</time>
      </trkpt>
      <trkpt lat="47.28749" lon="-2.33486">
        <ele>2</ele>
        <time>2021-12-05T08:34:15.000Z</time>
      </trkpt>
      <trkpt lat="47.28781" lon="-2.33481">
        <ele>2</ele>
        <time>2021-12-05T08:34:21.000Z</time>
      </trkpt>
      <trkpt lat="47.28826" lon="-2.33473">
        <ele>2</ele>
        <time>2021-12-05T08:34:29.000Z</time>
      </trkpt>
      <trkpt lat="47.2887" lon="-2.33461">
        <ele>2</ele>
        <time>2021-12-05T08:34:37.000Z</time>
      </trkpt>
      <trkpt lat="47.28875" lon="-2.33458">
        <ele>2</ele>
        <time>2021-12-05T08:34:38.000Z</time>
      </trkpt>
      <trkpt lat="47.28894" lon="-2.33441">
        <ele>2</ele>
        <time>2021-12-05T08:34:42.000Z</time>
      </trkpt>
      <trkpt lat="47.28908" lon="-2.33411">
        <ele>2</ele>
        <time>2021-12-05T08:34:46.000Z</time>
      </trkpt>
      <trkpt lat="47.28913" lon="-2.33385">
        <ele>2</ele>
        <time>2021-12-05T08:34:49.000Z</time>
      </trkpt>
      <trkpt lat="47.28916" lon="-2.33368">
        <ele>2</ele>
        <time>2021-12-05T08:34:51.000Z</time>
      </trkpt>
      <trkpt lat="47.2893" lon="-2.33311">
        <ele>2</ele>
        <time>2021-12-05T08:34:58.000Z</time>
      </trkpt>
      <trkpt lat="47.28946" lon="-2.33269">
        <ele>2</ele>
        <time>2021-12-05T08:35:04.000Z</time>
      </trkpt>
      <trkpt lat="47.28953" lon="-2.33255">
        <ele>2</ele>
        <time>2021-12-05T08:35:06.000Z</time>
      </trkpt>
      <trkpt lat="47.28964" lon="-2.33234">
        <ele>2</ele>
        <time>2021-12-05T08:35:09.000Z</time>
      </trkpt>
      <trkpt lat="47.28989" lon="-2.332">
        <ele>2</ele>
        <time>2021-12-05T08:35:14.000Z</time>
      </trkpt>
      <trkpt lat="47.28994" lon="-2.33195">
        <ele>2</ele>
        <time>2021-12-05T08:35:15.000Z</time>
      </trkpt>
      <trkpt lat="47.29021" lon="-2.33172">
        <ele>2</ele>
        <time>2021-12-05T08:35:20.000Z</time>
      </trkpt>
      <trkpt lat="47.29067" lon="-2.33134">
        <ele>2</ele>
        <time>2021-12-05T08:35:28.000Z</time>
      </trkpt>
      <trkpt lat="47.291" lon="-2.33099">
        <ele>2</ele>
        <time>2021-12-05T08:35:34.000Z</time>
      </trkpt>
      <trkpt lat="47.29115" lon="-2.3308">
        <ele>1.6000000238419</ele>
        <time>2021-12-05T08:35:37.000Z</time>
      </trkpt>
      <trkpt lat="47.2912" lon="-2.33074">
        <ele>1.2000000476837</ele>
        <time>2021-12-05T08:35:38.000Z</time>
      </trkpt>
      <trkpt lat="47.29124" lon="-2.33067">
        <ele>0.80000001192093</ele>
        <time>2021-12-05T08:35:39.000Z</time>
      </trkpt>
      <trkpt lat="47.29129" lon="-2.3306">
        <ele>0.40000000596046</ele>
        <time>2021-12-05T08:35:40.000Z</time>
      </trkpt>
      <trkpt lat="47.29134" lon="-2.33053">
        <ele>-0.20000000298023</ele>
        <time>2021-12-05T08:35:41.000Z</time>
      </trkpt>
      <trkpt lat="47.29138" lon="-2.33046">
        <ele>-0.20000000298023</ele>
        <time>2021-12-05T08:35:42.000Z</time>
      </trkpt>
      <trkpt lat="47.29169" lon="-2.32999">
        <ele>-0.20000000298023</ele>
        <time>2021-12-05T08:35:49.000Z</time>
      </trkpt>
      <trkpt lat="47.29179" lon="-2.33001">
        <ele>-0.20000000298023</ele>
        <time>2021-12-05T08:35:52.000Z</time>
      </trkpt>
      <trkpt lat="47.29195" lon="-2.3303">
        <ele>-0.20000000298023</ele>
        <time>2021-12-05T08:35:57.000Z</time>
      </trkpt>
      <trkpt lat="47.29198" lon="-2.33036">
        <ele>-0.20000000298023</ele>
        <time>2021-12-05T08:35:58.000Z</time>
      </trkpt>
      <trkpt lat="47.29221" lon="-2.33083">
        <ele>-0.20000000298023</ele>
        <time>2021-12-05T08:36:05.000Z</time>
      </trkpt>
      <trkpt lat="47.29246" lon="-2.33136">
        <ele>-0.20000000298023</ele>
        <time>2021-12-05T08:36:13.000Z</time>
      </trkpt>
      <trkpt lat="47.29275" lon="-2.33188">
        <ele>-0.20000000298023</ele>
        <time>2021-12-05T08:36:22.000Z</time>
      </trkpt>
      <trkpt lat="47.29278" lon="-2.33192">
        <ele>-0.20000000298023</ele>
        <time>2021-12-05T08:36:23.000Z</time>
      </trkpt>
      <trkpt lat="47.29285" lon="-2.33191">
        <ele>-0.20000000298023</ele>
        <time>2021-12-05T08:36:25.000Z</time>
      </trkpt>
      <trkpt lat="47.29299" lon="-2.33173">
        <ele>-0.20000000298023</ele>
        <time>2021-12-05T08:36:29.000Z</time>
      </trkpt>
      <trkpt lat="47.29321" lon="-2.33146">
        <ele>-0.20000000298023</ele>
        <time>2021-12-05T08:36:35.000Z</time>
      </trkpt>
      <trkpt lat="47.29351" lon="-2.33124">
        <ele>-0.20000000298023</ele>
        <time>2021-12-05T08:36:42.000Z</time>
      </trkpt>
      <trkpt lat="47.2936" lon="-2.33119">
        <ele>-0.20000000298023</ele>
        <time>2021-12-05T08:36:44.000Z</time>
      </trkpt>
      <trkpt lat="47.29368" lon="-2.33118">
        <ele>0.40000000596046</ele>
        <time>2021-12-05T08:36:46.000Z</time>
      </trkpt>
      <trkpt lat="47.29372" lon="-2.3312">
        <ele>0.80000001192093</ele>
        <time>2021-12-05T08:36:47.000Z</time>
      </trkpt>
      <trkpt lat="47.29376" lon="-2.33123">
        <ele>1.2000000476837</ele>
        <time>2021-12-05T08:36:48.000Z</time>
      </trkpt>
      <trkpt lat="47.2938" lon="-2.33128">
        <ele>2</ele>
        <time>2021-12-05T08:36:49.000Z</time>
      </trkpt>
      <trkpt lat="47.29388" lon="-2.3314">
        <ele>2</ele>
        <time>2021-12-05T08:36:51.000Z</time>
      </trkpt>
      <trkpt lat="47.29391" lon="-2.33146">
        <ele>2</ele>
        <time>2021-12-05T08:36:52.000Z</time>
      </trkpt>
      <trkpt lat="47.29404" lon="-2.33173">
        <ele>2</ele>
        <time>2021-12-05T08:36:56.000Z</time>
      </trkpt>
      <trkpt lat="47.29412" lon="-2.33196">
        <ele>2</ele>
        <time>2021-12-05T08:36:59.000Z</time>
      </trkpt>
      <trkpt lat="47.29419" lon="-2.3322">
        <ele>2</ele>
        <time>2021-12-05T08:37:02.000Z</time>
      </trkpt>
      <trkpt lat="47.29429" lon="-2.33281">
        <ele>2</ele>
        <time>2021-12-05T08:37:09.000Z</time>
      </trkpt>
      <trkpt lat="47.29433" lon="-2.33332">
        <ele>2</ele>
        <time>2021-12-05T08:37:15.000Z</time>
      </trkpt>
      <trkpt lat="47.29434" lon="-2.33383">
        <ele>2</ele>
        <time>2021-12-05T08:37:21.000Z</time>
      </trkpt>
      <trkpt lat="47.29436" lon="-2.33391">
        <ele>2</ele>
        <time>2021-12-05T08:37:22.000Z</time>
      </trkpt>
      <trkpt lat="47.29446" lon="-2.33415">
        <ele>2</ele>
        <time>2021-12-05T08:37:25.000Z</time>
      </trkpt>
      <trkpt lat="47.29449" lon="-2.33422">
        <ele>2</ele>
        <time>2021-12-05T08:37:26.000Z</time>
      </trkpt>
      <trkpt lat="47.29471" lon="-2.33472">
        <ele>2</ele>
        <time>2021-12-05T08:37:33.000Z</time>
      </trkpt>
      <trkpt lat="47.29499" lon="-2.33531">
        <ele>2</ele>
        <time>2021-12-05T08:37:41.000Z</time>
      </trkpt>
      <trkpt lat="47.29524" lon="-2.33597">
        <ele>2</ele>
        <time>2021-12-05T08:37:49.000Z</time>
      </trkpt>
      <trkpt lat="47.29539" lon="-2.33656">
        <ele>1.6000000238419</ele>
        <time>2021-12-05T08:37:55.000Z</time>
      </trkpt>
      <trkpt lat="47.29542" lon="-2.33666">
        <ele>1.2000000476837</ele>
        <time>2021-12-05T08:37:56.000Z</time>
      </trkpt>
      <trkpt lat="47.29544" lon="-2.33675">
        <ele>0.80000001192093</ele>
        <time>2021-12-05T08:37:57.000Z</time>
      </trkpt>
      <trkpt lat="47.29548" lon="-2.33684">
        <ele>0.40000000596046</ele>
        <time>2021-12-05T08:37:58.000Z</time>
      </trkpt>
      <trkpt lat="47.29551" lon="-2.33692">
        <ele>21.3</ele>
        <time>2021-12-05T08:37:59.000Z</time>
      </trkpt>
      <trkpt lat="47.2956" lon="-2.33707">
        <ele>21</ele>
        <time>2021-12-05T08:38:01.000Z</time>
      </trkpt>
      <trkpt lat="47.29564" lon="-2.33713">
        <ele>21</ele>
        <time>2021-12-05T08:38:02.000Z</time>
      </trkpt>
      <trkpt lat="47.29583" lon="-2.33738">
        <ele>21.6</ele>
        <time>2021-12-05T08:38:06.000Z</time>
      </trkpt>
      <trkpt lat="47.29609" lon="-2.33778">
        <ele>22</ele>
        <time>2021-12-05T08:38:12.000Z</time>
      </trkpt>
      <trkpt lat="47.29638" lon="-2.33835">
        <ele>24.1</ele>
        <time>2021-12-05T08:38:20.000Z</time>
      </trkpt>
      <trkpt lat="47.29645" lon="-2.33846">
        <ele>24.7</ele>
        <time>2021-12-05T08:38:22.000Z</time>
      </trkpt>
      <trkpt lat="47.29654" lon="-2.3385">
        <ele>25.1</ele>
        <time>2021-12-05T08:38:24.000Z</time>
      </trkpt>
      <trkpt lat="47.29667" lon="-2.33838">
        <ele>25.2</ele>
        <time>2021-12-05T08:38:27.000Z</time>
      </trkpt>
      <trkpt lat="47.29684" lon="-2.33817">
        <ele>0.40000000596046</ele>
        <time>2021-12-05T08:38:31.000Z</time>
      </trkpt>
      <trkpt lat="47.29688" lon="-2.33813">
        <ele>0.80000001192093</ele>
        <time>2021-12-05T08:38:32.000Z</time>
      </trkpt>
      <trkpt lat="47.29693" lon="-2.33808">
        <ele>1.2000000476837</ele>
        <time>2021-12-05T08:38:33.000Z</time>
      </trkpt>
      <trkpt lat="47.29697" lon="-2.33804">
        <ele>1.6000000238419</ele>
        <time>2021-12-05T08:38:34.000Z</time>
      </trkpt>
      <trkpt lat="47.297" lon="-2.338">
        <ele>2</ele>
        <time>2021-12-05T08:38:35.000Z</time>
      </trkpt>
      <trkpt lat="47.29707" lon="-2.33792">
        <ele>2</ele>
        <time>2021-12-05T08:38:37.000Z</time>
      </trkpt>
      <trkpt lat="47.29715" lon="-2.33779">
        <ele>2</ele>
        <time>2021-12-05T08:38:40.000Z</time>
      </trkpt>
      <trkpt lat="47.29732" lon="-2.33741">
        <ele>2</ele>
        <time>2021-12-05T08:38:46.000Z</time>
      </trkpt>
      <trkpt lat="47.29763" lon="-2.33686">
        <ele>2</ele>
        <time>2021-12-05T08:38:54.000Z</time>
      </trkpt>
      <trkpt lat="47.298" lon="-2.33625">
        <ele>2</ele>
        <time>2021-12-05T08:39:02.000Z</time>
      </trkpt>
      <trkpt lat="47.29838" lon="-2.33559">
        <ele>2</ele>
        <time>2021-12-05T08:39:10.000Z</time>
      </trkpt>
      <trkpt lat="47.29873" lon="-2.33499">
        <ele>1.6000000238419</ele>
        <time>2021-12-05T08:39:17.000Z</time>
      </trkpt>
      <trkpt lat="47.29878" lon="-2.33491">
        <ele>1.2000000476837</ele>
        <time>2021-12-05T08:39:18.000Z</time>
      </trkpt>
      <trkpt lat="47.29882" lon="-2.33484">
        <ele>0.60000002384186</ele>
        <time>2021-12-05T08:39:19.000Z</time>
      </trkpt>
      <trkpt lat="47.29887" lon="-2.33477">
        <ele>0.20000000298023</ele>
        <time>2021-12-05T08:39:20.000Z</time>
      </trkpt>
      <trkpt lat="47.29891" lon="-2.3347">
        <ele>-0.20000000298023</ele>
        <time>2021-12-05T08:39:21.000Z</time>
      </trkpt>
      <trkpt lat="47.29915" lon="-2.33443">
        <ele>-0.20000000298023</ele>
        <time>2021-12-05T08:39:26.000Z</time>
      </trkpt>
      <trkpt lat="47.29919" lon="-2.33442">
        <ele>-0.20000000298023</ele>
        <time>2021-12-05T08:39:27.000Z</time>
      </trkpt>
      <trkpt lat="47.29933" lon="-2.33453">
        <ele>-0.20000000298023</ele>
        <time>2021-12-05T08:39:30.000Z</time>
      </trkpt>
      <trkpt lat="47.29938" lon="-2.33458">
        <ele>-0.20000000298023</ele>
        <time>2021-12-05T08:39:31.000Z</time>
      </trkpt>
      <trkpt lat="47.29965" lon="-2.3349">
        <ele>-0.20000000298023</ele>
        <time>2021-12-05T08:39:37.000Z</time>
      </trkpt>
      <trkpt lat="47.29998" lon="-2.33523">
        <ele>-0.20000000298023</ele>
        <time>2021-12-05T08:39:44.000Z</time>
      </trkpt>
      <trkpt lat="47.30006" lon="-2.33534">
        <ele>-0.20000000298023</ele>
        <time>2021-12-05T08:39:46.000Z</time>
      </trkpt>
      <trkpt lat="47.30008" lon="-2.33548">
        <ele>-0.20000000298023</ele>
        <time>2021-12-05T08:39:48.000Z</time>
      </trkpt>
      <trkpt lat="47.30003" lon="-2.3357">
        <ele>-0.20000000298023</ele>
        <time>2021-12-05T08:39:51.000Z</time>
      </trkpt>
      <trkpt lat="47.30001" lon="-2.33603">
        <ele>-0.20000000298023</ele>
        <time>2021-12-05T08:39:55.000Z</time>
      </trkpt>
      <trkpt lat="47.30002" lon="-2.33618">
        <ele>-0.20000000298023</ele>
        <time>2021-12-05T08:39:57.000Z</time>
      </trkpt>
      <trkpt lat="47.30002" lon="-2.33649">
        <ele>-0.20000000298023</ele>
        <time>2021-12-05T08:40:01.000Z</time>
      </trkpt>
      <trkpt lat="47.3" lon="-2.33709">
        <ele>-0.20000000298023</ele>
        <time>2021-12-05T08:40:09.000Z</time>
      </trkpt>
      <trkpt lat="47.29997" lon="-2.33756">
        <ele>0.20000000298023</ele>
        <time>2021-12-05T08:40:16.000Z</time>
      </trkpt>
      <trkpt lat="47.29997" lon="-2.33762">
        <ele>0.60000002384186</ele>
        <time>2021-12-05T08:40:17.000Z</time>
      </trkpt>
      <trkpt lat="47.29997" lon="-2.33769">
        <ele>1</ele>
        <time>2021-12-05T08:40:18.000Z</time>
      </trkpt>
      <trkpt lat="47.29997" lon="-2.33776">
        <ele>1.3999999761581</ele>
        <time>2021-12-05T08:40:19.000Z</time>
      </trkpt>
      <trkpt lat="47.29998" lon="-2.33783">
        <ele>1.7999999523163</ele>
        <time>2021-12-05T08:40:20.000Z</time>
      </trkpt>
      <trkpt lat="47.29999" lon="-2.3379">
        <ele>1.7999999523163</ele>
        <time>2021-12-05T08:40:21.000Z</time>
      </trkpt>
      <trkpt lat="47.29999" lon="-2.33797">
        <ele>1.7999999523163</ele>
        <time>2021-12-05T08:40:22.000Z</time>
      </trkpt>
      <trkpt lat="47.30005" lon="-2.33822">
        <ele>1.7999999523163</ele>
        <time>2021-12-05T08:40:26.000Z</time>
      </trkpt>
      <trkpt lat="47.30007" lon="-2.33828">
        <ele>1.7999999523163</ele>
        <time>2021-12-05T08:40:27.000Z</time>
      </trkpt>
      <trkpt lat="47.30024" lon="-2.33862">
        <ele>1.7999999523163</ele>
        <time>2021-12-05T08:40:32.000Z</time>
      </trkpt>
      <trkpt lat="47.30045" lon="-2.33906">
        <ele>2.2000000476837</ele>
        <time>2021-12-05T08:40:39.000Z</time>
      </trkpt>
      <trkpt lat="47.30048" lon="-2.33912">
        <ele>2.5999999046326</ele>
        <time>2021-12-05T08:40:40.000Z</time>
      </trkpt>
      <trkpt lat="47.30051" lon="-2.33918">
        <ele>3</ele>
        <time>2021-12-05T08:40:41.000Z</time>
      </trkpt>
      <trkpt lat="47.30053" lon="-2.33924">
        <ele>3.4000000953674</ele>
        <time>2021-12-05T08:40:42.000Z</time>
      </trkpt>
      <trkpt lat="47.30056" lon="-2.3393">
        <ele>3.7999999523163</ele>
        <time>2021-12-05T08:40:43.000Z</time>
      </trkpt>
      <trkpt lat="47.30062" lon="-2.33943">
        <ele>3.7999999523163</ele>
        <time>2021-12-05T08:40:45.000Z</time>
      </trkpt>
      <trkpt lat="47.30079" lon="-2.33981">
        <ele>3.7999999523163</ele>
        <time>2021-12-05T08:40:51.000Z</time>
      </trkpt>
      <trkpt lat="47.30092" lon="-2.34008">
        <ele>3.7999999523163</ele>
        <time>2021-12-05T08:40:56.000Z</time>
      </trkpt>
      <trkpt lat="47.30096" lon="-2.34009">
        <ele>4.1999998092651</ele>
        <time>2021-12-05T08:40:57.000Z</time>
      </trkpt>
      <trkpt lat="47.30101" lon="-2.34008">
        <ele>4.5999999046326</ele>
        <time>2021-12-05T08:40:58.000Z</time>
      </trkpt>
      <trkpt lat="47.30104" lon="-2.34005">
        <ele>5</ele>
        <time>2021-12-05T08:40:59.000Z</time>
      </trkpt>
      <trkpt lat="47.30108" lon="-2.34003">
        <ele>5.4000000953674</ele>
        <time>2021-12-05T08:41:00.000Z</time>
      </trkpt>
      <trkpt lat="47.30112" lon="-2.34">
        <ele>5.8000001907349</ele>
        <time>2021-12-05T08:41:01.000Z</time>
      </trkpt>
      <trkpt lat="47.3013" lon="-2.3398">
        <ele>5.8000001907349</ele>
        <time>2021-12-05T08:41:06.000Z</time>
      </trkpt>
      <trkpt lat="47.30157" lon="-2.33955">
        <ele>6.1999998092651</ele>
        <time>2021-12-05T08:41:13.000Z</time>
      </trkpt>
      <trkpt lat="47.30161" lon="-2.33952">
        <ele>6.8000001907349</ele>
        <time>2021-12-05T08:41:14.000Z</time>
      </trkpt>
      <trkpt lat="47.30165" lon="-2.33949">
        <ele>7.1999998092651</ele>
        <time>2021-12-05T08:41:15.000Z</time>
      </trkpt>
      <trkpt lat="47.30168" lon="-2.33946">
        <ele>7.5999999046326</ele>
        <time>2021-12-05T08:41:16.000Z</time>
      </trkpt>
      <trkpt lat="47.30172" lon="-2.33942">
        <ele>8</ele>
        <time>2021-12-05T08:41:17.000Z</time>
      </trkpt>
      <trkpt lat="47.30179" lon="-2.33934">
        <ele>8</ele>
        <time>2021-12-05T08:41:19.000Z</time>
      </trkpt>
      <trkpt lat="47.30182" lon="-2.3393">
        <ele>8</ele>
        <time>2021-12-05T08:41:20.000Z</time>
      </trkpt>
      <trkpt lat="47.30189" lon="-2.33922">
        <ele>8</ele>
        <time>2021-12-05T08:41:22.000Z</time>
      </trkpt>
      <trkpt lat="47.30208" lon="-2.33903">
        <ele>8</ele>
        <time>2021-12-05T08:41:27.000Z</time>
      </trkpt>
      <trkpt lat="47.30216" lon="-2.33897">
        <ele>8</ele>
        <time>2021-12-05T08:41:29.000Z</time>
      </trkpt>
      <trkpt lat="47.30233" lon="-2.33883">
        <ele>8</ele>
        <time>2021-12-05T08:41:33.000Z</time>
      </trkpt>
      <trkpt lat="47.30237" lon="-2.3388">
        <ele>8.3999996185303</ele>
        <time>2021-12-05T08:41:34.000Z</time>
      </trkpt>
      <trkpt lat="47.30241" lon="-2.33878">
        <ele>8.8000001907349</ele>
        <time>2021-12-05T08:41:35.000Z</time>
      </trkpt>
      <trkpt lat="47.30245" lon="-2.33875">
        <ele>9.1999998092651</ele>
        <time>2021-12-05T08:41:36.000Z</time>
      </trkpt>
      <trkpt lat="47.30249" lon="-2.33873">
        <ele>9.6000003814697</ele>
        <time>2021-12-05T08:41:37.000Z</time>
      </trkpt>
      <trkpt lat="47.30253" lon="-2.3387">
        <ele>10.199999809265</ele>
        <time>2021-12-05T08:41:38.000Z</time>
      </trkpt>
      <trkpt lat="47.30264" lon="-2.33861">
        <ele>10.199999809265</ele>
        <time>2021-12-05T08:41:41.000Z</time>
      </trkpt>
      <trkpt lat="47.30291" lon="-2.33838">
        <ele>10.199999809265</ele>
        <time>2021-12-05T08:41:48.000Z</time>
      </trkpt>
      <trkpt lat="47.30317" lon="-2.33823">
        <ele>10.199999809265</ele>
        <time>2021-12-05T08:41:54.000Z</time>
      </trkpt>
      <trkpt lat="47.30324" lon="-2.3382">
        <ele>10.60000038147</ele>
        <time>2021-12-05T08:41:56.000Z</time>
      </trkpt>
      <trkpt lat="47.30326" lon="-2.33818">
        <ele>11</ele>
        <time>2021-12-05T08:41:57.000Z</time>
      </trkpt>
      <trkpt lat="47.30329" lon="-2.33815">
        <ele>11.39999961853</ele>
        <time>2021-12-05T08:41:58.000Z</time>
      </trkpt>
      <trkpt lat="47.30331" lon="-2.33814">
        <ele>11.800000190735</ele>
        <time>2021-12-05T08:41:59.000Z</time>
      </trkpt>
      <trkpt lat="47.30333" lon="-2.33812">
        <ele>12.199999809265</ele>
        <time>2021-12-05T08:42:00.000Z</time>
      </trkpt>
      <trkpt lat="47.30344" lon="-2.33797">
        <ele>12.199999809265</ele>
        <time>2021-12-05T08:42:05.000Z</time>
      </trkpt>
      <trkpt lat="47.30366" lon="-2.33771">
        <ele>12.199999809265</ele>
        <time>2021-12-05T08:42:11.000Z</time>
      </trkpt>
      <trkpt lat="47.30392" lon="-2.33736">
        <ele>12.199999809265</ele>
        <time>2021-12-05T08:42:18.000Z</time>
      </trkpt>
      <trkpt lat="47.30411" lon="-2.337">
        <ele>12.199999809265</ele>
        <time>2021-12-05T08:42:25.000Z</time>
      </trkpt>
      <trkpt lat="47.30415" lon="-2.33695">
        <ele>12.199999809265</ele>
        <time>2021-12-05T08:42:26.000Z</time>
      </trkpt>
      <trkpt lat="47.3043" lon="-2.33688">
        <ele>12.199999809265</ele>
        <time>2021-12-05T08:42:29.000Z</time>
      </trkpt>
      <trkpt lat="47.3044" lon="-2.33685">
        <ele>11.800000190735</ele>
        <time>2021-12-05T08:42:31.000Z</time>
      </trkpt>
      <trkpt lat="47.30445" lon="-2.33681">
        <ele>11.39999961853</ele>
        <time>2021-12-05T08:42:32.000Z</time>
      </trkpt>
      <trkpt lat="47.3045" lon="-2.33678">
        <ele>11</ele>
        <time>2021-12-05T08:42:33.000Z</time>
      </trkpt>
      <trkpt lat="47.30454" lon="-2.33675">
        <ele>10.60000038147</ele>
        <time>2021-12-05T08:42:34.000Z</time>
      </trkpt>
      <trkpt lat="47.30459" lon="-2.33673">
        <ele>10.199999809265</ele>
        <time>2021-12-05T08:42:35.000Z</time>
      </trkpt>
      <trkpt lat="47.30483" lon="-2.3366">
        <ele>10.199999809265</ele>
        <time>2021-12-05T08:42:40.000Z</time>
      </trkpt>
      <trkpt lat="47.30509" lon="-2.33649">
        <ele>10.199999809265</ele>
        <time>2021-12-05T08:42:45.000Z</time>
      </trkpt>
      <trkpt lat="47.30514" lon="-2.33648">
        <ele>10.199999809265</ele>
        <time>2021-12-05T08:42:46.000Z</time>
      </trkpt>
      <trkpt lat="47.30524" lon="-2.33647">
        <ele>10.199999809265</ele>
        <time>2021-12-05T08:42:48.000Z</time>
      </trkpt>
      <trkpt lat="47.30534" lon="-2.33646">
        <ele>10.199999809265</ele>
        <time>2021-12-05T08:42:50.000Z</time>
      </trkpt>
      <trkpt lat="47.3055" lon="-2.33651">
        <ele>10.199999809265</ele>
        <time>2021-12-05T08:42:54.000Z</time>
      </trkpt>
      <trkpt lat="47.30556" lon="-2.33673">
        <ele>10.199999809265</ele>
        <time>2021-12-05T08:42:58.000Z</time>
      </trkpt>
      <trkpt lat="47.30563" lon="-2.33709">
        <ele>10.199999809265</ele>
        <time>2021-12-05T08:43:04.000Z</time>
      </trkpt>
      <trkpt lat="47.30571" lon="-2.3375">
        <ele>10.199999809265</ele>
        <time>2021-12-05T08:43:10.000Z</time>
      </trkpt>
      <trkpt lat="47.30574" lon="-2.33768">
        <ele>10.60000038147</ele>
        <time>2021-12-05T08:43:13.000Z</time>
      </trkpt>
      <trkpt lat="47.30575" lon="-2.33774">
        <ele>11</ele>
        <time>2021-12-05T08:43:14.000Z</time>
      </trkpt>
      <trkpt lat="47.30576" lon="-2.33779">
        <ele>11.39999961853</ele>
        <time>2021-12-05T08:43:15.000Z</time>
      </trkpt>
      <trkpt lat="47.30577" lon="-2.33784">
        <ele>11.800000190735</ele>
        <time>2021-12-05T08:43:16.000Z</time>
      </trkpt>
      <trkpt lat="47.30579" lon="-2.33791">
        <ele>12.199999809265</ele>
        <time>2021-12-05T08:43:17.000Z</time>
      </trkpt>
      <trkpt lat="47.30584" lon="-2.3381">
        <ele>12.199999809265</ele>
        <time>2021-12-05T08:43:20.000Z</time>
      </trkpt>
      <trkpt lat="47.30594" lon="-2.33843">
        <ele>12.199999809265</ele>
        <time>2021-12-05T08:43:26.000Z</time>
      </trkpt>
      <trkpt lat="47.30598" lon="-2.33871">
        <ele>12.199999809265</ele>
        <time>2021-12-05T08:43:31.000Z</time>
      </trkpt>
      <trkpt lat="47.306" lon="-2.33892">
        <ele>12.199999809265</ele>
        <time>2021-12-05T08:43:35.000Z</time>
      </trkpt>
      <trkpt lat="47.30603" lon="-2.33917">
        <ele>12.199999809265</ele>
        <time>2021-12-05T08:43:39.000Z</time>
      </trkpt>
      <trkpt lat="47.30604" lon="-2.33923">
        <ele>12.199999809265</ele>
        <time>2021-12-05T08:43:40.000Z</time>
      </trkpt>
      <trkpt lat="47.3061" lon="-2.33951">
        <ele>12.199999809265</ele>
        <time>2021-12-05T08:43:45.000Z</time>
      </trkpt>
      <trkpt lat="47.30618" lon="-2.33962">
        <ele>12.199999809265</ele>
        <time>2021-12-05T08:43:48.000Z</time>
      </trkpt>
      <trkpt lat="47.30621" lon="-2.33965">
        <ele>12.199999809265</ele>
        <time>2021-12-05T08:43:49.000Z</time>
      </trkpt>
      <trkpt lat="47.30639" lon="-2.33986">
        <ele>12.199999809265</ele>
        <time>2021-12-05T08:43:54.000Z</time>
      </trkpt>
      <trkpt lat="47.30644" lon="-2.3399">
        <ele>12.199999809265</ele>
        <time>2021-12-05T08:43:55.000Z</time>
      </trkpt>
      <trkpt lat="47.3066" lon="-2.33994">
        <ele>12.199999809265</ele>
        <time>2021-12-05T08:43:58.000Z</time>
      </trkpt>
      <trkpt lat="47.30665" lon="-2.33995">
        <ele>12.199999809265</ele>
        <time>2021-12-05T08:43:59.000Z</time>
      </trkpt>
      <trkpt lat="47.30669" lon="-2.33994">
        <ele>12.199999809265</ele>
        <time>2021-12-05T08:44:00.000Z</time>
      </trkpt>
      <trkpt lat="47.30682" lon="-2.33994">
        <ele>12.199999809265</ele>
        <time>2021-12-05T08:44:03.000Z</time>
      </trkpt>
      <trkpt lat="47.3069" lon="-2.33992">
        <ele>12.199999809265</ele>
        <time>2021-12-05T08:44:05.000Z</time>
      </trkpt>
      <trkpt lat="47.30709" lon="-2.3399">
        <ele>12.199999809265</ele>
        <time>2021-12-05T08:44:09.000Z</time>
      </trkpt>
      <trkpt lat="47.30735" lon="-2.33982">
        <ele>12.199999809265</ele>
        <time>2021-12-05T08:44:16.000Z</time>
      </trkpt>
      <trkpt lat="47.30756" lon="-2.33976">
        <ele>12.199999809265</ele>
        <time>2021-12-05T08:44:24.000Z</time>
      </trkpt>
      <trkpt lat="47.30772" lon="-2.33971">
        <ele>12.199999809265</ele>
        <time>2021-12-05T08:44:32.000Z</time>
      </trkpt>
      <trkpt lat="47.30784" lon="-2.33968">
        <ele>12.199999809265</ele>
        <time>2021-12-05T08:44:39.000Z</time>
      </trkpt>
      <trkpt lat="47.30796" lon="-2.33964">
        <ele>12.199999809265</ele>
        <time>2021-12-05T08:44:45.000Z</time>
      </trkpt>
      <trkpt lat="47.30809" lon="-2.3396">
        <ele>12.199999809265</ele>
        <time>2021-12-05T08:44:52.000Z</time>
      </trkpt>
      <trkpt lat="47.30823" lon="-2.33957">
        <ele>12.199999809265</ele>
        <time>2021-12-05T08:44:58.000Z</time>
      </trkpt>
      <trkpt lat="47.30846" lon="-2.33951">
        <ele>12.199999809265</ele>
        <time>2021-12-05T08:45:05.000Z</time>
      </trkpt>
      <trkpt lat="47.30875" lon="-2.33946">
        <ele>12.199999809265</ele>
        <time>2021-12-05T08:45:12.000Z</time>
      </trkpt>
      <trkpt lat="47.30909" lon="-2.33943">
        <ele>12.199999809265</ele>
        <time>2021-12-05T08:45:20.000Z</time>
      </trkpt>
      <trkpt lat="47.30941" lon="-2.33948">
        <ele>12.199999809265</ele>
        <time>2021-12-05T08:45:27.000Z</time>
      </trkpt>
      <trkpt lat="47.30973" lon="-2.33955">
        <ele>12.199999809265</ele>
        <time>2021-12-05T08:45:34.000Z</time>
      </trkpt>
      <trkpt lat="47.30978" lon="-2.33956">
        <ele>12.199999809265</ele>
        <time>2021-12-05T08:45:35.000Z</time>
      </trkpt>
      <trkpt lat="47.31007" lon="-2.33952">
        <ele>12.199999809265</ele>
        <time>2021-12-05T08:45:41.000Z</time>
      </trkpt>
      <trkpt lat="47.31032" lon="-2.3395">
        <ele>12.199999809265</ele>
        <time>2021-12-05T08:45:46.000Z</time>
      </trkpt>
      <trkpt lat="47.31043" lon="-2.33949">
        <ele>12.199999809265</ele>
        <time>2021-12-05T08:45:48.000Z</time>
      </trkpt>
      <trkpt lat="47.31054" lon="-2.33946">
        <ele>12.199999809265</ele>
        <time>2021-12-05T08:45:51.000Z</time>
      </trkpt>
      <trkpt lat="47.31059" lon="-2.33941">
        <ele>12.199999809265</ele>
        <time>2021-12-05T08:45:53.000Z</time>
      </trkpt>
      <trkpt lat="47.31061" lon="-2.33936">
        <ele>11.800000190735</ele>
        <time>2021-12-05T08:45:54.000Z</time>
      </trkpt>
      <trkpt lat="47.31063" lon="-2.33931">
        <ele>11.39999961853</ele>
        <time>2021-12-05T08:45:55.000Z</time>
      </trkpt>
      <trkpt lat="47.31063" lon="-2.33925">
        <ele>11</ele>
        <time>2021-12-05T08:45:56.000Z</time>
      </trkpt>
      <trkpt lat="47.31063" lon="-2.33919">
        <ele>10.60000038147</ele>
        <time>2021-12-05T08:45:57.000Z</time>
      </trkpt>
      <trkpt lat="47.31063" lon="-2.33912">
        <ele>10.199999809265</ele>
        <time>2021-12-05T08:45:58.000Z</time>
      </trkpt>
      <trkpt lat="47.31063" lon="-2.33905">
        <ele>10.199999809265</ele>
        <time>2021-12-05T08:45:59.000Z</time>
      </trkpt>
      <trkpt lat="47.31065" lon="-2.33851">
        <ele>10.199999809265</ele>
        <time>2021-12-05T08:46:07.000Z</time>
      </trkpt>
      <trkpt lat="47.31072" lon="-2.33799">
        <ele>10.199999809265</ele>
        <time>2021-12-05T08:46:14.000Z</time>
      </trkpt>
      <trkpt lat="47.31091" lon="-2.3375">
        <ele>10.199999809265</ele>
        <time>2021-12-05T08:46:21.000Z</time>
      </trkpt>
      <trkpt lat="47.311" lon="-2.33707">
        <ele>10.199999809265</ele>
        <time>2021-12-05T08:46:27.000Z</time>
      </trkpt>
      <trkpt lat="47.31106" lon="-2.33652">
        <ele>10.199999809265</ele>
        <time>2021-12-05T08:46:35.000Z</time>
      </trkpt>
      <trkpt lat="47.31113" lon="-2.33611">
        <ele>10.199999809265</ele>
        <time>2021-12-05T08:46:41.000Z</time>
      </trkpt>
      <trkpt lat="47.31113" lon="-2.33605">
        <ele>10.199999809265</ele>
        <time>2021-12-05T08:46:42.000Z</time>
      </trkpt>
      <trkpt lat="47.31114" lon="-2.33574">
        <ele>10.199999809265</ele>
        <time>2021-12-05T08:46:47.000Z</time>
      </trkpt>
      <trkpt lat="47.31114" lon="-2.33568">
        <ele>10.199999809265</ele>
        <time>2021-12-05T08:46:48.000Z</time>
      </trkpt>
      <trkpt lat="47.3111" lon="-2.33541">
        <ele>10.199999809265</ele>
        <time>2021-12-05T08:46:53.000Z</time>
      </trkpt>
      <trkpt lat="47.311" lon="-2.33493">
        <ele>10.199999809265</ele>
        <time>2021-12-05T08:47:00.000Z</time>
      </trkpt>
      <trkpt lat="47.31098" lon="-2.33441">
        <ele>10.199999809265</ele>
        <time>2021-12-05T08:47:06.000Z</time>
      </trkpt>
      <trkpt lat="47.31099" lon="-2.33392">
        <ele>10.199999809265</ele>
        <time>2021-12-05T08:47:12.000Z</time>
      </trkpt>
      <trkpt lat="47.311" lon="-2.33352">
        <ele>9.8000001907349</ele>
        <time>2021-12-05T08:47:17.000Z</time>
      </trkpt>
      <trkpt lat="47.311" lon="-2.33343">
        <ele>9.3999996185303</ele>
        <time>2021-12-05T08:47:18.000Z</time>
      </trkpt>
      <trkpt lat="47.311" lon="-2.33333">
        <ele>9</ele>
        <time>2021-12-05T08:47:19.000Z</time>
      </trkpt>
      <trkpt lat="47.31101" lon="-2.33323">
        <ele>8.6000003814697</ele>
        <time>2021-12-05T08:47:20.000Z</time>
      </trkpt>
      <trkpt lat="47.31101" lon="-2.33312">
        <ele>8.1999998092651</ele>
        <time>2021-12-05T08:47:21.000Z</time>
      </trkpt>
      <trkpt lat="47.31104" lon="-2.33279">
        <ele>8.1999998092651</ele>
        <time>2021-12-05T08:47:24.000Z</time>
      </trkpt>
      <trkpt lat="47.3111" lon="-2.33225">
        <ele>8.1999998092651</ele>
        <time>2021-12-05T08:47:29.000Z</time>
      </trkpt>
      <trkpt lat="47.31117" lon="-2.33207">
        <ele>8.1999998092651</ele>
        <time>2021-12-05T08:47:31.000Z</time>
      </trkpt>
      <trkpt lat="47.31133" lon="-2.33192">
        <ele>8.1999998092651</ele>
        <time>2021-12-05T08:47:34.000Z</time>
      </trkpt>
      <trkpt lat="47.31139" lon="-2.33188">
        <ele>8.1999998092651</ele>
        <time>2021-12-05T08:47:35.000Z</time>
      </trkpt>
      <trkpt lat="47.31145" lon="-2.33185">
        <ele>7.5999999046326</ele>
        <time>2021-12-05T08:47:36.000Z</time>
      </trkpt>
      <trkpt lat="47.31151" lon="-2.33182">
        <ele>7.1999998092651</ele>
        <time>2021-12-05T08:47:37.000Z</time>
      </trkpt>
      <trkpt lat="47.31157" lon="-2.33178">
        <ele>6.8000001907349</ele>
        <time>2021-12-05T08:47:38.000Z</time>
      </trkpt>
      <trkpt lat="47.31163" lon="-2.33174">
        <ele>6.4000000953674</ele>
        <time>2021-12-05T08:47:39.000Z</time>
      </trkpt>
      <trkpt lat="47.3117" lon="-2.3317">
        <ele>6</ele>
        <time>2021-12-05T08:47:40.000Z</time>
      </trkpt>
      <trkpt lat="47.31217" lon="-2.33148">
        <ele>6</ele>
        <time>2021-12-05T08:47:47.000Z</time>
      </trkpt>
      <trkpt lat="47.31231" lon="-2.33146">
        <ele>6</ele>
        <time>2021-12-05T08:47:49.000Z</time>
      </trkpt>
      <trkpt lat="47.31253" lon="-2.33149">
        <ele>6</ele>
        <time>2021-12-05T08:47:52.000Z</time>
      </trkpt>
      <trkpt lat="47.31289" lon="-2.33164">
        <ele>6</ele>
        <time>2021-12-05T08:47:58.000Z</time>
      </trkpt>
      <trkpt lat="47.31316" lon="-2.33186">
        <ele>6</ele>
        <time>2021-12-05T08:48:03.000Z</time>
      </trkpt>
      <trkpt lat="47.3132" lon="-2.3319">
        <ele>6</ele>
        <time>2021-12-05T08:48:04.000Z</time>
      </trkpt>
      <trkpt lat="47.31345" lon="-2.33215">
        <ele>6</ele>
        <time>2021-12-05T08:48:09.000Z</time>
      </trkpt>
      <trkpt lat="47.31355" lon="-2.33223">
        <ele>6</ele>
        <time>2021-12-05T08:48:11.000Z</time>
      </trkpt>
      <trkpt lat="47.31398" lon="-2.33253">
        <ele>6</ele>
        <time>2021-12-05T08:48:19.000Z</time>
      </trkpt>
      <trkpt lat="47.3144" lon="-2.33288">
        <ele>6</ele>
        <time>2021-12-05T08:48:27.000Z</time>
      </trkpt>
      <trkpt lat="47.31448" lon="-2.33299">
        <ele>6</ele>
        <time>2021-12-05T08:48:29.000Z</time>
      </trkpt>
      <trkpt lat="47.3146" lon="-2.33324">
        <ele>6</ele>
        <time>2021-12-05T08:48:33.000Z</time>
      </trkpt>
      <trkpt lat="47.31478" lon="-2.33363">
        <ele>6</ele>
        <time>2021-12-05T08:48:39.000Z</time>
      </trkpt>
      <trkpt lat="47.31483" lon="-2.33366">
        <ele>6</ele>
        <time>2021-12-05T08:48:40.000Z</time>
      </trkpt>
      <trkpt lat="47.31495" lon="-2.33365">
        <ele>6</ele>
        <time>2021-12-05T08:48:42.000Z</time>
      </trkpt>
      <trkpt lat="47.315" lon="-2.33363">
        <ele>6</ele>
        <time>2021-12-05T08:48:43.000Z</time>
      </trkpt>
      <trkpt lat="47.3153" lon="-2.33347">
        <ele>6</ele>
        <time>2021-12-05T08:48:49.000Z</time>
      </trkpt>
      <trkpt lat="47.31541" lon="-2.33342">
        <ele>6.4000000953674</ele>
        <time>2021-12-05T08:48:51.000Z</time>
      </trkpt>
      <trkpt lat="47.31546" lon="-2.33339">
        <ele>6.8000001907349</ele>
        <time>2021-12-05T08:48:52.000Z</time>
      </trkpt>
      <trkpt lat="47.31552" lon="-2.33337">
        <ele>7.1999998092651</ele>
        <time>2021-12-05T08:48:53.000Z</time>
      </trkpt>
      <trkpt lat="47.31557" lon="-2.33334">
        <ele>7.5999999046326</ele>
        <time>2021-12-05T08:48:54.000Z</time>
      </trkpt>
      <trkpt lat="47.31563" lon="-2.33332">
        <ele>8</ele>
        <time>2021-12-05T08:48:55.000Z</time>
      </trkpt>
      <trkpt lat="47.3158" lon="-2.33325">
        <ele>8</ele>
        <time>2021-12-05T08:48:58.000Z</time>
      </trkpt>
      <trkpt lat="47.31623" lon="-2.333">
        <ele>8</ele>
        <time>2021-12-05T08:49:06.000Z</time>
      </trkpt>
      <trkpt lat="47.3166" lon="-2.3328">
        <ele>8</ele>
        <time>2021-12-05T08:49:13.000Z</time>
      </trkpt>
      <trkpt lat="47.31693" lon="-2.33265">
        <ele>8</ele>
        <time>2021-12-05T08:49:19.000Z</time>
      </trkpt>
      <trkpt lat="47.31704" lon="-2.3326">
        <ele>7.5999999046326</ele>
        <time>2021-12-05T08:49:21.000Z</time>
      </trkpt>
      <trkpt lat="47.3171" lon="-2.33257">
        <ele>7.1999998092651</ele>
        <time>2021-12-05T08:49:22.000Z</time>
      </trkpt>
      <trkpt lat="47.31715" lon="-2.33255">
        <ele>6.8000001907349</ele>
        <time>2021-12-05T08:49:23.000Z</time>
      </trkpt>
      <trkpt lat="47.31721" lon="-2.33252">
        <ele>6.4000000953674</ele>
        <time>2021-12-05T08:49:24.000Z</time>
      </trkpt>
      <trkpt lat="47.31727" lon="-2.33249">
        <ele>6</ele>
        <time>2021-12-05T08:49:25.000Z</time>
      </trkpt>
      <trkpt lat="47.31733" lon="-2.33247">
        <ele>5.4000000953674</ele>
        <time>2021-12-05T08:49:26.000Z</time>
      </trkpt>
      <trkpt lat="47.31738" lon="-2.33246">
        <ele>5</ele>
        <time>2021-12-05T08:49:27.000Z</time>
      </trkpt>
      <trkpt lat="47.31742" lon="-2.33246">
        <ele>4.5999999046326</ele>
        <time>2021-12-05T08:49:28.000Z</time>
      </trkpt>
      <trkpt lat="47.31746" lon="-2.33249">
        <ele>4</ele>
        <time>2021-12-05T08:49:29.000Z</time>
      </trkpt>
      <trkpt lat="47.31748" lon="-2.33254">
        <ele>3.5999999046326</ele>
        <time>2021-12-05T08:49:30.000Z</time>
      </trkpt>
      <trkpt lat="47.31749" lon="-2.33259">
        <ele>3.5999999046326</ele>
        <time>2021-12-05T08:49:31.000Z</time>
      </trkpt>
      <trkpt lat="47.3175" lon="-2.3327">
        <ele>3.5999999046326</ele>
        <time>2021-12-05T08:49:33.000Z</time>
      </trkpt>
      <trkpt lat="47.31751" lon="-2.33276">
        <ele>3.5999999046326</ele>
        <time>2021-12-05T08:49:34.000Z</time>
      </trkpt>
      <trkpt lat="47.31755" lon="-2.33294">
        <ele>3.5999999046326</ele>
        <time>2021-12-05T08:49:37.000Z</time>
      </trkpt>
      <trkpt lat="47.31762" lon="-2.33311">
        <ele>3.2000000476837</ele>
        <time>2021-12-05T08:49:40.000Z</time>
      </trkpt>
      <trkpt lat="47.31764" lon="-2.33316">
        <ele>2.7999999523163</ele>
        <time>2021-12-05T08:49:41.000Z</time>
      </trkpt>
      <trkpt lat="47.31767" lon="-2.33321">
        <ele>2.4000000953674</ele>
        <time>2021-12-05T08:49:42.000Z</time>
      </trkpt>
      <trkpt lat="47.31771" lon="-2.33325">
        <ele>2</ele>
        <time>2021-12-05T08:49:43.000Z</time>
      </trkpt>
      <trkpt lat="47.31775" lon="-2.33326">
        <ele>1.6000000238419</ele>
        <time>2021-12-05T08:49:44.000Z</time>
      </trkpt>
      <trkpt lat="47.31783" lon="-2.33323">
        <ele>1.6000000238419</ele>
        <time>2021-12-05T08:49:46.000Z</time>
      </trkpt>
      <trkpt lat="47.31786" lon="-2.33321">
        <ele>1.2000000476837</ele>
        <time>2021-12-05T08:49:47.000Z</time>
      </trkpt>
      <trkpt lat="47.3179" lon="-2.33318">
        <ele>0.60000002384186</ele>
        <time>2021-12-05T08:49:48.000Z</time>
      </trkpt>
      <trkpt lat="47.31794" lon="-2.33315">
        <ele>0.20000000298023</ele>
        <time>2021-12-05T08:49:49.000Z</time>
      </trkpt>
      <trkpt lat="47.31799" lon="-2.33311">
        <ele>-0.20000000298023</ele>
        <time>2021-12-05T08:49:50.000Z</time>
      </trkpt>
      <trkpt lat="47.31803" lon="-2.33307">
        <ele>-0.80000001192093</ele>
        <time>2021-12-05T08:49:51.000Z</time>
      </trkpt>
      <trkpt lat="47.31808" lon="-2.33303">
        <ele>-1.2000000476837</ele>
        <time>2021-12-05T08:49:52.000Z</time>
      </trkpt>
      <trkpt lat="47.31812" lon="-2.33299">
        <ele>-1.6000000238419</ele>
        <time>2021-12-05T08:49:53.000Z</time>
      </trkpt>
      <trkpt lat="47.31817" lon="-2.33295">
        <ele>-2</ele>
        <time>2021-12-05T08:49:54.000Z</time>
      </trkpt>
      <trkpt lat="47.31821" lon="-2.33292">
        <ele>-2.4000000953674</ele>
        <time>2021-12-05T08:49:55.000Z</time>
      </trkpt>
      <trkpt lat="47.31826" lon="-2.33289">
        <ele>-2.7999999523163</ele>
        <time>2021-12-05T08:49:56.000Z</time>
      </trkpt>
      <trkpt lat="47.31831" lon="-2.33285">
        <ele>-3.2000000476837</ele>
        <time>2021-12-05T08:49:57.000Z</time>
      </trkpt>
      <trkpt lat="47.31836" lon="-2.33282">
        <ele>-3.5999999046326</ele>
        <time>2021-12-05T08:49:58.000Z</time>
      </trkpt>
      <trkpt lat="47.31841" lon="-2.33278">
        <ele>-4</ele>
        <time>2021-12-05T08:49:59.000Z</time>
      </trkpt>
      <trkpt lat="47.31845" lon="-2.33274">
        <ele>-4.8000001907349</ele>
        <time>2021-12-05T08:50:00.000Z</time>
      </trkpt>
      <trkpt lat="47.31854" lon="-2.33258">
        <ele>-4.8000001907349</ele>
        <time>2021-12-05T08:50:03.000Z</time>
      </trkpt>
      <trkpt lat="47.31856" lon="-2.3324">
        <ele>-4.8000001907349</ele>
        <time>2021-12-05T08:50:05.000Z</time>
      </trkpt>
      <trkpt lat="47.31859" lon="-2.33213">
        <ele>-4.8000001907349</ele>
        <time>2021-12-05T08:50:08.000Z</time>
      </trkpt>
      <trkpt lat="47.31861" lon="-2.33188">
        <ele>-5.1999998092651</ele>
        <time>2021-12-05T08:50:11.000Z</time>
      </trkpt>
      <trkpt lat="47.31862" lon="-2.33179">
        <ele>-5.5999999046326</ele>
        <time>2021-12-05T08:50:12.000Z</time>
      </trkpt>
      <trkpt lat="47.31863" lon="-2.33171">
        <ele>-6</ele>
        <time>2021-12-05T08:50:13.000Z</time>
      </trkpt>
      <trkpt lat="47.31864" lon="-2.33163">
        <ele>-6.4000000953674</ele>
        <time>2021-12-05T08:50:14.000Z</time>
      </trkpt>
      <trkpt lat="47.31864" lon="-2.33156">
        <ele>-6.8000001907349</ele>
        <time>2021-12-05T08:50:15.000Z</time>
      </trkpt>
      <trkpt lat="47.31868" lon="-2.33122">
        <ele>-7.1999998092651</ele>
        <time>2021-12-05T08:50:19.000Z</time>
      </trkpt>
      <trkpt lat="47.31869" lon="-2.33112">
        <ele>-7.5999999046326</ele>
        <time>2021-12-05T08:50:20.000Z</time>
      </trkpt>
      <trkpt lat="47.3187" lon="-2.33103">
        <ele>-8</ele>
        <time>2021-12-05T08:50:21.000Z</time>
      </trkpt>
      <trkpt lat="47.3187" lon="-2.33094">
        <ele>-8.3999996185303</ele>
        <time>2021-12-05T08:50:22.000Z</time>
      </trkpt>
      <trkpt lat="47.31871" lon="-2.33084">
        <ele>-8.8000001907349</ele>
        <time>2021-12-05T08:50:23.000Z</time>
      </trkpt>
      <trkpt lat="47.31874" lon="-2.33055">
        <ele>-9.1999998092651</ele>
        <time>2021-12-05T08:50:26.000Z</time>
      </trkpt>
      <trkpt lat="47.31875" lon="-2.33044">
        <ele>-9.8000001907349</ele>
        <time>2021-12-05T08:50:27.000Z</time>
      </trkpt>
      <trkpt lat="47.31875" lon="-2.33033">
        <ele>-10.199999809265</ele>
        <time>2021-12-05T08:50:28.000Z</time>
      </trkpt>
      <trkpt lat="47.31875" lon="-2.33022">
        <ele>-10.60000038147</ele>
        <time>2021-12-05T08:50:29.000Z</time>
      </trkpt>
      <trkpt lat="47.31875" lon="-2.33012">
        <ele>-11</ele>
        <time>2021-12-05T08:50:30.000Z</time>
      </trkpt>
      <trkpt lat="47.31874" lon="-2.33003">
        <ele>-11</ele>
        <time>2021-12-05T08:50:31.000Z</time>
      </trkpt>
      <trkpt lat="47.31875" lon="-2.32994">
        <ele>-11</ele>
        <time>2021-12-05T08:50:32.000Z</time>
      </trkpt>
      <trkpt lat="47.3188" lon="-2.32936">
        <ele>-11</ele>
        <time>2021-12-05T08:50:39.000Z</time>
      </trkpt>
      <trkpt lat="47.3188" lon="-2.32928">
        <ele>-11</ele>
        <time>2021-12-05T08:50:40.000Z</time>
      </trkpt>
      <trkpt lat="47.31879" lon="-2.32894">
        <ele>-11</ele>
        <time>2021-12-05T08:50:44.000Z</time>
      </trkpt>
      <trkpt lat="47.3188" lon="-2.32863">
        <ele>-11</ele>
        <time>2021-12-05T08:50:47.000Z</time>
      </trkpt>
      <trkpt lat="47.31881" lon="-2.32844">
        <ele>-11</ele>
        <time>2021-12-05T08:50:49.000Z</time>
      </trkpt>
      <trkpt lat="47.31878" lon="-2.32794">
        <ele>-11</ele>
        <time>2021-12-05T08:50:55.000Z</time>
      </trkpt>
      <trkpt lat="47.31878" lon="-2.32778">
        <ele>-11</ele>
        <time>2021-12-05T08:50:57.000Z</time>
      </trkpt>
      <trkpt lat="47.31875" lon="-2.32763">
        <ele>-10.60000038147</ele>
        <time>2021-12-05T08:50:59.000Z</time>
      </trkpt>
      <trkpt lat="47.31873" lon="-2.32756">
        <ele>-10.199999809265</ele>
        <time>2021-12-05T08:51:00.000Z</time>
      </trkpt>
      <trkpt lat="47.31871" lon="-2.3275">
        <ele>-9.8000001907349</ele>
        <time>2021-12-05T08:51:01.000Z</time>
      </trkpt>
      <trkpt lat="47.31869" lon="-2.32744">
        <ele>-9.3999996185303</ele>
        <time>2021-12-05T08:51:02.000Z</time>
      </trkpt>
      <trkpt lat="47.31867" lon="-2.32737">
        <ele>-8.8000001907349</ele>
        <time>2021-12-05T08:51:03.000Z</time>
      </trkpt>
      <trkpt lat="47.3186" lon="-2.3272">
        <ele>-8.8000001907349</ele>
        <time>2021-12-05T08:51:06.000Z</time>
      </trkpt>
      <trkpt lat="47.31846" lon="-2.32688">
        <ele>-8.8000001907349</ele>
        <time>2021-12-05T08:51:12.000Z</time>
      </trkpt>
      <trkpt lat="47.31835" lon="-2.3266">
        <ele>-8.8000001907349</ele>
        <time>2021-12-05T08:51:17.000Z</time>
      </trkpt>
      <trkpt lat="47.31832" lon="-2.32644">
        <ele>-8.3999996185303</ele>
        <time>2021-12-05T08:51:20.000Z</time>
      </trkpt>
      <trkpt lat="47.31831" lon="-2.32639">
        <ele>-8</ele>
        <time>2021-12-05T08:51:21.000Z</time>
      </trkpt>
      <trkpt lat="47.3183" lon="-2.32634">
        <ele>-7.5999999046326</ele>
        <time>2021-12-05T08:51:22.000Z</time>
      </trkpt>
      <trkpt lat="47.31828" lon="-2.32628">
        <ele>-7.1999998092651</ele>
        <time>2021-12-05T08:51:23.000Z</time>
      </trkpt>
      <trkpt lat="47.31827" lon="-2.32623">
        <ele>-6.8000001907349</ele>
        <time>2021-12-05T08:51:24.000Z</time>
      </trkpt>
      <trkpt lat="47.3182" lon="-2.3259">
        <ele>-6.8000001907349</ele>
        <time>2021-12-05T08:51:30.000Z</time>
      </trkpt>
      <trkpt lat="47.31813" lon="-2.32555">
        <ele>-6.4000000953674</ele>
        <time>2021-12-05T08:51:36.000Z</time>
      </trkpt>
      <trkpt lat="47.31812" lon="-2.32549">
        <ele>-6</ele>
        <time>2021-12-05T08:51:37.000Z</time>
      </trkpt>
      <trkpt lat="47.3181" lon="-2.32544">
        <ele>-5.5999999046326</ele>
        <time>2021-12-05T08:51:38.000Z</time>
      </trkpt>
      <trkpt lat="47.31809" lon="-2.3254">
        <ele>-4.8000001907349</ele>
        <time>2021-12-05T08:51:39.000Z</time>
      </trkpt>
      <trkpt lat="47.31807" lon="-2.32531">
        <ele>-4.8000001907349</ele>
        <time>2021-12-05T08:51:41.000Z</time>
      </trkpt>
      <trkpt lat="47.31801" lon="-2.32498">
        <ele>-4.4000000953674</ele>
        <time>2021-12-05T08:51:48.000Z</time>
      </trkpt>
      <trkpt lat="47.31801" lon="-2.32495">
        <ele>-4</ele>
        <time>2021-12-05T08:51:49.000Z</time>
      </trkpt>
      <trkpt lat="47.318" lon="-2.32491">
        <ele>-3.5999999046326</ele>
        <time>2021-12-05T08:51:50.000Z</time>
      </trkpt>
      <trkpt lat="47.318" lon="-2.32488">
        <ele>-3.2000000476837</ele>
        <time>2021-12-05T08:51:51.000Z</time>
      </trkpt>
      <trkpt lat="47.31799" lon="-2.32484">
        <ele>-2.7999999523163</ele>
        <time>2021-12-05T08:51:52.000Z</time>
      </trkpt>
      <trkpt lat="47.31795" lon="-2.32472">
        <ele>-2.2000000476837</ele>
        <time>2021-12-05T08:51:55.000Z</time>
      </trkpt>
      <trkpt lat="47.31794" lon="-2.32467">
        <ele>-1.7999999523163</ele>
        <time>2021-12-05T08:51:56.000Z</time>
      </trkpt>
      <trkpt lat="47.31793" lon="-2.32461">
        <ele>-1.3999999761581</ele>
        <time>2021-12-05T08:51:57.000Z</time>
      </trkpt>
      <trkpt lat="47.31793" lon="-2.32454">
        <ele>-1</ele>
        <time>2021-12-05T08:51:58.000Z</time>
      </trkpt>
      <trkpt lat="47.31792" lon="-2.32448">
        <ele>-0.60000002384186</ele>
        <time>2021-12-05T08:51:59.000Z</time>
      </trkpt>
      <trkpt lat="47.31792" lon="-2.32442">
        <ele>-0.60000002384186</ele>
        <time>2021-12-05T08:52:00.000Z</time>
      </trkpt>
      <trkpt lat="47.31784" lon="-2.32395">
        <ele>-0.60000002384186</ele>
        <time>2021-12-05T08:52:08.000Z</time>
      </trkpt>
      <trkpt lat="47.31783" lon="-2.32389">
        <ele>-0.20000000298023</ele>
        <time>2021-12-05T08:52:09.000Z</time>
      </trkpt>
      <trkpt lat="47.31782" lon="-2.32384">
        <ele>0.20000000298023</ele>
        <time>2021-12-05T08:52:10.000Z</time>
      </trkpt>
      <trkpt lat="47.31781" lon="-2.32378">
        <ele>0.60000002384186</ele>
        <time>2021-12-05T08:52:11.000Z</time>
      </trkpt>
      <trkpt lat="47.3178" lon="-2.32373">
        <ele>1</ele>
        <time>2021-12-05T08:52:12.000Z</time>
      </trkpt>
      <trkpt lat="47.31779" lon="-2.32367">
        <ele>1.3999999761581</ele>
        <time>2021-12-05T08:52:13.000Z</time>
      </trkpt>
      <trkpt lat="47.31778" lon="-2.32361">
        <ele>1.3999999761581</ele>
        <time>2021-12-05T08:52:14.000Z</time>
      </trkpt>
      <trkpt lat="47.31771" lon="-2.32325">
        <ele>1.3999999761581</ele>
        <time>2021-12-05T08:52:20.000Z</time>
      </trkpt>
      <trkpt lat="47.31764" lon="-2.32284">
        <ele>1.3999999761581</ele>
        <time>2021-12-05T08:52:27.000Z</time>
      </trkpt>
      <trkpt lat="47.31759" lon="-2.32263">
        <ele>1.7999999523163</ele>
        <time>2021-12-05T08:52:31.000Z</time>
      </trkpt>
      <trkpt lat="47.31758" lon="-2.32259">
        <ele>2.2000000476837</ele>
        <time>2021-12-05T08:52:32.000Z</time>
      </trkpt>
      <trkpt lat="47.31757" lon="-2.32255">
        <ele>2.7999999523163</ele>
        <time>2021-12-05T08:52:33.000Z</time>
      </trkpt>
      <trkpt lat="47.31756" lon="-2.32251">
        <ele>3.2000000476837</ele>
        <time>2021-12-05T08:52:34.000Z</time>
      </trkpt>
      <trkpt lat="47.31756" lon="-2.32247">
        <ele>3.5999999046326</ele>
        <time>2021-12-05T08:52:35.000Z</time>
      </trkpt>
      <trkpt lat="47.3176" lon="-2.32239">
        <ele>3.5999999046326</ele>
        <time>2021-12-05T08:52:38.000Z</time>
      </trkpt>
      <trkpt lat="47.31778" lon="-2.32232">
        <ele>3.5999999046326</ele>
        <time>2021-12-05T08:52:45.000Z</time>
      </trkpt>
      <trkpt lat="47.31802" lon="-2.32228">
        <ele>3.5999999046326</ele>
        <time>2021-12-05T08:52:52.000Z</time>
      </trkpt>
      <trkpt lat="47.31829" lon="-2.32224">
        <ele>3.5999999046326</ele>
        <time>2021-12-05T08:52:59.000Z</time>
      </trkpt>
      <trkpt lat="47.31834" lon="-2.32223">
        <ele>3</ele>
        <time>2021-12-05T08:53:00.000Z</time>
      </trkpt>
      <trkpt lat="47.31839" lon="-2.32222">
        <ele>2.5999999046326</ele>
        <time>2021-12-05T08:53:01.000Z</time>
      </trkpt>
      <trkpt lat="47.31844" lon="-2.32221">
        <ele>2.2000000476837</ele>
        <time>2021-12-05T08:53:02.000Z</time>
      </trkpt>
      <trkpt lat="47.3185" lon="-2.3222">
        <ele>1.7999999523163</ele>
        <time>2021-12-05T08:53:03.000Z</time>
      </trkpt>
      <trkpt lat="47.31856" lon="-2.32218">
        <ele>1.3999999761581</ele>
        <time>2021-12-05T08:53:04.000Z</time>
      </trkpt>
      <trkpt lat="47.31868" lon="-2.32214">
        <ele>0.80000001192093</ele>
        <time>2021-12-05T08:53:06.000Z</time>
      </trkpt>
      <trkpt lat="47.31875" lon="-2.32212">
        <ele>0.40000000596046</ele>
        <time>2021-12-05T08:53:07.000Z</time>
      </trkpt>
      <trkpt lat="47.31881" lon="-2.3221">
        <ele>23.1</ele>
        <time>2021-12-05T08:53:08.000Z</time>
      </trkpt>
      <trkpt lat="47.31888" lon="-2.32208">
        <ele>-0.40000000596046</ele>
        <time>2021-12-05T08:53:09.000Z</time>
      </trkpt>
      <trkpt lat="47.31894" lon="-2.32206">
        <ele>-0.80000001192093</ele>
        <time>2021-12-05T08:53:10.000Z</time>
      </trkpt>
      <trkpt lat="47.31915" lon="-2.32205">
        <ele>-0.80000001192093</ele>
        <time>2021-12-05T08:53:13.000Z</time>
      </trkpt>
      <trkpt lat="47.31922" lon="-2.32206">
        <ele>-1.2000000476837</ele>
        <time>2021-12-05T08:53:14.000Z</time>
      </trkpt>
      <trkpt lat="47.31929" lon="-2.32207">
        <ele>-1.7999999523163</ele>
        <time>2021-12-05T08:53:15.000Z</time>
      </trkpt>
      <trkpt lat="47.31936" lon="-2.32209">
        <ele>-2.2000000476837</ele>
        <time>2021-12-05T08:53:16.000Z</time>
      </trkpt>
      <trkpt lat="47.31942" lon="-2.32211">
        <ele>-2.7999999523163</ele>
        <time>2021-12-05T08:53:17.000Z</time>
      </trkpt>
      <trkpt lat="47.31948" lon="-2.32213">
        <ele>-3.7999999523163</ele>
        <time>2021-12-05T08:53:18.000Z</time>
      </trkpt>
      <trkpt lat="47.31953" lon="-2.32215">
        <ele>-4.4000000953674</ele>
        <time>2021-12-05T08:53:19.000Z</time>
      </trkpt>
      <trkpt lat="47.31956" lon="-2.32218">
        <ele>-5</ele>
        <time>2021-12-05T08:53:20.000Z</time>
      </trkpt>
      <trkpt lat="47.31958" lon="-2.32223">
        <ele>-5.5999999046326</ele>
        <time>2021-12-05T08:53:21.000Z</time>
      </trkpt>
      <trkpt lat="47.31959" lon="-2.32228">
        <ele>-6.1999998092651</ele>
        <time>2021-12-05T08:53:22.000Z</time>
      </trkpt>
      <trkpt lat="47.31958" lon="-2.32233">
        <ele>-6.5999999046326</ele>
        <time>2021-12-05T08:53:23.000Z</time>
      </trkpt>
      <trkpt lat="47.31956" lon="-2.32238">
        <ele>-7.1999998092651</ele>
        <time>2021-12-05T08:53:24.000Z</time>
      </trkpt>
      <trkpt lat="47.31954" lon="-2.32243">
        <ele>-7.8000001907349</ele>
        <time>2021-12-05T08:53:25.000Z</time>
      </trkpt>
      <trkpt lat="47.31953" lon="-2.32247">
        <ele>-8.3999996185303</ele>
        <time>2021-12-05T08:53:26.000Z</time>
      </trkpt>
      <trkpt lat="47.31957" lon="-2.32263">
        <ele>-8.3999996185303</ele>
        <time>2021-12-05T08:53:30.000Z</time>
      </trkpt>
      <trkpt lat="47.31964" lon="-2.32256">
        <ele>-8.8000001907349</ele>
        <time>2021-12-05T08:53:32.000Z</time>
      </trkpt>
      <trkpt lat="47.31967" lon="-2.32249">
        <ele>-9.1999998092651</ele>
        <time>2021-12-05T08:53:33.000Z</time>
      </trkpt>
      <trkpt lat="47.31971" lon="-2.32243">
        <ele>-9.6000003814697</ele>
        <time>2021-12-05T08:53:34.000Z</time>
      </trkpt>
      <trkpt lat="47.31975" lon="-2.32237">
        <ele>-10</ele>
        <time>2021-12-05T08:53:35.000Z</time>
      </trkpt>
      <trkpt lat="47.3198" lon="-2.3223">
        <ele>-10.60000038147</ele>
        <time>2021-12-05T08:53:36.000Z</time>
      </trkpt>
      <trkpt lat="47.31986" lon="-2.32223">
        <ele>-11</ele>
        <time>2021-12-05T08:53:37.000Z</time>
      </trkpt>
      <trkpt lat="47.31992" lon="-2.32217">
        <ele>-11.39999961853</ele>
        <time>2021-12-05T08:53:38.000Z</time>
      </trkpt>
      <trkpt lat="47.31998" lon="-2.32209">
        <ele>-11.800000190735</ele>
        <time>2021-12-05T08:53:39.000Z</time>
      </trkpt>
      <trkpt lat="47.32004" lon="-2.32202">
        <ele>-12.199999809265</ele>
        <time>2021-12-05T08:53:40.000Z</time>
      </trkpt>
      <trkpt lat="47.32011" lon="-2.32195">
        <ele>-12.800000190735</ele>
        <time>2021-12-05T08:53:41.000Z</time>
      </trkpt>
      <trkpt lat="47.3203" lon="-2.32185">
        <ele>-12.800000190735</ele>
        <time>2021-12-05T08:53:44.000Z</time>
      </trkpt>
      <trkpt lat="47.32037" lon="-2.32184">
        <ele>-12.800000190735</ele>
        <time>2021-12-05T08:53:45.000Z</time>
      </trkpt>
      <trkpt lat="47.32063" lon="-2.32182">
        <ele>-13.199999809265</ele>
        <time>2021-12-05T08:53:49.000Z</time>
      </trkpt>
      <trkpt lat="47.3207" lon="-2.32182">
        <ele>-13.60000038147</ele>
        <time>2021-12-05T08:53:50.000Z</time>
      </trkpt>
      <trkpt lat="47.32077" lon="-2.32182">
        <ele>-14</ele>
        <time>2021-12-05T08:53:51.000Z</time>
      </trkpt>
      <trkpt lat="47.32084" lon="-2.32181">
        <ele>-14.39999961853</ele>
        <time>2021-12-05T08:53:52.000Z</time>
      </trkpt>
      <trkpt lat="47.32091" lon="-2.32181">
        <ele>-15</ele>
        <time>2021-12-05T08:53:53.000Z</time>
      </trkpt>
      <trkpt lat="47.32125" lon="-2.32176">
        <ele>-15.39999961853</ele>
        <time>2021-12-05T08:53:58.000Z</time>
      </trkpt>
      <trkpt lat="47.32132" lon="-2.32173">
        <ele>-15.800000190735</ele>
        <time>2021-12-05T08:53:59.000Z</time>
      </trkpt>
      <trkpt lat="47.32138" lon="-2.3217">
        <ele>-16.200000762939</ele>
        <time>2021-12-05T08:54:00.000Z</time>
      </trkpt>
      <trkpt lat="47.32144" lon="-2.32167">
        <ele>-16.60000038147</ele>
        <time>2021-12-05T08:54:01.000Z</time>
      </trkpt>
      <trkpt lat="47.32151" lon="-2.32163">
        <ele>-17</ele>
        <time>2021-12-05T08:54:02.000Z</time>
      </trkpt>
      <trkpt lat="47.32162" lon="-2.32155">
        <ele>-17</ele>
        <time>2021-12-05T08:54:04.000Z</time>
      </trkpt>
      <trkpt lat="47.32185" lon="-2.32132">
        <ele>-17</ele>
        <time>2021-12-05T08:54:09.000Z</time>
      </trkpt>
      <trkpt lat="47.32199" lon="-2.32116">
        <ele>-17</ele>
        <time>2021-12-05T08:54:14.000Z</time>
      </trkpt>
      <trkpt lat="47.32202" lon="-2.32114">
        <ele>-17</ele>
        <time>2021-12-05T08:54:15.000Z</time>
      </trkpt>
      <trkpt lat="47.3221" lon="-2.32114">
        <ele>-17</ele>
        <time>2021-12-05T08:54:17.000Z</time>
      </trkpt>
      <trkpt lat="47.3224" lon="-2.32109">
        <ele>-17</ele>
        <time>2021-12-05T08:54:23.000Z</time>
      </trkpt>
      <trkpt lat="47.32275" lon="-2.32102">
        <ele>-17</ele>
        <time>2021-12-05T08:54:30.000Z</time>
      </trkpt>
      <trkpt lat="47.32305" lon="-2.32098">
        <ele>-17</ele>
        <time>2021-12-05T08:54:36.000Z</time>
      </trkpt>
      <trkpt lat="47.3231" lon="-2.32099">
        <ele>-17</ele>
        <time>2021-12-05T08:54:37.000Z</time>
      </trkpt>
      <trkpt lat="47.32345" lon="-2.32103">
        <ele>-17</ele>
        <time>2021-12-05T08:54:44.000Z</time>
      </trkpt>
      <trkpt lat="47.32359" lon="-2.32104">
        <ele>-17</ele>
        <time>2021-12-05T08:54:48.000Z</time>
      </trkpt>
      <trkpt lat="47.32368" lon="-2.32105">
        <ele>-17</ele>
        <time>2021-12-05T08:54:50.000Z</time>
      </trkpt>
      <trkpt lat="47.32383" lon="-2.32104">
        <ele>-17</ele>
        <time>2021-12-05T08:54:53.000Z</time>
      </trkpt>
      <trkpt lat="47.32401" lon="-2.32103">
        <ele>-17</ele>
        <time>2021-12-05T08:54:57.000Z</time>
      </trkpt>
      <trkpt lat="47.3241" lon="-2.32102">
        <ele>-17</ele>
        <time>2021-12-05T08:54:59.000Z</time>
      </trkpt>
      <trkpt lat="47.32437" lon="-2.32099">
        <ele>-17</ele>
        <time>2021-12-05T08:55:05.000Z</time>
      </trkpt>
      <trkpt lat="47.32473" lon="-2.32099">
        <ele>-17</ele>
        <time>2021-12-05T08:55:12.000Z</time>
      </trkpt>
      <trkpt lat="47.32493" lon="-2.32097">
        <ele>-17</ele>
        <time>2021-12-05T08:55:16.000Z</time>
      </trkpt>
      <trkpt lat="47.32499" lon="-2.32091">
        <ele>-17</ele>
        <time>2021-12-05T08:55:18.000Z</time>
      </trkpt>
      <trkpt lat="47.32501" lon="-2.32071">
        <ele>-17</ele>
        <time>2021-12-05T08:55:22.000Z</time>
      </trkpt>
      <trkpt lat="47.32501" lon="-2.32065">
        <ele>-17</ele>
        <time>2021-12-05T08:55:23.000Z</time>
      </trkpt>
      <trkpt lat="47.32501" lon="-2.32039">
        <ele>-17</ele>
        <time>2021-12-05T08:55:27.000Z</time>
      </trkpt>
      <trkpt lat="47.32503" lon="-2.31986">
        <ele>-17</ele>
        <time>2021-12-05T08:55:34.000Z</time>
      </trkpt>
      <trkpt lat="47.3251" lon="-2.31937">
        <ele>-17</ele>
        <time>2021-12-05T08:55:40.000Z</time>
      </trkpt>
      <trkpt lat="47.32516" lon="-2.31886">
        <ele>-17</ele>
        <time>2021-12-05T08:55:46.000Z</time>
      </trkpt>
      <trkpt lat="47.32519" lon="-2.31838">
        <ele>-16.60000038147</ele>
        <time>2021-12-05T08:55:52.000Z</time>
      </trkpt>
      <trkpt lat="47.32518" lon="-2.3183">
        <ele>-16.200000762939</ele>
        <time>2021-12-05T08:55:53.000Z</time>
      </trkpt>
      <trkpt lat="47.32518" lon="-2.31822">
        <ele>-15.800000190735</ele>
        <time>2021-12-05T08:55:54.000Z</time>
      </trkpt>
      <trkpt lat="47.32517" lon="-2.31814">
        <ele>-15.199999809265</ele>
        <time>2021-12-05T08:55:55.000Z</time>
      </trkpt>
      <trkpt lat="47.32517" lon="-2.31805">
        <ele>-14.800000190735</ele>
        <time>2021-12-05T08:55:56.000Z</time>
      </trkpt>
      <trkpt lat="47.32517" lon="-2.31797">
        <ele>-14.800000190735</ele>
        <time>2021-12-05T08:55:57.000Z</time>
      </trkpt>
      <trkpt lat="47.32517" lon="-2.31789">
        <ele>-14.800000190735</ele>
        <time>2021-12-05T08:55:58.000Z</time>
      </trkpt>
      <trkpt lat="47.32513" lon="-2.31747">
        <ele>-14.800000190735</ele>
        <time>2021-12-05T08:56:03.000Z</time>
      </trkpt>
      <trkpt lat="47.32513" lon="-2.31739">
        <ele>-14.800000190735</ele>
        <time>2021-12-05T08:56:04.000Z</time>
      </trkpt>
      <trkpt lat="47.32508" lon="-2.31679">
        <ele>-14.800000190735</ele>
        <time>2021-12-05T08:56:11.000Z</time>
      </trkpt>
      <trkpt lat="47.3251" lon="-2.31654">
        <ele>-14.800000190735</ele>
        <time>2021-12-05T08:56:14.000Z</time>
      </trkpt>
      <trkpt lat="47.32514" lon="-2.31641">
        <ele>-14.800000190735</ele>
        <time>2021-12-05T08:56:16.000Z</time>
      </trkpt>
      <trkpt lat="47.32522" lon="-2.31629">
        <ele>-14.800000190735</ele>
        <time>2021-12-05T08:56:18.000Z</time>
      </trkpt>
      <trkpt lat="47.32538" lon="-2.31607">
        <ele>-14.800000190735</ele>
        <time>2021-12-05T08:56:22.000Z</time>
      </trkpt>
      <trkpt lat="47.32555" lon="-2.31586">
        <ele>-14.800000190735</ele>
        <time>2021-12-05T08:56:27.000Z</time>
      </trkpt>
      <trkpt lat="47.32562" lon="-2.31581">
        <ele>-14.800000190735</ele>
        <time>2021-12-05T08:56:32.000Z</time>
      </trkpt>
      <trkpt lat="47.32573" lon="-2.31578">
        <ele>-14.800000190735</ele>
        <time>2021-12-05T08:56:38.000Z</time>
      </trkpt>
      <trkpt lat="47.32589" lon="-2.3157">
        <ele>-14.800000190735</ele>
        <time>2021-12-05T08:56:44.000Z</time>
      </trkpt>
      <trkpt lat="47.32599" lon="-2.31564">
        <ele>-14.800000190735</ele>
        <time>2021-12-05T08:56:48.000Z</time>
      </trkpt>
      <trkpt lat="47.32618" lon="-2.31555">
        <ele>-14.800000190735</ele>
        <time>2021-12-05T08:56:54.000Z</time>
      </trkpt>
      <trkpt lat="47.32634" lon="-2.3155">
        <ele>-15.199999809265</ele>
        <time>2021-12-05T08:56:59.000Z</time>
      </trkpt>
      <trkpt lat="47.32637" lon="-2.31549">
        <ele>-15.60000038147</ele>
        <time>2021-12-05T08:57:00.000Z</time>
      </trkpt>
      <trkpt lat="47.32639" lon="-2.31548">
        <ele>-16.60000038147</ele>
        <time>2021-12-05T08:57:01.000Z</time>
      </trkpt>
      <trkpt lat="47.32642" lon="-2.31547">
        <ele>-17</ele>
        <time>2021-12-05T08:57:02.000Z</time>
      </trkpt>
      <trkpt lat="47.3265" lon="-2.31545">
        <ele>-17</ele>
        <time>2021-12-05T08:57:05.000Z</time>
      </trkpt>
      <trkpt lat="47.32672" lon="-2.31536">
        <ele>-17</ele>
        <time>2021-12-05T08:57:13.000Z</time>
      </trkpt>
      <trkpt lat="47.32685" lon="-2.31525">
        <ele>-17</ele>
        <time>2021-12-05T08:57:19.000Z</time>
      </trkpt>
      <trkpt lat="47.32701" lon="-2.31514">
        <ele>-17</ele>
        <time>2021-12-05T08:57:24.000Z</time>
      </trkpt>
      <trkpt lat="47.32724" lon="-2.31496">
        <ele>-17</ele>
        <time>2021-12-05T08:57:30.000Z</time>
      </trkpt>
      <trkpt lat="47.32734" lon="-2.31481">
        <ele>-17</ele>
        <time>2021-12-05T08:57:33.000Z</time>
      </trkpt>
      <trkpt lat="47.3274" lon="-2.3147">
        <ele>-17</ele>
        <time>2021-12-05T08:57:35.000Z</time>
      </trkpt>
      <trkpt lat="47.32751" lon="-2.31447">
        <ele>-17.39999961853</ele>
        <time>2021-12-05T08:57:39.000Z</time>
      </trkpt>
      <trkpt lat="47.32754" lon="-2.3144">
        <ele>-17.799999237061</ele>
        <time>2021-12-05T08:57:40.000Z</time>
      </trkpt>
      <trkpt lat="47.32756" lon="-2.31433">
        <ele>-18.200000762939</ele>
        <time>2021-12-05T08:57:41.000Z</time>
      </trkpt>
      <trkpt lat="47.32758" lon="-2.31425">
        <ele>-18.60000038147</ele>
        <time>2021-12-05T08:57:42.000Z</time>
      </trkpt>
      <trkpt lat="47.32758" lon="-2.31417">
        <ele>-19</ele>
        <time>2021-12-05T08:57:43.000Z</time>
      </trkpt>
      <trkpt lat="47.32757" lon="-2.31404">
        <ele>-19</ele>
        <time>2021-12-05T08:57:45.000Z</time>
      </trkpt>
      <trkpt lat="47.32756" lon="-2.31398">
        <ele>-19</ele>
        <time>2021-12-05T08:57:46.000Z</time>
      </trkpt>
      <trkpt lat="47.32754" lon="-2.31366">
        <ele>-19</ele>
        <time>2021-12-05T08:57:52.000Z</time>
      </trkpt>
      <trkpt lat="47.32761" lon="-2.31349">
        <ele>-19</ele>
        <time>2021-12-05T08:57:56.000Z</time>
      </trkpt>
      <trkpt lat="47.32768" lon="-2.31343">
        <ele>-19</ele>
        <time>2021-12-05T08:57:58.000Z</time>
      </trkpt>
      <trkpt lat="47.32781" lon="-2.31336">
        <ele>-19</ele>
        <time>2021-12-05T08:58:01.000Z</time>
      </trkpt>
      <trkpt lat="47.3282" lon="-2.31323">
        <ele>-19</ele>
        <time>2021-12-05T08:58:08.000Z</time>
      </trkpt>
      <trkpt lat="47.32862" lon="-2.31307">
        <ele>-19</ele>
        <time>2021-12-05T08:58:16.000Z</time>
      </trkpt>
      <trkpt lat="47.32891" lon="-2.31296">
        <ele>-19.39999961853</ele>
        <time>2021-12-05T08:58:21.000Z</time>
      </trkpt>
      <trkpt lat="47.32896" lon="-2.31294">
        <ele>-19.799999237061</ele>
        <time>2021-12-05T08:58:22.000Z</time>
      </trkpt>
      <trkpt lat="47.32902" lon="-2.31292">
        <ele>-20.200000762939</ele>
        <time>2021-12-05T08:58:23.000Z</time>
      </trkpt>
      <trkpt lat="47.32908" lon="-2.3129">
        <ele>-20.60000038147</ele>
        <time>2021-12-05T08:58:24.000Z</time>
      </trkpt>
      <trkpt lat="47.32914" lon="-2.31287">
        <ele>-21</ele>
        <time>2021-12-05T08:58:25.000Z</time>
      </trkpt>
      <trkpt lat="47.3292" lon="-2.31284">
        <ele>-21</ele>
        <time>2021-12-05T08:58:26.000Z</time>
      </trkpt>
      <trkpt lat="47.32925" lon="-2.3128">
        <ele>-21</ele>
        <time>2021-12-05T08:58:27.000Z</time>
      </trkpt>
      <trkpt lat="47.32938" lon="-2.3126">
        <ele>-21</ele>
        <time>2021-12-05T08:58:30.000Z</time>
      </trkpt>
      <trkpt lat="47.32936" lon="-2.31242">
        <ele>-21</ele>
        <time>2021-12-05T08:58:32.000Z</time>
      </trkpt>
      <trkpt lat="47.32932" lon="-2.31224">
        <ele>-21</ele>
        <time>2021-12-05T08:58:34.000Z</time>
      </trkpt>
      <trkpt lat="47.32923" lon="-2.31196">
        <ele>-21</ele>
        <time>2021-12-05T08:58:37.000Z</time>
      </trkpt>
      <trkpt lat="47.32903" lon="-2.31118">
        <ele>-21</ele>
        <time>2021-12-05T08:58:45.000Z</time>
      </trkpt>
      <trkpt lat="47.32894" lon="-2.31061">
        <ele>-21</ele>
        <time>2021-12-05T08:58:51.000Z</time>
      </trkpt>
      <trkpt lat="47.32894" lon="-2.31008">
        <ele>-21</ele>
        <time>2021-12-05T08:58:57.000Z</time>
      </trkpt>
      <trkpt lat="47.32898" lon="-2.30956">
        <ele>-21</ele>
        <time>2021-12-05T08:59:03.000Z</time>
      </trkpt>
      <trkpt lat="47.32903" lon="-2.30904">
        <ele>-21</ele>
        <time>2021-12-05T08:59:09.000Z</time>
      </trkpt>
      <trkpt lat="47.32908" lon="-2.30836">
        <ele>-21</ele>
        <time>2021-12-05T08:59:17.000Z</time>
      </trkpt>
      <trkpt lat="47.32911" lon="-2.30822">
        <ele>-21</ele>
        <time>2021-12-05T08:59:19.000Z</time>
      </trkpt>
      <trkpt lat="47.32918" lon="-2.30813">
        <ele>-21</ele>
        <time>2021-12-05T08:59:21.000Z</time>
      </trkpt>
      <trkpt lat="47.32933" lon="-2.30811">
        <ele>-21</ele>
        <time>2021-12-05T08:59:24.000Z</time>
      </trkpt>
      <trkpt lat="47.32972" lon="-2.30807">
        <ele>-21</ele>
        <time>2021-12-05T08:59:30.000Z</time>
      </trkpt>
      <trkpt lat="47.33017" lon="-2.3081">
        <ele>-21</ele>
        <time>2021-12-05T08:59:37.000Z</time>
      </trkpt>
      <trkpt lat="47.33042" lon="-2.30809">
        <ele>-21</ele>
        <time>2021-12-05T08:59:41.000Z</time>
      </trkpt>
      <trkpt lat="47.33052" lon="-2.30801">
        <ele>-21.39999961853</ele>
        <time>2021-12-05T08:59:43.000Z</time>
      </trkpt>
      <trkpt lat="47.33056" lon="-2.30796">
        <ele>-21.799999237061</ele>
        <time>2021-12-05T08:59:44.000Z</time>
      </trkpt>
      <trkpt lat="47.33058" lon="-2.30789">
        <ele>-22.200000762939</ele>
        <time>2021-12-05T08:59:45.000Z</time>
      </trkpt>
      <trkpt lat="47.3306" lon="-2.30783">
        <ele>-22.60000038147</ele>
        <time>2021-12-05T08:59:46.000Z</time>
      </trkpt>
      <trkpt lat="47.33062" lon="-2.30776">
        <ele>-23</ele>
        <time>2021-12-05T08:59:47.000Z</time>
      </trkpt>
      <trkpt lat="47.33065" lon="-2.30748">
        <ele>-23</ele>
        <time>2021-12-05T08:59:51.000Z</time>
      </trkpt>
      <trkpt lat="47.33069" lon="-2.30726">
        <ele>-23</ele>
        <time>2021-12-05T08:59:54.000Z</time>
      </trkpt>
      <trkpt lat="47.33074" lon="-2.30703">
        <ele>-23</ele>
        <time>2021-12-05T08:59:57.000Z</time>
      </trkpt>
      <trkpt lat="47.33078" lon="-2.30683">
        <ele>-23</ele>
        <time>2021-12-05T09:00:01.000Z</time>
      </trkpt>
      <trkpt lat="47.33081" lon="-2.30659">
        <ele>-23</ele>
        <time>2021-12-05T09:00:06.000Z</time>
      </trkpt>
      <trkpt lat="47.33085" lon="-2.30641">
        <ele>-23</ele>
        <time>2021-12-05T09:00:09.000Z</time>
      </trkpt>
      <trkpt lat="47.33088" lon="-2.3062">
        <ele>-23</ele>
        <time>2021-12-05T09:00:12.000Z</time>
      </trkpt>
      <trkpt lat="47.33093" lon="-2.30594">
        <ele>-23</ele>
        <time>2021-12-05T09:00:16.000Z</time>
      </trkpt>
      <trkpt lat="47.33096" lon="-2.30582">
        <ele>-23</ele>
        <time>2021-12-05T09:00:18.000Z</time>
      </trkpt>
      <trkpt lat="47.33098" lon="-2.30577">
        <ele>-23</ele>
        <time>2021-12-05T09:00:19.000Z</time>
      </trkpt>
      <trkpt lat="47.3311" lon="-2.30565">
        <ele>-23</ele>
        <time>2021-12-05T09:00:23.000Z</time>
      </trkpt>
      <trkpt lat="47.33133" lon="-2.30555">
        <ele>-23</ele>
        <time>2021-12-05T09:00:29.000Z</time>
      </trkpt>
      <trkpt lat="47.33163" lon="-2.30544">
        <ele>-23</ele>
        <time>2021-12-05T09:00:36.000Z</time>
      </trkpt>
      <trkpt lat="47.33189" lon="-2.30534">
        <ele>-23</ele>
        <time>2021-12-05T09:00:42.000Z</time>
      </trkpt>
      <trkpt lat="47.33219" lon="-2.30524">
        <ele>-23</ele>
        <time>2021-12-05T09:00:49.000Z</time>
      </trkpt>
      <trkpt lat="47.33245" lon="-2.30515">
        <ele>-23</ele>
        <time>2021-12-05T09:00:55.000Z</time>
      </trkpt>
      <trkpt lat="47.33282" lon="-2.30505">
        <ele>-23</ele>
        <time>2021-12-05T09:01:03.000Z</time>
      </trkpt>
      <trkpt lat="47.33307" lon="-2.30497">
        <ele>-23.39999961853</ele>
        <time>2021-12-05T09:01:10.000Z</time>
      </trkpt>
      <trkpt lat="47.3331" lon="-2.30497">
        <ele>-23.799999237061</ele>
        <time>2021-12-05T09:01:11.000Z</time>
      </trkpt>
      <trkpt lat="47.33313" lon="-2.30497">
        <ele>-24.39999961853</ele>
        <time>2021-12-05T09:01:12.000Z</time>
      </trkpt>
      <trkpt lat="47.33315" lon="-2.30497">
        <ele>-24.799999237061</ele>
        <time>2021-12-05T09:01:13.000Z</time>
      </trkpt>
      <trkpt lat="47.33317" lon="-2.30496">
        <ele>-25.200000762939</ele>
        <time>2021-12-05T09:01:14.000Z</time>
      </trkpt>
      <trkpt lat="47.3332" lon="-2.30496">
        <ele>-25.200000762939</ele>
        <time>2021-12-05T09:01:16.000Z</time>
      </trkpt>
      <trkpt lat="47.33328" lon="-2.30497">
        <ele>-25.200000762939</ele>
        <time>2021-12-05T09:01:21.000Z</time>
      </trkpt>
      <trkpt lat="47.33339" lon="-2.3049">
        <ele>-25.200000762939</ele>
        <time>2021-12-05T09:01:27.000Z</time>
      </trkpt>
      <trkpt lat="47.33343" lon="-2.30477">
        <ele>-25.200000762939</ele>
        <time>2021-12-05T09:01:33.000Z</time>
      </trkpt>
      <trkpt lat="47.33342" lon="-2.30465">
        <ele>-25.200000762939</ele>
        <time>2021-12-05T09:01:39.000Z</time>
      </trkpt>
      <trkpt lat="47.33342" lon="-2.30463">
        <ele>-25.200000762939</ele>
        <time>2021-12-05T09:01:40.000Z</time>
      </trkpt>
      <trkpt lat="47.33345" lon="-2.30454">
        <ele>-25.200000762939</ele>
        <time>2021-12-05T09:01:45.000Z</time>
      </trkpt>
      <trkpt lat="47.33346" lon="-2.30448">
        <ele>-25.200000762939</ele>
        <time>2021-12-05T09:01:51.000Z</time>
      </trkpt>
      <trkpt lat="47.33347" lon="-2.30446">
        <ele>-25.200000762939</ele>
        <time>2021-12-05T09:03:06.000Z</time>
      </trkpt>
      <trkpt lat="47.33349" lon="-2.30425">
        <ele>-25.200000762939</ele>
        <time>2021-12-05T09:03:12.000Z</time>
      </trkpt>
      <trkpt lat="47.33357" lon="-2.30405">
        <ele>-25.200000762939</ele>
        <time>2021-12-05T09:03:17.000Z</time>
      </trkpt>
      <trkpt lat="47.33376" lon="-2.30393">
        <ele>-25.200000762939</ele>
        <time>2021-12-05T09:03:22.000Z</time>
      </trkpt>
      <trkpt lat="47.33387" lon="-2.30377">
        <ele>-25.200000762939</ele>
        <time>2021-12-05T09:03:26.000Z</time>
      </trkpt>
      <trkpt lat="47.33389" lon="-2.30372">
        <ele>-25.200000762939</ele>
        <time>2021-12-05T09:03:27.000Z</time>
      </trkpt>
      <trkpt lat="47.33392" lon="-2.30352">
        <ele>-25.200000762939</ele>
        <time>2021-12-05T09:03:31.000Z</time>
      </trkpt>
      <trkpt lat="47.33393" lon="-2.30347">
        <ele>-25.200000762939</ele>
        <time>2021-12-05T09:03:32.000Z</time>
      </trkpt>
      <trkpt lat="47.33394" lon="-2.3032">
        <ele>-25.200000762939</ele>
        <time>2021-12-05T09:03:37.000Z</time>
      </trkpt>
      <trkpt lat="47.33392" lon="-2.30286">
        <ele>-25.200000762939</ele>
        <time>2021-12-05T09:03:43.000Z</time>
      </trkpt>
      <trkpt lat="47.33396" lon="-2.30252">
        <ele>-25.200000762939</ele>
        <time>2021-12-05T09:03:49.000Z</time>
      </trkpt>
      <trkpt lat="47.33397" lon="-2.3024">
        <ele>-25.200000762939</ele>
        <time>2021-12-05T09:03:51.000Z</time>
      </trkpt>
      <trkpt lat="47.33401" lon="-2.30223">
        <ele>-25.200000762939</ele>
        <time>2021-12-05T09:03:54.000Z</time>
      </trkpt>
      <trkpt lat="47.33416" lon="-2.30185">
        <ele>-25.200000762939</ele>
        <time>2021-12-05T09:04:01.000Z</time>
      </trkpt>
      <trkpt lat="47.33433" lon="-2.30154">
        <ele>-25.200000762939</ele>
        <time>2021-12-05T09:04:08.000Z</time>
      </trkpt>
      <trkpt lat="47.33446" lon="-2.30129">
        <ele>-25.200000762939</ele>
        <time>2021-12-05T09:04:14.000Z</time>
      </trkpt>
      <trkpt lat="47.33451" lon="-2.30111">
        <ele>-25.200000762939</ele>
        <time>2021-12-05T09:04:20.000Z</time>
      </trkpt>
      <trkpt lat="47.33456" lon="-2.30089">
        <ele>-25.200000762939</ele>
        <time>2021-12-05T09:04:26.000Z</time>
      </trkpt>
      <trkpt lat="47.33465" lon="-2.30064">
        <ele>-25.200000762939</ele>
        <time>2021-12-05T09:04:32.000Z</time>
      </trkpt>
      <trkpt lat="47.33468" lon="-2.30045">
        <ele>-25.200000762939</ele>
        <time>2021-12-05T09:04:36.000Z</time>
      </trkpt>
      <trkpt lat="47.3347" lon="-2.30041">
        <ele>-25.200000762939</ele>
        <time>2021-12-05T09:04:37.000Z</time>
      </trkpt>
      <trkpt lat="47.3348" lon="-2.30011">
        <ele>-25.200000762939</ele>
        <time>2021-12-05T09:04:44.000Z</time>
      </trkpt>
      <trkpt lat="47.33494" lon="-2.29998">
        <ele>-25.200000762939</ele>
        <time>2021-12-05T09:04:49.000Z</time>
      </trkpt>
      <trkpt lat="47.33513" lon="-2.29999">
        <ele>-25.200000762939</ele>
        <time>2021-12-05T09:04:54.000Z</time>
      </trkpt>
      <trkpt lat="47.33542" lon="-2.30005">
        <ele>-25.200000762939</ele>
        <time>2021-12-05T09:05:01.000Z</time>
      </trkpt>
      <trkpt lat="47.33565" lon="-2.30004">
        <ele>-25.200000762939</ele>
        <time>2021-12-05T09:05:07.000Z</time>
      </trkpt>
      <trkpt lat="47.33569" lon="-2.30002">
        <ele>-25.200000762939</ele>
        <time>2021-12-05T09:05:09.000Z</time>
      </trkpt>
      <trkpt lat="47.33582" lon="-2.29989">
        <ele>-25.200000762939</ele>
        <time>2021-12-05T09:05:13.000Z</time>
      </trkpt>
      <trkpt lat="47.33588" lon="-2.29981">
        <ele>-25.200000762939</ele>
        <time>2021-12-05T09:05:15.000Z</time>
      </trkpt>
      <trkpt lat="47.33595" lon="-2.29973">
        <ele>-25.200000762939</ele>
        <time>2021-12-05T09:05:17.000Z</time>
      </trkpt>
      <trkpt lat="47.33605" lon="-2.29961">
        <ele>-25.200000762939</ele>
        <time>2021-12-05T09:05:20.000Z</time>
      </trkpt>
      <trkpt lat="47.33625" lon="-2.29936">
        <ele>-25.200000762939</ele>
        <time>2021-12-05T09:05:26.000Z</time>
      </trkpt>
      <trkpt lat="47.33628" lon="-2.29931">
        <ele>-25.200000762939</ele>
        <time>2021-12-05T09:05:27.000Z</time>
      </trkpt>
      <trkpt lat="47.33649" lon="-2.299">
        <ele>-25.200000762939</ele>
        <time>2021-12-05T09:05:34.000Z</time>
      </trkpt>
      <trkpt lat="47.3365" lon="-2.29883">
        <ele>-25.200000762939</ele>
        <time>2021-12-05T09:05:37.000Z</time>
      </trkpt>
      <trkpt lat="47.3365" lon="-2.29877">
        <ele>-25.200000762939</ele>
        <time>2021-12-05T09:05:38.000Z</time>
      </trkpt>
      <trkpt lat="47.33644" lon="-2.29856">
        <ele>-25.200000762939</ele>
        <time>2021-12-05T09:05:42.000Z</time>
      </trkpt>
      <trkpt lat="47.33636" lon="-2.29829">
        <ele>-25.200000762939</ele>
        <time>2021-12-05T09:05:48.000Z</time>
      </trkpt>
      <trkpt lat="47.33641" lon="-2.29815">
        <ele>-25.200000762939</ele>
        <time>2021-12-05T09:05:51.000Z</time>
      </trkpt>
      <trkpt lat="47.33657" lon="-2.29806">
        <ele>-25.200000762939</ele>
        <time>2021-12-05T09:05:55.000Z</time>
      </trkpt>
      <trkpt lat="47.33685" lon="-2.29793">
        <ele>-25.200000762939</ele>
        <time>2021-12-05T09:06:02.000Z</time>
      </trkpt>
      <trkpt lat="47.33689" lon="-2.29794">
        <ele>-25.200000762939</ele>
        <time>2021-12-05T09:06:03.000Z</time>
      </trkpt>
      <trkpt lat="47.33697" lon="-2.29795">
        <ele>-25.200000762939</ele>
        <time>2021-12-05T09:06:05.000Z</time>
      </trkpt>
      <trkpt lat="47.33705" lon="-2.29796">
        <ele>-25.200000762939</ele>
        <time>2021-12-05T09:06:07.000Z</time>
      </trkpt>
      <trkpt lat="47.33719" lon="-2.29799">
        <ele>-25.200000762939</ele>
        <time>2021-12-05T09:06:11.000Z</time>
      </trkpt>
      <trkpt lat="47.33746" lon="-2.29805">
        <ele>-25.200000762939</ele>
        <time>2021-12-05T09:06:18.000Z</time>
      </trkpt>
      <trkpt lat="47.33754" lon="-2.29808">
        <ele>-25.200000762939</ele>
        <time>2021-12-05T09:06:20.000Z</time>
      </trkpt>
      <trkpt lat="47.33766" lon="-2.29811">
        <ele>-25.200000762939</ele>
        <time>2021-12-05T09:06:23.000Z</time>
      </trkpt>
      <trkpt lat="47.3377" lon="-2.29813">
        <ele>-25.200000762939</ele>
        <time>2021-12-05T09:06:24.000Z</time>
      </trkpt>
      <trkpt lat="47.33789" lon="-2.29817">
        <ele>-25.200000762939</ele>
        <time>2021-12-05T09:06:28.000Z</time>
      </trkpt>
      <trkpt lat="47.33802" lon="-2.29818">
        <ele>-25.200000762939</ele>
        <time>2021-12-05T09:06:31.000Z</time>
      </trkpt>
      <trkpt lat="47.33806" lon="-2.29817">
        <ele>-25.200000762939</ele>
        <time>2021-12-05T09:06:32.000Z</time>
      </trkpt>
      <trkpt lat="47.33819" lon="-2.29811">
        <ele>-25.200000762939</ele>
        <time>2021-12-05T09:06:35.000Z</time>
      </trkpt>
      <trkpt lat="47.33823" lon="-2.29809">
        <ele>-25.200000762939</ele>
        <time>2021-12-05T09:06:36.000Z</time>
      </trkpt>
      <trkpt lat="47.3385" lon="-2.29793">
        <ele>-25.200000762939</ele>
        <time>2021-12-05T09:06:43.000Z</time>
      </trkpt>
      <trkpt lat="47.33867" lon="-2.2978">
        <ele>-25.200000762939</ele>
        <time>2021-12-05T09:06:48.000Z</time>
      </trkpt>
      <trkpt lat="47.3387" lon="-2.29776">
        <ele>-25.200000762939</ele>
        <time>2021-12-05T09:06:49.000Z</time>
      </trkpt>
      <trkpt lat="47.33879" lon="-2.29753">
        <ele>-25.200000762939</ele>
        <time>2021-12-05T09:06:53.000Z</time>
      </trkpt>
      <trkpt lat="47.3389" lon="-2.29708">
        <ele>-25.200000762939</ele>
        <time>2021-12-05T09:07:00.000Z</time>
      </trkpt>
      <trkpt lat="47.33896" lon="-2.29689">
        <ele>-25.200000762939</ele>
        <time>2021-12-05T09:07:03.000Z</time>
      </trkpt>
      <trkpt lat="47.33901" lon="-2.29677">
        <ele>-25.200000762939</ele>
        <time>2021-12-05T09:07:05.000Z</time>
      </trkpt>
      <trkpt lat="47.33911" lon="-2.29639">
        <ele>-25.200000762939</ele>
        <time>2021-12-05T09:07:11.000Z</time>
      </trkpt>
      <trkpt lat="47.33914" lon="-2.29619">
        <ele>-25.200000762939</ele>
        <time>2021-12-05T09:07:14.000Z</time>
      </trkpt>
      <trkpt lat="47.33916" lon="-2.29602">
        <ele>-25.200000762939</ele>
        <time>2021-12-05T09:07:17.000Z</time>
      </trkpt>
      <trkpt lat="47.33918" lon="-2.29571">
        <ele>-25.200000762939</ele>
        <time>2021-12-05T09:07:23.000Z</time>
      </trkpt>
      <trkpt lat="47.33918" lon="-2.29553">
        <ele>-25.200000762939</ele>
        <time>2021-12-05T09:07:28.000Z</time>
      </trkpt>
      <trkpt lat="47.33917" lon="-2.29545">
        <ele>-25.200000762939</ele>
        <time>2021-12-05T09:07:31.000Z</time>
      </trkpt>
      <trkpt lat="47.33918" lon="-2.2954">
        <ele>-25.200000762939</ele>
        <time>2021-12-05T09:07:33.000Z</time>
      </trkpt>
      <trkpt lat="47.33919" lon="-2.29532">
        <ele>-25.200000762939</ele>
        <time>2021-12-05T09:07:36.000Z</time>
      </trkpt>
      <trkpt lat="47.33921" lon="-2.29523">
        <ele>-25.200000762939</ele>
        <time>2021-12-05T09:07:39.000Z</time>
      </trkpt>
      <trkpt lat="47.33921" lon="-2.29502">
        <ele>-25.200000762939</ele>
        <time>2021-12-05T09:07:47.000Z</time>
      </trkpt>
      <trkpt lat="47.33922" lon="-2.29497">
        <ele>-25.200000762939</ele>
        <time>2021-12-05T09:07:49.000Z</time>
      </trkpt>
      <trkpt lat="47.33927" lon="-2.29492">
        <ele>-25.200000762939</ele>
        <time>2021-12-05T09:07:52.000Z</time>
      </trkpt>
      <trkpt lat="47.33936" lon="-2.29479">
        <ele>-25.200000762939</ele>
        <time>2021-12-05T09:07:58.000Z</time>
      </trkpt>
      <trkpt lat="47.33946" lon="-2.29463">
        <ele>-25.200000762939</ele>
        <time>2021-12-05T09:08:04.000Z</time>
      </trkpt>
      <trkpt lat="47.33951" lon="-2.29449">
        <ele>-25.200000762939</ele>
        <time>2021-12-05T09:08:10.000Z</time>
      </trkpt>
      <trkpt lat="47.33948" lon="-2.29437">
        <ele>-25.200000762939</ele>
        <time>2021-12-05T09:08:15.000Z</time>
      </trkpt>
      <trkpt lat="47.33941" lon="-2.29426">
        <ele>-24.799999237061</ele>
        <time>2021-12-05T09:08:19.000Z</time>
      </trkpt>
      <trkpt lat="47.33938" lon="-2.29423">
        <ele>-24.39999961853</ele>
        <time>2021-12-05T09:08:20.000Z</time>
      </trkpt>
      <trkpt lat="47.33935" lon="-2.2942">
        <ele>-24</ele>
        <time>2021-12-05T09:08:21.000Z</time>
      </trkpt>
      <trkpt lat="47.33932" lon="-2.29416">
        <ele>-23.60000038147</ele>
        <time>2021-12-05T09:08:22.000Z</time>
      </trkpt>
      <trkpt lat="47.33929" lon="-2.29413">
        <ele>-23.200000762939</ele>
        <time>2021-12-05T09:08:23.000Z</time>
      </trkpt>
      <trkpt lat="47.33918" lon="-2.29399">
        <ele>-23.200000762939</ele>
        <time>2021-12-05T09:08:27.000Z</time>
      </trkpt>
      <trkpt lat="47.33898" lon="-2.2938">
        <ele>-23.200000762939</ele>
        <time>2021-12-05T09:08:33.000Z</time>
      </trkpt>
      <trkpt lat="47.33873" lon="-2.29359">
        <ele>-23.200000762939</ele>
        <time>2021-12-05T09:08:40.000Z</time>
      </trkpt>
      <trkpt lat="47.33846" lon="-2.29334">
        <ele>-23.200000762939</ele>
        <time>2021-12-05T09:08:47.000Z</time>
      </trkpt>
      <trkpt lat="47.33839" lon="-2.29327">
        <ele>-23.200000762939</ele>
        <time>2021-12-05T09:08:49.000Z</time>
      </trkpt>
      <trkpt lat="47.33824" lon="-2.29315">
        <ele>-23.200000762939</ele>
        <time>2021-12-05T09:08:53.000Z</time>
      </trkpt>
      <trkpt lat="47.33807" lon="-2.29299">
        <ele>-23.200000762939</ele>
        <time>2021-12-05T09:08:58.000Z</time>
      </trkpt>
      <trkpt lat="47.33802" lon="-2.29281">
        <ele>-23.200000762939</ele>
        <time>2021-12-05T09:09:01.000Z</time>
      </trkpt>
      <trkpt lat="47.33802" lon="-2.29274">
        <ele>-23.200000762939</ele>
        <time>2021-12-05T09:09:02.000Z</time>
      </trkpt>
      <trkpt lat="47.33804" lon="-2.29244">
        <ele>-23.200000762939</ele>
        <time>2021-12-05T09:09:06.000Z</time>
      </trkpt>
      <trkpt lat="47.3381" lon="-2.2919">
        <ele>-23.200000762939</ele>
        <time>2021-12-05T09:09:13.000Z</time>
      </trkpt>
      <trkpt lat="47.33812" lon="-2.29175">
        <ele>-23.200000762939</ele>
        <time>2021-12-05T09:09:15.000Z</time>
      </trkpt>
      <trkpt lat="47.33816" lon="-2.29137">
        <ele>-23.200000762939</ele>
        <time>2021-12-05T09:09:20.000Z</time>
      </trkpt>
      <trkpt lat="47.33817" lon="-2.2913">
        <ele>-23.200000762939</ele>
        <time>2021-12-05T09:09:21.000Z</time>
      </trkpt>
      <trkpt lat="47.3383" lon="-2.29104">
        <ele>-23.200000762939</ele>
        <time>2021-12-05T09:09:25.000Z</time>
      </trkpt>
      <trkpt lat="47.33846" lon="-2.2909">
        <ele>-23.200000762939</ele>
        <time>2021-12-05T09:09:29.000Z</time>
      </trkpt>
      <trkpt lat="47.33855" lon="-2.29082">
        <ele>-23.200000762939</ele>
        <time>2021-12-05T09:09:31.000Z</time>
      </trkpt>
      <trkpt lat="47.33881" lon="-2.29063">
        <ele>-23.200000762939</ele>
        <time>2021-12-05T09:09:37.000Z</time>
      </trkpt>
      <trkpt lat="47.3389" lon="-2.29058">
        <ele>-23.200000762939</ele>
        <time>2021-12-05T09:09:39.000Z</time>
      </trkpt>
      <trkpt lat="47.33902" lon="-2.2905">
        <ele>-23.200000762939</ele>
        <time>2021-12-05T09:09:42.000Z</time>
      </trkpt>
      <trkpt lat="47.33906" lon="-2.29046">
        <ele>-23.200000762939</ele>
        <time>2021-12-05T09:09:43.000Z</time>
      </trkpt>
      <trkpt lat="47.33946" lon="-2.29011">
        <ele>-23.200000762939</ele>
        <time>2021-12-05T09:09:51.000Z</time>
      </trkpt>
      <trkpt lat="47.33999" lon="-2.28974">
        <ele>-23.200000762939</ele>
        <time>2021-12-05T09:10:00.000Z</time>
      </trkpt>
      <trkpt lat="47.34036" lon="-2.28954">
        <ele>-23.200000762939</ele>
        <time>2021-12-05T09:10:07.000Z</time>
      </trkpt>
      <trkpt lat="47.34052" lon="-2.28946">
        <ele>-23.200000762939</ele>
        <time>2021-12-05T09:10:10.000Z</time>
      </trkpt>
      <trkpt lat="47.34066" lon="-2.28933">
        <ele>-23.200000762939</ele>
        <time>2021-12-05T09:10:13.000Z</time>
      </trkpt>
      <trkpt lat="47.34094" lon="-2.28903">
        <ele>-23.200000762939</ele>
        <time>2021-12-05T09:10:19.000Z</time>
      </trkpt>
      <trkpt lat="47.34097" lon="-2.28895">
        <ele>-23.200000762939</ele>
        <time>2021-12-05T09:10:20.000Z</time>
      </trkpt>
      <trkpt lat="47.34099" lon="-2.2887">
        <ele>-23.200000762939</ele>
        <time>2021-12-05T09:10:23.000Z</time>
      </trkpt>
      <trkpt lat="47.34098" lon="-2.28862">
        <ele>-23.200000762939</ele>
        <time>2021-12-05T09:10:24.000Z</time>
      </trkpt>
      <trkpt lat="47.34098" lon="-2.2881">
        <ele>-23.200000762939</ele>
        <time>2021-12-05T09:10:30.000Z</time>
      </trkpt>
      <trkpt lat="47.34099" lon="-2.2876">
        <ele>-23.200000762939</ele>
        <time>2021-12-05T09:10:36.000Z</time>
      </trkpt>
      <trkpt lat="47.34097" lon="-2.28752">
        <ele>-23.200000762939</ele>
        <time>2021-12-05T09:10:37.000Z</time>
      </trkpt>
      <trkpt lat="47.34082" lon="-2.2873">
        <ele>-23.200000762939</ele>
        <time>2021-12-05T09:10:41.000Z</time>
      </trkpt>
      <trkpt lat="47.34063" lon="-2.28723">
        <ele>-23.200000762939</ele>
        <time>2021-12-05T09:10:44.000Z</time>
      </trkpt>
      <trkpt lat="47.34057" lon="-2.28721">
        <ele>-23.200000762939</ele>
        <time>2021-12-05T09:10:45.000Z</time>
      </trkpt>
      <trkpt lat="47.34024" lon="-2.28708">
        <ele>-23.200000762939</ele>
        <time>2021-12-05T09:10:51.000Z</time>
      </trkpt>
      <trkpt lat="47.33993" lon="-2.2869">
        <ele>-23.200000762939</ele>
        <time>2021-12-05T09:10:57.000Z</time>
      </trkpt>
      <trkpt lat="47.33986" lon="-2.28667">
        <ele>-23.200000762939</ele>
        <time>2021-12-05T09:11:00.000Z</time>
      </trkpt>
      <trkpt lat="47.33984" lon="-2.28659">
        <ele>-23.200000762939</ele>
        <time>2021-12-05T09:11:01.000Z</time>
      </trkpt>
      <trkpt lat="47.33979" lon="-2.28642">
        <ele>-23.200000762939</ele>
        <time>2021-12-05T09:11:03.000Z</time>
      </trkpt>
      <trkpt lat="47.33972" lon="-2.28625">
        <ele>-23.200000762939</ele>
        <time>2021-12-05T09:11:05.000Z</time>
      </trkpt>
      <trkpt lat="47.33955" lon="-2.286">
        <ele>-23.200000762939</ele>
        <time>2021-12-05T09:11:09.000Z</time>
      </trkpt>
      <trkpt lat="47.3395" lon="-2.28594">
        <ele>-23.200000762939</ele>
        <time>2021-12-05T09:11:10.000Z</time>
      </trkpt>
      <trkpt lat="47.33922" lon="-2.28559">
        <ele>-23.200000762939</ele>
        <time>2021-12-05T09:11:16.000Z</time>
      </trkpt>
      <trkpt lat="47.33893" lon="-2.28524">
        <ele>-23.200000762939</ele>
        <time>2021-12-05T09:11:22.000Z</time>
      </trkpt>
      <trkpt lat="47.33867" lon="-2.2849">
        <ele>-23.200000762939</ele>
        <time>2021-12-05T09:11:28.000Z</time>
      </trkpt>
      <trkpt lat="47.33842" lon="-2.28459">
        <ele>-23.200000762939</ele>
        <time>2021-12-05T09:11:34.000Z</time>
      </trkpt>
      <trkpt lat="47.33837" lon="-2.28456">
        <ele>-23.200000762939</ele>
        <time>2021-12-05T09:11:35.000Z</time>
      </trkpt>
      <trkpt lat="47.33827" lon="-2.28455">
        <ele>-23.200000762939</ele>
        <time>2021-12-05T09:11:37.000Z</time>
      </trkpt>
      <trkpt lat="47.33806" lon="-2.28464">
        <ele>-23.200000762939</ele>
        <time>2021-12-05T09:11:41.000Z</time>
      </trkpt>
      <trkpt lat="47.33796" lon="-2.28472">
        <ele>-23.200000762939</ele>
        <time>2021-12-05T09:11:43.000Z</time>
      </trkpt>
      <trkpt lat="47.33776" lon="-2.28486">
        <ele>-23.200000762939</ele>
        <time>2021-12-05T09:11:47.000Z</time>
      </trkpt>
      <trkpt lat="47.33736" lon="-2.28522">
        <ele>-23.200000762939</ele>
        <time>2021-12-05T09:11:55.000Z</time>
      </trkpt>
      <trkpt lat="47.33702" lon="-2.28553">
        <ele>-23.200000762939</ele>
        <time>2021-12-05T09:12:02.000Z</time>
      </trkpt>
      <trkpt lat="47.33672" lon="-2.28589">
        <ele>-23.200000762939</ele>
        <time>2021-12-05T09:12:09.000Z</time>
      </trkpt>
      <trkpt lat="47.33638" lon="-2.28625">
        <ele>-23.200000762939</ele>
        <time>2021-12-05T09:12:16.000Z</time>
      </trkpt>
      <trkpt lat="47.33598" lon="-2.28648">
        <ele>-23.200000762939</ele>
        <time>2021-12-05T09:12:23.000Z</time>
      </trkpt>
      <trkpt lat="47.33553" lon="-2.28672">
        <ele>-23.200000762939</ele>
        <time>2021-12-05T09:12:31.000Z</time>
      </trkpt>
      <trkpt lat="47.33519" lon="-2.28687">
        <ele>-23.200000762939</ele>
        <time>2021-12-05T09:12:37.000Z</time>
      </trkpt>
      <trkpt lat="47.33509" lon="-2.28696">
        <ele>-23.200000762939</ele>
        <time>2021-12-05T09:12:39.000Z</time>
      </trkpt>
      <trkpt lat="47.33496" lon="-2.28711">
        <ele>-23.200000762939</ele>
        <time>2021-12-05T09:12:42.000Z</time>
      </trkpt>
      <trkpt lat="47.33489" lon="-2.28724">
        <ele>-23.200000762939</ele>
        <time>2021-12-05T09:12:44.000Z</time>
      </trkpt>
      <trkpt lat="47.33465" lon="-2.28773">
        <ele>-23.200000762939</ele>
        <time>2021-12-05T09:12:51.000Z</time>
      </trkpt>
      <trkpt lat="47.3344" lon="-2.28823">
        <ele>-23.200000762939</ele>
        <time>2021-12-05T09:12:58.000Z</time>
      </trkpt>
      <trkpt lat="47.33419" lon="-2.28852">
        <ele>-23.200000762939</ele>
        <time>2021-12-05T09:13:03.000Z</time>
      </trkpt>
      <trkpt lat="47.33409" lon="-2.28861">
        <ele>-23.200000762939</ele>
        <time>2021-12-05T09:13:05.000Z</time>
      </trkpt>
      <trkpt lat="47.33393" lon="-2.28872">
        <ele>-23.200000762939</ele>
        <time>2021-12-05T09:13:08.000Z</time>
      </trkpt>
      <trkpt lat="47.33378" lon="-2.2888">
        <ele>-22.60000038147</ele>
        <time>2021-12-05T09:13:11.000Z</time>
      </trkpt>
      <trkpt lat="47.33372" lon="-2.28882">
        <ele>-22.200000762939</ele>
        <time>2021-12-05T09:13:12.000Z</time>
      </trkpt>
      <trkpt lat="47.33367" lon="-2.28884">
        <ele>-21.799999237061</ele>
        <time>2021-12-05T09:13:13.000Z</time>
      </trkpt>
      <trkpt lat="47.33361" lon="-2.28886">
        <ele>-21.39999961853</ele>
        <time>2021-12-05T09:13:14.000Z</time>
      </trkpt>
      <trkpt lat="47.33355" lon="-2.28888">
        <ele>-21</ele>
        <time>2021-12-05T09:13:15.000Z</time>
      </trkpt>
      <trkpt lat="47.33312" lon="-2.28911">
        <ele>-21</ele>
        <time>2021-12-05T09:13:23.000Z</time>
      </trkpt>
      <trkpt lat="47.33277" lon="-2.28933">
        <ele>-21</ele>
        <time>2021-12-05T09:13:30.000Z</time>
      </trkpt>
      <trkpt lat="47.33272" lon="-2.28937">
        <ele>-20.200000762939</ele>
        <time>2021-12-05T09:13:31.000Z</time>
      </trkpt>
      <trkpt lat="47.33268" lon="-2.2894">
        <ele>-19.799999237061</ele>
        <time>2021-12-05T09:13:32.000Z</time>
      </trkpt>
      <trkpt lat="47.33263" lon="-2.28944">
        <ele>-19.39999961853</ele>
        <time>2021-12-05T09:13:33.000Z</time>
      </trkpt>
      <trkpt lat="47.33259" lon="-2.28947">
        <ele>-19</ele>
        <time>2021-12-05T09:13:34.000Z</time>
      </trkpt>
      <trkpt lat="47.33251" lon="-2.28957">
        <ele>-19</ele>
        <time>2021-12-05T09:13:36.000Z</time>
      </trkpt>
      <trkpt lat="47.33247" lon="-2.28963">
        <ele>-19</ele>
        <time>2021-12-05T09:13:37.000Z</time>
      </trkpt>
      <trkpt lat="47.33242" lon="-2.28985">
        <ele>-19</ele>
        <time>2021-12-05T09:13:40.000Z</time>
      </trkpt>
      <trkpt lat="47.33241" lon="-2.28993">
        <ele>-19</ele>
        <time>2021-12-05T09:13:41.000Z</time>
      </trkpt>
      <trkpt lat="47.33241" lon="-2.29">
        <ele>-19</ele>
        <time>2021-12-05T09:13:42.000Z</time>
      </trkpt>
      <trkpt lat="47.33241" lon="-2.29022">
        <ele>-19</ele>
        <time>2021-12-05T09:13:45.000Z</time>
      </trkpt>
      <trkpt lat="47.3324" lon="-2.29029">
        <ele>-19</ele>
        <time>2021-12-05T09:13:46.000Z</time>
      </trkpt>
      <trkpt lat="47.33239" lon="-2.29037">
        <ele>-19</ele>
        <time>2021-12-05T09:13:47.000Z</time>
      </trkpt>
      <trkpt lat="47.33236" lon="-2.2906">
        <ele>-19</ele>
        <time>2021-12-05T09:13:50.000Z</time>
      </trkpt>
      <trkpt lat="47.33234" lon="-2.29066">
        <ele>-19</ele>
        <time>2021-12-05T09:13:51.000Z</time>
      </trkpt>
      <trkpt lat="47.33221" lon="-2.29073">
        <ele>-19</ele>
        <time>2021-12-05T09:13:54.000Z</time>
      </trkpt>
      <trkpt lat="47.33208" lon="-2.2907">
        <ele>-19</ele>
        <time>2021-12-05T09:13:57.000Z</time>
      </trkpt>
      <trkpt lat="47.33199" lon="-2.29067">
        <ele>-19</ele>
        <time>2021-12-05T09:13:59.000Z</time>
      </trkpt>
      <trkpt lat="47.33186" lon="-2.29065">
        <ele>-19</ele>
        <time>2021-12-05T09:14:02.000Z</time>
      </trkpt>
      <trkpt lat="47.33171" lon="-2.29062">
        <ele>-19</ele>
        <time>2021-12-05T09:14:05.000Z</time>
      </trkpt>
      <trkpt lat="47.3315" lon="-2.29059">
        <ele>-18.60000038147</ele>
        <time>2021-12-05T09:14:09.000Z</time>
      </trkpt>
      <trkpt lat="47.33145" lon="-2.29059">
        <ele>-18.200000762939</ele>
        <time>2021-12-05T09:14:10.000Z</time>
      </trkpt>
      <trkpt lat="47.3314" lon="-2.2906">
        <ele>-17.799999237061</ele>
        <time>2021-12-05T09:14:11.000Z</time>
      </trkpt>
      <trkpt lat="47.33135" lon="-2.2906">
        <ele>-17.39999961853</ele>
        <time>2021-12-05T09:14:12.000Z</time>
      </trkpt>
      <trkpt lat="47.3313" lon="-2.29061">
        <ele>-17</ele>
        <time>2021-12-05T09:14:13.000Z</time>
      </trkpt>
      <trkpt lat="47.33119" lon="-2.2906">
        <ele>-17</ele>
        <time>2021-12-05T09:14:15.000Z</time>
      </trkpt>
      <trkpt lat="47.33109" lon="-2.29061">
        <ele>-17</ele>
        <time>2021-12-05T09:14:17.000Z</time>
      </trkpt>
      <trkpt lat="47.33096" lon="-2.29059">
        <ele>-17</ele>
        <time>2021-12-05T09:14:20.000Z</time>
      </trkpt>
      <trkpt lat="47.3309" lon="-2.2905">
        <ele>-17</ele>
        <time>2021-12-05T09:14:22.000Z</time>
      </trkpt>
      <trkpt lat="47.33091" lon="-2.29032">
        <ele>-17</ele>
        <time>2021-12-05T09:14:25.000Z</time>
      </trkpt>
      <trkpt lat="47.331" lon="-2.29004">
        <ele>-17</ele>
        <time>2021-12-05T09:14:29.000Z</time>
      </trkpt>
      <trkpt lat="47.33102" lon="-2.28996">
        <ele>-17</ele>
        <time>2021-12-05T09:14:30.000Z</time>
      </trkpt>
      <trkpt lat="47.33103" lon="-2.28988">
        <ele>-17</ele>
        <time>2021-12-05T09:14:31.000Z</time>
      </trkpt>
      <trkpt lat="47.33109" lon="-2.28956">
        <ele>-17</ele>
        <time>2021-12-05T09:14:35.000Z</time>
      </trkpt>
      <trkpt lat="47.33118" lon="-2.289">
        <ele>-17</ele>
        <time>2021-12-05T09:14:42.000Z</time>
      </trkpt>
      <trkpt lat="47.33117" lon="-2.28891">
        <ele>-17</ele>
        <time>2021-12-05T09:14:43.000Z</time>
      </trkpt>
      <trkpt lat="47.33117" lon="-2.28876">
        <ele>-17</ele>
        <time>2021-12-05T09:14:45.000Z</time>
      </trkpt>
      <trkpt lat="47.33116" lon="-2.28868">
        <ele>-17</ele>
        <time>2021-12-05T09:14:46.000Z</time>
      </trkpt>
      <trkpt lat="47.33114" lon="-2.28861">
        <ele>-17</ele>
        <time>2021-12-05T09:14:47.000Z</time>
      </trkpt>
      <trkpt lat="47.33108" lon="-2.28839">
        <ele>-17</ele>
        <time>2021-12-05T09:14:50.000Z</time>
      </trkpt>
      <trkpt lat="47.33103" lon="-2.28819">
        <ele>-17</ele>
        <time>2021-12-05T09:14:53.000Z</time>
      </trkpt>
      <trkpt lat="47.33099" lon="-2.28815">
        <ele>-17</ele>
        <time>2021-12-05T09:14:54.000Z</time>
      </trkpt>
      <trkpt lat="47.33082" lon="-2.2882">
        <ele>-17</ele>
        <time>2021-12-05T09:14:57.000Z</time>
      </trkpt>
      <trkpt lat="47.33076" lon="-2.28822">
        <ele>-17</ele>
        <time>2021-12-05T09:14:58.000Z</time>
      </trkpt>
      <trkpt lat="47.33043" lon="-2.28841">
        <ele>-16.60000038147</ele>
        <time>2021-12-05T09:15:04.000Z</time>
      </trkpt>
      <trkpt lat="47.33037" lon="-2.28844">
        <ele>-16.200000762939</ele>
        <time>2021-12-05T09:15:05.000Z</time>
      </trkpt>
      <trkpt lat="47.33032" lon="-2.28847">
        <ele>-15.800000190735</ele>
        <time>2021-12-05T09:15:06.000Z</time>
      </trkpt>
      <trkpt lat="47.33026" lon="-2.2885">
        <ele>-15.39999961853</ele>
        <time>2021-12-05T09:15:07.000Z</time>
      </trkpt>
      <trkpt lat="47.33021" lon="-2.28853">
        <ele>-15</ele>
        <time>2021-12-05T09:15:08.000Z</time>
      </trkpt>
      <trkpt lat="47.32997" lon="-2.28868">
        <ele>-15</ele>
        <time>2021-12-05T09:15:13.000Z</time>
      </trkpt>
      <trkpt lat="47.32959" lon="-2.289">
        <ele>-15</ele>
        <time>2021-12-05T09:15:21.000Z</time>
      </trkpt>
      <trkpt lat="47.32927" lon="-2.28928">
        <ele>-15</ele>
        <time>2021-12-05T09:15:27.000Z</time>
      </trkpt>
      <trkpt lat="47.32922" lon="-2.28932">
        <ele>-15.39999961853</ele>
        <time>2021-12-05T09:15:28.000Z</time>
      </trkpt>
      <trkpt lat="47.32916" lon="-2.28936">
        <ele>-15.800000190735</ele>
        <time>2021-12-05T09:15:29.000Z</time>
      </trkpt>
      <trkpt lat="47.32911" lon="-2.28938">
        <ele>-16.39999961853</ele>
        <time>2021-12-05T09:15:30.000Z</time>
      </trkpt>
      <trkpt lat="47.32905" lon="-2.2894">
        <ele>-16.799999237061</ele>
        <time>2021-12-05T09:15:31.000Z</time>
      </trkpt>
      <trkpt lat="47.32899" lon="-2.28941">
        <ele>-17.200000762939</ele>
        <time>2021-12-05T09:15:32.000Z</time>
      </trkpt>
      <trkpt lat="47.32881" lon="-2.2894">
        <ele>-17.200000762939</ele>
        <time>2021-12-05T09:15:35.000Z</time>
      </trkpt>
      <trkpt lat="47.32869" lon="-2.2894">
        <ele>-17.799999237061</ele>
        <time>2021-12-05T09:15:37.000Z</time>
      </trkpt>
      <trkpt lat="47.32862" lon="-2.28941">
        <ele>-18.200000762939</ele>
        <time>2021-12-05T09:15:38.000Z</time>
      </trkpt>
      <trkpt lat="47.32856" lon="-2.28943">
        <ele>-18.60000038147</ele>
        <time>2021-12-05T09:15:39.000Z</time>
      </trkpt>
      <trkpt lat="47.32851" lon="-2.28948">
        <ele>-19</ele>
        <time>2021-12-05T09:15:40.000Z</time>
      </trkpt>
      <trkpt lat="47.32846" lon="-2.28953">
        <ele>-19.39999961853</ele>
        <time>2021-12-05T09:15:41.000Z</time>
      </trkpt>
      <trkpt lat="47.32805" lon="-2.28984">
        <ele>-19.39999961853</ele>
        <time>2021-12-05T09:15:48.000Z</time>
      </trkpt>
      <trkpt lat="47.32771" lon="-2.29004">
        <ele>-19.799999237061</ele>
        <time>2021-12-05T09:15:54.000Z</time>
      </trkpt>
      <trkpt lat="47.32766" lon="-2.29004">
        <ele>-20.200000762939</ele>
        <time>2021-12-05T09:15:55.000Z</time>
      </trkpt>
      <trkpt lat="47.32763" lon="-2.29">
        <ele>-20.60000038147</ele>
        <time>2021-12-05T09:15:56.000Z</time>
      </trkpt>
      <trkpt lat="47.32761" lon="-2.28995">
        <ele>-21</ele>
        <time>2021-12-05T09:15:57.000Z</time>
      </trkpt>
      <trkpt lat="47.32762" lon="-2.28989">
        <ele>-21.39999961853</ele>
        <time>2021-12-05T09:15:58.000Z</time>
      </trkpt>
      <trkpt lat="47.32763" lon="-2.28974">
        <ele>-21.39999961853</ele>
        <time>2021-12-05T09:16:00.000Z</time>
      </trkpt>
      <trkpt lat="47.32764" lon="-2.28951">
        <ele>-21.39999961853</ele>
        <time>2021-12-05T09:16:03.000Z</time>
      </trkpt>
      <trkpt lat="47.32772" lon="-2.28894">
        <ele>-21.39999961853</ele>
        <time>2021-12-05T09:16:10.000Z</time>
      </trkpt>
      <trkpt lat="47.32774" lon="-2.28886">
        <ele>-21.39999961853</ele>
        <time>2021-12-05T09:16:11.000Z</time>
      </trkpt>
      <trkpt lat="47.32782" lon="-2.28855">
        <ele>-21.39999961853</ele>
        <time>2021-12-05T09:16:15.000Z</time>
      </trkpt>
      <trkpt lat="47.32798" lon="-2.28792">
        <ele>-21.39999961853</ele>
        <time>2021-12-05T09:16:23.000Z</time>
      </trkpt>
      <trkpt lat="47.32795" lon="-2.28761">
        <ele>-21.39999961853</ele>
        <time>2021-12-05T09:16:27.000Z</time>
      </trkpt>
      <trkpt lat="47.3279" lon="-2.28706">
        <ele>-21.39999961853</ele>
        <time>2021-12-05T09:16:34.000Z</time>
      </trkpt>
      <trkpt lat="47.32783" lon="-2.28675">
        <ele>-21.39999961853</ele>
        <time>2021-12-05T09:16:38.000Z</time>
      </trkpt>
      <trkpt lat="47.32777" lon="-2.28662">
        <ele>-21.39999961853</ele>
        <time>2021-12-05T09:16:40.000Z</time>
      </trkpt>
      <trkpt lat="47.32755" lon="-2.28621">
        <ele>-21.39999961853</ele>
        <time>2021-12-05T09:16:46.000Z</time>
      </trkpt>
      <trkpt lat="47.32734" lon="-2.28578">
        <ele>-21.39999961853</ele>
        <time>2021-12-05T09:16:52.000Z</time>
      </trkpt>
      <trkpt lat="47.32727" lon="-2.28551">
        <ele>-21.39999961853</ele>
        <time>2021-12-05T09:16:55.000Z</time>
      </trkpt>
      <trkpt lat="47.32725" lon="-2.28541">
        <ele>-21.39999961853</ele>
        <time>2021-12-05T09:16:56.000Z</time>
      </trkpt>
      <trkpt lat="47.32722" lon="-2.28493">
        <ele>-21.39999961853</ele>
        <time>2021-12-05T09:17:01.000Z</time>
      </trkpt>
      <trkpt lat="47.32717" lon="-2.28448">
        <ele>-21.39999961853</ele>
        <time>2021-12-05T09:17:06.000Z</time>
      </trkpt>
      <trkpt lat="47.32712" lon="-2.2839">
        <ele>-22.200000762939</ele>
        <time>2021-12-05T09:17:12.000Z</time>
      </trkpt>
      <trkpt lat="47.32712" lon="-2.2838">
        <ele>-22.60000038147</ele>
        <time>2021-12-05T09:17:13.000Z</time>
      </trkpt>
      <trkpt lat="47.32711" lon="-2.2837">
        <ele>-23.200000762939</ele>
        <time>2021-12-05T09:17:14.000Z</time>
      </trkpt>
      <trkpt lat="47.3271" lon="-2.2836">
        <ele>-23.60000038147</ele>
        <time>2021-12-05T09:17:15.000Z</time>
      </trkpt>
      <trkpt lat="47.32704" lon="-2.28316">
        <ele>-23.60000038147</ele>
        <time>2021-12-05T09:17:20.000Z</time>
      </trkpt>
      <trkpt lat="47.32694" lon="-2.2831">
        <ele>-23.60000038147</ele>
        <time>2021-12-05T09:17:23.000Z</time>
      </trkpt>
      <trkpt lat="47.3268" lon="-2.28321">
        <ele>-23.60000038147</ele>
        <time>2021-12-05T09:17:26.000Z</time>
      </trkpt>
      <trkpt lat="47.32646" lon="-2.28344">
        <ele>-23.60000038147</ele>
        <time>2021-12-05T09:17:33.000Z</time>
      </trkpt>
      <trkpt lat="47.32628" lon="-2.28333">
        <ele>-23.60000038147</ele>
        <time>2021-12-05T09:17:36.000Z</time>
      </trkpt>
      <trkpt lat="47.3262" lon="-2.28316">
        <ele>-24</ele>
        <time>2021-12-05T09:17:38.000Z</time>
      </trkpt>
      <trkpt lat="47.32617" lon="-2.28306">
        <ele>-24.39999961853</ele>
        <time>2021-12-05T09:17:39.000Z</time>
      </trkpt>
      <trkpt lat="47.32614" lon="-2.28296">
        <ele>-24.799999237061</ele>
        <time>2021-12-05T09:17:40.000Z</time>
      </trkpt>
      <trkpt lat="47.32612" lon="-2.28285">
        <ele>-25.200000762939</ele>
        <time>2021-12-05T09:17:41.000Z</time>
      </trkpt>
      <trkpt lat="47.3261" lon="-2.28274">
        <ele>-25.60000038147</ele>
        <time>2021-12-05T09:17:42.000Z</time>
      </trkpt>
      <trkpt lat="47.32604" lon="-2.28241">
        <ele>-25.60000038147</ele>
        <time>2021-12-05T09:17:45.000Z</time>
      </trkpt>
      <trkpt lat="47.32585" lon="-2.28156">
        <ele>-25.60000038147</ele>
        <time>2021-12-05T09:17:53.000Z</time>
      </trkpt>
      <trkpt lat="47.32568" lon="-2.28074">
        <ele>-25.60000038147</ele>
        <time>2021-12-05T09:18:01.000Z</time>
      </trkpt>
      <trkpt lat="47.32565" lon="-2.28064">
        <ele>-25.60000038147</ele>
        <time>2021-12-05T09:18:02.000Z</time>
      </trkpt>
      <trkpt lat="47.3255" lon="-2.27992">
        <ele>-25.60000038147</ele>
        <time>2021-12-05T09:18:10.000Z</time>
      </trkpt>
      <trkpt lat="47.32535" lon="-2.27921">
        <ele>-25.60000038147</ele>
        <time>2021-12-05T09:18:18.000Z</time>
      </trkpt>
      <trkpt lat="47.32518" lon="-2.27852">
        <ele>-25.60000038147</ele>
        <time>2021-12-05T09:18:26.000Z</time>
      </trkpt>
      <trkpt lat="47.32502" lon="-2.27833">
        <ele>-25.60000038147</ele>
        <time>2021-12-05T09:18:29.000Z</time>
      </trkpt>
      <trkpt lat="47.32483" lon="-2.27829">
        <ele>-25.60000038147</ele>
        <time>2021-12-05T09:18:32.000Z</time>
      </trkpt>
      <trkpt lat="47.32477" lon="-2.27828">
        <ele>-25.60000038147</ele>
        <time>2021-12-05T09:18:33.000Z</time>
      </trkpt>
      <trkpt lat="47.32439" lon="-2.2783">
        <ele>-25.60000038147</ele>
        <time>2021-12-05T09:18:39.000Z</time>
      </trkpt>
      <trkpt lat="47.32383" lon="-2.27834">
        <ele>-25.60000038147</ele>
        <time>2021-12-05T09:18:48.000Z</time>
      </trkpt>
      <trkpt lat="47.32342" lon="-2.27836">
        <ele>-25.60000038147</ele>
        <time>2021-12-05T09:18:55.000Z</time>
      </trkpt>
      <trkpt lat="47.32324" lon="-2.27835">
        <ele>-25.60000038147</ele>
        <time>2021-12-05T09:18:59.000Z</time>
      </trkpt>
      <trkpt lat="47.32321" lon="-2.27831">
        <ele>-25.60000038147</ele>
        <time>2021-12-05T09:19:00.000Z</time>
      </trkpt>
      <trkpt lat="47.32325" lon="-2.27814">
        <ele>-25.60000038147</ele>
        <time>2021-12-05T09:19:03.000Z</time>
      </trkpt>
      <trkpt lat="47.32327" lon="-2.27809">
        <ele>-25.60000038147</ele>
        <time>2021-12-05T09:19:04.000Z</time>
      </trkpt>
      <trkpt lat="47.32329" lon="-2.27802">
        <ele>-25.60000038147</ele>
        <time>2021-12-05T09:19:05.000Z</time>
      </trkpt>
      <trkpt lat="47.32335" lon="-2.27776">
        <ele>-25.60000038147</ele>
        <time>2021-12-05T09:19:09.000Z</time>
      </trkpt>
      <trkpt lat="47.32343" lon="-2.27747">
        <ele>-25.60000038147</ele>
        <time>2021-12-05T09:19:13.000Z</time>
      </trkpt>
      <trkpt lat="47.32346" lon="-2.27731">
        <ele>-25.60000038147</ele>
        <time>2021-12-05T09:19:15.000Z</time>
      </trkpt>
      <trkpt lat="47.32352" lon="-2.27682">
        <ele>-25.60000038147</ele>
        <time>2021-12-05T09:19:21.000Z</time>
      </trkpt>
      <trkpt lat="47.32356" lon="-2.27651">
        <ele>-25.60000038147</ele>
        <time>2021-12-05T09:19:25.000Z</time>
      </trkpt>
      <trkpt lat="47.32358" lon="-2.27644">
        <ele>-25.60000038147</ele>
        <time>2021-12-05T09:19:26.000Z</time>
      </trkpt>
      <trkpt lat="47.32362" lon="-2.27621">
        <ele>-25.60000038147</ele>
        <time>2021-12-05T09:19:29.000Z</time>
      </trkpt>
      <trkpt lat="47.32363" lon="-2.27605">
        <ele>-25.60000038147</ele>
        <time>2021-12-05T09:19:31.000Z</time>
      </trkpt>
      <trkpt lat="47.32365" lon="-2.27585">
        <ele>-25.60000038147</ele>
        <time>2021-12-05T09:19:34.000Z</time>
      </trkpt>
      <trkpt lat="47.32366" lon="-2.27568">
        <ele>-25.60000038147</ele>
        <time>2021-12-05T09:19:36.000Z</time>
      </trkpt>
      <trkpt lat="47.32361" lon="-2.27531">
        <ele>-25.60000038147</ele>
        <time>2021-12-05T09:19:40.000Z</time>
      </trkpt>
      <trkpt lat="47.32359" lon="-2.27522">
        <ele>-25.60000038147</ele>
        <time>2021-12-05T09:19:41.000Z</time>
      </trkpt>
      <trkpt lat="47.32349" lon="-2.27512">
        <ele>-25.60000038147</ele>
        <time>2021-12-05T09:19:43.000Z</time>
      </trkpt>
      <trkpt lat="47.32331" lon="-2.2751">
        <ele>-25.60000038147</ele>
        <time>2021-12-05T09:19:46.000Z</time>
      </trkpt>
      <trkpt lat="47.32325" lon="-2.27509">
        <ele>-25.60000038147</ele>
        <time>2021-12-05T09:19:47.000Z</time>
      </trkpt>
      <trkpt lat="47.32319" lon="-2.27508">
        <ele>-25.60000038147</ele>
        <time>2021-12-05T09:19:48.000Z</time>
      </trkpt>
      <trkpt lat="47.32296" lon="-2.27506">
        <ele>-25.60000038147</ele>
        <time>2021-12-05T09:19:52.000Z</time>
      </trkpt>
      <trkpt lat="47.32257" lon="-2.27502">
        <ele>-25.60000038147</ele>
        <time>2021-12-05T09:19:59.000Z</time>
      </trkpt>
      <trkpt lat="47.32243" lon="-2.275">
        <ele>-25.60000038147</ele>
        <time>2021-12-05T09:20:02.000Z</time>
      </trkpt>
      <trkpt lat="47.3224" lon="-2.27495">
        <ele>-25.60000038147</ele>
        <time>2021-12-05T09:20:03.000Z</time>
      </trkpt>
      <trkpt lat="47.32242" lon="-2.27472">
        <ele>-25.60000038147</ele>
        <time>2021-12-05T09:20:06.000Z</time>
      </trkpt>
      <trkpt lat="47.32243" lon="-2.27464">
        <ele>-25.60000038147</ele>
        <time>2021-12-05T09:20:07.000Z</time>
      </trkpt>
      <trkpt lat="47.32248" lon="-2.27421">
        <ele>-25</ele>
        <time>2021-12-05T09:20:12.000Z</time>
      </trkpt>
      <trkpt lat="47.3225" lon="-2.27412">
        <ele>-24.60000038147</ele>
        <time>2021-12-05T09:20:13.000Z</time>
      </trkpt>
      <trkpt lat="47.32251" lon="-2.27403">
        <ele>-24</ele>
        <time>2021-12-05T09:20:14.000Z</time>
      </trkpt>
      <trkpt lat="47.32252" lon="-2.27394">
        <ele>-23.60000038147</ele>
        <time>2021-12-05T09:20:15.000Z</time>
      </trkpt>
      <trkpt lat="47.32252" lon="-2.27384">
        <ele>-23</ele>
        <time>2021-12-05T09:20:16.000Z</time>
      </trkpt>
      <trkpt lat="47.32252" lon="-2.27365">
        <ele>-23</ele>
        <time>2021-12-05T09:20:18.000Z</time>
      </trkpt>
      <trkpt lat="47.32251" lon="-2.27356">
        <ele>-23</ele>
        <time>2021-12-05T09:20:19.000Z</time>
      </trkpt>
      <trkpt lat="47.32251" lon="-2.27329">
        <ele>-23</ele>
        <time>2021-12-05T09:20:22.000Z</time>
      </trkpt>
      <trkpt lat="47.32256" lon="-2.27313">
        <ele>-23</ele>
        <time>2021-12-05T09:20:24.000Z</time>
      </trkpt>
      <trkpt lat="47.32271" lon="-2.273">
        <ele>-23</ele>
        <time>2021-12-05T09:20:27.000Z</time>
      </trkpt>
      <trkpt lat="47.32281" lon="-2.27294">
        <ele>-23</ele>
        <time>2021-12-05T09:20:29.000Z</time>
      </trkpt>
      <trkpt lat="47.32303" lon="-2.27282">
        <ele>-23</ele>
        <time>2021-12-05T09:20:33.000Z</time>
      </trkpt>
      <trkpt lat="47.32334" lon="-2.27262">
        <ele>-23</ele>
        <time>2021-12-05T09:20:40.000Z</time>
      </trkpt>
      <trkpt lat="47.32358" lon="-2.27232">
        <ele>-23</ele>
        <time>2021-12-05T09:20:46.000Z</time>
      </trkpt>
      <trkpt lat="47.32372" lon="-2.27192">
        <ele>-23</ele>
        <time>2021-12-05T09:20:51.000Z</time>
      </trkpt>
      <trkpt lat="47.32383" lon="-2.27158">
        <ele>-23</ele>
        <time>2021-12-05T09:20:55.000Z</time>
      </trkpt>
      <trkpt lat="47.32384" lon="-2.27137">
        <ele>-23</ele>
        <time>2021-12-05T09:20:57.000Z</time>
      </trkpt>
      <trkpt lat="47.32384" lon="-2.27116">
        <ele>-23</ele>
        <time>2021-12-05T09:20:59.000Z</time>
      </trkpt>
      <trkpt lat="47.32383" lon="-2.27086">
        <ele>-23</ele>
        <time>2021-12-05T09:21:02.000Z</time>
      </trkpt>
      <trkpt lat="47.3238" lon="-2.27034">
        <ele>-23</ele>
        <time>2021-12-05T09:21:08.000Z</time>
      </trkpt>
      <trkpt lat="47.32383" lon="-2.27027">
        <ele>-23</ele>
        <time>2021-12-05T09:21:09.000Z</time>
      </trkpt>
      <trkpt lat="47.32389" lon="-2.27019">
        <ele>-23</ele>
        <time>2021-12-05T09:21:11.000Z</time>
      </trkpt>
      <trkpt lat="47.32405" lon="-2.27022">
        <ele>-23</ele>
        <time>2021-12-05T09:21:14.000Z</time>
      </trkpt>
      <trkpt lat="47.3241" lon="-2.27023">
        <ele>-23</ele>
        <time>2021-12-05T09:21:15.000Z</time>
      </trkpt>
      <trkpt lat="47.32437" lon="-2.27024">
        <ele>-23</ele>
        <time>2021-12-05T09:21:20.000Z</time>
      </trkpt>
      <trkpt lat="47.3245" lon="-2.27003">
        <ele>-23.39999961853</ele>
        <time>2021-12-05T09:21:23.000Z</time>
      </trkpt>
      <trkpt lat="47.32448" lon="-2.26994">
        <ele>-24</ele>
        <time>2021-12-05T09:21:24.000Z</time>
      </trkpt>
      <trkpt lat="47.32448" lon="-2.26985">
        <ele>-24.39999961853</ele>
        <time>2021-12-05T09:21:25.000Z</time>
      </trkpt>
      <trkpt lat="47.32447" lon="-2.26976">
        <ele>-24.799999237061</ele>
        <time>2021-12-05T09:21:26.000Z</time>
      </trkpt>
      <trkpt lat="47.32446" lon="-2.26969">
        <ele>-25.200000762939</ele>
        <time>2021-12-05T09:21:27.000Z</time>
      </trkpt>
      <trkpt lat="47.32442" lon="-2.26945">
        <ele>-25.200000762939</ele>
        <time>2021-12-05T09:21:30.000Z</time>
      </trkpt>
      <trkpt lat="47.32435" lon="-2.26907">
        <ele>-25.200000762939</ele>
        <time>2021-12-05T09:21:35.000Z</time>
      </trkpt>
      <trkpt lat="47.32434" lon="-2.26899">
        <ele>-25.200000762939</ele>
        <time>2021-12-05T09:21:36.000Z</time>
      </trkpt>
      <trkpt lat="47.32426" lon="-2.26846">
        <ele>-25.200000762939</ele>
        <time>2021-12-05T09:21:42.000Z</time>
      </trkpt>
      <trkpt lat="47.3242" lon="-2.26789">
        <ele>-25.200000762939</ele>
        <time>2021-12-05T09:21:48.000Z</time>
      </trkpt>
      <trkpt lat="47.32418" lon="-2.26733">
        <ele>-25.200000762939</ele>
        <time>2021-12-05T09:21:54.000Z</time>
      </trkpt>
      <trkpt lat="47.32417" lon="-2.26682">
        <ele>-25.200000762939</ele>
        <time>2021-12-05T09:22:00.000Z</time>
      </trkpt>
      <trkpt lat="47.32414" lon="-2.26664">
        <ele>-25.200000762939</ele>
        <time>2021-12-05T09:22:02.000Z</time>
      </trkpt>
      <trkpt lat="47.32406" lon="-2.26638">
        <ele>-25.200000762939</ele>
        <time>2021-12-05T09:22:05.000Z</time>
      </trkpt>
      <trkpt lat="47.32393" lon="-2.26596">
        <ele>-25.200000762939</ele>
        <time>2021-12-05T09:22:10.000Z</time>
      </trkpt>
      <trkpt lat="47.32391" lon="-2.26588">
        <ele>-25.200000762939</ele>
        <time>2021-12-05T09:22:11.000Z</time>
      </trkpt>
      <trkpt lat="47.32381" lon="-2.2654">
        <ele>-25.200000762939</ele>
        <time>2021-12-05T09:22:17.000Z</time>
      </trkpt>
      <trkpt lat="47.32365" lon="-2.26526">
        <ele>-25.200000762939</ele>
        <time>2021-12-05T09:22:20.000Z</time>
      </trkpt>
      <trkpt lat="47.32348" lon="-2.26531">
        <ele>-25.200000762939</ele>
        <time>2021-12-05T09:22:23.000Z</time>
      </trkpt>
      <trkpt lat="47.32334" lon="-2.26543">
        <ele>-25.200000762939</ele>
        <time>2021-12-05T09:22:26.000Z</time>
      </trkpt>
      <trkpt lat="47.32326" lon="-2.26552">
        <ele>-25.200000762939</ele>
        <time>2021-12-05T09:22:28.000Z</time>
      </trkpt>
      <trkpt lat="47.323" lon="-2.26585">
        <ele>-25.200000762939</ele>
        <time>2021-12-05T09:22:34.000Z</time>
      </trkpt>
      <trkpt lat="47.32291" lon="-2.26595">
        <ele>-25.200000762939</ele>
        <time>2021-12-05T09:22:36.000Z</time>
      </trkpt>
      <trkpt lat="47.32275" lon="-2.26604">
        <ele>-25.200000762939</ele>
        <time>2021-12-05T09:22:39.000Z</time>
      </trkpt>
      <trkpt lat="47.32258" lon="-2.26605">
        <ele>-25.200000762939</ele>
        <time>2021-12-05T09:22:42.000Z</time>
      </trkpt>
      <trkpt lat="47.32253" lon="-2.26604">
        <ele>-25.200000762939</ele>
        <time>2021-12-05T09:22:43.000Z</time>
      </trkpt>
      <trkpt lat="47.32221" lon="-2.26608">
        <ele>-25.200000762939</ele>
        <time>2021-12-05T09:22:49.000Z</time>
      </trkpt>
      <trkpt lat="47.32194" lon="-2.26612">
        <ele>-24.799999237061</ele>
        <time>2021-12-05T09:22:54.000Z</time>
      </trkpt>
      <trkpt lat="47.32188" lon="-2.26612">
        <ele>-24.39999961853</ele>
        <time>2021-12-05T09:22:55.000Z</time>
      </trkpt>
      <trkpt lat="47.32183" lon="-2.26612">
        <ele>-24</ele>
        <time>2021-12-05T09:22:56.000Z</time>
      </trkpt>
      <trkpt lat="47.32178" lon="-2.26612">
        <ele>-23</ele>
        <time>2021-12-05T09:22:57.000Z</time>
      </trkpt>
      <trkpt lat="47.32143" lon="-2.26607">
        <ele>-23</ele>
        <time>2021-12-05T09:23:03.000Z</time>
      </trkpt>
      <trkpt lat="47.32137" lon="-2.26604">
        <ele>-23</ele>
        <time>2021-12-05T09:23:04.000Z</time>
      </trkpt>
      <trkpt lat="47.32111" lon="-2.26595">
        <ele>-23</ele>
        <time>2021-12-05T09:23:09.000Z</time>
      </trkpt>
      <trkpt lat="47.32094" lon="-2.2659">
        <ele>-23</ele>
        <time>2021-12-05T09:23:12.000Z</time>
      </trkpt>
      <trkpt lat="47.32084" lon="-2.26589">
        <ele>-23</ele>
        <time>2021-12-05T09:23:14.000Z</time>
      </trkpt>
      <trkpt lat="47.3206" lon="-2.26592">
        <ele>-23</ele>
        <time>2021-12-05T09:23:18.000Z</time>
      </trkpt>
      <trkpt lat="47.32054" lon="-2.26595">
        <ele>-23</ele>
        <time>2021-12-05T09:23:19.000Z</time>
      </trkpt>
      <trkpt lat="47.32013" lon="-2.26618">
        <ele>-23</ele>
        <time>2021-12-05T09:23:26.000Z</time>
      </trkpt>
      <trkpt lat="47.31982" lon="-2.26639">
        <ele>-23</ele>
        <time>2021-12-05T09:23:32.000Z</time>
      </trkpt>
      <trkpt lat="47.31963" lon="-2.26653">
        <ele>-22.60000038147</ele>
        <time>2021-12-05T09:23:36.000Z</time>
      </trkpt>
      <trkpt lat="47.31958" lon="-2.26657">
        <ele>-22.200000762939</ele>
        <time>2021-12-05T09:23:37.000Z</time>
      </trkpt>
      <trkpt lat="47.31954" lon="-2.2666">
        <ele>-21.799999237061</ele>
        <time>2021-12-05T09:23:38.000Z</time>
      </trkpt>
      <trkpt lat="47.31949" lon="-2.26664">
        <ele>-21.39999961853</ele>
        <time>2021-12-05T09:23:39.000Z</time>
      </trkpt>
      <trkpt lat="47.31944" lon="-2.26668">
        <ele>-21</ele>
        <time>2021-12-05T09:23:40.000Z</time>
      </trkpt>
      <trkpt lat="47.31917" lon="-2.26691">
        <ele>-21</ele>
        <time>2021-12-05T09:23:46.000Z</time>
      </trkpt>
      <trkpt lat="47.31882" lon="-2.2672">
        <ele>-21</ele>
        <time>2021-12-05T09:23:53.000Z</time>
      </trkpt>
      <trkpt lat="47.31859" lon="-2.26738">
        <ele>-21</ele>
        <time>2021-12-05T09:23:58.000Z</time>
      </trkpt>
      <trkpt lat="47.31844" lon="-2.26744">
        <ele>-21</ele>
        <time>2021-12-05T09:24:01.000Z</time>
      </trkpt>
      <trkpt lat="47.31839" lon="-2.26744">
        <ele>-21</ele>
        <time>2021-12-05T09:24:02.000Z</time>
      </trkpt>
      <trkpt lat="47.31822" lon="-2.2673">
        <ele>-21</ele>
        <time>2021-12-05T09:24:06.000Z</time>
      </trkpt>
      <trkpt lat="47.31816" lon="-2.26718">
        <ele>-21</ele>
        <time>2021-12-05T09:24:08.000Z</time>
      </trkpt>
      <trkpt lat="47.31807" lon="-2.26702">
        <ele>-21</ele>
        <time>2021-12-05T09:24:11.000Z</time>
      </trkpt>
      <trkpt lat="47.31792" lon="-2.26698">
        <ele>-21</ele>
        <time>2021-12-05T09:24:14.000Z</time>
      </trkpt>
      <trkpt lat="47.31783" lon="-2.26701">
        <ele>-21</ele>
        <time>2021-12-05T09:24:16.000Z</time>
      </trkpt>
      <trkpt lat="47.31765" lon="-2.26707">
        <ele>-21</ele>
        <time>2021-12-05T09:24:19.000Z</time>
      </trkpt>
      <trkpt lat="47.31723" lon="-2.2672">
        <ele>-21.39999961853</ele>
        <time>2021-12-05T09:24:26.000Z</time>
      </trkpt>
      <trkpt lat="47.31717" lon="-2.26722">
        <ele>-21.799999237061</ele>
        <time>2021-12-05T09:24:27.000Z</time>
      </trkpt>
      <trkpt lat="47.31712" lon="-2.26723">
        <ele>-22.39999961853</ele>
        <time>2021-12-05T09:24:28.000Z</time>
      </trkpt>
      <trkpt lat="47.31707" lon="-2.26724">
        <ele>-22.799999237061</ele>
        <time>2021-12-05T09:24:29.000Z</time>
      </trkpt>
      <trkpt lat="47.31702" lon="-2.26725">
        <ele>-23.200000762939</ele>
        <time>2021-12-05T09:24:30.000Z</time>
      </trkpt>
      <trkpt lat="47.31697" lon="-2.26726">
        <ele>-23.200000762939</ele>
        <time>2021-12-05T09:24:31.000Z</time>
      </trkpt>
      <trkpt lat="47.31682" lon="-2.26728">
        <ele>-23.200000762939</ele>
        <time>2021-12-05T09:24:34.000Z</time>
      </trkpt>
      <trkpt lat="47.3167" lon="-2.26731">
        <ele>-23.200000762939</ele>
        <time>2021-12-05T09:24:37.000Z</time>
      </trkpt>
      <trkpt lat="47.31656" lon="-2.26733">
        <ele>-23.200000762939</ele>
        <time>2021-12-05T09:24:41.000Z</time>
      </trkpt>
      <trkpt lat="47.31648" lon="-2.26736">
        <ele>-23.200000762939</ele>
        <time>2021-12-05T09:24:43.000Z</time>
      </trkpt>
      <trkpt lat="47.3164" lon="-2.26743">
        <ele>-23.200000762939</ele>
        <time>2021-12-05T09:24:45.000Z</time>
      </trkpt>
      <trkpt lat="47.31622" lon="-2.26757">
        <ele>-23.200000762939</ele>
        <time>2021-12-05T09:24:49.000Z</time>
      </trkpt>
      <trkpt lat="47.31617" lon="-2.26759">
        <ele>-23.200000762939</ele>
        <time>2021-12-05T09:24:50.000Z</time>
      </trkpt>
      <trkpt lat="47.31593" lon="-2.26759">
        <ele>-23.200000762939</ele>
        <time>2021-12-05T09:24:55.000Z</time>
      </trkpt>
      <trkpt lat="47.31588" lon="-2.26757">
        <ele>-23.60000038147</ele>
        <time>2021-12-05T09:24:56.000Z</time>
      </trkpt>
      <trkpt lat="47.31583" lon="-2.26757">
        <ele>-24</ele>
        <time>2021-12-05T09:24:57.000Z</time>
      </trkpt>
      <trkpt lat="47.31579" lon="-2.26757">
        <ele>-24.39999961853</ele>
        <time>2021-12-05T09:24:58.000Z</time>
      </trkpt>
      <trkpt lat="47.31575" lon="-2.26759">
        <ele>-24.799999237061</ele>
        <time>2021-12-05T09:24:59.000Z</time>
      </trkpt>
      <trkpt lat="47.31571" lon="-2.26762">
        <ele>-25.39999961853</ele>
        <time>2021-12-05T09:25:00.000Z</time>
      </trkpt>
      <trkpt lat="47.31565" lon="-2.26773">
        <ele>-25.39999961853</ele>
        <time>2021-12-05T09:25:02.000Z</time>
      </trkpt>
      <trkpt lat="47.31562" lon="-2.26779">
        <ele>-25.39999961853</ele>
        <time>2021-12-05T09:25:03.000Z</time>
      </trkpt>
      <trkpt lat="47.31547" lon="-2.26815">
        <ele>-25.39999961853</ele>
        <time>2021-12-05T09:25:09.000Z</time>
      </trkpt>
      <trkpt lat="47.31534" lon="-2.26846">
        <ele>-25.39999961853</ele>
        <time>2021-12-05T09:25:14.000Z</time>
      </trkpt>
      <trkpt lat="47.31523" lon="-2.26876">
        <ele>-25.39999961853</ele>
        <time>2021-12-05T09:25:19.000Z</time>
      </trkpt>
      <trkpt lat="47.31518" lon="-2.26887">
        <ele>-25.39999961853</ele>
        <time>2021-12-05T09:25:21.000Z</time>
      </trkpt>
      <trkpt lat="47.31517" lon="-2.26892">
        <ele>-25.39999961853</ele>
        <time>2021-12-05T09:25:22.000Z</time>
      </trkpt>
      <trkpt lat="47.31507" lon="-2.2692">
        <ele>-25.39999961853</ele>
        <time>2021-12-05T09:25:27.000Z</time>
      </trkpt>
      <trkpt lat="47.31498" lon="-2.26953">
        <ele>-25.39999961853</ele>
        <time>2021-12-05T09:25:32.000Z</time>
      </trkpt>
      <trkpt lat="47.31485" lon="-2.26984">
        <ele>-25.39999961853</ele>
        <time>2021-12-05T09:25:38.000Z</time>
      </trkpt>
      <trkpt lat="47.31467" lon="-2.26999">
        <ele>-25.39999961853</ele>
        <time>2021-12-05T09:25:42.000Z</time>
      </trkpt>
      <trkpt lat="47.31462" lon="-2.27002">
        <ele>-24.799999237061</ele>
        <time>2021-12-05T09:25:43.000Z</time>
      </trkpt>
      <trkpt lat="47.31458" lon="-2.27005">
        <ele>-24.39999961853</ele>
        <time>2021-12-05T09:25:44.000Z</time>
      </trkpt>
      <trkpt lat="47.31454" lon="-2.27009">
        <ele>-24</ele>
        <time>2021-12-05T09:25:45.000Z</time>
      </trkpt>
      <trkpt lat="47.3145" lon="-2.27012">
        <ele>-23.60000038147</ele>
        <time>2021-12-05T09:25:46.000Z</time>
      </trkpt>
      <trkpt lat="47.31445" lon="-2.27016">
        <ele>-23.200000762939</ele>
        <time>2021-12-05T09:25:47.000Z</time>
      </trkpt>
      <trkpt lat="47.31437" lon="-2.27022">
        <ele>-23.200000762939</ele>
        <time>2021-12-05T09:25:49.000Z</time>
      </trkpt>
      <trkpt lat="47.31398" lon="-2.27051">
        <ele>-23.200000762939</ele>
        <time>2021-12-05T09:25:58.000Z</time>
      </trkpt>
      <trkpt lat="47.31364" lon="-2.27067">
        <ele>-23.200000762939</ele>
        <time>2021-12-05T09:26:05.000Z</time>
      </trkpt>
      <trkpt lat="47.31353" lon="-2.27071">
        <ele>-22.799999237061</ele>
        <time>2021-12-05T09:26:07.000Z</time>
      </trkpt>
      <trkpt lat="47.31348" lon="-2.27072">
        <ele>-22.39999961853</ele>
        <time>2021-12-05T09:26:08.000Z</time>
      </trkpt>
      <trkpt lat="47.31343" lon="-2.27074">
        <ele>-22</ele>
        <time>2021-12-05T09:26:09.000Z</time>
      </trkpt>
      <trkpt lat="47.31338" lon="-2.27075">
        <ele>-21.60000038147</ele>
        <time>2021-12-05T09:26:10.000Z</time>
      </trkpt>
      <trkpt lat="47.31333" lon="-2.27076">
        <ele>-21.200000762939</ele>
        <time>2021-12-05T09:26:11.000Z</time>
      </trkpt>
      <trkpt lat="47.31324" lon="-2.27079">
        <ele>-21.200000762939</ele>
        <time>2021-12-05T09:26:13.000Z</time>
      </trkpt>
      <trkpt lat="47.31292" lon="-2.27092">
        <ele>-21.200000762939</ele>
        <time>2021-12-05T09:26:20.000Z</time>
      </trkpt>
      <trkpt lat="47.3126" lon="-2.27115">
        <ele>-21.200000762939</ele>
        <time>2021-12-05T09:26:27.000Z</time>
      </trkpt>
      <trkpt lat="47.3122" lon="-2.27143">
        <ele>-21.200000762939</ele>
        <time>2021-12-05T09:26:36.000Z</time>
      </trkpt>
      <trkpt lat="47.312" lon="-2.27159">
        <ele>-21.200000762939</ele>
        <time>2021-12-05T09:26:42.000Z</time>
      </trkpt>
      <trkpt lat="47.31182" lon="-2.27178">
        <ele>-21.200000762939</ele>
        <time>2021-12-05T09:26:49.000Z</time>
      </trkpt>
      <trkpt lat="47.31169" lon="-2.27196">
        <ele>-21.200000762939</ele>
        <time>2021-12-05T09:26:55.000Z</time>
      </trkpt>
      <trkpt lat="47.31163" lon="-2.27204">
        <ele>-21.200000762939</ele>
        <time>2021-12-05T09:26:57.000Z</time>
      </trkpt>
      <trkpt lat="47.31155" lon="-2.27212">
        <ele>-21.200000762939</ele>
        <time>2021-12-05T09:26:59.000Z</time>
      </trkpt>
      <trkpt lat="47.31135" lon="-2.27228">
        <ele>-21.200000762939</ele>
        <time>2021-12-05T09:27:05.000Z</time>
      </trkpt>
      <trkpt lat="47.31126" lon="-2.27234">
        <ele>-21.200000762939</ele>
        <time>2021-12-05T09:27:10.000Z</time>
      </trkpt>
      <trkpt lat="47.31126" lon="-2.27234">
        <ele>-21.200000762939</ele>
        <time>2021-12-05T09:27:11.000Z</time>
      </trkpt>
      <trkpt lat="47.31123" lon="-2.27235">
        <ele>-21.200000762939</ele>
        <time>2021-12-05T09:29:08.000Z</time>
      </trkpt>
      <trkpt lat="47.31118" lon="-2.27235">
        <ele>-21.200000762939</ele>
        <time>2021-12-05T09:29:10.000Z</time>
      </trkpt>
      <trkpt lat="47.31098" lon="-2.27242">
        <ele>-21.200000762939</ele>
        <time>2021-12-05T09:29:16.000Z</time>
      </trkpt>
      <trkpt lat="47.31072" lon="-2.27251">
        <ele>-21.200000762939</ele>
        <time>2021-12-05T09:29:22.000Z</time>
      </trkpt>
      <trkpt lat="47.31038" lon="-2.27257">
        <ele>-21.200000762939</ele>
        <time>2021-12-05T09:29:29.000Z</time>
      </trkpt>
      <trkpt lat="47.3103" lon="-2.27255">
        <ele>-21.200000762939</ele>
        <time>2021-12-05T09:29:31.000Z</time>
      </trkpt>
      <trkpt lat="47.31016" lon="-2.27245">
        <ele>-21.200000762939</ele>
        <time>2021-12-05T09:29:34.000Z</time>
      </trkpt>
      <trkpt lat="47.31012" lon="-2.27241">
        <ele>-21.200000762939</ele>
        <time>2021-12-05T09:29:35.000Z</time>
      </trkpt>
      <trkpt lat="47.31007" lon="-2.27229">
        <ele>-21.200000762939</ele>
        <time>2021-12-05T09:29:37.000Z</time>
      </trkpt>
      <trkpt lat="47.31005" lon="-2.27214">
        <ele>-21.200000762939</ele>
        <time>2021-12-05T09:29:39.000Z</time>
      </trkpt>
      <trkpt lat="47.31003" lon="-2.27192">
        <ele>-21.200000762939</ele>
        <time>2021-12-05T09:29:42.000Z</time>
      </trkpt>
      <trkpt lat="47.31" lon="-2.27128">
        <ele>-21.200000762939</ele>
        <time>2021-12-05T09:29:51.000Z</time>
      </trkpt>
      <trkpt lat="47.30997" lon="-2.27072">
        <ele>-21.200000762939</ele>
        <time>2021-12-05T09:29:58.000Z</time>
      </trkpt>
      <trkpt lat="47.30996" lon="-2.27042">
        <ele>-21.60000038147</ele>
        <time>2021-12-05T09:30:01.000Z</time>
      </trkpt>
      <trkpt lat="47.30996" lon="-2.27031">
        <ele>-22</ele>
        <time>2021-12-05T09:30:02.000Z</time>
      </trkpt>
      <trkpt lat="47.30995" lon="-2.27019">
        <ele>-22.39999961853</ele>
        <time>2021-12-05T09:30:03.000Z</time>
      </trkpt>
      <trkpt lat="47.30994" lon="-2.27008">
        <ele>-22.799999237061</ele>
        <time>2021-12-05T09:30:04.000Z</time>
      </trkpt>
      <trkpt lat="47.30991" lon="-2.26997">
        <ele>-23.200000762939</ele>
        <time>2021-12-05T09:30:05.000Z</time>
      </trkpt>
      <trkpt lat="47.30986" lon="-2.26985">
        <ele>-23.60000038147</ele>
        <time>2021-12-05T09:30:06.000Z</time>
      </trkpt>
      <trkpt lat="47.3098" lon="-2.26975">
        <ele>-24</ele>
        <time>2021-12-05T09:30:07.000Z</time>
      </trkpt>
      <trkpt lat="47.30973" lon="-2.26967">
        <ele>-24.39999961853</ele>
        <time>2021-12-05T09:30:08.000Z</time>
      </trkpt>
      <trkpt lat="47.30966" lon="-2.2696">
        <ele>-24.799999237061</ele>
        <time>2021-12-05T09:30:09.000Z</time>
      </trkpt>
      <trkpt lat="47.30959" lon="-2.26954">
        <ele>-25.200000762939</ele>
        <time>2021-12-05T09:30:10.000Z</time>
      </trkpt>
      <trkpt lat="47.30946" lon="-2.26946">
        <ele>-25.200000762939</ele>
        <time>2021-12-05T09:30:12.000Z</time>
      </trkpt>
      <trkpt lat="47.30938" lon="-2.26942">
        <ele>-25.200000762939</ele>
        <time>2021-12-05T09:30:13.000Z</time>
      </trkpt>
      <trkpt lat="47.30894" lon="-2.26918">
        <ele>-25.200000762939</ele>
        <time>2021-12-05T09:30:20.000Z</time>
      </trkpt>
      <trkpt lat="47.30888" lon="-2.26917">
        <ele>-25.200000762939</ele>
        <time>2021-12-05T09:30:21.000Z</time>
      </trkpt>
      <trkpt lat="47.30862" lon="-2.2692">
        <ele>-25.200000762939</ele>
        <time>2021-12-05T09:30:25.000Z</time>
      </trkpt>
      <trkpt lat="47.30856" lon="-2.26923">
        <ele>-25.200000762939</ele>
        <time>2021-12-05T09:30:26.000Z</time>
      </trkpt>
      <trkpt lat="47.3082" lon="-2.2694">
        <ele>-25.200000762939</ele>
        <time>2021-12-05T09:30:32.000Z</time>
      </trkpt>
      <trkpt lat="47.30796" lon="-2.26948">
        <ele>-25.200000762939</ele>
        <time>2021-12-05T09:30:36.000Z</time>
      </trkpt>
      <trkpt lat="47.3079" lon="-2.26948">
        <ele>-25.200000762939</ele>
        <time>2021-12-05T09:30:37.000Z</time>
      </trkpt>
      <trkpt lat="47.30754" lon="-2.26943">
        <ele>-25.200000762939</ele>
        <time>2021-12-05T09:30:43.000Z</time>
      </trkpt>
      <trkpt lat="47.30733" lon="-2.26935">
        <ele>-24.39999961853</ele>
        <time>2021-12-05T09:30:47.000Z</time>
      </trkpt>
      <trkpt lat="47.30729" lon="-2.26933">
        <ele>-24</ele>
        <time>2021-12-05T09:30:48.000Z</time>
      </trkpt>
      <trkpt lat="47.30724" lon="-2.26929">
        <ele>-23.60000038147</ele>
        <time>2021-12-05T09:30:49.000Z</time>
      </trkpt>
      <trkpt lat="47.3072" lon="-2.26926">
        <ele>-23.200000762939</ele>
        <time>2021-12-05T09:30:50.000Z</time>
      </trkpt>
      <trkpt lat="47.30708" lon="-2.26913">
        <ele>-22.799999237061</ele>
        <time>2021-12-05T09:30:53.000Z</time>
      </trkpt>
      <trkpt lat="47.30705" lon="-2.26909">
        <ele>-22.200000762939</ele>
        <time>2021-12-05T09:30:54.000Z</time>
      </trkpt>
      <trkpt lat="47.30701" lon="-2.26904">
        <ele>-21.799999237061</ele>
        <time>2021-12-05T09:30:55.000Z</time>
      </trkpt>
      <trkpt lat="47.30698" lon="-2.26899">
        <ele>-21.39999961853</ele>
        <time>2021-12-05T09:30:56.000Z</time>
      </trkpt>
      <trkpt lat="47.30694" lon="-2.26894">
        <ele>-20.799999237061</ele>
        <time>2021-12-05T09:30:57.000Z</time>
      </trkpt>
      <trkpt lat="47.30678" lon="-2.26865">
        <ele>-20.799999237061</ele>
        <time>2021-12-05T09:31:02.000Z</time>
      </trkpt>
      <trkpt lat="47.30657" lon="-2.26822">
        <ele>-20.799999237061</ele>
        <time>2021-12-05T09:31:09.000Z</time>
      </trkpt>
      <trkpt lat="47.30654" lon="-2.26816">
        <ele>-20.39999961853</ele>
        <time>2021-12-05T09:31:10.000Z</time>
      </trkpt>
      <trkpt lat="47.30651" lon="-2.2681">
        <ele>-20</ele>
        <time>2021-12-05T09:31:11.000Z</time>
      </trkpt>
      <trkpt lat="47.30648" lon="-2.26805">
        <ele>-19.200000762939</ele>
        <time>2021-12-05T09:31:12.000Z</time>
      </trkpt>
      <trkpt lat="47.30646" lon="-2.26799">
        <ele>-18.799999237061</ele>
        <time>2021-12-05T09:31:13.000Z</time>
      </trkpt>
      <trkpt lat="47.30638" lon="-2.26782">
        <ele>-18.799999237061</ele>
        <time>2021-12-05T09:31:16.000Z</time>
      </trkpt>
      <trkpt lat="47.30625" lon="-2.26744">
        <ele>-18.799999237061</ele>
        <time>2021-12-05T09:31:22.000Z</time>
      </trkpt>
      <trkpt lat="47.30614" lon="-2.26685">
        <ele>-18.799999237061</ele>
        <time>2021-12-05T09:31:30.000Z</time>
      </trkpt>
      <trkpt lat="47.30608" lon="-2.26638">
        <ele>-17.799999237061</ele>
        <time>2021-12-05T09:31:37.000Z</time>
      </trkpt>
      <trkpt lat="47.30607" lon="-2.2663">
        <ele>-17.39999961853</ele>
        <time>2021-12-05T09:31:38.000Z</time>
      </trkpt>
      <trkpt lat="47.30605" lon="-2.26623">
        <ele>-17</ele>
        <time>2021-12-05T09:31:39.000Z</time>
      </trkpt>
      <trkpt lat="47.30604" lon="-2.26616">
        <ele>-16.60000038147</ele>
        <time>2021-12-05T09:31:40.000Z</time>
      </trkpt>
      <trkpt lat="47.306" lon="-2.26596">
        <ele>-16.60000038147</ele>
        <time>2021-12-05T09:31:43.000Z</time>
      </trkpt>
      <trkpt lat="47.30597" lon="-2.26589">
        <ele>-16.60000038147</ele>
        <time>2021-12-05T09:31:44.000Z</time>
      </trkpt>
      <trkpt lat="47.30585" lon="-2.26564">
        <ele>-16.60000038147</ele>
        <time>2021-12-05T09:31:48.000Z</time>
      </trkpt>
      <trkpt lat="47.30578" lon="-2.26554">
        <ele>-16.60000038147</ele>
        <time>2021-12-05T09:31:50.000Z</time>
      </trkpt>
      <trkpt lat="47.30564" lon="-2.26541">
        <ele>-16.60000038147</ele>
        <time>2021-12-05T09:31:53.000Z</time>
      </trkpt>
      <trkpt lat="47.30555" lon="-2.26535">
        <ele>-16.60000038147</ele>
        <time>2021-12-05T09:31:55.000Z</time>
      </trkpt>
      <trkpt lat="47.30532" lon="-2.26518">
        <ele>-16.60000038147</ele>
        <time>2021-12-05T09:32:00.000Z</time>
      </trkpt>
      <trkpt lat="47.30522" lon="-2.26513">
        <ele>-16.60000038147</ele>
        <time>2021-12-05T09:32:02.000Z</time>
      </trkpt>
      <trkpt lat="47.30517" lon="-2.2651">
        <ele>-17</ele>
        <time>2021-12-05T09:32:03.000Z</time>
      </trkpt>
      <trkpt lat="47.30514" lon="-2.26507">
        <ele>-17.39999961853</ele>
        <time>2021-12-05T09:32:04.000Z</time>
      </trkpt>
      <trkpt lat="47.3051" lon="-2.26504">
        <ele>-17.799999237061</ele>
        <time>2021-12-05T09:32:05.000Z</time>
      </trkpt>
      <trkpt lat="47.30506" lon="-2.26502">
        <ele>-18.39999961853</ele>
        <time>2021-12-05T09:32:06.000Z</time>
      </trkpt>
      <trkpt lat="47.30503" lon="-2.26501">
        <ele>-18.799999237061</ele>
        <time>2021-12-05T09:32:07.000Z</time>
      </trkpt>
      <trkpt lat="47.30496" lon="-2.26493">
        <ele>-18.799999237061</ele>
        <time>2021-12-05T09:32:10.000Z</time>
      </trkpt>
      <trkpt lat="47.30496" lon="-2.26489">
        <ele>-18.799999237061</ele>
        <time>2021-12-05T09:32:11.000Z</time>
      </trkpt>
      <trkpt lat="47.30497" lon="-2.26481">
        <ele>-18.799999237061</ele>
        <time>2021-12-05T09:32:16.000Z</time>
      </trkpt>
      <trkpt lat="47.30499" lon="-2.26478">
        <ele>-18.799999237061</ele>
        <time>2021-12-05T09:32:19.000Z</time>
      </trkpt>
      <trkpt lat="47.30501" lon="-2.26471">
        <ele>-18.799999237061</ele>
        <time>2021-12-05T09:32:22.000Z</time>
      </trkpt>
      <trkpt lat="47.3051" lon="-2.26448">
        <ele>-18.799999237061</ele>
        <time>2021-12-05T09:32:27.000Z</time>
      </trkpt>
      <trkpt lat="47.30513" lon="-2.26443">
        <ele>-18.799999237061</ele>
        <time>2021-12-05T09:32:28.000Z</time>
      </trkpt>
      <trkpt lat="47.30524" lon="-2.26417">
        <ele>-18.799999237061</ele>
        <time>2021-12-05T09:32:32.000Z</time>
      </trkpt>
      <trkpt lat="47.30539" lon="-2.26372">
        <ele>-18.799999237061</ele>
        <time>2021-12-05T09:32:38.000Z</time>
      </trkpt>
      <trkpt lat="47.30546" lon="-2.26348">
        <ele>-18.799999237061</ele>
        <time>2021-12-05T09:32:41.000Z</time>
      </trkpt>
      <trkpt lat="47.30552" lon="-2.26322">
        <ele>-18.799999237061</ele>
        <time>2021-12-05T09:32:44.000Z</time>
      </trkpt>
      <trkpt lat="47.30563" lon="-2.26282">
        <ele>-18.799999237061</ele>
        <time>2021-12-05T09:32:49.000Z</time>
      </trkpt>
      <trkpt lat="47.30574" lon="-2.26243">
        <ele>-18.799999237061</ele>
        <time>2021-12-05T09:32:54.000Z</time>
      </trkpt>
      <trkpt lat="47.30576" lon="-2.26235">
        <ele>-18.799999237061</ele>
        <time>2021-12-05T09:32:55.000Z</time>
      </trkpt>
      <trkpt lat="47.30587" lon="-2.26195">
        <ele>-18.799999237061</ele>
        <time>2021-12-05T09:33:00.000Z</time>
      </trkpt>
      <trkpt lat="47.30592" lon="-2.26181">
        <ele>-18.799999237061</ele>
        <time>2021-12-05T09:33:02.000Z</time>
      </trkpt>
      <trkpt lat="47.30601" lon="-2.26161">
        <ele>-18.799999237061</ele>
        <time>2021-12-05T09:33:05.000Z</time>
      </trkpt>
      <trkpt lat="47.30622" lon="-2.26127">
        <ele>-18.799999237061</ele>
        <time>2021-12-05T09:33:11.000Z</time>
      </trkpt>
      <trkpt lat="47.30625" lon="-2.26122">
        <ele>-18.799999237061</ele>
        <time>2021-12-05T09:33:12.000Z</time>
      </trkpt>
      <trkpt lat="47.30635" lon="-2.26109">
        <ele>-18.799999237061</ele>
        <time>2021-12-05T09:33:15.000Z</time>
      </trkpt>
      <trkpt lat="47.30639" lon="-2.26105">
        <ele>-18.799999237061</ele>
        <time>2021-12-05T09:33:16.000Z</time>
      </trkpt>
      <trkpt lat="47.30643" lon="-2.26102">
        <ele>-18.799999237061</ele>
        <time>2021-12-05T09:33:17.000Z</time>
      </trkpt>
      <trkpt lat="47.30655" lon="-2.26093">
        <ele>-18.39999961853</ele>
        <time>2021-12-05T09:33:20.000Z</time>
      </trkpt>
      <trkpt lat="47.30659" lon="-2.2609">
        <ele>-18</ele>
        <time>2021-12-05T09:33:21.000Z</time>
      </trkpt>
      <trkpt lat="47.30664" lon="-2.26088">
        <ele>-17.39999961853</ele>
        <time>2021-12-05T09:33:22.000Z</time>
      </trkpt>
      <trkpt lat="47.30668" lon="-2.26085">
        <ele>-17</ele>
        <time>2021-12-05T09:33:23.000Z</time>
      </trkpt>
      <trkpt lat="47.30673" lon="-2.26082">
        <ele>-16.60000038147</ele>
        <time>2021-12-05T09:33:24.000Z</time>
      </trkpt>
      <trkpt lat="47.30703" lon="-2.26067">
        <ele>-16.60000038147</ele>
        <time>2021-12-05T09:33:30.000Z</time>
      </trkpt>
      <trkpt lat="47.30742" lon="-2.26047">
        <ele>-16.60000038147</ele>
        <time>2021-12-05T09:33:38.000Z</time>
      </trkpt>
      <trkpt lat="47.30756" lon="-2.2604">
        <ele>-16.200000762939</ele>
        <time>2021-12-05T09:33:41.000Z</time>
      </trkpt>
      <trkpt lat="47.30761" lon="-2.26037">
        <ele>-15.800000190735</ele>
        <time>2021-12-05T09:33:42.000Z</time>
      </trkpt>
      <trkpt lat="47.30765" lon="-2.26034">
        <ele>-15.39999961853</ele>
        <time>2021-12-05T09:33:43.000Z</time>
      </trkpt>
      <trkpt lat="47.30769" lon="-2.26031">
        <ele>-14.800000190735</ele>
        <time>2021-12-05T09:33:44.000Z</time>
      </trkpt>
      <trkpt lat="47.30773" lon="-2.26028">
        <ele>-14.39999961853</ele>
        <time>2021-12-05T09:33:45.000Z</time>
      </trkpt>
      <trkpt lat="47.308" lon="-2.26006">
        <ele>-14.39999961853</ele>
        <time>2021-12-05T09:33:52.000Z</time>
      </trkpt>
      <trkpt lat="47.30826" lon="-2.25982">
        <ele>-14.39999961853</ele>
        <time>2021-12-05T09:33:57.000Z</time>
      </trkpt>
      <trkpt lat="47.30863" lon="-2.25941">
        <ele>-14.39999961853</ele>
        <time>2021-12-05T09:34:05.000Z</time>
      </trkpt>
      <trkpt lat="47.30898" lon="-2.259">
        <ele>-14.39999961853</ele>
        <time>2021-12-05T09:34:13.000Z</time>
      </trkpt>
      <trkpt lat="47.3091" lon="-2.25884">
        <ele>-14.39999961853</ele>
        <time>2021-12-05T09:34:16.000Z</time>
      </trkpt>
      <trkpt lat="47.30913" lon="-2.25869">
        <ele>-14.39999961853</ele>
        <time>2021-12-05T09:34:18.000Z</time>
      </trkpt>
      <trkpt lat="47.30906" lon="-2.25849">
        <ele>-14.39999961853</ele>
        <time>2021-12-05T09:34:21.000Z</time>
      </trkpt>
      <trkpt lat="47.30892" lon="-2.25807">
        <ele>-14.39999961853</ele>
        <time>2021-12-05T09:34:27.000Z</time>
      </trkpt>
      <trkpt lat="47.30881" lon="-2.25763">
        <ele>-14.39999961853</ele>
        <time>2021-12-05T09:34:33.000Z</time>
      </trkpt>
      <trkpt lat="47.30879" lon="-2.25755">
        <ele>-14.39999961853</ele>
        <time>2021-12-05T09:34:34.000Z</time>
      </trkpt>
      <trkpt lat="47.30877" lon="-2.25729">
        <ele>-14.39999961853</ele>
        <time>2021-12-05T09:34:37.000Z</time>
      </trkpt>
      <trkpt lat="47.30877" lon="-2.25705">
        <ele>-14.39999961853</ele>
        <time>2021-12-05T09:34:40.000Z</time>
      </trkpt>
      <trkpt lat="47.30875" lon="-2.2565">
        <ele>-14.39999961853</ele>
        <time>2021-12-05T09:34:46.000Z</time>
      </trkpt>
      <trkpt lat="47.30872" lon="-2.25612">
        <ele>-14.800000190735</ele>
        <time>2021-12-05T09:34:50.000Z</time>
      </trkpt>
      <trkpt lat="47.30871" lon="-2.25603">
        <ele>-15.199999809265</ele>
        <time>2021-12-05T09:34:51.000Z</time>
      </trkpt>
      <trkpt lat="47.3087" lon="-2.25594">
        <ele>-15.60000038147</ele>
        <time>2021-12-05T09:34:52.000Z</time>
      </trkpt>
      <trkpt lat="47.30869" lon="-2.25585">
        <ele>-16.60000038147</ele>
        <time>2021-12-05T09:34:53.000Z</time>
      </trkpt>
      <trkpt lat="47.30868" lon="-2.25577">
        <ele>-16.60000038147</ele>
        <time>2021-12-05T09:34:54.000Z</time>
      </trkpt>
      <trkpt lat="47.30863" lon="-2.25524">
        <ele>-16.60000038147</ele>
        <time>2021-12-05T09:35:00.000Z</time>
      </trkpt>
      <trkpt lat="47.30858" lon="-2.25485">
        <ele>-17</ele>
        <time>2021-12-05T09:35:04.000Z</time>
      </trkpt>
      <trkpt lat="47.30857" lon="-2.25476">
        <ele>-17.39999961853</ele>
        <time>2021-12-05T09:35:05.000Z</time>
      </trkpt>
      <trkpt lat="47.30855" lon="-2.25466">
        <ele>-17.799999237061</ele>
        <time>2021-12-05T09:35:06.000Z</time>
      </trkpt>
      <trkpt lat="47.30854" lon="-2.25457">
        <ele>-18.200000762939</ele>
        <time>2021-12-05T09:35:07.000Z</time>
      </trkpt>
      <trkpt lat="47.30853" lon="-2.25448">
        <ele>-18.60000038147</ele>
        <time>2021-12-05T09:35:08.000Z</time>
      </trkpt>
      <trkpt lat="47.3085" lon="-2.25425">
        <ele>-18.60000038147</ele>
        <time>2021-12-05T09:35:11.000Z</time>
      </trkpt>
      <trkpt lat="47.30845" lon="-2.25415">
        <ele>-18.60000038147</ele>
        <time>2021-12-05T09:35:13.000Z</time>
      </trkpt>
      <trkpt lat="47.30832" lon="-2.25413">
        <ele>-18.60000038147</ele>
        <time>2021-12-05T09:35:16.000Z</time>
      </trkpt>
      <trkpt lat="47.30827" lon="-2.25414">
        <ele>-18.60000038147</ele>
        <time>2021-12-05T09:35:17.000Z</time>
      </trkpt>
      <trkpt lat="47.30799" lon="-2.25422">
        <ele>-19</ele>
        <time>2021-12-05T09:35:22.000Z</time>
      </trkpt>
      <trkpt lat="47.30793" lon="-2.25423">
        <ele>-19.39999961853</ele>
        <time>2021-12-05T09:35:23.000Z</time>
      </trkpt>
      <trkpt lat="47.30787" lon="-2.25425">
        <ele>-19.799999237061</ele>
        <time>2021-12-05T09:35:24.000Z</time>
      </trkpt>
      <trkpt lat="47.30782" lon="-2.25426">
        <ele>-20.200000762939</ele>
        <time>2021-12-05T09:35:25.000Z</time>
      </trkpt>
      <trkpt lat="47.30776" lon="-2.25427">
        <ele>-20.799999237061</ele>
        <time>2021-12-05T09:35:26.000Z</time>
      </trkpt>
      <trkpt lat="47.30771" lon="-2.25428">
        <ele>-21.200000762939</ele>
        <time>2021-12-05T09:35:27.000Z</time>
      </trkpt>
      <trkpt lat="47.30765" lon="-2.25429">
        <ele>-21.799999237061</ele>
        <time>2021-12-05T09:35:28.000Z</time>
      </trkpt>
      <trkpt lat="47.3076" lon="-2.25431">
        <ele>-22.200000762939</ele>
        <time>2021-12-05T09:35:29.000Z</time>
      </trkpt>
      <trkpt lat="47.30754" lon="-2.25432">
        <ele>-22.799999237061</ele>
        <time>2021-12-05T09:35:30.000Z</time>
      </trkpt>
      <trkpt lat="47.30749" lon="-2.25433">
        <ele>-23.200000762939</ele>
        <time>2021-12-05T09:35:31.000Z</time>
      </trkpt>
      <trkpt lat="47.30731" lon="-2.25435">
        <ele>-23.200000762939</ele>
        <time>2021-12-05T09:35:34.000Z</time>
      </trkpt>
      <trkpt lat="47.30719" lon="-2.25434">
        <ele>-23.200000762939</ele>
        <time>2021-12-05T09:35:36.000Z</time>
      </trkpt>
      <trkpt lat="47.30714" lon="-2.25433">
        <ele>-23.60000038147</ele>
        <time>2021-12-05T09:35:37.000Z</time>
      </trkpt>
      <trkpt lat="47.30708" lon="-2.25433">
        <ele>-24</ele>
        <time>2021-12-05T09:35:38.000Z</time>
      </trkpt>
      <trkpt lat="47.30702" lon="-2.25433">
        <ele>-24.39999961853</ele>
        <time>2021-12-05T09:35:39.000Z</time>
      </trkpt>
      <trkpt lat="47.30697" lon="-2.25434">
        <ele>-25</ele>
        <time>2021-12-05T09:35:40.000Z</time>
      </trkpt>
      <trkpt lat="47.30692" lon="-2.25434">
        <ele>-25.39999961853</ele>
        <time>2021-12-05T09:35:41.000Z</time>
      </trkpt>
      <trkpt lat="47.30675" lon="-2.25422">
        <ele>-25.39999961853</ele>
        <time>2021-12-05T09:35:45.000Z</time>
      </trkpt>
      <trkpt lat="47.30671" lon="-2.25418">
        <ele>-25.39999961853</ele>
        <time>2021-12-05T09:35:46.000Z</time>
      </trkpt>
      <trkpt lat="47.30668" lon="-2.25412">
        <ele>-25.39999961853</ele>
        <time>2021-12-05T09:35:47.000Z</time>
      </trkpt>
      <trkpt lat="47.30662" lon="-2.25395">
        <ele>-25.39999961853</ele>
        <time>2021-12-05T09:35:50.000Z</time>
      </trkpt>
      <trkpt lat="47.30662" lon="-2.25387">
        <ele>-25.39999961853</ele>
        <time>2021-12-05T09:35:51.000Z</time>
      </trkpt>
      <trkpt lat="47.30661" lon="-2.2537">
        <ele>-25.39999961853</ele>
        <time>2021-12-05T09:35:53.000Z</time>
      </trkpt>
      <trkpt lat="47.30654" lon="-2.25314">
        <ele>-25.39999961853</ele>
        <time>2021-12-05T09:36:00.000Z</time>
      </trkpt>
      <trkpt lat="47.30641" lon="-2.25254">
        <ele>-25.39999961853</ele>
        <time>2021-12-05T09:36:07.000Z</time>
      </trkpt>
      <trkpt lat="47.3062" lon="-2.25193">
        <ele>-25.39999961853</ele>
        <time>2021-12-05T09:36:14.000Z</time>
      </trkpt>
      <trkpt lat="47.30606" lon="-2.25161">
        <ele>-25.39999961853</ele>
        <time>2021-12-05T09:36:18.000Z</time>
      </trkpt>
      <trkpt lat="47.306" lon="-2.25146">
        <ele>-25.39999961853</ele>
        <time>2021-12-05T09:36:20.000Z</time>
      </trkpt>
      <trkpt lat="47.30584" lon="-2.25093">
        <ele>-25.39999961853</ele>
        <time>2021-12-05T09:36:26.000Z</time>
      </trkpt>
      <trkpt lat="47.30571" lon="-2.25007">
        <ele>-25.39999961853</ele>
        <time>2021-12-05T09:36:35.000Z</time>
      </trkpt>
      <trkpt lat="47.3057" lon="-2.2495">
        <ele>-25.39999961853</ele>
        <time>2021-12-05T09:36:41.000Z</time>
      </trkpt>
      <trkpt lat="47.30571" lon="-2.24932">
        <ele>-25.39999961853</ele>
        <time>2021-12-05T09:36:43.000Z</time>
      </trkpt>
      <trkpt lat="47.30577" lon="-2.24897">
        <ele>-25.39999961853</ele>
        <time>2021-12-05T09:36:47.000Z</time>
      </trkpt>
      <trkpt lat="47.30584" lon="-2.24872">
        <ele>-25.39999961853</ele>
        <time>2021-12-05T09:36:50.000Z</time>
      </trkpt>
      <trkpt lat="47.30591" lon="-2.24849">
        <ele>-25.39999961853</ele>
        <time>2021-12-05T09:36:53.000Z</time>
      </trkpt>
      <trkpt lat="47.30616" lon="-2.24802">
        <ele>-25.39999961853</ele>
        <time>2021-12-05T09:37:00.000Z</time>
      </trkpt>
      <trkpt lat="47.30643" lon="-2.24767">
        <ele>-25.39999961853</ele>
        <time>2021-12-05T09:37:06.000Z</time>
      </trkpt>
      <trkpt lat="47.30646" lon="-2.2476">
        <ele>-25.39999961853</ele>
        <time>2021-12-05T09:37:07.000Z</time>
      </trkpt>
      <trkpt lat="47.30648" lon="-2.24743">
        <ele>-25.39999961853</ele>
        <time>2021-12-05T09:37:09.000Z</time>
      </trkpt>
      <trkpt lat="47.30641" lon="-2.2472">
        <ele>-25.39999961853</ele>
        <time>2021-12-05T09:37:12.000Z</time>
      </trkpt>
      <trkpt lat="47.30639" lon="-2.24711">
        <ele>-25.39999961853</ele>
        <time>2021-12-05T09:37:13.000Z</time>
      </trkpt>
      <trkpt lat="47.30625" lon="-2.24668">
        <ele>-25.799999237061</ele>
        <time>2021-12-05T09:37:18.000Z</time>
      </trkpt>
      <trkpt lat="47.30622" lon="-2.24659">
        <ele>-26.200000762939</ele>
        <time>2021-12-05T09:37:19.000Z</time>
      </trkpt>
      <trkpt lat="47.3062" lon="-2.2465">
        <ele>-26.60000038147</ele>
        <time>2021-12-05T09:37:20.000Z</time>
      </trkpt>
      <trkpt lat="47.30617" lon="-2.24642">
        <ele>-27.39999961853</ele>
        <time>2021-12-05T09:37:21.000Z</time>
      </trkpt>
      <trkpt lat="47.3061" lon="-2.24616">
        <ele>-27.39999961853</ele>
        <time>2021-12-05T09:37:24.000Z</time>
      </trkpt>
      <trkpt lat="47.3061" lon="-2.24607">
        <ele>-27.39999961853</ele>
        <time>2021-12-05T09:37:25.000Z</time>
      </trkpt>
      <trkpt lat="47.30612" lon="-2.24581">
        <ele>-27.39999961853</ele>
        <time>2021-12-05T09:37:28.000Z</time>
      </trkpt>
      <trkpt lat="47.30613" lon="-2.24572">
        <ele>-27.39999961853</ele>
        <time>2021-12-05T09:37:29.000Z</time>
      </trkpt>
      <trkpt lat="47.30617" lon="-2.24547">
        <ele>-27</ele>
        <time>2021-12-05T09:37:32.000Z</time>
      </trkpt>
      <trkpt lat="47.30618" lon="-2.2454">
        <ele>-26.39999961853</ele>
        <time>2021-12-05T09:37:33.000Z</time>
      </trkpt>
      <trkpt lat="47.30619" lon="-2.24532">
        <ele>-26</ele>
        <time>2021-12-05T09:37:34.000Z</time>
      </trkpt>
      <trkpt lat="47.3062" lon="-2.24525">
        <ele>-25.60000038147</ele>
        <time>2021-12-05T09:37:35.000Z</time>
      </trkpt>
      <trkpt lat="47.30621" lon="-2.24517">
        <ele>-25.200000762939</ele>
        <time>2021-12-05T09:37:36.000Z</time>
      </trkpt>
      <trkpt lat="47.30623" lon="-2.24503">
        <ele>-24.799999237061</ele>
        <time>2021-12-05T09:37:38.000Z</time>
      </trkpt>
      <trkpt lat="47.30624" lon="-2.24497">
        <ele>-24.200000762939</ele>
        <time>2021-12-05T09:37:39.000Z</time>
      </trkpt>
      <trkpt lat="47.30625" lon="-2.24491">
        <ele>-23.799999237061</ele>
        <time>2021-12-05T09:37:40.000Z</time>
      </trkpt>
      <trkpt lat="47.30625" lon="-2.24485">
        <ele>-23.39999961853</ele>
        <time>2021-12-05T09:37:41.000Z</time>
      </trkpt>
      <trkpt lat="47.30626" lon="-2.24479">
        <ele>-23</ele>
        <time>2021-12-05T09:37:42.000Z</time>
      </trkpt>
      <trkpt lat="47.30628" lon="-2.24467">
        <ele>-23</ele>
        <time>2021-12-05T09:37:44.000Z</time>
      </trkpt>
      <trkpt lat="47.30629" lon="-2.2446">
        <ele>-22.39999961853</ele>
        <time>2021-12-05T09:37:45.000Z</time>
      </trkpt>
      <trkpt lat="47.30629" lon="-2.24454">
        <ele>-21.60000038147</ele>
        <time>2021-12-05T09:37:46.000Z</time>
      </trkpt>
      <trkpt lat="47.3063" lon="-2.24448">
        <ele>-21.200000762939</ele>
        <time>2021-12-05T09:37:47.000Z</time>
      </trkpt>
      <trkpt lat="47.30631" lon="-2.24442">
        <ele>-20.799999237061</ele>
        <time>2021-12-05T09:37:48.000Z</time>
      </trkpt>
      <trkpt lat="47.30629" lon="-2.24423">
        <ele>-20.39999961853</ele>
        <time>2021-12-05T09:37:52.000Z</time>
      </trkpt>
      <trkpt lat="47.30626" lon="-2.24421">
        <ele>-19.799999237061</ele>
        <time>2021-12-05T09:37:53.000Z</time>
      </trkpt>
      <trkpt lat="47.30622" lon="-2.24419">
        <ele>-19.39999961853</ele>
        <time>2021-12-05T09:37:54.000Z</time>
      </trkpt>
      <trkpt lat="47.30619" lon="-2.24419">
        <ele>-19</ele>
        <time>2021-12-05T09:37:55.000Z</time>
      </trkpt>
      <trkpt lat="47.30615" lon="-2.24418">
        <ele>-18.60000038147</ele>
        <time>2021-12-05T09:37:56.000Z</time>
      </trkpt>
      <trkpt lat="47.30607" lon="-2.24414">
        <ele>-18.200000762939</ele>
        <time>2021-12-05T09:37:58.000Z</time>
      </trkpt>
      <trkpt lat="47.30603" lon="-2.24412">
        <ele>-17.799999237061</ele>
        <time>2021-12-05T09:37:59.000Z</time>
      </trkpt>
      <trkpt lat="47.30599" lon="-2.24409">
        <ele>-17.39999961853</ele>
        <time>2021-12-05T09:38:00.000Z</time>
      </trkpt>
      <trkpt lat="47.30596" lon="-2.24406">
        <ele>-17</ele>
        <time>2021-12-05T09:38:01.000Z</time>
      </trkpt>
      <trkpt lat="47.30592" lon="-2.24402">
        <ele>-16.60000038147</ele>
        <time>2021-12-05T09:38:02.000Z</time>
      </trkpt>
      <trkpt lat="47.30577" lon="-2.24384">
        <ele>-16.60000038147</ele>
        <time>2021-12-05T09:38:06.000Z</time>
      </trkpt>
      <trkpt lat="47.30564" lon="-2.24369">
        <ele>-16.200000762939</ele>
        <time>2021-12-05T09:38:10.000Z</time>
      </trkpt>
      <trkpt lat="47.30562" lon="-2.24366">
        <ele>-15.199999809265</ele>
        <time>2021-12-05T09:38:11.000Z</time>
      </trkpt>
      <trkpt lat="47.3056" lon="-2.24364">
        <ele>-14.800000190735</ele>
        <time>2021-12-05T09:38:12.000Z</time>
      </trkpt>
      <trkpt lat="47.30559" lon="-2.24362">
        <ele>-14.39999961853</ele>
        <time>2021-12-05T09:38:13.000Z</time>
      </trkpt>
      <trkpt lat="47.30556" lon="-2.24355">
        <ele>-14.39999961853</ele>
        <time>2021-12-05T09:38:17.000Z</time>
      </trkpt>
      <trkpt lat="47.30555" lon="-2.24355">
        <ele>-14.39999961853</ele>
        <time>2021-12-05T09:38:18.000Z</time>
      </trkpt>
      <trkpt lat="47.30556" lon="-2.24357">
        <ele>-14.39999961853</ele>
        <time>2021-12-05T09:39:06.000Z</time>
      </trkpt>
      <trkpt lat="47.30555" lon="-2.24358">
        <ele>-14.39999961853</ele>
        <time>2021-12-05T09:39:07.000Z</time>
      </trkpt>
      <trkpt lat="47.30555" lon="-2.24358">
        <ele>-14.39999961853</ele>
        <time>2021-12-05T09:39:08.000Z</time>
      </trkpt>
      <trkpt lat="47.3055" lon="-2.24362">
        <ele>-14.39999961853</ele>
        <time>2021-12-05T09:46:13.000Z</time>
      </trkpt>
      <trkpt lat="47.30551" lon="-2.24362">
        <ele>-14.39999961853</ele>
        <time>2021-12-05T09:46:14.000Z</time>
      </trkpt>
      <trkpt lat="47.30549" lon="-2.24363">
        <ele>-14.39999961853</ele>
        <time>2021-12-05T09:46:17.000Z</time>
      </trkpt>
      <trkpt lat="47.30544" lon="-2.24358">
        <ele>-14.39999961853</ele>
        <time>2021-12-05T09:46:20.000Z</time>
      </trkpt>
      <trkpt lat="47.30534" lon="-2.24343">
        <ele>-14.39999961853</ele>
        <time>2021-12-05T09:46:26.000Z</time>
      </trkpt>
      <trkpt lat="47.30518" lon="-2.24326">
        <ele>-14.39999961853</ele>
        <time>2021-12-05T09:46:31.000Z</time>
      </trkpt>
      <trkpt lat="47.30515" lon="-2.24321">
        <ele>-14.39999961853</ele>
        <time>2021-12-05T09:46:32.000Z</time>
      </trkpt>
      <trkpt lat="47.30511" lon="-2.24303">
        <ele>-14.39999961853</ele>
        <time>2021-12-05T09:46:35.000Z</time>
      </trkpt>
      <trkpt lat="47.30503" lon="-2.24291">
        <ele>-14.39999961853</ele>
        <time>2021-12-05T09:46:38.000Z</time>
      </trkpt>
      <trkpt lat="47.30496" lon="-2.24287">
        <ele>-14.39999961853</ele>
        <time>2021-12-05T09:46:40.000Z</time>
      </trkpt>
      <trkpt lat="47.30488" lon="-2.24289">
        <ele>-14.39999961853</ele>
        <time>2021-12-05T09:46:42.000Z</time>
      </trkpt>
      <trkpt lat="47.30476" lon="-2.24287">
        <ele>-14.39999961853</ele>
        <time>2021-12-05T09:46:45.000Z</time>
      </trkpt>
      <trkpt lat="47.30472" lon="-2.24286">
        <ele>-14.39999961853</ele>
        <time>2021-12-05T09:46:46.000Z</time>
      </trkpt>
      <trkpt lat="47.30453" lon="-2.24279">
        <ele>-14.39999961853</ele>
        <time>2021-12-05T09:46:50.000Z</time>
      </trkpt>
      <trkpt lat="47.30444" lon="-2.24278">
        <ele>-14.39999961853</ele>
        <time>2021-12-05T09:46:52.000Z</time>
      </trkpt>
      <trkpt lat="47.30417" lon="-2.24271">
        <ele>-14.39999961853</ele>
        <time>2021-12-05T09:46:58.000Z</time>
      </trkpt>
      <trkpt lat="47.30413" lon="-2.24268">
        <ele>-14.39999961853</ele>
        <time>2021-12-05T09:46:59.000Z</time>
      </trkpt>
      <trkpt lat="47.304" lon="-2.24256">
        <ele>-14.39999961853</ele>
        <time>2021-12-05T09:47:03.000Z</time>
      </trkpt>
      <trkpt lat="47.30397" lon="-2.24253">
        <ele>-14.39999961853</ele>
        <time>2021-12-05T09:47:04.000Z</time>
      </trkpt>
      <trkpt lat="47.30371" lon="-2.24229">
        <ele>-14.39999961853</ele>
        <time>2021-12-05T09:47:11.000Z</time>
      </trkpt>
      <trkpt lat="47.30353" lon="-2.24206">
        <ele>-14.39999961853</ele>
        <time>2021-12-05T09:47:16.000Z</time>
      </trkpt>
      <trkpt lat="47.30351" lon="-2.2418">
        <ele>-14.39999961853</ele>
        <time>2021-12-05T09:47:19.000Z</time>
      </trkpt>
      <trkpt lat="47.3036" lon="-2.24156">
        <ele>-14.39999961853</ele>
        <time>2021-12-05T09:47:23.000Z</time>
      </trkpt>
      <trkpt lat="47.30363" lon="-2.24151">
        <ele>-14.39999961853</ele>
        <time>2021-12-05T09:47:24.000Z</time>
      </trkpt>
      <trkpt lat="47.30376" lon="-2.24133">
        <ele>-14</ele>
        <time>2021-12-05T09:47:28.000Z</time>
      </trkpt>
      <trkpt lat="47.30379" lon="-2.24129">
        <ele>-13.60000038147</ele>
        <time>2021-12-05T09:47:29.000Z</time>
      </trkpt>
      <trkpt lat="47.30383" lon="-2.24126">
        <ele>-13.199999809265</ele>
        <time>2021-12-05T09:47:30.000Z</time>
      </trkpt>
      <trkpt lat="47.30386" lon="-2.24123">
        <ele>-12.800000190735</ele>
        <time>2021-12-05T09:47:31.000Z</time>
      </trkpt>
      <trkpt lat="47.3039" lon="-2.24121">
        <ele>-12.39999961853</ele>
        <time>2021-12-05T09:47:32.000Z</time>
      </trkpt>
      <trkpt lat="47.30393" lon="-2.24118">
        <ele>-12.39999961853</ele>
        <time>2021-12-05T09:47:33.000Z</time>
      </trkpt>
      <trkpt lat="47.30396" lon="-2.24113">
        <ele>-12.39999961853</ele>
        <time>2021-12-05T09:47:34.000Z</time>
      </trkpt>
      <trkpt lat="47.3041" lon="-2.24097">
        <ele>-12.39999961853</ele>
        <time>2021-12-05T09:47:38.000Z</time>
      </trkpt>
      <trkpt lat="47.30418" lon="-2.24089">
        <ele>-12.800000190735</ele>
        <time>2021-12-05T09:47:40.000Z</time>
      </trkpt>
      <trkpt lat="47.30421" lon="-2.24084">
        <ele>-13.199999809265</ele>
        <time>2021-12-05T09:47:41.000Z</time>
      </trkpt>
      <trkpt lat="47.30425" lon="-2.24079">
        <ele>-13.60000038147</ele>
        <time>2021-12-05T09:47:42.000Z</time>
      </trkpt>
      <trkpt lat="47.3043" lon="-2.24074">
        <ele>-14</ele>
        <time>2021-12-05T09:47:43.000Z</time>
      </trkpt>
      <trkpt lat="47.30434" lon="-2.24069">
        <ele>-14.39999961853</ele>
        <time>2021-12-05T09:47:44.000Z</time>
      </trkpt>
      <trkpt lat="47.30438" lon="-2.24063">
        <ele>-14.39999961853</ele>
        <time>2021-12-05T09:47:45.000Z</time>
      </trkpt>
      <trkpt lat="47.30459" lon="-2.24039">
        <ele>-14.800000190735</ele>
        <time>2021-12-05T09:47:50.000Z</time>
      </trkpt>
      <trkpt lat="47.30464" lon="-2.24036">
        <ele>-15.199999809265</ele>
        <time>2021-12-05T09:47:51.000Z</time>
      </trkpt>
      <trkpt lat="47.30469" lon="-2.24034">
        <ele>-15.800000190735</ele>
        <time>2021-12-05T09:47:52.000Z</time>
      </trkpt>
      <trkpt lat="47.30475" lon="-2.24028">
        <ele>-16.200000762939</ele>
        <time>2021-12-05T09:47:53.000Z</time>
      </trkpt>
      <trkpt lat="47.30482" lon="-2.24021">
        <ele>-16.60000038147</ele>
        <time>2021-12-05T09:47:54.000Z</time>
      </trkpt>
      <trkpt lat="47.30489" lon="-2.24015">
        <ele>-17</ele>
        <time>2021-12-05T09:47:55.000Z</time>
      </trkpt>
      <trkpt lat="47.30495" lon="-2.24008">
        <ele>-17.60000038147</ele>
        <time>2021-12-05T09:47:56.000Z</time>
      </trkpt>
      <trkpt lat="47.30502" lon="-2.24001">
        <ele>-18</ele>
        <time>2021-12-05T09:47:57.000Z</time>
      </trkpt>
      <trkpt lat="47.30509" lon="-2.23991">
        <ele>-18.60000038147</ele>
        <time>2021-12-05T09:47:58.000Z</time>
      </trkpt>
      <trkpt lat="47.30516" lon="-2.23983">
        <ele>-19.200000762939</ele>
        <time>2021-12-05T09:47:59.000Z</time>
      </trkpt>
      <trkpt lat="47.30523" lon="-2.23974">
        <ele>-19.799999237061</ele>
        <time>2021-12-05T09:48:00.000Z</time>
      </trkpt>
      <trkpt lat="47.3053" lon="-2.23965">
        <ele>-20.200000762939</ele>
        <time>2021-12-05T09:48:01.000Z</time>
      </trkpt>
      <trkpt lat="47.30537" lon="-2.23957">
        <ele>-20.799999237061</ele>
        <time>2021-12-05T09:48:02.000Z</time>
      </trkpt>
      <trkpt lat="47.30542" lon="-2.2395">
        <ele>-21.39999961853</ele>
        <time>2021-12-05T09:48:03.000Z</time>
      </trkpt>
      <trkpt lat="47.30547" lon="-2.23943">
        <ele>-22.39999961853</ele>
        <time>2021-12-05T09:48:04.000Z</time>
      </trkpt>
      <trkpt lat="47.3055" lon="-2.23936">
        <ele>-23</ele>
        <time>2021-12-05T09:48:05.000Z</time>
      </trkpt>
      <trkpt lat="47.3055" lon="-2.23928">
        <ele>-23.60000038147</ele>
        <time>2021-12-05T09:48:06.000Z</time>
      </trkpt>
      <trkpt lat="47.30548" lon="-2.2392">
        <ele>-24.200000762939</ele>
        <time>2021-12-05T09:48:07.000Z</time>
      </trkpt>
      <trkpt lat="47.30544" lon="-2.23914">
        <ele>-25</ele>
        <time>2021-12-05T09:48:08.000Z</time>
      </trkpt>
      <trkpt lat="47.3054" lon="-2.23909">
        <ele>-25.60000038147</ele>
        <time>2021-12-05T09:48:09.000Z</time>
      </trkpt>
      <trkpt lat="47.30535" lon="-2.23905">
        <ele>-25.60000038147</ele>
        <time>2021-12-05T09:48:10.000Z</time>
      </trkpt>
      <trkpt lat="47.30509" lon="-2.2387">
        <ele>-25.60000038147</ele>
        <time>2021-12-05T09:48:16.000Z</time>
      </trkpt>
      <trkpt lat="47.30488" lon="-2.23846">
        <ele>-25.60000038147</ele>
        <time>2021-12-05T09:48:20.000Z</time>
      </trkpt>
      <trkpt lat="47.30475" lon="-2.23842">
        <ele>-25.60000038147</ele>
        <time>2021-12-05T09:48:22.000Z</time>
      </trkpt>
      <trkpt lat="47.30455" lon="-2.23843">
        <ele>-25.60000038147</ele>
        <time>2021-12-05T09:48:25.000Z</time>
      </trkpt>
      <trkpt lat="47.30449" lon="-2.23844">
        <ele>-25.60000038147</ele>
        <time>2021-12-05T09:48:26.000Z</time>
      </trkpt>
      <trkpt lat="47.30412" lon="-2.23851">
        <ele>-25.60000038147</ele>
        <time>2021-12-05T09:48:32.000Z</time>
      </trkpt>
      <trkpt lat="47.30362" lon="-2.23861">
        <ele>-25.60000038147</ele>
        <time>2021-12-05T09:48:40.000Z</time>
      </trkpt>
      <trkpt lat="47.30321" lon="-2.23875">
        <ele>-25.60000038147</ele>
        <time>2021-12-05T09:48:47.000Z</time>
      </trkpt>
      <trkpt lat="47.30293" lon="-2.23887">
        <ele>-25.60000038147</ele>
        <time>2021-12-05T09:48:52.000Z</time>
      </trkpt>
      <trkpt lat="47.30288" lon="-2.23887">
        <ele>-25.60000038147</ele>
        <time>2021-12-05T09:48:53.000Z</time>
      </trkpt>
      <trkpt lat="47.30272" lon="-2.23888">
        <ele>-25.60000038147</ele>
        <time>2021-12-05T09:48:56.000Z</time>
      </trkpt>
      <trkpt lat="47.30267" lon="-2.23893">
        <ele>-25.60000038147</ele>
        <time>2021-12-05T09:48:57.000Z</time>
      </trkpt>
      <trkpt lat="47.3026" lon="-2.23914">
        <ele>-25.60000038147</ele>
        <time>2021-12-05T09:49:00.000Z</time>
      </trkpt>
      <trkpt lat="47.30258" lon="-2.23921">
        <ele>-25.60000038147</ele>
        <time>2021-12-05T09:49:01.000Z</time>
      </trkpt>
      <trkpt lat="47.30257" lon="-2.23929">
        <ele>-25.60000038147</ele>
        <time>2021-12-05T09:49:02.000Z</time>
      </trkpt>
      <trkpt lat="47.30258" lon="-2.23951">
        <ele>-25.60000038147</ele>
        <time>2021-12-05T09:49:05.000Z</time>
      </trkpt>
      <trkpt lat="47.30267" lon="-2.23977">
        <ele>-25.60000038147</ele>
        <time>2021-12-05T09:49:09.000Z</time>
      </trkpt>
      <trkpt lat="47.30269" lon="-2.23984">
        <ele>-25.60000038147</ele>
        <time>2021-12-05T09:49:10.000Z</time>
      </trkpt>
      <trkpt lat="47.30276" lon="-2.24009">
        <ele>-25</ele>
        <time>2021-12-05T09:49:14.000Z</time>
      </trkpt>
      <trkpt lat="47.30277" lon="-2.24014">
        <ele>-24.60000038147</ele>
        <time>2021-12-05T09:49:15.000Z</time>
      </trkpt>
      <trkpt lat="47.30278" lon="-2.24019">
        <ele>-24.200000762939</ele>
        <time>2021-12-05T09:49:16.000Z</time>
      </trkpt>
      <trkpt lat="47.30279" lon="-2.24023">
        <ele>-23.799999237061</ele>
        <time>2021-12-05T09:49:17.000Z</time>
      </trkpt>
      <trkpt lat="47.3028" lon="-2.24028">
        <ele>-23.39999961853</ele>
        <time>2021-12-05T09:49:18.000Z</time>
      </trkpt>
      <trkpt lat="47.30282" lon="-2.24045">
        <ele>-23</ele>
        <time>2021-12-05T09:49:21.000Z</time>
      </trkpt>
      <trkpt lat="47.30281" lon="-2.2405">
        <ele>-22.39999961853</ele>
        <time>2021-12-05T09:49:22.000Z</time>
      </trkpt>
      <trkpt lat="47.30279" lon="-2.24054">
        <ele>-22</ele>
        <time>2021-12-05T09:49:23.000Z</time>
      </trkpt>
      <trkpt lat="47.30277" lon="-2.24058">
        <ele>-21.60000038147</ele>
        <time>2021-12-05T09:49:24.000Z</time>
      </trkpt>
      <trkpt lat="47.30274" lon="-2.24059">
        <ele>-21.200000762939</ele>
        <time>2021-12-05T09:49:25.000Z</time>
      </trkpt>
      <trkpt lat="47.30268" lon="-2.24059">
        <ele>-21.200000762939</ele>
        <time>2021-12-05T09:49:27.000Z</time>
      </trkpt>
      <trkpt lat="47.30265" lon="-2.24059">
        <ele>-21.200000762939</ele>
        <time>2021-12-05T09:49:28.000Z</time>
      </trkpt>
      <trkpt lat="47.30242" lon="-2.24059">
        <ele>-21.200000762939</ele>
        <time>2021-12-05T09:49:33.000Z</time>
      </trkpt>
      <trkpt lat="47.30221" lon="-2.24058">
        <ele>-20.799999237061</ele>
        <time>2021-12-05T09:49:38.000Z</time>
      </trkpt>
      <trkpt lat="47.30216" lon="-2.24058">
        <ele>-20.39999961853</ele>
        <time>2021-12-05T09:49:39.000Z</time>
      </trkpt>
      <trkpt lat="47.30212" lon="-2.24058">
        <ele>-20</ele>
        <time>2021-12-05T09:49:40.000Z</time>
      </trkpt>
      <trkpt lat="47.30207" lon="-2.24058">
        <ele>-19.60000038147</ele>
        <time>2021-12-05T09:49:41.000Z</time>
      </trkpt>
      <trkpt lat="47.30202" lon="-2.24058">
        <ele>-19.200000762939</ele>
        <time>2021-12-05T09:49:42.000Z</time>
      </trkpt>
      <trkpt lat="47.30177" lon="-2.24062">
        <ele>-19.200000762939</ele>
        <time>2021-12-05T09:49:48.000Z</time>
      </trkpt>
      <trkpt lat="47.30154" lon="-2.24073">
        <ele>-19.200000762939</ele>
        <time>2021-12-05T09:49:54.000Z</time>
      </trkpt>
      <trkpt lat="47.3013" lon="-2.24085">
        <ele>-19.200000762939</ele>
        <time>2021-12-05T09:50:01.000Z</time>
      </trkpt>
      <trkpt lat="47.30112" lon="-2.24096">
        <ele>-19.200000762939</ele>
        <time>2021-12-05T09:50:06.000Z</time>
      </trkpt>
      <trkpt lat="47.30093" lon="-2.24105">
        <ele>-19.200000762939</ele>
        <time>2021-12-05T09:50:11.000Z</time>
      </trkpt>
      <trkpt lat="47.3006" lon="-2.24122">
        <ele>-19.200000762939</ele>
        <time>2021-12-05T09:50:19.000Z</time>
      </trkpt>
      <trkpt lat="47.30044" lon="-2.24134">
        <ele>-19.200000762939</ele>
        <time>2021-12-05T09:50:23.000Z</time>
      </trkpt>
      <trkpt lat="47.30029" lon="-2.24143">
        <ele>-19.60000038147</ele>
        <time>2021-12-05T09:50:27.000Z</time>
      </trkpt>
      <trkpt lat="47.30027" lon="-2.24147">
        <ele>-20</ele>
        <time>2021-12-05T09:50:28.000Z</time>
      </trkpt>
      <trkpt lat="47.30028" lon="-2.2415">
        <ele>-20.39999961853</ele>
        <time>2021-12-05T09:50:29.000Z</time>
      </trkpt>
      <trkpt lat="47.30028" lon="-2.24152">
        <ele>-20.799999237061</ele>
        <time>2021-12-05T09:50:30.000Z</time>
      </trkpt>
      <trkpt lat="47.30029" lon="-2.24156">
        <ele>-21.200000762939</ele>
        <time>2021-12-05T09:50:31.000Z</time>
      </trkpt>
      <trkpt lat="47.3003" lon="-2.24176">
        <ele>-21.200000762939</ele>
        <time>2021-12-05T09:50:36.000Z</time>
      </trkpt>
      <trkpt lat="47.30031" lon="-2.24181">
        <ele>-20.799999237061</ele>
        <time>2021-12-05T09:50:37.000Z</time>
      </trkpt>
      <trkpt lat="47.3003" lon="-2.24187">
        <ele>-20.39999961853</ele>
        <time>2021-12-05T09:50:38.000Z</time>
      </trkpt>
      <trkpt lat="47.30029" lon="-2.24194">
        <ele>-20</ele>
        <time>2021-12-05T09:50:39.000Z</time>
      </trkpt>
      <trkpt lat="47.30028" lon="-2.24199">
        <ele>-19.39999961853</ele>
        <time>2021-12-05T09:50:40.000Z</time>
      </trkpt>
      <trkpt lat="47.30027" lon="-2.24203">
        <ele>-19</ele>
        <time>2021-12-05T09:50:41.000Z</time>
      </trkpt>
      <trkpt lat="47.30027" lon="-2.24213">
        <ele>-18.60000038147</ele>
        <time>2021-12-05T09:50:43.000Z</time>
      </trkpt>
      <trkpt lat="47.30026" lon="-2.24218">
        <ele>-18.200000762939</ele>
        <time>2021-12-05T09:50:44.000Z</time>
      </trkpt>
      <trkpt lat="47.30026" lon="-2.24225">
        <ele>-17.799999237061</ele>
        <time>2021-12-05T09:50:45.000Z</time>
      </trkpt>
      <trkpt lat="47.30026" lon="-2.24231">
        <ele>-17.200000762939</ele>
        <time>2021-12-05T09:50:46.000Z</time>
      </trkpt>
      <trkpt lat="47.30025" lon="-2.24237">
        <ele>-16.799999237061</ele>
        <time>2021-12-05T09:50:47.000Z</time>
      </trkpt>
      <trkpt lat="47.30027" lon="-2.24255">
        <ele>-16.799999237061</ele>
        <time>2021-12-05T09:50:51.000Z</time>
      </trkpt>
      <trkpt lat="47.30027" lon="-2.24261">
        <ele>-16.39999961853</ele>
        <time>2021-12-05T09:50:53.000Z</time>
      </trkpt>
      <trkpt lat="47.30027" lon="-2.24264">
        <ele>-16</ele>
        <time>2021-12-05T09:50:54.000Z</time>
      </trkpt>
      <trkpt lat="47.30027" lon="-2.24268">
        <ele>-15.39999961853</ele>
        <time>2021-12-05T09:50:55.000Z</time>
      </trkpt>
      <trkpt lat="47.30027" lon="-2.24272">
        <ele>-15</ele>
        <time>2021-12-05T09:50:56.000Z</time>
      </trkpt>
      <trkpt lat="47.30025" lon="-2.24276">
        <ele>-14.60000038147</ele>
        <time>2021-12-05T09:50:57.000Z</time>
      </trkpt>
      <trkpt lat="47.30018" lon="-2.24286">
        <ele>-14.60000038147</ele>
        <time>2021-12-05T09:51:01.000Z</time>
      </trkpt>
      <trkpt lat="47.30015" lon="-2.24294">
        <ele>-14.60000038147</ele>
        <time>2021-12-05T09:51:03.000Z</time>
      </trkpt>
      <trkpt lat="47.30013" lon="-2.24303">
        <ele>-14.60000038147</ele>
        <time>2021-12-05T09:51:05.000Z</time>
      </trkpt>
      <trkpt lat="47.3001" lon="-2.24312">
        <ele>-14.60000038147</ele>
        <time>2021-12-05T09:51:07.000Z</time>
      </trkpt>
      <trkpt lat="47.30005" lon="-2.24327">
        <ele>-14.60000038147</ele>
        <time>2021-12-05T09:51:10.000Z</time>
      </trkpt>
      <trkpt lat="47.29998" lon="-2.24351">
        <ele>-14.60000038147</ele>
        <time>2021-12-05T09:51:16.000Z</time>
      </trkpt>
      <trkpt lat="47.29994" lon="-2.24358">
        <ele>-14.60000038147</ele>
        <time>2021-12-05T09:51:18.000Z</time>
      </trkpt>
      <trkpt lat="47.29987" lon="-2.24356">
        <ele>-14.60000038147</ele>
        <time>2021-12-05T09:51:20.000Z</time>
      </trkpt>
      <trkpt lat="47.29981" lon="-2.2435">
        <ele>-14.60000038147</ele>
        <time>2021-12-05T09:51:22.000Z</time>
      </trkpt>
      <trkpt lat="47.29975" lon="-2.24342">
        <ele>-14.60000038147</ele>
        <time>2021-12-05T09:51:24.000Z</time>
      </trkpt>
      <trkpt lat="47.29962" lon="-2.24327">
        <ele>-14.60000038147</ele>
        <time>2021-12-05T09:51:28.000Z</time>
      </trkpt>
      <trkpt lat="47.29955" lon="-2.24321">
        <ele>-14.60000038147</ele>
        <time>2021-12-05T09:51:30.000Z</time>
      </trkpt>
      <trkpt lat="47.29943" lon="-2.24307">
        <ele>-14.60000038147</ele>
        <time>2021-12-05T09:51:35.000Z</time>
      </trkpt>
      <trkpt lat="47.2993" lon="-2.24288">
        <ele>-14.60000038147</ele>
        <time>2021-12-05T09:51:42.000Z</time>
      </trkpt>
      <trkpt lat="47.29927" lon="-2.24288">
        <ele>-14.60000038147</ele>
        <time>2021-12-05T09:51:43.000Z</time>
      </trkpt>
      <trkpt lat="47.29919" lon="-2.24284">
        <ele>-14.60000038147</ele>
        <time>2021-12-05T09:51:46.000Z</time>
      </trkpt>
      <trkpt lat="47.29902" lon="-2.24273">
        <ele>-14.60000038147</ele>
        <time>2021-12-05T09:51:51.000Z</time>
      </trkpt>
      <trkpt lat="47.29874" lon="-2.24252">
        <ele>-14.60000038147</ele>
        <time>2021-12-05T09:51:59.000Z</time>
      </trkpt>
      <trkpt lat="47.29848" lon="-2.24239">
        <ele>-14.60000038147</ele>
        <time>2021-12-05T09:52:06.000Z</time>
      </trkpt>
      <trkpt lat="47.2984" lon="-2.24236">
        <ele>-14.199999809265</ele>
        <time>2021-12-05T09:52:08.000Z</time>
      </trkpt>
      <trkpt lat="47.29836" lon="-2.24234">
        <ele>-13.800000190735</ele>
        <time>2021-12-05T09:52:09.000Z</time>
      </trkpt>
      <trkpt lat="47.29832" lon="-2.24232">
        <ele>-13.39999961853</ele>
        <time>2021-12-05T09:52:10.000Z</time>
      </trkpt>
      <trkpt lat="47.29828" lon="-2.2423">
        <ele>-12.60000038147</ele>
        <time>2021-12-05T09:52:11.000Z</time>
      </trkpt>
      <trkpt lat="47.29815" lon="-2.24223">
        <ele>-12.60000038147</ele>
        <time>2021-12-05T09:52:14.000Z</time>
      </trkpt>
      <trkpt lat="47.298" lon="-2.24216">
        <ele>-12.60000038147</ele>
        <time>2021-12-05T09:52:17.000Z</time>
      </trkpt>
      <trkpt lat="47.29795" lon="-2.24217">
        <ele>-12.60000038147</ele>
        <time>2021-12-05T09:52:18.000Z</time>
      </trkpt>
      <trkpt lat="47.29784" lon="-2.24223">
        <ele>-13</ele>
        <time>2021-12-05T09:52:20.000Z</time>
      </trkpt>
      <trkpt lat="47.29778" lon="-2.24226">
        <ele>-13.39999961853</ele>
        <time>2021-12-05T09:52:21.000Z</time>
      </trkpt>
      <trkpt lat="47.29772" lon="-2.24229">
        <ele>-13.800000190735</ele>
        <time>2021-12-05T09:52:22.000Z</time>
      </trkpt>
      <trkpt lat="47.29766" lon="-2.24232">
        <ele>-14.199999809265</ele>
        <time>2021-12-05T09:52:23.000Z</time>
      </trkpt>
      <trkpt lat="47.2976" lon="-2.24235">
        <ele>-14.60000038147</ele>
        <time>2021-12-05T09:52:24.000Z</time>
      </trkpt>
      <trkpt lat="47.29735" lon="-2.2425">
        <ele>-15</ele>
        <time>2021-12-05T09:52:28.000Z</time>
      </trkpt>
      <trkpt lat="47.29728" lon="-2.24254">
        <ele>-15.39999961853</ele>
        <time>2021-12-05T09:52:29.000Z</time>
      </trkpt>
      <trkpt lat="47.29721" lon="-2.24257">
        <ele>-15.800000190735</ele>
        <time>2021-12-05T09:52:30.000Z</time>
      </trkpt>
      <trkpt lat="47.29714" lon="-2.2426">
        <ele>-16.39999961853</ele>
        <time>2021-12-05T09:52:31.000Z</time>
      </trkpt>
      <trkpt lat="47.29707" lon="-2.24264">
        <ele>-16.799999237061</ele>
        <time>2021-12-05T09:52:32.000Z</time>
      </trkpt>
      <trkpt lat="47.29693" lon="-2.24272">
        <ele>-16.799999237061</ele>
        <time>2021-12-05T09:52:34.000Z</time>
      </trkpt>
      <trkpt lat="47.29679" lon="-2.24279">
        <ele>-17.200000762939</ele>
        <time>2021-12-05T09:52:36.000Z</time>
      </trkpt>
      <trkpt lat="47.29672" lon="-2.24283">
        <ele>-17.799999237061</ele>
        <time>2021-12-05T09:52:37.000Z</time>
      </trkpt>
      <trkpt lat="47.29665" lon="-2.24286">
        <ele>-18.39999961853</ele>
        <time>2021-12-05T09:52:38.000Z</time>
      </trkpt>
      <trkpt lat="47.29658" lon="-2.2429">
        <ele>-18.799999237061</ele>
        <time>2021-12-05T09:52:39.000Z</time>
      </trkpt>
      <trkpt lat="47.29651" lon="-2.24293">
        <ele>-19.39999961853</ele>
        <time>2021-12-05T09:52:40.000Z</time>
      </trkpt>
      <trkpt lat="47.29638" lon="-2.24301">
        <ele>-19.39999961853</ele>
        <time>2021-12-05T09:52:42.000Z</time>
      </trkpt>
      <trkpt lat="47.29625" lon="-2.24306">
        <ele>-19.799999237061</ele>
        <time>2021-12-05T09:52:44.000Z</time>
      </trkpt>
      <trkpt lat="47.29618" lon="-2.24309">
        <ele>-20.39999961853</ele>
        <time>2021-12-05T09:52:45.000Z</time>
      </trkpt>
      <trkpt lat="47.29612" lon="-2.2431">
        <ele>-20.799999237061</ele>
        <time>2021-12-05T09:52:46.000Z</time>
      </trkpt>
      <trkpt lat="47.29605" lon="-2.24312">
        <ele>-21.200000762939</ele>
        <time>2021-12-05T09:52:47.000Z</time>
      </trkpt>
      <trkpt lat="47.296" lon="-2.24313">
        <ele>-21.799999237061</ele>
        <time>2021-12-05T09:52:48.000Z</time>
      </trkpt>
      <trkpt lat="47.29577" lon="-2.24316">
        <ele>-21.799999237061</ele>
        <time>2021-12-05T09:52:52.000Z</time>
      </trkpt>
      <trkpt lat="47.29565" lon="-2.24309">
        <ele>-21.799999237061</ele>
        <time>2021-12-05T09:52:54.000Z</time>
      </trkpt>
      <trkpt lat="47.2956" lon="-2.24303">
        <ele>-22.200000762939</ele>
        <time>2021-12-05T09:52:55.000Z</time>
      </trkpt>
      <trkpt lat="47.29554" lon="-2.24297">
        <ele>-22.60000038147</ele>
        <time>2021-12-05T09:52:56.000Z</time>
      </trkpt>
      <trkpt lat="47.29548" lon="-2.24292">
        <ele>-23</ele>
        <time>2021-12-05T09:52:57.000Z</time>
      </trkpt>
      <trkpt lat="47.2954" lon="-2.24289">
        <ele>-23.39999961853</ele>
        <time>2021-12-05T09:52:58.000Z</time>
      </trkpt>
      <trkpt lat="47.29533" lon="-2.24287">
        <ele>-23.799999237061</ele>
        <time>2021-12-05T09:52:59.000Z</time>
      </trkpt>
      <trkpt lat="47.29521" lon="-2.24289">
        <ele>-23.799999237061</ele>
        <time>2021-12-05T09:53:01.000Z</time>
      </trkpt>
      <trkpt lat="47.2951" lon="-2.24293">
        <ele>-23.799999237061</ele>
        <time>2021-12-05T09:53:03.000Z</time>
      </trkpt>
      <trkpt lat="47.29495" lon="-2.243">
        <ele>-23.799999237061</ele>
        <time>2021-12-05T09:53:06.000Z</time>
      </trkpt>
      <trkpt lat="47.29466" lon="-2.24312">
        <ele>-23.200000762939</ele>
        <time>2021-12-05T09:53:12.000Z</time>
      </trkpt>
      <trkpt lat="47.29461" lon="-2.24313">
        <ele>-22.799999237061</ele>
        <time>2021-12-05T09:53:13.000Z</time>
      </trkpt>
      <trkpt lat="47.29456" lon="-2.24314">
        <ele>-22.39999961853</ele>
        <time>2021-12-05T09:53:14.000Z</time>
      </trkpt>
      <trkpt lat="47.29451" lon="-2.24315">
        <ele>-21.799999237061</ele>
        <time>2021-12-05T09:53:15.000Z</time>
      </trkpt>
      <trkpt lat="47.29446" lon="-2.24317">
        <ele>-21.39999961853</ele>
        <time>2021-12-05T09:53:16.000Z</time>
      </trkpt>
      <trkpt lat="47.29433" lon="-2.24323">
        <ele>-21</ele>
        <time>2021-12-05T09:53:19.000Z</time>
      </trkpt>
      <trkpt lat="47.29428" lon="-2.24326">
        <ele>-20.60000038147</ele>
        <time>2021-12-05T09:53:20.000Z</time>
      </trkpt>
      <trkpt lat="47.29424" lon="-2.24329">
        <ele>-20.200000762939</ele>
        <time>2021-12-05T09:53:21.000Z</time>
      </trkpt>
      <trkpt lat="47.2942" lon="-2.24333">
        <ele>-19.799999237061</ele>
        <time>2021-12-05T09:53:22.000Z</time>
      </trkpt>
      <trkpt lat="47.29416" lon="-2.24337">
        <ele>-19.39999961853</ele>
        <time>2021-12-05T09:53:23.000Z</time>
      </trkpt>
      <trkpt lat="47.29395" lon="-2.24356">
        <ele>-19.39999961853</ele>
        <time>2021-12-05T09:53:28.000Z</time>
      </trkpt>
      <trkpt lat="47.29371" lon="-2.24381">
        <ele>-19.39999961853</ele>
        <time>2021-12-05T09:53:34.000Z</time>
      </trkpt>
      <trkpt lat="47.29342" lon="-2.24411">
        <ele>-19.39999961853</ele>
        <time>2021-12-05T09:53:41.000Z</time>
      </trkpt>
      <trkpt lat="47.29305" lon="-2.24447">
        <ele>-19.39999961853</ele>
        <time>2021-12-05T09:53:50.000Z</time>
      </trkpt>
      <trkpt lat="47.29294" lon="-2.24459">
        <ele>-19.39999961853</ele>
        <time>2021-12-05T09:53:53.000Z</time>
      </trkpt>
      <trkpt lat="47.29293" lon="-2.24466">
        <ele>-19.39999961853</ele>
        <time>2021-12-05T09:53:54.000Z</time>
      </trkpt>
      <trkpt lat="47.29293" lon="-2.24494">
        <ele>-19.39999961853</ele>
        <time>2021-12-05T09:53:58.000Z</time>
      </trkpt>
      <trkpt lat="47.29295" lon="-2.24558">
        <ele>-19.39999961853</ele>
        <time>2021-12-05T09:54:06.000Z</time>
      </trkpt>
      <trkpt lat="47.29299" lon="-2.24599">
        <ele>-19.39999961853</ele>
        <time>2021-12-05T09:54:11.000Z</time>
      </trkpt>
      <trkpt lat="47.29299" lon="-2.24606">
        <ele>-19.39999961853</ele>
        <time>2021-12-05T09:54:12.000Z</time>
      </trkpt>
      <trkpt lat="47.29298" lon="-2.24612">
        <ele>-19.39999961853</ele>
        <time>2021-12-05T09:54:13.000Z</time>
      </trkpt>
      <trkpt lat="47.29296" lon="-2.24631">
        <ele>-19.39999961853</ele>
        <time>2021-12-05T09:54:16.000Z</time>
      </trkpt>
      <trkpt lat="47.29298" lon="-2.24653">
        <ele>-19.39999961853</ele>
        <time>2021-12-05T09:54:21.000Z</time>
      </trkpt>
      <trkpt lat="47.29303" lon="-2.24683">
        <ele>-19.39999961853</ele>
        <time>2021-12-05T09:54:27.000Z</time>
      </trkpt>
      <trkpt lat="47.29308" lon="-2.24711">
        <ele>-19</ele>
        <time>2021-12-05T09:54:32.000Z</time>
      </trkpt>
      <trkpt lat="47.29309" lon="-2.24716">
        <ele>-18.60000038147</ele>
        <time>2021-12-05T09:54:33.000Z</time>
      </trkpt>
      <trkpt lat="47.2931" lon="-2.24722">
        <ele>-18.200000762939</ele>
        <time>2021-12-05T09:54:34.000Z</time>
      </trkpt>
      <trkpt lat="47.29311" lon="-2.24728">
        <ele>-17.60000038147</ele>
        <time>2021-12-05T09:54:35.000Z</time>
      </trkpt>
      <trkpt lat="47.29311" lon="-2.24734">
        <ele>-17.200000762939</ele>
        <time>2021-12-05T09:54:36.000Z</time>
      </trkpt>
      <trkpt lat="47.29318" lon="-2.24763">
        <ele>-17.200000762939</ele>
        <time>2021-12-05T09:54:42.000Z</time>
      </trkpt>
      <trkpt lat="47.29323" lon="-2.24795">
        <ele>-17.200000762939</ele>
        <time>2021-12-05T09:54:48.000Z</time>
      </trkpt>
      <trkpt lat="47.29329" lon="-2.24842">
        <ele>-17.200000762939</ele>
        <time>2021-12-05T09:54:56.000Z</time>
      </trkpt>
      <trkpt lat="47.29332" lon="-2.24882">
        <ele>-17.200000762939</ele>
        <time>2021-12-05T09:55:02.000Z</time>
      </trkpt>
      <trkpt lat="47.2933" lon="-2.24907">
        <ele>-17.200000762939</ele>
        <time>2021-12-05T09:55:07.000Z</time>
      </trkpt>
      <trkpt lat="47.29323" lon="-2.24913">
        <ele>-17.200000762939</ele>
        <time>2021-12-05T09:55:09.000Z</time>
      </trkpt>
      <trkpt lat="47.29319" lon="-2.24913">
        <ele>-17.200000762939</ele>
        <time>2021-12-05T09:55:10.000Z</time>
      </trkpt>
      <trkpt lat="47.29304" lon="-2.24915">
        <ele>-16.799999237061</ele>
        <time>2021-12-05T09:55:13.000Z</time>
      </trkpt>
      <trkpt lat="47.293" lon="-2.24915">
        <ele>-16.39999961853</ele>
        <time>2021-12-05T09:55:14.000Z</time>
      </trkpt>
      <trkpt lat="47.29295" lon="-2.24916">
        <ele>-16</ele>
        <time>2021-12-05T09:55:15.000Z</time>
      </trkpt>
      <trkpt lat="47.29291" lon="-2.24917">
        <ele>-15.60000038147</ele>
        <time>2021-12-05T09:55:16.000Z</time>
      </trkpt>
      <trkpt lat="47.29287" lon="-2.24918">
        <ele>-15.199999809265</ele>
        <time>2021-12-05T09:55:17.000Z</time>
      </trkpt>
      <trkpt lat="47.29262" lon="-2.24922">
        <ele>-15.199999809265</ele>
        <time>2021-12-05T09:55:23.000Z</time>
      </trkpt>
      <trkpt lat="47.29259" lon="-2.24925">
        <ele>-15.199999809265</ele>
        <time>2021-12-05T09:55:24.000Z</time>
      </trkpt>
      <trkpt lat="47.29257" lon="-2.24944">
        <ele>-15.199999809265</ele>
        <time>2021-12-05T09:55:27.000Z</time>
      </trkpt>
      <trkpt lat="47.2926" lon="-2.24971">
        <ele>-15.199999809265</ele>
        <time>2021-12-05T09:55:31.000Z</time>
      </trkpt>
      <trkpt lat="47.29262" lon="-2.24977">
        <ele>-15.199999809265</ele>
        <time>2021-12-05T09:55:32.000Z</time>
      </trkpt>
      <trkpt lat="47.29275" lon="-2.25027">
        <ele>-15.199999809265</ele>
        <time>2021-12-05T09:55:39.000Z</time>
      </trkpt>
      <trkpt lat="47.29289" lon="-2.25072">
        <ele>-15.199999809265</ele>
        <time>2021-12-05T09:55:46.000Z</time>
      </trkpt>
      <trkpt lat="47.293" lon="-2.25123">
        <ele>-15.199999809265</ele>
        <time>2021-12-05T09:55:53.000Z</time>
      </trkpt>
      <trkpt lat="47.29305" lon="-2.25156">
        <ele>-15.800000190735</ele>
        <time>2021-12-05T09:55:57.000Z</time>
      </trkpt>
      <trkpt lat="47.29306" lon="-2.25164">
        <ele>-16.200000762939</ele>
        <time>2021-12-05T09:55:58.000Z</time>
      </trkpt>
      <trkpt lat="47.29307" lon="-2.25173">
        <ele>-16.60000038147</ele>
        <time>2021-12-05T09:55:59.000Z</time>
      </trkpt>
      <trkpt lat="47.29308" lon="-2.2518">
        <ele>-17</ele>
        <time>2021-12-05T09:56:00.000Z</time>
      </trkpt>
      <trkpt lat="47.2931" lon="-2.25188">
        <ele>-17.60000038147</ele>
        <time>2021-12-05T09:56:01.000Z</time>
      </trkpt>
      <trkpt lat="47.2932" lon="-2.252">
        <ele>-17.60000038147</ele>
        <time>2021-12-05T09:56:04.000Z</time>
      </trkpt>
      <trkpt lat="47.29329" lon="-2.25199">
        <ele>-17.60000038147</ele>
        <time>2021-12-05T09:56:07.000Z</time>
      </trkpt>
      <trkpt lat="47.29338" lon="-2.25201">
        <ele>-17.60000038147</ele>
        <time>2021-12-05T09:56:12.000Z</time>
      </trkpt>
      <trkpt lat="47.29339" lon="-2.25201">
        <ele>-18</ele>
        <time>2021-12-05T09:56:13.000Z</time>
      </trkpt>
      <trkpt lat="47.29339" lon="-2.252">
        <ele>-18.39999961853</ele>
        <time>2021-12-05T09:56:14.000Z</time>
      </trkpt>
      <trkpt lat="47.2934" lon="-2.252">
        <ele>-18.799999237061</ele>
        <time>2021-12-05T09:56:15.000Z</time>
      </trkpt>
      <trkpt lat="47.29356" lon="-2.25201">
        <ele>-19.60000038147</ele>
        <time>2021-12-05T09:56:44.000Z</time>
      </trkpt>
      <trkpt lat="47.29359" lon="-2.25202">
        <ele>-19.60000038147</ele>
        <time>2021-12-05T09:56:45.000Z</time>
      </trkpt>
      <trkpt lat="47.29377" lon="-2.25207">
        <ele>-19.60000038147</ele>
        <time>2021-12-05T09:56:50.000Z</time>
      </trkpt>
      <trkpt lat="47.29404" lon="-2.25214">
        <ele>-19.60000038147</ele>
        <time>2021-12-05T09:56:56.000Z</time>
      </trkpt>
      <trkpt lat="47.29427" lon="-2.25209">
        <ele>-19.200000762939</ele>
        <time>2021-12-05T09:57:01.000Z</time>
      </trkpt>
      <trkpt lat="47.29431" lon="-2.25207">
        <ele>-18.799999237061</ele>
        <time>2021-12-05T09:57:02.000Z</time>
      </trkpt>
      <trkpt lat="47.29435" lon="-2.25206">
        <ele>-18.39999961853</ele>
        <time>2021-12-05T09:57:03.000Z</time>
      </trkpt>
      <trkpt lat="47.29439" lon="-2.25205">
        <ele>-18</ele>
        <time>2021-12-05T09:57:04.000Z</time>
      </trkpt>
      <trkpt lat="47.29443" lon="-2.25205">
        <ele>-17.39999961853</ele>
        <time>2021-12-05T09:57:05.000Z</time>
      </trkpt>
      <trkpt lat="47.29463" lon="-2.25199">
        <ele>-17.39999961853</ele>
        <time>2021-12-05T09:57:10.000Z</time>
      </trkpt>
      <trkpt lat="47.29492" lon="-2.25193">
        <ele>-17</ele>
        <time>2021-12-05T09:57:16.000Z</time>
      </trkpt>
      <trkpt lat="47.29496" lon="-2.25192">
        <ele>-16.60000038147</ele>
        <time>2021-12-05T09:57:17.000Z</time>
      </trkpt>
      <trkpt lat="47.29499" lon="-2.25191">
        <ele>-16.200000762939</ele>
        <time>2021-12-05T09:57:18.000Z</time>
      </trkpt>
      <trkpt lat="47.29503" lon="-2.2519">
        <ele>-15.800000190735</ele>
        <time>2021-12-05T09:57:19.000Z</time>
      </trkpt>
      <trkpt lat="47.29506" lon="-2.25189">
        <ele>-15.39999961853</ele>
        <time>2021-12-05T09:57:20.000Z</time>
      </trkpt>
      <trkpt lat="47.29524" lon="-2.25182">
        <ele>-15.39999961853</ele>
        <time>2021-12-05T09:57:25.000Z</time>
      </trkpt>
      <trkpt lat="47.29543" lon="-2.25179">
        <ele>-15.39999961853</ele>
        <time>2021-12-05T09:57:31.000Z</time>
      </trkpt>
      <trkpt lat="47.29549" lon="-2.25182">
        <ele>-15.39999961853</ele>
        <time>2021-12-05T09:57:34.000Z</time>
      </trkpt>
      <trkpt lat="47.29551" lon="-2.25189">
        <ele>-15.39999961853</ele>
        <time>2021-12-05T09:57:36.000Z</time>
      </trkpt>
      <trkpt lat="47.29549" lon="-2.25205">
        <ele>-15.39999961853</ele>
        <time>2021-12-05T09:57:39.000Z</time>
      </trkpt>
      <trkpt lat="47.29546" lon="-2.25217">
        <ele>-15.39999961853</ele>
        <time>2021-12-05T09:57:41.000Z</time>
      </trkpt>
      <trkpt lat="47.29542" lon="-2.25245">
        <ele>-15.39999961853</ele>
        <time>2021-12-05T09:57:45.000Z</time>
      </trkpt>
      <trkpt lat="47.29542" lon="-2.25266">
        <ele>-15.39999961853</ele>
        <time>2021-12-05T09:57:48.000Z</time>
      </trkpt>
      <trkpt lat="47.29542" lon="-2.25273">
        <ele>-15.39999961853</ele>
        <time>2021-12-05T09:57:49.000Z</time>
      </trkpt>
      <trkpt lat="47.29546" lon="-2.25297">
        <ele>-15.39999961853</ele>
        <time>2021-12-05T09:57:53.000Z</time>
      </trkpt>
      <trkpt lat="47.29547" lon="-2.25304">
        <ele>-15</ele>
        <time>2021-12-05T09:57:54.000Z</time>
      </trkpt>
      <trkpt lat="47.29549" lon="-2.25311">
        <ele>-14.60000038147</ele>
        <time>2021-12-05T09:57:55.000Z</time>
      </trkpt>
      <trkpt lat="47.29552" lon="-2.25318">
        <ele>-14.199999809265</ele>
        <time>2021-12-05T09:57:56.000Z</time>
      </trkpt>
      <trkpt lat="47.29554" lon="-2.25325">
        <ele>-13.800000190735</ele>
        <time>2021-12-05T09:57:57.000Z</time>
      </trkpt>
      <trkpt lat="47.29557" lon="-2.25331">
        <ele>-13.39999961853</ele>
        <time>2021-12-05T09:57:58.000Z</time>
      </trkpt>
      <trkpt lat="47.29563" lon="-2.25345">
        <ele>-13.39999961853</ele>
        <time>2021-12-05T09:58:00.000Z</time>
      </trkpt>
      <trkpt lat="47.29575" lon="-2.2537">
        <ele>-13</ele>
        <time>2021-12-05T09:58:04.000Z</time>
      </trkpt>
      <trkpt lat="47.29577" lon="-2.25377">
        <ele>-12.60000038147</ele>
        <time>2021-12-05T09:58:05.000Z</time>
      </trkpt>
      <trkpt lat="47.2958" lon="-2.25384">
        <ele>-12.199999809265</ele>
        <time>2021-12-05T09:58:06.000Z</time>
      </trkpt>
      <trkpt lat="47.29582" lon="-2.25391">
        <ele>-11.800000190735</ele>
        <time>2021-12-05T09:58:07.000Z</time>
      </trkpt>
      <trkpt lat="47.29583" lon="-2.25398">
        <ele>-11.39999961853</ele>
        <time>2021-12-05T09:58:08.000Z</time>
      </trkpt>
      <trkpt lat="47.29585" lon="-2.25421">
        <ele>-11.39999961853</ele>
        <time>2021-12-05T09:58:11.000Z</time>
      </trkpt>
      <trkpt lat="47.29586" lon="-2.25435">
        <ele>-11.39999961853</ele>
        <time>2021-12-05T09:58:13.000Z</time>
      </trkpt>
      <trkpt lat="47.29587" lon="-2.25458">
        <ele>-11</ele>
        <time>2021-12-05T09:58:16.000Z</time>
      </trkpt>
      <trkpt lat="47.29588" lon="-2.25465">
        <ele>-10.39999961853</ele>
        <time>2021-12-05T09:58:17.000Z</time>
      </trkpt>
      <trkpt lat="47.29588" lon="-2.25473">
        <ele>-10</ele>
        <time>2021-12-05T09:58:18.000Z</time>
      </trkpt>
      <trkpt lat="47.29588" lon="-2.2548">
        <ele>-9.6000003814697</ele>
        <time>2021-12-05T09:58:19.000Z</time>
      </trkpt>
      <trkpt lat="47.29588" lon="-2.25487">
        <ele>-9.1999998092651</ele>
        <time>2021-12-05T09:58:20.000Z</time>
      </trkpt>
      <trkpt lat="47.29587" lon="-2.25495">
        <ele>-9.1999998092651</ele>
        <time>2021-12-05T09:58:21.000Z</time>
      </trkpt>
      <trkpt lat="47.29578" lon="-2.25521">
        <ele>-9.1999998092651</ele>
        <time>2021-12-05T09:58:25.000Z</time>
      </trkpt>
      <trkpt lat="47.29575" lon="-2.25527">
        <ele>-9.1999998092651</ele>
        <time>2021-12-05T09:58:26.000Z</time>
      </trkpt>
      <trkpt lat="47.29571" lon="-2.25532">
        <ele>-9.1999998092651</ele>
        <time>2021-12-05T09:58:27.000Z</time>
      </trkpt>
      <trkpt lat="47.29557" lon="-2.25548">
        <ele>-9.1999998092651</ele>
        <time>2021-12-05T09:58:30.000Z</time>
      </trkpt>
      <trkpt lat="47.29532" lon="-2.25564">
        <ele>-9.1999998092651</ele>
        <time>2021-12-05T09:58:35.000Z</time>
      </trkpt>
      <trkpt lat="47.29513" lon="-2.25577">
        <ele>-8.8000001907349</ele>
        <time>2021-12-05T09:58:39.000Z</time>
      </trkpt>
      <trkpt lat="47.29508" lon="-2.2558">
        <ele>-8.3999996185303</ele>
        <time>2021-12-05T09:58:40.000Z</time>
      </trkpt>
      <trkpt lat="47.29503" lon="-2.25583">
        <ele>-8</ele>
        <time>2021-12-05T09:58:41.000Z</time>
      </trkpt>
      <trkpt lat="47.29499" lon="-2.25586">
        <ele>-7.5999999046326</ele>
        <time>2021-12-05T09:58:42.000Z</time>
      </trkpt>
      <trkpt lat="47.29494" lon="-2.25589">
        <ele>-7</ele>
        <time>2021-12-05T09:58:43.000Z</time>
      </trkpt>
      <trkpt lat="47.29456" lon="-2.25607">
        <ele>-7</ele>
        <time>2021-12-05T09:58:51.000Z</time>
      </trkpt>
      <trkpt lat="47.29422" lon="-2.25622">
        <ele>-7</ele>
        <time>2021-12-05T09:58:58.000Z</time>
      </trkpt>
      <trkpt lat="47.29418" lon="-2.25624">
        <ele>-6.1999998092651</ele>
        <time>2021-12-05T09:58:59.000Z</time>
      </trkpt>
      <trkpt lat="47.29413" lon="-2.25626">
        <ele>-5.8000001907349</ele>
        <time>2021-12-05T09:59:00.000Z</time>
      </trkpt>
      <trkpt lat="47.29408" lon="-2.25628">
        <ele>-5.4000000953674</ele>
        <time>2021-12-05T09:59:01.000Z</time>
      </trkpt>
      <trkpt lat="47.29403" lon="-2.2563">
        <ele>-5</ele>
        <time>2021-12-05T09:59:02.000Z</time>
      </trkpt>
      <trkpt lat="47.29399" lon="-2.25633">
        <ele>-5</ele>
        <time>2021-12-05T09:59:03.000Z</time>
      </trkpt>
      <trkpt lat="47.29391" lon="-2.25643">
        <ele>-5</ele>
        <time>2021-12-05T09:59:05.000Z</time>
      </trkpt>
      <trkpt lat="47.29383" lon="-2.25671">
        <ele>-5</ele>
        <time>2021-12-05T09:59:09.000Z</time>
      </trkpt>
      <trkpt lat="47.29382" lon="-2.25679">
        <ele>-5</ele>
        <time>2021-12-05T09:59:10.000Z</time>
      </trkpt>
      <trkpt lat="47.29377" lon="-2.25703">
        <ele>-5</ele>
        <time>2021-12-05T09:59:13.000Z</time>
      </trkpt>
      <trkpt lat="47.29372" lon="-2.25719">
        <ele>-5</ele>
        <time>2021-12-05T09:59:15.000Z</time>
      </trkpt>
      <trkpt lat="47.29366" lon="-2.25732">
        <ele>-5</ele>
        <time>2021-12-05T09:59:17.000Z</time>
      </trkpt>
      <trkpt lat="47.29359" lon="-2.25744">
        <ele>-5.4000000953674</ele>
        <time>2021-12-05T09:59:19.000Z</time>
      </trkpt>
      <trkpt lat="47.29355" lon="-2.25748">
        <ele>-6</ele>
        <time>2021-12-05T09:59:20.000Z</time>
      </trkpt>
      <trkpt lat="47.29351" lon="-2.25753">
        <ele>-6.4000000953674</ele>
        <time>2021-12-05T09:59:21.000Z</time>
      </trkpt>
      <trkpt lat="47.29347" lon="-2.25757">
        <ele>-6.8000001907349</ele>
        <time>2021-12-05T09:59:22.000Z</time>
      </trkpt>
      <trkpt lat="47.29343" lon="-2.2576">
        <ele>-7.1999998092651</ele>
        <time>2021-12-05T09:59:23.000Z</time>
      </trkpt>
      <trkpt lat="47.29335" lon="-2.25767">
        <ele>-7.1999998092651</ele>
        <time>2021-12-05T09:59:25.000Z</time>
      </trkpt>
      <trkpt lat="47.29323" lon="-2.2578">
        <ele>-7.1999998092651</ele>
        <time>2021-12-05T09:59:29.000Z</time>
      </trkpt>
      <trkpt lat="47.29323" lon="-2.25783">
        <ele>-7.1999998092651</ele>
        <time>2021-12-05T09:59:30.000Z</time>
      </trkpt>
      <trkpt lat="47.29327" lon="-2.25787">
        <ele>-7.1999998092651</ele>
        <time>2021-12-05T09:59:33.000Z</time>
      </trkpt>
      <trkpt lat="47.29329" lon="-2.25788">
        <ele>-7.1999998092651</ele>
        <time>2021-12-05T09:59:34.000Z</time>
      </trkpt>
      <trkpt lat="47.29339" lon="-2.25793">
        <ele>-7.1999998092651</ele>
        <time>2021-12-05T09:59:38.000Z</time>
      </trkpt>
      <trkpt lat="47.29346" lon="-2.25792">
        <ele>-7.5999999046326</ele>
        <time>2021-12-05T09:59:42.000Z</time>
      </trkpt>
      <trkpt lat="47.29347" lon="-2.2579">
        <ele>-8</ele>
        <time>2021-12-05T09:59:43.000Z</time>
      </trkpt>
      <trkpt lat="47.29349" lon="-2.25788">
        <ele>-8.6000003814697</ele>
        <time>2021-12-05T09:59:44.000Z</time>
      </trkpt>
      <trkpt lat="47.2935" lon="-2.25786">
        <ele>-9</ele>
        <time>2021-12-05T09:59:45.000Z</time>
      </trkpt>
      <trkpt lat="47.29351" lon="-2.25783">
        <ele>-9.3999996185303</ele>
        <time>2021-12-05T09:59:46.000Z</time>
      </trkpt>
      <trkpt lat="47.29352" lon="-2.25781">
        <ele>-9.3999996185303</ele>
        <time>2021-12-05T09:59:47.000Z</time>
      </trkpt>
      <trkpt lat="47.29358" lon="-2.25767">
        <ele>-9.3999996185303</ele>
        <time>2021-12-05T09:59:52.000Z</time>
      </trkpt>
      <trkpt lat="47.29362" lon="-2.25765">
        <ele>-9.3999996185303</ele>
        <time>2021-12-05T09:59:54.000Z</time>
      </trkpt>
      <trkpt lat="47.29364" lon="-2.25765">
        <ele>-9.3999996185303</ele>
        <time>2021-12-05T09:59:55.000Z</time>
      </trkpt>
      <trkpt lat="47.29372" lon="-2.25761">
        <ele>-9.3999996185303</ele>
        <time>2021-12-05T09:59:58.000Z</time>
      </trkpt>
      <trkpt lat="47.29375" lon="-2.25759">
        <ele>-9.3999996185303</ele>
        <time>2021-12-05T09:59:59.000Z</time>
      </trkpt>
      <trkpt lat="47.29385" lon="-2.25754">
        <ele>-9.3999996185303</ele>
        <time>2021-12-05T10:00:03.000Z</time>
      </trkpt>
      <trkpt lat="47.29388" lon="-2.25756">
        <ele>-9.3999996185303</ele>
        <time>2021-12-05T10:00:04.000Z</time>
      </trkpt>
      <trkpt lat="47.29398" lon="-2.25758">
        <ele>-9.3999996185303</ele>
        <time>2021-12-05T10:00:08.000Z</time>
      </trkpt>
      <trkpt lat="47.29401" lon="-2.2576">
        <ele>-9.8000001907349</ele>
        <time>2021-12-05T10:00:09.000Z</time>
      </trkpt>
      <trkpt lat="47.29403" lon="-2.25763">
        <ele>-10.199999809265</ele>
        <time>2021-12-05T10:00:10.000Z</time>
      </trkpt>
      <trkpt lat="47.29405" lon="-2.25766">
        <ele>-10.800000190735</ele>
        <time>2021-12-05T10:00:11.000Z</time>
      </trkpt>
      <trkpt lat="47.29407" lon="-2.25768">
        <ele>-11.199999809265</ele>
        <time>2021-12-05T10:00:12.000Z</time>
      </trkpt>
      <trkpt lat="47.2941" lon="-2.2577">
        <ele>-11.60000038147</ele>
        <time>2021-12-05T10:00:13.000Z</time>
      </trkpt>
      <trkpt lat="47.29415" lon="-2.25773">
        <ele>-11.60000038147</ele>
        <time>2021-12-05T10:00:15.000Z</time>
      </trkpt>
      <trkpt lat="47.29416" lon="-2.25777">
        <ele>-11.60000038147</ele>
        <time>2021-12-05T10:00:16.000Z</time>
      </trkpt>
      <trkpt lat="47.29417" lon="-2.2578">
        <ele>-12</ele>
        <time>2021-12-05T10:00:17.000Z</time>
      </trkpt>
      <trkpt lat="47.29417" lon="-2.25784">
        <ele>-12.39999961853</ele>
        <time>2021-12-05T10:00:18.000Z</time>
      </trkpt>
      <trkpt lat="47.29418" lon="-2.25788">
        <ele>-12.800000190735</ele>
        <time>2021-12-05T10:00:19.000Z</time>
      </trkpt>
      <trkpt lat="47.2942" lon="-2.25792">
        <ele>-13.199999809265</ele>
        <time>2021-12-05T10:00:20.000Z</time>
      </trkpt>
      <trkpt lat="47.29422" lon="-2.25796">
        <ele>-13.60000038147</ele>
        <time>2021-12-05T10:00:21.000Z</time>
      </trkpt>
      <trkpt lat="47.29425" lon="-2.25801">
        <ele>-13.60000038147</ele>
        <time>2021-12-05T10:00:22.000Z</time>
      </trkpt>
      <trkpt lat="47.29427" lon="-2.25809">
        <ele>-13.60000038147</ele>
        <time>2021-12-05T10:00:23.000Z</time>
      </trkpt>
      <trkpt lat="47.2943" lon="-2.25829">
        <ele>-13.60000038147</ele>
        <time>2021-12-05T10:00:26.000Z</time>
      </trkpt>
      <trkpt lat="47.2943" lon="-2.2584">
        <ele>-13.60000038147</ele>
        <time>2021-12-05T10:00:28.000Z</time>
      </trkpt>
      <trkpt lat="47.29427" lon="-2.25858">
        <ele>-13.60000038147</ele>
        <time>2021-12-05T10:00:33.000Z</time>
      </trkpt>
      <trkpt lat="47.29437" lon="-2.25888">
        <ele>-13.60000038147</ele>
        <time>2021-12-05T10:00:39.000Z</time>
      </trkpt>
      <trkpt lat="47.29444" lon="-2.25918">
        <ele>-13.60000038147</ele>
        <time>2021-12-05T10:00:44.000Z</time>
      </trkpt>
      <trkpt lat="47.29445" lon="-2.2593">
        <ele>-13.60000038147</ele>
        <time>2021-12-05T10:00:47.000Z</time>
      </trkpt>
      <trkpt lat="47.29442" lon="-2.25934">
        <ele>-13.60000038147</ele>
        <time>2021-12-05T10:00:48.000Z</time>
      </trkpt>
      <trkpt lat="47.29422" lon="-2.25948">
        <ele>-13.60000038147</ele>
        <time>2021-12-05T10:00:54.000Z</time>
      </trkpt>
      <trkpt lat="47.29408" lon="-2.25954">
        <ele>-13.60000038147</ele>
        <time>2021-12-05T10:00:59.000Z</time>
      </trkpt>
      <trkpt lat="47.29398" lon="-2.2595">
        <ele>-12.800000190735</ele>
        <time>2021-12-05T10:01:03.000Z</time>
      </trkpt>
      <trkpt lat="47.29396" lon="-2.25951">
        <ele>-12.39999961853</ele>
        <time>2021-12-05T10:01:04.000Z</time>
      </trkpt>
      <trkpt lat="47.29395" lon="-2.25954">
        <ele>-12</ele>
        <time>2021-12-05T10:01:05.000Z</time>
      </trkpt>
      <trkpt lat="47.29396" lon="-2.25958">
        <ele>-11.39999961853</ele>
        <time>2021-12-05T10:01:06.000Z</time>
      </trkpt>
      <trkpt lat="47.29398" lon="-2.2598">
        <ele>-11.39999961853</ele>
        <time>2021-12-05T10:01:10.000Z</time>
      </trkpt>
      <trkpt lat="47.29396" lon="-2.25992">
        <ele>-11.800000190735</ele>
        <time>2021-12-05T10:01:12.000Z</time>
      </trkpt>
      <trkpt lat="47.29395" lon="-2.25998">
        <ele>-12.39999961853</ele>
        <time>2021-12-05T10:01:13.000Z</time>
      </trkpt>
      <trkpt lat="47.29395" lon="-2.26003">
        <ele>-12.800000190735</ele>
        <time>2021-12-05T10:01:14.000Z</time>
      </trkpt>
      <trkpt lat="47.29394" lon="-2.26009">
        <ele>-13.199999809265</ele>
        <time>2021-12-05T10:01:15.000Z</time>
      </trkpt>
      <trkpt lat="47.29393" lon="-2.26014">
        <ele>-13.60000038147</ele>
        <time>2021-12-05T10:01:16.000Z</time>
      </trkpt>
      <trkpt lat="47.29393" lon="-2.26036">
        <ele>-13.60000038147</ele>
        <time>2021-12-05T10:01:20.000Z</time>
      </trkpt>
      <trkpt lat="47.29405" lon="-2.2606">
        <ele>-13.60000038147</ele>
        <time>2021-12-05T10:01:26.000Z</time>
      </trkpt>
      <trkpt lat="47.29407" lon="-2.26061">
        <ele>-13.60000038147</ele>
        <time>2021-12-05T10:01:27.000Z</time>
      </trkpt>
      <trkpt lat="47.29408" lon="-2.26066">
        <ele>-13.60000038147</ele>
        <time>2021-12-05T10:01:29.000Z</time>
      </trkpt>
      <trkpt lat="47.29408" lon="-2.26069">
        <ele>-13.60000038147</ele>
        <time>2021-12-05T10:01:30.000Z</time>
      </trkpt>
      <trkpt lat="47.29414" lon="-2.26097">
        <ele>-13.60000038147</ele>
        <time>2021-12-05T10:01:35.000Z</time>
      </trkpt>
      <trkpt lat="47.29415" lon="-2.26112">
        <ele>-13.60000038147</ele>
        <time>2021-12-05T10:01:38.000Z</time>
      </trkpt>
      <trkpt lat="47.29414" lon="-2.26116">
        <ele>-13.60000038147</ele>
        <time>2021-12-05T10:01:39.000Z</time>
      </trkpt>
      <trkpt lat="47.29413" lon="-2.26147">
        <ele>-13.60000038147</ele>
        <time>2021-12-05T10:01:46.000Z</time>
      </trkpt>
      <trkpt lat="47.29412" lon="-2.2615">
        <ele>-13.60000038147</ele>
        <time>2021-12-05T10:01:47.000Z</time>
      </trkpt>
      <trkpt lat="47.29405" lon="-2.26159">
        <ele>-13.199999809265</ele>
        <time>2021-12-05T10:01:50.000Z</time>
      </trkpt>
      <trkpt lat="47.29403" lon="-2.2616">
        <ele>-12.800000190735</ele>
        <time>2021-12-05T10:01:51.000Z</time>
      </trkpt>
      <trkpt lat="47.29401" lon="-2.26161">
        <ele>-12</ele>
        <time>2021-12-05T10:01:52.000Z</time>
      </trkpt>
      <trkpt lat="47.294" lon="-2.26162">
        <ele>-11.60000038147</ele>
        <time>2021-12-05T10:01:53.000Z</time>
      </trkpt>
      <trkpt lat="47.29395" lon="-2.26161">
        <ele>-11.60000038147</ele>
        <time>2021-12-05T10:01:56.000Z</time>
      </trkpt>
      <trkpt lat="47.29386" lon="-2.2616">
        <ele>-11.60000038147</ele>
        <time>2021-12-05T10:02:03.000Z</time>
      </trkpt>
      <trkpt lat="47.2938" lon="-2.26159">
        <ele>-11.199999809265</ele>
        <time>2021-12-05T10:02:06.000Z</time>
      </trkpt>
      <trkpt lat="47.29378" lon="-2.2616">
        <ele>-10.60000038147</ele>
        <time>2021-12-05T10:02:07.000Z</time>
      </trkpt>
      <trkpt lat="47.29377" lon="-2.2616">
        <ele>-10.199999809265</ele>
        <time>2021-12-05T10:02:08.000Z</time>
      </trkpt>
      <trkpt lat="47.29376" lon="-2.2616">
        <ele>-9.8000001907349</ele>
        <time>2021-12-05T10:02:09.000Z</time>
      </trkpt>
      <trkpt lat="47.29375" lon="-2.26161">
        <ele>-9.3999996185303</ele>
        <time>2021-12-05T10:02:10.000Z</time>
      </trkpt>
      <trkpt lat="47.29364" lon="-2.26164">
        <ele>-9.3999996185303</ele>
        <time>2021-12-05T10:02:14.000Z</time>
      </trkpt>
      <trkpt lat="47.29346" lon="-2.26165">
        <ele>-9.3999996185303</ele>
        <time>2021-12-05T10:02:20.000Z</time>
      </trkpt>
      <trkpt lat="47.29338" lon="-2.26168">
        <ele>-9</ele>
        <time>2021-12-05T10:02:25.000Z</time>
      </trkpt>
      <trkpt lat="47.29337" lon="-2.26168">
        <ele>-8.6000003814697</ele>
        <time>2021-12-05T10:02:26.000Z</time>
      </trkpt>
      <trkpt lat="47.29336" lon="-2.26168">
        <ele>-8.1999998092651</ele>
        <time>2021-12-05T10:02:27.000Z</time>
      </trkpt>
      <trkpt lat="47.29336" lon="-2.26168">
        <ele>-7.8000001907349</ele>
        <time>2021-12-05T10:02:28.000Z</time>
      </trkpt>
      <trkpt lat="47.29335" lon="-2.26168">
        <ele>-7.4000000953674</ele>
        <time>2021-12-05T10:02:29.000Z</time>
      </trkpt>
      <trkpt lat="47.29333" lon="-2.26169">
        <ele>-7.4000000953674</ele>
        <time>2021-12-05T10:02:31.000Z</time>
      </trkpt>
      <trkpt lat="47.29321" lon="-2.2617">
        <ele>-7.4000000953674</ele>
        <time>2021-12-05T10:02:37.000Z</time>
      </trkpt>
      <trkpt lat="47.29316" lon="-2.26177">
        <ele>-7.4000000953674</ele>
        <time>2021-12-05T10:02:41.000Z</time>
      </trkpt>
      <trkpt lat="47.29316" lon="-2.26179">
        <ele>-7.4000000953674</ele>
        <time>2021-12-05T10:02:42.000Z</time>
      </trkpt>
      <trkpt lat="47.29315" lon="-2.2618">
        <ele>-7.4000000953674</ele>
        <time>2021-12-05T10:02:43.000Z</time>
      </trkpt>
      <trkpt lat="47.29305" lon="-2.26179">
        <ele>-7.4000000953674</ele>
        <time>2021-12-05T10:02:46.000Z</time>
      </trkpt>
      <trkpt lat="47.29291" lon="-2.2618">
        <ele>-7.4000000953674</ele>
        <time>2021-12-05T10:02:50.000Z</time>
      </trkpt>
      <trkpt lat="47.29286" lon="-2.26178">
        <ele>-7.4000000953674</ele>
        <time>2021-12-05T10:02:52.000Z</time>
      </trkpt>
      <trkpt lat="47.29281" lon="-2.26179">
        <ele>-7.4000000953674</ele>
        <time>2021-12-05T10:02:54.000Z</time>
      </trkpt>
      <trkpt lat="47.29271" lon="-2.2618">
        <ele>-7</ele>
        <time>2021-12-05T10:02:58.000Z</time>
      </trkpt>
      <trkpt lat="47.29268" lon="-2.2618">
        <ele>-6.5999999046326</ele>
        <time>2021-12-05T10:02:59.000Z</time>
      </trkpt>
      <trkpt lat="47.29266" lon="-2.26179">
        <ele>-6.1999998092651</ele>
        <time>2021-12-05T10:03:00.000Z</time>
      </trkpt>
      <trkpt lat="47.29264" lon="-2.26177">
        <ele>-5.8000001907349</ele>
        <time>2021-12-05T10:03:01.000Z</time>
      </trkpt>
      <trkpt lat="47.29263" lon="-2.26175">
        <ele>-5.4000000953674</ele>
        <time>2021-12-05T10:03:02.000Z</time>
      </trkpt>
      <trkpt lat="47.29261" lon="-2.2617">
        <ele>-5.4000000953674</ele>
        <time>2021-12-05T10:03:04.000Z</time>
      </trkpt>
      <trkpt lat="47.29257" lon="-2.26152">
        <ele>-5.4000000953674</ele>
        <time>2021-12-05T10:03:09.000Z</time>
      </trkpt>
      <trkpt lat="47.2925" lon="-2.26135">
        <ele>-5.4000000953674</ele>
        <time>2021-12-05T10:03:14.000Z</time>
      </trkpt>
      <trkpt lat="47.29242" lon="-2.26113">
        <ele>-5.4000000953674</ele>
        <time>2021-12-05T10:03:20.000Z</time>
      </trkpt>
      <trkpt lat="47.29235" lon="-2.26096">
        <ele>-5.4000000953674</ele>
        <time>2021-12-05T10:03:26.000Z</time>
      </trkpt>
      <trkpt lat="47.29241" lon="-2.26086">
        <ele>-5.4000000953674</ele>
        <time>2021-12-05T10:03:30.000Z</time>
      </trkpt>
      <trkpt lat="47.29247" lon="-2.26082">
        <ele>-5.4000000953674</ele>
        <time>2021-12-05T10:03:32.000Z</time>
      </trkpt>
      <trkpt lat="47.29259" lon="-2.26075">
        <ele>-5.4000000953674</ele>
        <time>2021-12-05T10:03:36.000Z</time>
      </trkpt>
      <trkpt lat="47.29274" lon="-2.26065">
        <ele>-5.4000000953674</ele>
        <time>2021-12-05T10:03:41.000Z</time>
      </trkpt>
      <trkpt lat="47.29275" lon="-2.26059">
        <ele>-5.4000000953674</ele>
        <time>2021-12-05T10:03:42.000Z</time>
      </trkpt>
      <trkpt lat="47.29274" lon="-2.26051">
        <ele>-5.4000000953674</ele>
        <time>2021-12-05T10:03:44.000Z</time>
      </trkpt>
      <trkpt lat="47.29267" lon="-2.26021">
        <ele>-5.4000000953674</ele>
        <time>2021-12-05T10:03:50.000Z</time>
      </trkpt>
      <trkpt lat="47.2926" lon="-2.25995">
        <ele>-5.4000000953674</ele>
        <time>2021-12-05T10:03:55.000Z</time>
      </trkpt>
      <trkpt lat="47.29262" lon="-2.2599">
        <ele>-5.8000001907349</ele>
        <time>2021-12-05T10:03:57.000Z</time>
      </trkpt>
      <trkpt lat="47.29264" lon="-2.25989">
        <ele>-6.1999998092651</ele>
        <time>2021-12-05T10:03:58.000Z</time>
      </trkpt>
      <trkpt lat="47.29266" lon="-2.25988">
        <ele>-6.5999999046326</ele>
        <time>2021-12-05T10:03:59.000Z</time>
      </trkpt>
      <trkpt lat="47.29268" lon="-2.25987">
        <ele>-7.1999998092651</ele>
        <time>2021-12-05T10:04:00.000Z</time>
      </trkpt>
      <trkpt lat="47.2927" lon="-2.25986">
        <ele>-7.5999999046326</ele>
        <time>2021-12-05T10:04:01.000Z</time>
      </trkpt>
      <trkpt lat="47.29284" lon="-2.25974">
        <ele>-7.5999999046326</ele>
        <time>2021-12-05T10:04:05.000Z</time>
      </trkpt>
      <trkpt lat="47.29299" lon="-2.25973">
        <ele>-7.5999999046326</ele>
        <time>2021-12-05T10:04:10.000Z</time>
      </trkpt>
      <trkpt lat="47.2931" lon="-2.2596">
        <ele>-7.5999999046326</ele>
        <time>2021-12-05T10:04:14.000Z</time>
      </trkpt>
      <trkpt lat="47.29317" lon="-2.25949">
        <ele>-7.5999999046326</ele>
        <time>2021-12-05T10:04:16.000Z</time>
      </trkpt>
      <trkpt lat="47.29318" lon="-2.25936">
        <ele>-7.5999999046326</ele>
        <time>2021-12-05T10:04:18.000Z</time>
      </trkpt>
      <trkpt lat="47.29316" lon="-2.25916">
        <ele>-7.5999999046326</ele>
        <time>2021-12-05T10:04:21.000Z</time>
      </trkpt>
      <trkpt lat="47.29314" lon="-2.25909">
        <ele>-7.5999999046326</ele>
        <time>2021-12-05T10:04:22.000Z</time>
      </trkpt>
      <trkpt lat="47.29307" lon="-2.25888">
        <ele>-7.5999999046326</ele>
        <time>2021-12-05T10:04:26.000Z</time>
      </trkpt>
      <trkpt lat="47.29305" lon="-2.25886">
        <ele>-7.5999999046326</ele>
        <time>2021-12-05T10:04:27.000Z</time>
      </trkpt>
      <trkpt lat="47.29297" lon="-2.25873">
        <ele>-7.5999999046326</ele>
        <time>2021-12-05T10:04:32.000Z</time>
      </trkpt>
      <trkpt lat="47.293" lon="-2.25858">
        <ele>-7.5999999046326</ele>
        <time>2021-12-05T10:04:37.000Z</time>
      </trkpt>
      <trkpt lat="47.29304" lon="-2.25864">
        <ele>-7.5999999046326</ele>
        <time>2021-12-05T10:04:39.000Z</time>
      </trkpt>
      <trkpt lat="47.29309" lon="-2.25871">
        <ele>-7.5999999046326</ele>
        <time>2021-12-05T10:04:41.000Z</time>
      </trkpt>
      <trkpt lat="47.29315" lon="-2.25883">
        <ele>-7.5999999046326</ele>
        <time>2021-12-05T10:04:45.000Z</time>
      </trkpt>
      <trkpt lat="47.29319" lon="-2.25883">
        <ele>-7.5999999046326</ele>
        <time>2021-12-05T10:04:50.000Z</time>
      </trkpt>
      <trkpt lat="47.29319" lon="-2.25882">
        <ele>-7.5999999046326</ele>
        <time>2021-12-05T10:04:51.000Z</time>
      </trkpt>
      <trkpt lat="47.29314" lon="-2.2587">
        <ele>-7.5999999046326</ele>
        <time>2021-12-05T10:04:56.000Z</time>
      </trkpt>
      <trkpt lat="47.29308" lon="-2.2585">
        <ele>-7.5999999046326</ele>
        <time>2021-12-05T10:05:02.000Z</time>
      </trkpt>
      <trkpt lat="47.29314" lon="-2.25845">
        <ele>-7.5999999046326</ele>
        <time>2021-12-05T10:05:06.000Z</time>
      </trkpt>
      <trkpt lat="47.29322" lon="-2.25849">
        <ele>-7.5999999046326</ele>
        <time>2021-12-05T10:05:11.000Z</time>
      </trkpt>
      <trkpt lat="47.29323" lon="-2.25851">
        <ele>-7.5999999046326</ele>
        <time>2021-12-05T10:05:12.000Z</time>
      </trkpt>
      <trkpt lat="47.29325" lon="-2.25862">
        <ele>-7.5999999046326</ele>
        <time>2021-12-05T10:05:16.000Z</time>
      </trkpt>
      <trkpt lat="47.2933" lon="-2.25873">
        <ele>-7.5999999046326</ele>
        <time>2021-12-05T10:05:20.000Z</time>
      </trkpt>
      <trkpt lat="47.29332" lon="-2.25876">
        <ele>-7.5999999046326</ele>
        <time>2021-12-05T10:05:21.000Z</time>
      </trkpt>
      <trkpt lat="47.29336" lon="-2.25879">
        <ele>-8</ele>
        <time>2021-12-05T10:05:23.000Z</time>
      </trkpt>
      <trkpt lat="47.29338" lon="-2.25879">
        <ele>-8.3999996185303</ele>
        <time>2021-12-05T10:05:24.000Z</time>
      </trkpt>
      <trkpt lat="47.2934" lon="-2.25879">
        <ele>-8.8000001907349</ele>
        <time>2021-12-05T10:05:25.000Z</time>
      </trkpt>
      <trkpt lat="47.29342" lon="-2.25878">
        <ele>-9.1999998092651</ele>
        <time>2021-12-05T10:05:26.000Z</time>
      </trkpt>
      <trkpt lat="47.29344" lon="-2.25877">
        <ele>-9.6000003814697</ele>
        <time>2021-12-05T10:05:27.000Z</time>
      </trkpt>
      <trkpt lat="47.29349" lon="-2.25875">
        <ele>-9.6000003814697</ele>
        <time>2021-12-05T10:05:29.000Z</time>
      </trkpt>
      <trkpt lat="47.29352" lon="-2.25872">
        <ele>-9.6000003814697</ele>
        <time>2021-12-05T10:05:31.000Z</time>
      </trkpt>
      <trkpt lat="47.29367" lon="-2.25868">
        <ele>-9.6000003814697</ele>
        <time>2021-12-05T10:05:37.000Z</time>
      </trkpt>
      <trkpt lat="47.29374" lon="-2.25876">
        <ele>-9.6000003814697</ele>
        <time>2021-12-05T10:05:40.000Z</time>
      </trkpt>
      <trkpt lat="47.29375" lon="-2.2588">
        <ele>-9.6000003814697</ele>
        <time>2021-12-05T10:05:41.000Z</time>
      </trkpt>
      <trkpt lat="47.29376" lon="-2.25893">
        <ele>-9.6000003814697</ele>
        <time>2021-12-05T10:05:45.000Z</time>
      </trkpt>
      <trkpt lat="47.29377" lon="-2.25899">
        <ele>-9.6000003814697</ele>
        <time>2021-12-05T10:05:47.000Z</time>
      </trkpt>
      <trkpt lat="47.29381" lon="-2.25915">
        <ele>-9.6000003814697</ele>
        <time>2021-12-05T10:05:51.000Z</time>
      </trkpt>
      <trkpt lat="47.2938" lon="-2.2594">
        <ele>-9.6000003814697</ele>
        <time>2021-12-05T10:05:57.000Z</time>
      </trkpt>
      <trkpt lat="47.29369" lon="-2.25956">
        <ele>-9.6000003814697</ele>
        <time>2021-12-05T10:06:02.000Z</time>
      </trkpt>
      <trkpt lat="47.29362" lon="-2.25966">
        <ele>-9.6000003814697</ele>
        <time>2021-12-05T10:06:06.000Z</time>
      </trkpt>
      <trkpt lat="47.29359" lon="-2.25968">
        <ele>-9.6000003814697</ele>
        <time>2021-12-05T10:06:08.000Z</time>
      </trkpt>
      <trkpt lat="47.2935" lon="-2.25969">
        <ele>-9.6000003814697</ele>
        <time>2021-12-05T10:06:11.000Z</time>
      </trkpt>
      <trkpt lat="47.29334" lon="-2.25963">
        <ele>-9.6000003814697</ele>
        <time>2021-12-05T10:06:16.000Z</time>
      </trkpt>
      <trkpt lat="47.29319" lon="-2.25967">
        <ele>-9.6000003814697</ele>
        <time>2021-12-05T10:06:20.000Z</time>
      </trkpt>
      <trkpt lat="47.29307" lon="-2.25976">
        <ele>-9.6000003814697</ele>
        <time>2021-12-05T10:06:25.000Z</time>
      </trkpt>
      <trkpt lat="47.29308" lon="-2.25991">
        <ele>-9.6000003814697</ele>
        <time>2021-12-05T10:06:29.000Z</time>
      </trkpt>
      <trkpt lat="47.29313" lon="-2.26015">
        <ele>-9.6000003814697</ele>
        <time>2021-12-05T10:06:34.000Z</time>
      </trkpt>
      <trkpt lat="47.2932" lon="-2.26041">
        <ele>-9.6000003814697</ele>
        <time>2021-12-05T10:06:39.000Z</time>
      </trkpt>
      <trkpt lat="47.29324" lon="-2.26054">
        <ele>-9.6000003814697</ele>
        <time>2021-12-05T10:06:41.000Z</time>
      </trkpt>
      <trkpt lat="47.29333" lon="-2.26075">
        <ele>-9.6000003814697</ele>
        <time>2021-12-05T10:06:44.000Z</time>
      </trkpt>
      <trkpt lat="47.29351" lon="-2.26113">
        <ele>-9.6000003814697</ele>
        <time>2021-12-05T10:06:50.000Z</time>
      </trkpt>
      <trkpt lat="47.29357" lon="-2.26125">
        <ele>-9.6000003814697</ele>
        <time>2021-12-05T10:06:52.000Z</time>
      </trkpt>
      <trkpt lat="47.29364" lon="-2.26136">
        <ele>-9.6000003814697</ele>
        <time>2021-12-05T10:06:54.000Z</time>
      </trkpt>
      <trkpt lat="47.2937" lon="-2.26146">
        <ele>-9.6000003814697</ele>
        <time>2021-12-05T10:06:56.000Z</time>
      </trkpt>
      <trkpt lat="47.29389" lon="-2.26162">
        <ele>-9.6000003814697</ele>
        <time>2021-12-05T10:07:01.000Z</time>
      </trkpt>
      <trkpt lat="47.29408" lon="-2.26168">
        <ele>-9.6000003814697</ele>
        <time>2021-12-05T10:07:05.000Z</time>
      </trkpt>
      <trkpt lat="47.29429" lon="-2.26179">
        <ele>-9.6000003814697</ele>
        <time>2021-12-05T10:07:09.000Z</time>
      </trkpt>
      <trkpt lat="47.29434" lon="-2.2618">
        <ele>-9.6000003814697</ele>
        <time>2021-12-05T10:07:10.000Z</time>
      </trkpt>
      <trkpt lat="47.29443" lon="-2.26179">
        <ele>-10</ele>
        <time>2021-12-05T10:07:12.000Z</time>
      </trkpt>
      <trkpt lat="47.29447" lon="-2.26179">
        <ele>-10.800000190735</ele>
        <time>2021-12-05T10:07:13.000Z</time>
      </trkpt>
      <trkpt lat="47.29452" lon="-2.26179">
        <ele>-11.199999809265</ele>
        <time>2021-12-05T10:07:14.000Z</time>
      </trkpt>
      <trkpt lat="47.29458" lon="-2.26179">
        <ele>-11.60000038147</ele>
        <time>2021-12-05T10:07:15.000Z</time>
      </trkpt>
      <trkpt lat="47.29468" lon="-2.2618">
        <ele>-11.60000038147</ele>
        <time>2021-12-05T10:07:17.000Z</time>
      </trkpt>
      <trkpt lat="47.29479" lon="-2.26184">
        <ele>-11.60000038147</ele>
        <time>2021-12-05T10:07:19.000Z</time>
      </trkpt>
      <trkpt lat="47.29495" lon="-2.26189">
        <ele>-12.199999809265</ele>
        <time>2021-12-05T10:07:22.000Z</time>
      </trkpt>
      <trkpt lat="47.295" lon="-2.26192">
        <ele>-12.60000038147</ele>
        <time>2021-12-05T10:07:23.000Z</time>
      </trkpt>
      <trkpt lat="47.29505" lon="-2.26194">
        <ele>-13</ele>
        <time>2021-12-05T10:07:24.000Z</time>
      </trkpt>
      <trkpt lat="47.2951" lon="-2.26198">
        <ele>-13.39999961853</ele>
        <time>2021-12-05T10:07:25.000Z</time>
      </trkpt>
      <trkpt lat="47.29515" lon="-2.26201">
        <ele>-14</ele>
        <time>2021-12-05T10:07:26.000Z</time>
      </trkpt>
      <trkpt lat="47.29527" lon="-2.2621">
        <ele>-14</ele>
        <time>2021-12-05T10:07:29.000Z</time>
      </trkpt>
      <trkpt lat="47.29534" lon="-2.26218">
        <ele>-14.39999961853</ele>
        <time>2021-12-05T10:07:32.000Z</time>
      </trkpt>
      <trkpt lat="47.29534" lon="-2.2622">
        <ele>-14.800000190735</ele>
        <time>2021-12-05T10:07:33.000Z</time>
      </trkpt>
      <trkpt lat="47.29534" lon="-2.26222">
        <ele>-15.39999961853</ele>
        <time>2021-12-05T10:07:34.000Z</time>
      </trkpt>
      <trkpt lat="47.29533" lon="-2.26224">
        <ele>-15.800000190735</ele>
        <time>2021-12-05T10:07:35.000Z</time>
      </trkpt>
      <trkpt lat="47.29532" lon="-2.26227">
        <ele>-16.200000762939</ele>
        <time>2021-12-05T10:07:36.000Z</time>
      </trkpt>
      <trkpt lat="47.2953" lon="-2.26229">
        <ele>-16.200000762939</ele>
        <time>2021-12-05T10:07:37.000Z</time>
      </trkpt>
      <trkpt lat="47.2953" lon="-2.2624">
        <ele>-16.200000762939</ele>
        <time>2021-12-05T10:07:41.000Z</time>
      </trkpt>
      <trkpt lat="47.29544" lon="-2.26248">
        <ele>-16.60000038147</ele>
        <time>2021-12-05T10:07:45.000Z</time>
      </trkpt>
      <trkpt lat="47.29548" lon="-2.26248">
        <ele>-17.200000762939</ele>
        <time>2021-12-05T10:07:46.000Z</time>
      </trkpt>
      <trkpt lat="47.29552" lon="-2.26248">
        <ele>-17.60000038147</ele>
        <time>2021-12-05T10:07:47.000Z</time>
      </trkpt>
      <trkpt lat="47.29558" lon="-2.26249">
        <ele>-18</ele>
        <time>2021-12-05T10:07:48.000Z</time>
      </trkpt>
      <trkpt lat="47.29563" lon="-2.2625">
        <ele>-18.39999961853</ele>
        <time>2021-12-05T10:07:49.000Z</time>
      </trkpt>
      <trkpt lat="47.29575" lon="-2.2625">
        <ele>-18.39999961853</ele>
        <time>2021-12-05T10:07:51.000Z</time>
      </trkpt>
      <trkpt lat="47.29589" lon="-2.26252">
        <ele>-19</ele>
        <time>2021-12-05T10:07:53.000Z</time>
      </trkpt>
      <trkpt lat="47.29596" lon="-2.26253">
        <ele>-19.39999961853</ele>
        <time>2021-12-05T10:07:54.000Z</time>
      </trkpt>
      <trkpt lat="47.29603" lon="-2.26254">
        <ele>-19.799999237061</ele>
        <time>2021-12-05T10:07:55.000Z</time>
      </trkpt>
      <trkpt lat="47.29609" lon="-2.26253">
        <ele>-20.200000762939</ele>
        <time>2021-12-05T10:07:56.000Z</time>
      </trkpt>
      <trkpt lat="47.29614" lon="-2.26253">
        <ele>-20.60000038147</ele>
        <time>2021-12-05T10:07:57.000Z</time>
      </trkpt>
      <trkpt lat="47.29621" lon="-2.26253">
        <ele>-21.200000762939</ele>
        <time>2021-12-05T10:07:59.000Z</time>
      </trkpt>
      <trkpt lat="47.29622" lon="-2.26256">
        <ele>-21.799999237061</ele>
        <time>2021-12-05T10:08:00.000Z</time>
      </trkpt>
      <trkpt lat="47.29622" lon="-2.26259">
        <ele>-22.200000762939</ele>
        <time>2021-12-05T10:08:01.000Z</time>
      </trkpt>
      <trkpt lat="47.29622" lon="-2.2626">
        <ele>-23.200000762939</ele>
        <time>2021-12-05T10:08:02.000Z</time>
      </trkpt>
      <trkpt lat="47.29616" lon="-2.2627">
        <ele>-23.200000762939</ele>
        <time>2021-12-05T10:08:07.000Z</time>
      </trkpt>
      <trkpt lat="47.29613" lon="-2.26272">
        <ele>-23.200000762939</ele>
        <time>2021-12-05T10:08:08.000Z</time>
      </trkpt>
      <trkpt lat="47.29603" lon="-2.2628">
        <ele>-23.200000762939</ele>
        <time>2021-12-05T10:08:12.000Z</time>
      </trkpt>
      <trkpt lat="47.29599" lon="-2.26287">
        <ele>-23.200000762939</ele>
        <time>2021-12-05T10:08:15.000Z</time>
      </trkpt>
      <trkpt lat="47.29598" lon="-2.26289">
        <ele>-23.200000762939</ele>
        <time>2021-12-05T10:08:16.000Z</time>
      </trkpt>
      <trkpt lat="47.29599" lon="-2.26296">
        <ele>-23.200000762939</ele>
        <time>2021-12-05T10:08:19.000Z</time>
      </trkpt>
      <trkpt lat="47.29599" lon="-2.26299">
        <ele>-23.200000762939</ele>
        <time>2021-12-05T10:08:22.000Z</time>
      </trkpt>
      <trkpt lat="47.296" lon="-2.26302">
        <ele>-23.60000038147</ele>
        <time>2021-12-05T10:08:24.000Z</time>
      </trkpt>
      <trkpt lat="47.29601" lon="-2.26305">
        <ele>-24</ele>
        <time>2021-12-05T10:08:25.000Z</time>
      </trkpt>
      <trkpt lat="47.29601" lon="-2.26306">
        <ele>-25</ele>
        <time>2021-12-05T10:08:26.000Z</time>
      </trkpt>
      <trkpt lat="47.29602" lon="-2.26309">
        <ele>-25.39999961853</ele>
        <time>2021-12-05T10:08:27.000Z</time>
      </trkpt>
      <trkpt lat="47.29603" lon="-2.26311">
        <ele>-25.39999961853</ele>
        <time>2021-12-05T10:08:28.000Z</time>
      </trkpt>
      <trkpt lat="47.29611" lon="-2.26327">
        <ele>-25.39999961853</ele>
        <time>2021-12-05T10:08:33.000Z</time>
      </trkpt>
      <trkpt lat="47.29613" lon="-2.26332">
        <ele>-25.39999961853</ele>
        <time>2021-12-05T10:08:36.000Z</time>
      </trkpt>
      <trkpt lat="47.29612" lon="-2.26336">
        <ele>-25.39999961853</ele>
        <time>2021-12-05T10:08:38.000Z</time>
      </trkpt>
      <trkpt lat="47.29606" lon="-2.26353">
        <ele>-25.39999961853</ele>
        <time>2021-12-05T10:08:42.000Z</time>
      </trkpt>
      <trkpt lat="47.29606" lon="-2.26361">
        <ele>-25.39999961853</ele>
        <time>2021-12-05T10:08:44.000Z</time>
      </trkpt>
      <trkpt lat="47.29611" lon="-2.26368">
        <ele>-25.39999961853</ele>
        <time>2021-12-05T10:08:46.000Z</time>
      </trkpt>
      <trkpt lat="47.29615" lon="-2.26386">
        <ele>-25.39999961853</ele>
        <time>2021-12-05T10:08:50.000Z</time>
      </trkpt>
      <trkpt lat="47.29613" lon="-2.26403">
        <ele>-25</ele>
        <time>2021-12-05T10:08:54.000Z</time>
      </trkpt>
      <trkpt lat="47.29612" lon="-2.26406">
        <ele>-24.60000038147</ele>
        <time>2021-12-05T10:08:55.000Z</time>
      </trkpt>
      <trkpt lat="47.2961" lon="-2.26409">
        <ele>-24.200000762939</ele>
        <time>2021-12-05T10:08:56.000Z</time>
      </trkpt>
      <trkpt lat="47.29609" lon="-2.26412">
        <ele>-23.799999237061</ele>
        <time>2021-12-05T10:08:57.000Z</time>
      </trkpt>
      <trkpt lat="47.29608" lon="-2.26415">
        <ele>-23.39999961853</ele>
        <time>2021-12-05T10:08:58.000Z</time>
      </trkpt>
      <trkpt lat="47.29603" lon="-2.26428">
        <ele>-23.39999961853</ele>
        <time>2021-12-05T10:09:02.000Z</time>
      </trkpt>
      <trkpt lat="47.29601" lon="-2.2644">
        <ele>-23.39999961853</ele>
        <time>2021-12-05T10:09:08.000Z</time>
      </trkpt>
      <trkpt lat="47.296" lon="-2.26447">
        <ele>-22.799999237061</ele>
        <time>2021-12-05T10:09:11.000Z</time>
      </trkpt>
      <trkpt lat="47.296" lon="-2.2645">
        <ele>-22.39999961853</ele>
        <time>2021-12-05T10:09:12.000Z</time>
      </trkpt>
      <trkpt lat="47.296" lon="-2.26452">
        <ele>-22</ele>
        <time>2021-12-05T10:09:13.000Z</time>
      </trkpt>
      <trkpt lat="47.296" lon="-2.26455">
        <ele>-21.60000038147</ele>
        <time>2021-12-05T10:09:14.000Z</time>
      </trkpt>
      <trkpt lat="47.296" lon="-2.26458">
        <ele>-21.200000762939</ele>
        <time>2021-12-05T10:09:15.000Z</time>
      </trkpt>
      <trkpt lat="47.29599" lon="-2.26475">
        <ele>-21.200000762939</ele>
        <time>2021-12-05T10:09:21.000Z</time>
      </trkpt>
      <trkpt lat="47.29597" lon="-2.26492">
        <ele>-20.799999237061</ele>
        <time>2021-12-05T10:09:28.000Z</time>
      </trkpt>
      <trkpt lat="47.29596" lon="-2.26493">
        <ele>-20.39999961853</ele>
        <time>2021-12-05T10:09:29.000Z</time>
      </trkpt>
      <trkpt lat="47.29595" lon="-2.26495">
        <ele>-20</ele>
        <time>2021-12-05T10:09:30.000Z</time>
      </trkpt>
      <trkpt lat="47.29594" lon="-2.26497">
        <ele>-19.60000038147</ele>
        <time>2021-12-05T10:09:31.000Z</time>
      </trkpt>
      <trkpt lat="47.29592" lon="-2.26499">
        <ele>-19.200000762939</ele>
        <time>2021-12-05T10:09:32.000Z</time>
      </trkpt>
      <trkpt lat="47.29591" lon="-2.265">
        <ele>-19.200000762939</ele>
        <time>2021-12-05T10:09:33.000Z</time>
      </trkpt>
      <trkpt lat="47.29586" lon="-2.26505">
        <ele>-19.200000762939</ele>
        <time>2021-12-05T10:09:36.000Z</time>
      </trkpt>
      <trkpt lat="47.29574" lon="-2.26514">
        <ele>-19.200000762939</ele>
        <time>2021-12-05T10:09:42.000Z</time>
      </trkpt>
      <trkpt lat="47.29572" lon="-2.26516">
        <ele>-18.60000038147</ele>
        <time>2021-12-05T10:09:43.000Z</time>
      </trkpt>
      <trkpt lat="47.29569" lon="-2.26518">
        <ele>-18.200000762939</ele>
        <time>2021-12-05T10:09:44.000Z</time>
      </trkpt>
      <trkpt lat="47.29567" lon="-2.26519">
        <ele>-17.799999237061</ele>
        <time>2021-12-05T10:09:45.000Z</time>
      </trkpt>
      <trkpt lat="47.29565" lon="-2.26521">
        <ele>-17.39999961853</ele>
        <time>2021-12-05T10:09:46.000Z</time>
      </trkpt>
      <trkpt lat="47.29562" lon="-2.26522">
        <ele>-17</ele>
        <time>2021-12-05T10:09:47.000Z</time>
      </trkpt>
      <trkpt lat="47.2956" lon="-2.26523">
        <ele>-17</ele>
        <time>2021-12-05T10:09:48.000Z</time>
      </trkpt>
      <trkpt lat="47.29544" lon="-2.26537">
        <ele>-17</ele>
        <time>2021-12-05T10:09:55.000Z</time>
      </trkpt>
      <trkpt lat="47.2953" lon="-2.26552">
        <ele>-17</ele>
        <time>2021-12-05T10:10:02.000Z</time>
      </trkpt>
      <trkpt lat="47.29519" lon="-2.26565">
        <ele>-17</ele>
        <time>2021-12-05T10:10:08.000Z</time>
      </trkpt>
      <trkpt lat="47.29517" lon="-2.26568">
        <ele>-16.60000038147</ele>
        <time>2021-12-05T10:10:09.000Z</time>
      </trkpt>
      <trkpt lat="47.29515" lon="-2.2657">
        <ele>-16.200000762939</ele>
        <time>2021-12-05T10:10:10.000Z</time>
      </trkpt>
      <trkpt lat="47.29513" lon="-2.26572">
        <ele>-15.800000190735</ele>
        <time>2021-12-05T10:10:11.000Z</time>
      </trkpt>
      <trkpt lat="47.29511" lon="-2.26574">
        <ele>-15.39999961853</ele>
        <time>2021-12-05T10:10:12.000Z</time>
      </trkpt>
      <trkpt lat="47.29509" lon="-2.26576">
        <ele>-15</ele>
        <time>2021-12-05T10:10:13.000Z</time>
      </trkpt>
      <trkpt lat="47.29503" lon="-2.26581">
        <ele>-15</ele>
        <time>2021-12-05T10:10:16.000Z</time>
      </trkpt>
      <trkpt lat="47.29491" lon="-2.26589">
        <ele>-15</ele>
        <time>2021-12-05T10:10:21.000Z</time>
      </trkpt>
      <trkpt lat="47.29488" lon="-2.26591">
        <ele>-15</ele>
        <time>2021-12-05T10:10:22.000Z</time>
      </trkpt>
      <trkpt lat="47.29469" lon="-2.26601">
        <ele>-15</ele>
        <time>2021-12-05T10:10:29.000Z</time>
      </trkpt>
      <trkpt lat="47.29449" lon="-2.2661">
        <ele>-15</ele>
        <time>2021-12-05T10:10:35.000Z</time>
      </trkpt>
      <trkpt lat="47.29428" lon="-2.26617">
        <ele>-15</ele>
        <time>2021-12-05T10:10:41.000Z</time>
      </trkpt>
      <trkpt lat="47.29402" lon="-2.26627">
        <ele>-15</ele>
        <time>2021-12-05T10:10:48.000Z</time>
      </trkpt>
      <trkpt lat="47.29387" lon="-2.26634">
        <ele>-15</ele>
        <time>2021-12-05T10:10:52.000Z</time>
      </trkpt>
      <trkpt lat="47.29379" lon="-2.26639">
        <ele>-15</ele>
        <time>2021-12-05T10:10:54.000Z</time>
      </trkpt>
      <trkpt lat="47.29354" lon="-2.26648">
        <ele>-15</ele>
        <time>2021-12-05T10:11:00.000Z</time>
      </trkpt>
      <trkpt lat="47.29331" lon="-2.26656">
        <ele>-15</ele>
        <time>2021-12-05T10:11:06.000Z</time>
      </trkpt>
      <trkpt lat="47.29307" lon="-2.26671">
        <ele>-15</ele>
        <time>2021-12-05T10:11:13.000Z</time>
      </trkpt>
      <trkpt lat="47.29291" lon="-2.26678">
        <ele>-15</ele>
        <time>2021-12-05T10:11:18.000Z</time>
      </trkpt>
      <trkpt lat="47.29264" lon="-2.26681">
        <ele>-15</ele>
        <time>2021-12-05T10:11:25.000Z</time>
      </trkpt>
      <trkpt lat="47.29235" lon="-2.26695">
        <ele>-15</ele>
        <time>2021-12-05T10:11:33.000Z</time>
      </trkpt>
      <trkpt lat="47.29217" lon="-2.26715">
        <ele>-15</ele>
        <time>2021-12-05T10:11:39.000Z</time>
      </trkpt>
      <trkpt lat="47.29207" lon="-2.26721">
        <ele>-15</ele>
        <time>2021-12-05T10:11:44.000Z</time>
      </trkpt>
      <trkpt lat="47.29206" lon="-2.26721">
        <ele>-15</ele>
        <time>2021-12-05T10:11:46.000Z</time>
      </trkpt>
      <trkpt lat="47.29205" lon="-2.26725">
        <ele>-15</ele>
        <time>2021-12-05T10:11:48.000Z</time>
      </trkpt>
      <trkpt lat="47.29205" lon="-2.26728">
        <ele>-15</ele>
        <time>2021-12-05T10:11:49.000Z</time>
      </trkpt>
      <trkpt lat="47.29207" lon="-2.26739">
        <ele>-15</ele>
        <time>2021-12-05T10:11:52.000Z</time>
      </trkpt>
      <trkpt lat="47.29209" lon="-2.26744">
        <ele>-15</ele>
        <time>2021-12-05T10:11:53.000Z</time>
      </trkpt>
      <trkpt lat="47.29218" lon="-2.26784">
        <ele>-15</ele>
        <time>2021-12-05T10:12:00.000Z</time>
      </trkpt>
      <trkpt lat="47.29228" lon="-2.26844">
        <ele>-15</ele>
        <time>2021-12-05T10:12:09.000Z</time>
      </trkpt>
      <trkpt lat="47.29235" lon="-2.26892">
        <ele>-15</ele>
        <time>2021-12-05T10:12:16.000Z</time>
      </trkpt>
      <trkpt lat="47.29238" lon="-2.26912">
        <ele>-15</ele>
        <time>2021-12-05T10:12:19.000Z</time>
      </trkpt>
      <trkpt lat="47.29236" lon="-2.26924">
        <ele>-15</ele>
        <time>2021-12-05T10:12:21.000Z</time>
      </trkpt>
      <trkpt lat="47.29231" lon="-2.26937">
        <ele>-15</ele>
        <time>2021-12-05T10:12:23.000Z</time>
      </trkpt>
      <trkpt lat="47.29225" lon="-2.2695">
        <ele>-15</ele>
        <time>2021-12-05T10:12:26.000Z</time>
      </trkpt>
      <trkpt lat="47.29224" lon="-2.26971">
        <ele>-15</ele>
        <time>2021-12-05T10:12:30.000Z</time>
      </trkpt>
      <trkpt lat="47.29222" lon="-2.27017">
        <ele>-15</ele>
        <time>2021-12-05T10:12:38.000Z</time>
      </trkpt>
      <trkpt lat="47.29227" lon="-2.27067">
        <ele>-15</ele>
        <time>2021-12-05T10:12:45.000Z</time>
      </trkpt>
      <trkpt lat="47.2923" lon="-2.27098">
        <ele>-15</ele>
        <time>2021-12-05T10:12:50.000Z</time>
      </trkpt>
      <trkpt lat="47.29225" lon="-2.27123">
        <ele>-15</ele>
        <time>2021-12-05T10:12:55.000Z</time>
      </trkpt>
      <trkpt lat="47.2922" lon="-2.27152">
        <ele>-15</ele>
        <time>2021-12-05T10:13:00.000Z</time>
      </trkpt>
      <trkpt lat="47.29217" lon="-2.27159">
        <ele>-15</ele>
        <time>2021-12-05T10:13:01.000Z</time>
      </trkpt>
      <trkpt lat="47.29211" lon="-2.27167">
        <ele>-15</ele>
        <time>2021-12-05T10:13:03.000Z</time>
      </trkpt>
      <trkpt lat="47.29191" lon="-2.27179">
        <ele>-15</ele>
        <time>2021-12-05T10:13:08.000Z</time>
      </trkpt>
      <trkpt lat="47.29185" lon="-2.27182">
        <ele>-15</ele>
        <time>2021-12-05T10:13:09.000Z</time>
      </trkpt>
      <trkpt lat="47.29173" lon="-2.27185">
        <ele>-15</ele>
        <time>2021-12-05T10:13:13.000Z</time>
      </trkpt>
      <trkpt lat="47.29167" lon="-2.27187">
        <ele>-15</ele>
        <time>2021-12-05T10:13:17.000Z</time>
      </trkpt>
      <trkpt lat="47.29166" lon="-2.27187">
        <ele>-15</ele>
        <time>2021-12-05T10:13:18.000Z</time>
      </trkpt>
      <trkpt lat="47.29165" lon="-2.27186">
        <ele>-15</ele>
        <time>2021-12-05T10:13:20.000Z</time>
      </trkpt>
      <trkpt lat="47.2916" lon="-2.27187">
        <ele>-15</ele>
        <time>2021-12-05T10:13:25.000Z</time>
      </trkpt>
      <trkpt lat="47.29158" lon="-2.27188">
        <ele>-15</ele>
        <time>2021-12-05T10:13:26.000Z</time>
      </trkpt>
      <trkpt lat="47.29155" lon="-2.2719">
        <ele>-15</ele>
        <time>2021-12-05T10:13:29.000Z</time>
      </trkpt>
      <trkpt lat="47.2915" lon="-2.27191">
        <ele>-15</ele>
        <time>2021-12-05T10:13:32.000Z</time>
      </trkpt>
      <trkpt lat="47.29144" lon="-2.27192">
        <ele>-15</ele>
        <time>2021-12-05T10:13:34.000Z</time>
      </trkpt>
      <trkpt lat="47.29134" lon="-2.27198">
        <ele>-15</ele>
        <time>2021-12-05T10:13:38.000Z</time>
      </trkpt>
      <trkpt lat="47.2913" lon="-2.27206">
        <ele>-15</ele>
        <time>2021-12-05T10:13:40.000Z</time>
      </trkpt>
      <trkpt lat="47.2913" lon="-2.27209">
        <ele>-15</ele>
        <time>2021-12-05T10:13:41.000Z</time>
      </trkpt>
      <trkpt lat="47.29126" lon="-2.27225">
        <ele>-15</ele>
        <time>2021-12-05T10:13:47.000Z</time>
      </trkpt>
      <trkpt lat="47.2912" lon="-2.27246">
        <ele>-15</ele>
        <time>2021-12-05T10:13:52.000Z</time>
      </trkpt>
      <trkpt lat="47.29116" lon="-2.27269">
        <ele>-15</ele>
        <time>2021-12-05T10:13:58.000Z</time>
      </trkpt>
      <trkpt lat="47.29111" lon="-2.27297">
        <ele>-15</ele>
        <time>2021-12-05T10:14:06.000Z</time>
      </trkpt>
      <trkpt lat="47.29106" lon="-2.27318">
        <ele>-15</ele>
        <time>2021-12-05T10:14:12.000Z</time>
      </trkpt>
      <trkpt lat="47.29101" lon="-2.27342">
        <ele>-15</ele>
        <time>2021-12-05T10:14:18.000Z</time>
      </trkpt>
      <trkpt lat="47.29098" lon="-2.27349">
        <ele>-15</ele>
        <time>2021-12-05T10:14:21.000Z</time>
      </trkpt>
      <trkpt lat="47.291" lon="-2.27363">
        <ele>-15</ele>
        <time>2021-12-05T10:15:16.000Z</time>
      </trkpt>
      <trkpt lat="47.29102" lon="-2.27383">
        <ele>-15</ele>
        <time>2021-12-05T10:15:21.000Z</time>
      </trkpt>
      <trkpt lat="47.29105" lon="-2.27394">
        <ele>-15</ele>
        <time>2021-12-05T10:15:23.000Z</time>
      </trkpt>
      <trkpt lat="47.29109" lon="-2.27421">
        <ele>-15</ele>
        <time>2021-12-05T10:15:28.000Z</time>
      </trkpt>
      <trkpt lat="47.29108" lon="-2.27445">
        <ele>-15</ele>
        <time>2021-12-05T10:15:33.000Z</time>
      </trkpt>
      <trkpt lat="47.29105" lon="-2.2748">
        <ele>-15</ele>
        <time>2021-12-05T10:15:40.000Z</time>
      </trkpt>
      <trkpt lat="47.29105" lon="-2.27512">
        <ele>-15</ele>
        <time>2021-12-05T10:15:47.000Z</time>
      </trkpt>
      <trkpt lat="47.29104" lon="-2.27519">
        <ele>-15</ele>
        <time>2021-12-05T10:15:49.000Z</time>
      </trkpt>
      <trkpt lat="47.291" lon="-2.27523">
        <ele>-15</ele>
        <time>2021-12-05T10:15:51.000Z</time>
      </trkpt>
      <trkpt lat="47.29093" lon="-2.27525">
        <ele>-15</ele>
        <time>2021-12-05T10:15:53.000Z</time>
      </trkpt>
      <trkpt lat="47.29085" lon="-2.27525">
        <ele>-15</ele>
        <time>2021-12-05T10:15:55.000Z</time>
      </trkpt>
      <trkpt lat="47.2908" lon="-2.27525">
        <ele>-15</ele>
        <time>2021-12-05T10:15:56.000Z</time>
      </trkpt>
      <trkpt lat="47.29052" lon="-2.27524">
        <ele>-15</ele>
        <time>2021-12-05T10:16:02.000Z</time>
      </trkpt>
      <trkpt lat="47.29019" lon="-2.27522">
        <ele>-15</ele>
        <time>2021-12-05T10:16:08.000Z</time>
      </trkpt>
      <trkpt lat="47.28974" lon="-2.27522">
        <ele>-15</ele>
        <time>2021-12-05T10:16:16.000Z</time>
      </trkpt>
      <trkpt lat="47.28932" lon="-2.27523">
        <ele>-15</ele>
        <time>2021-12-05T10:16:23.000Z</time>
      </trkpt>
      <trkpt lat="47.28895" lon="-2.27525">
        <ele>-15</ele>
        <time>2021-12-05T10:16:29.000Z</time>
      </trkpt>
      <trkpt lat="47.28863" lon="-2.27531">
        <ele>-15</ele>
        <time>2021-12-05T10:16:35.000Z</time>
      </trkpt>
      <trkpt lat="47.28827" lon="-2.27536">
        <ele>-15</ele>
        <time>2021-12-05T10:16:42.000Z</time>
      </trkpt>
      <trkpt lat="47.28794" lon="-2.27535">
        <ele>-15</ele>
        <time>2021-12-05T10:16:48.000Z</time>
      </trkpt>
      <trkpt lat="47.28788" lon="-2.27533">
        <ele>-15</ele>
        <time>2021-12-05T10:16:49.000Z</time>
      </trkpt>
      <trkpt lat="47.28759" lon="-2.27519">
        <ele>-15</ele>
        <time>2021-12-05T10:16:55.000Z</time>
      </trkpt>
      <trkpt lat="47.28727" lon="-2.27507">
        <ele>-15</ele>
        <time>2021-12-05T10:17:01.000Z</time>
      </trkpt>
      <trkpt lat="47.28722" lon="-2.27503">
        <ele>-15</ele>
        <time>2021-12-05T10:17:02.000Z</time>
      </trkpt>
      <trkpt lat="47.28707" lon="-2.27493">
        <ele>-14.199999809265</ele>
        <time>2021-12-05T10:17:05.000Z</time>
      </trkpt>
      <trkpt lat="47.28702" lon="-2.27489">
        <ele>-13.800000190735</ele>
        <time>2021-12-05T10:17:06.000Z</time>
      </trkpt>
      <trkpt lat="47.28698" lon="-2.27485">
        <ele>-13.39999961853</ele>
        <time>2021-12-05T10:17:07.000Z</time>
      </trkpt>
      <trkpt lat="47.28693" lon="-2.27481">
        <ele>-13</ele>
        <time>2021-12-05T10:17:08.000Z</time>
      </trkpt>
      <trkpt lat="47.28689" lon="-2.27476">
        <ele>-13</ele>
        <time>2021-12-05T10:17:09.000Z</time>
      </trkpt>
      <trkpt lat="47.28681" lon="-2.27467">
        <ele>-13</ele>
        <time>2021-12-05T10:17:11.000Z</time>
      </trkpt>
      <trkpt lat="47.28671" lon="-2.27452">
        <ele>-13</ele>
        <time>2021-12-05T10:17:14.000Z</time>
      </trkpt>
      <trkpt lat="47.28648" lon="-2.27419">
        <ele>-12.60000038147</ele>
        <time>2021-12-05T10:17:20.000Z</time>
      </trkpt>
      <trkpt lat="47.28645" lon="-2.27413">
        <ele>-12.199999809265</ele>
        <time>2021-12-05T10:17:21.000Z</time>
      </trkpt>
      <trkpt lat="47.28641" lon="-2.27407">
        <ele>-11.800000190735</ele>
        <time>2021-12-05T10:17:22.000Z</time>
      </trkpt>
      <trkpt lat="47.28638" lon="-2.27402">
        <ele>-11.39999961853</ele>
        <time>2021-12-05T10:17:23.000Z</time>
      </trkpt>
      <trkpt lat="47.28634" lon="-2.27396">
        <ele>-10.800000190735</ele>
        <time>2021-12-05T10:17:24.000Z</time>
      </trkpt>
      <trkpt lat="47.28625" lon="-2.27379">
        <ele>-10.800000190735</ele>
        <time>2021-12-05T10:17:27.000Z</time>
      </trkpt>
      <trkpt lat="47.28606" lon="-2.27348">
        <ele>-10.800000190735</ele>
        <time>2021-12-05T10:17:33.000Z</time>
      </trkpt>
      <trkpt lat="47.28601" lon="-2.27346">
        <ele>-10.800000190735</ele>
        <time>2021-12-05T10:17:34.000Z</time>
      </trkpt>
      <trkpt lat="47.28583" lon="-2.27353">
        <ele>-10.800000190735</ele>
        <time>2021-12-05T10:17:38.000Z</time>
      </trkpt>
      <trkpt lat="47.28579" lon="-2.27356">
        <ele>-10.800000190735</ele>
        <time>2021-12-05T10:17:39.000Z</time>
      </trkpt>
      <trkpt lat="47.28559" lon="-2.27366">
        <ele>-10.800000190735</ele>
        <time>2021-12-05T10:17:43.000Z</time>
      </trkpt>
      <trkpt lat="47.28554" lon="-2.27367">
        <ele>-10.800000190735</ele>
        <time>2021-12-05T10:17:44.000Z</time>
      </trkpt>
      <trkpt lat="47.28544" lon="-2.27368">
        <ele>-10.39999961853</ele>
        <time>2021-12-05T10:17:46.000Z</time>
      </trkpt>
      <trkpt lat="47.28539" lon="-2.27367">
        <ele>-10</ele>
        <time>2021-12-05T10:17:47.000Z</time>
      </trkpt>
      <trkpt lat="47.28534" lon="-2.27367">
        <ele>-9.6000003814697</ele>
        <time>2021-12-05T10:17:48.000Z</time>
      </trkpt>
      <trkpt lat="47.28529" lon="-2.27367">
        <ele>-9.1999998092651</ele>
        <time>2021-12-05T10:17:49.000Z</time>
      </trkpt>
      <trkpt lat="47.28524" lon="-2.27367">
        <ele>-8.8000001907349</ele>
        <time>2021-12-05T10:17:50.000Z</time>
      </trkpt>
      <trkpt lat="47.2851" lon="-2.27365">
        <ele>-8.8000001907349</ele>
        <time>2021-12-05T10:17:53.000Z</time>
      </trkpt>
      <trkpt lat="47.28497" lon="-2.27364">
        <ele>-8.8000001907349</ele>
        <time>2021-12-05T10:17:56.000Z</time>
      </trkpt>
      <trkpt lat="47.28488" lon="-2.27363">
        <ele>-8.8000001907349</ele>
        <time>2021-12-05T10:17:58.000Z</time>
      </trkpt>
      <trkpt lat="47.28479" lon="-2.27361">
        <ele>-8.3999996185303</ele>
        <time>2021-12-05T10:18:00.000Z</time>
      </trkpt>
      <trkpt lat="47.28475" lon="-2.2736">
        <ele>-8</ele>
        <time>2021-12-05T10:18:01.000Z</time>
      </trkpt>
      <trkpt lat="47.28471" lon="-2.27359">
        <ele>-7.5999999046326</ele>
        <time>2021-12-05T10:18:02.000Z</time>
      </trkpt>
      <trkpt lat="47.28467" lon="-2.27358">
        <ele>-7.1999998092651</ele>
        <time>2021-12-05T10:18:03.000Z</time>
      </trkpt>
      <trkpt lat="47.28462" lon="-2.27357">
        <ele>-6.8000001907349</ele>
        <time>2021-12-05T10:18:04.000Z</time>
      </trkpt>
      <trkpt lat="47.28443" lon="-2.27354">
        <ele>-6.8000001907349</ele>
        <time>2021-12-05T10:18:09.000Z</time>
      </trkpt>
      <trkpt lat="47.28438" lon="-2.27354">
        <ele>-6.8000001907349</ele>
        <time>2021-12-05T10:18:10.000Z</time>
      </trkpt>
      <trkpt lat="47.28402" lon="-2.27359">
        <ele>-6.8000001907349</ele>
        <time>2021-12-05T10:18:19.000Z</time>
      </trkpt>
      <trkpt lat="47.28387" lon="-2.27358">
        <ele>-6.8000001907349</ele>
        <time>2021-12-05T10:18:23.000Z</time>
      </trkpt>
      <trkpt lat="47.28384" lon="-2.2736">
        <ele>-6.8000001907349</ele>
        <time>2021-12-05T10:18:24.000Z</time>
      </trkpt>
      <trkpt lat="47.28382" lon="-2.27364">
        <ele>-6.4000000953674</ele>
        <time>2021-12-05T10:18:25.000Z</time>
      </trkpt>
      <trkpt lat="47.28382" lon="-2.27369">
        <ele>-6</ele>
        <time>2021-12-05T10:18:26.000Z</time>
      </trkpt>
      <trkpt lat="47.28382" lon="-2.27374">
        <ele>-5.5999999046326</ele>
        <time>2021-12-05T10:18:27.000Z</time>
      </trkpt>
      <trkpt lat="47.28381" lon="-2.27378">
        <ele>-5.1999998092651</ele>
        <time>2021-12-05T10:18:28.000Z</time>
      </trkpt>
      <trkpt lat="47.28381" lon="-2.27381">
        <ele>-4.8000001907349</ele>
        <time>2021-12-05T10:18:29.000Z</time>
      </trkpt>
      <trkpt lat="47.28379" lon="-2.27389">
        <ele>-4.4000000953674</ele>
        <time>2021-12-05T10:18:31.000Z</time>
      </trkpt>
      <trkpt lat="47.28378" lon="-2.27393">
        <ele>-4</ele>
        <time>2021-12-05T10:18:32.000Z</time>
      </trkpt>
      <trkpt lat="47.28377" lon="-2.27397">
        <ele>-3.5999999046326</ele>
        <time>2021-12-05T10:18:33.000Z</time>
      </trkpt>
      <trkpt lat="47.28376" lon="-2.274">
        <ele>-3.2000000476837</ele>
        <time>2021-12-05T10:18:34.000Z</time>
      </trkpt>
      <trkpt lat="47.28375" lon="-2.27403">
        <ele>-2.7999999523163</ele>
        <time>2021-12-05T10:18:35.000Z</time>
      </trkpt>
      <trkpt lat="47.28372" lon="-2.27415">
        <ele>-2.4000000953674</ele>
        <time>2021-12-05T10:18:38.000Z</time>
      </trkpt>
      <trkpt lat="47.28372" lon="-2.2742">
        <ele>-2</ele>
        <time>2021-12-05T10:18:39.000Z</time>
      </trkpt>
      <trkpt lat="47.28371" lon="-2.27424">
        <ele>-1.6000000238419</ele>
        <time>2021-12-05T10:18:40.000Z</time>
      </trkpt>
      <trkpt lat="47.28371" lon="-2.27429">
        <ele>-1.2000000476837</ele>
        <time>2021-12-05T10:18:41.000Z</time>
      </trkpt>
      <trkpt lat="47.2837" lon="-2.27434">
        <ele>-0.60000002384186</ele>
        <time>2021-12-05T10:18:42.000Z</time>
      </trkpt>
      <trkpt lat="47.28366" lon="-2.27459">
        <ele>-0.60000002384186</ele>
        <time>2021-12-05T10:18:47.000Z</time>
      </trkpt>
      <trkpt lat="47.28362" lon="-2.27494">
        <ele>-0.60000002384186</ele>
        <time>2021-12-05T10:18:54.000Z</time>
      </trkpt>
      <trkpt lat="47.28362" lon="-2.27499">
        <ele>-0.20000000298023</ele>
        <time>2021-12-05T10:18:55.000Z</time>
      </trkpt>
      <trkpt lat="47.28361" lon="-2.27504">
        <ele>0.20000000298023</ele>
        <time>2021-12-05T10:18:56.000Z</time>
      </trkpt>
      <trkpt lat="47.28361" lon="-2.27509">
        <ele>0.60000002384186</ele>
        <time>2021-12-05T10:18:57.000Z</time>
      </trkpt>
      <trkpt lat="47.2836" lon="-2.27514">
        <ele>1</ele>
        <time>2021-12-05T10:18:58.000Z</time>
      </trkpt>
      <trkpt lat="47.2836" lon="-2.27519">
        <ele>1.3999999761581</ele>
        <time>2021-12-05T10:18:59.000Z</time>
      </trkpt>
      <trkpt lat="47.28359" lon="-2.2753">
        <ele>1.3999999761581</ele>
        <time>2021-12-05T10:19:01.000Z</time>
      </trkpt>
      <trkpt lat="47.28353" lon="-2.27569">
        <ele>1.3999999761581</ele>
        <time>2021-12-05T10:19:08.000Z</time>
      </trkpt>
      <trkpt lat="47.28351" lon="-2.27605">
        <ele>1.3999999761581</ele>
        <time>2021-12-05T10:19:14.000Z</time>
      </trkpt>
      <trkpt lat="47.28349" lon="-2.2764">
        <ele>1.3999999761581</ele>
        <time>2021-12-05T10:19:20.000Z</time>
      </trkpt>
      <trkpt lat="47.28344" lon="-2.27679">
        <ele>1</ele>
        <time>2021-12-05T10:19:26.000Z</time>
      </trkpt>
      <trkpt lat="47.28343" lon="-2.27686">
        <ele>0.60000002384186</ele>
        <time>2021-12-05T10:19:27.000Z</time>
      </trkpt>
      <trkpt lat="47.28342" lon="-2.27694">
        <ele>0.20000000298023</ele>
        <time>2021-12-05T10:19:28.000Z</time>
      </trkpt>
      <trkpt lat="47.28342" lon="-2.27701">
        <ele>-0.20000000298023</ele>
        <time>2021-12-05T10:19:29.000Z</time>
      </trkpt>
      <trkpt lat="47.28341" lon="-2.27708">
        <ele>-0.60000002384186</ele>
        <time>2021-12-05T10:19:30.000Z</time>
      </trkpt>
      <trkpt lat="47.28341" lon="-2.27716">
        <ele>-0.60000002384186</ele>
        <time>2021-12-05T10:19:31.000Z</time>
      </trkpt>
      <trkpt lat="47.28338" lon="-2.2776">
        <ele>-1</ele>
        <time>2021-12-05T10:19:37.000Z</time>
      </trkpt>
      <trkpt lat="47.28337" lon="-2.27766">
        <ele>-1.3999999761581</ele>
        <time>2021-12-05T10:19:38.000Z</time>
      </trkpt>
      <trkpt lat="47.28336" lon="-2.27773">
        <ele>-1.7999999523163</ele>
        <time>2021-12-05T10:19:39.000Z</time>
      </trkpt>
      <trkpt lat="47.28336" lon="-2.27779">
        <ele>-2.4000000953674</ele>
        <time>2021-12-05T10:19:40.000Z</time>
      </trkpt>
      <trkpt lat="47.28336" lon="-2.27785">
        <ele>-2.7999999523163</ele>
        <time>2021-12-05T10:19:41.000Z</time>
      </trkpt>
      <trkpt lat="47.28335" lon="-2.27792">
        <ele>-2.7999999523163</ele>
        <time>2021-12-05T10:19:42.000Z</time>
      </trkpt>
      <trkpt lat="47.2833" lon="-2.27836">
        <ele>-2.4000000953674</ele>
        <time>2021-12-05T10:19:49.000Z</time>
      </trkpt>
      <trkpt lat="47.2833" lon="-2.27842">
        <ele>-2</ele>
        <time>2021-12-05T10:19:50.000Z</time>
      </trkpt>
      <trkpt lat="47.28329" lon="-2.27848">
        <ele>-1.6000000238419</ele>
        <time>2021-12-05T10:19:51.000Z</time>
      </trkpt>
      <trkpt lat="47.28329" lon="-2.27855">
        <ele>-1.2000000476837</ele>
        <time>2021-12-05T10:19:52.000Z</time>
      </trkpt>
      <trkpt lat="47.28328" lon="-2.27861">
        <ele>-0.80000001192093</ele>
        <time>2021-12-05T10:19:53.000Z</time>
      </trkpt>
      <trkpt lat="47.28327" lon="-2.27888">
        <ele>-0.80000001192093</ele>
        <time>2021-12-05T10:19:57.000Z</time>
      </trkpt>
      <trkpt lat="47.28324" lon="-2.27936">
        <ele>-0.80000001192093</ele>
        <time>2021-12-05T10:20:04.000Z</time>
      </trkpt>
      <trkpt lat="47.28324" lon="-2.27966">
        <ele>-0.80000001192093</ele>
        <time>2021-12-05T10:20:08.000Z</time>
      </trkpt>
      <trkpt lat="47.28321" lon="-2.27977">
        <ele>-0.80000001192093</ele>
        <time>2021-12-05T10:20:10.000Z</time>
      </trkpt>
      <trkpt lat="47.2832" lon="-2.27983">
        <ele>-0.80000001192093</ele>
        <time>2021-12-05T10:20:11.000Z</time>
      </trkpt>
      <trkpt lat="47.28322" lon="-2.27996">
        <ele>-0.80000001192093</ele>
        <time>2021-12-05T10:20:13.000Z</time>
      </trkpt>
      <trkpt lat="47.28325" lon="-2.28018">
        <ele>-1.2000000476837</ele>
        <time>2021-12-05T10:20:16.000Z</time>
      </trkpt>
      <trkpt lat="47.28325" lon="-2.28026">
        <ele>-1.6000000238419</ele>
        <time>2021-12-05T10:20:17.000Z</time>
      </trkpt>
      <trkpt lat="47.28325" lon="-2.28035">
        <ele>-2.2000000476837</ele>
        <time>2021-12-05T10:20:18.000Z</time>
      </trkpt>
      <trkpt lat="47.28326" lon="-2.28044">
        <ele>-2.5999999046326</ele>
        <time>2021-12-05T10:20:19.000Z</time>
      </trkpt>
      <trkpt lat="47.28326" lon="-2.28054">
        <ele>-3.2000000476837</ele>
        <time>2021-12-05T10:20:20.000Z</time>
      </trkpt>
      <trkpt lat="47.28327" lon="-2.28064">
        <ele>-3.5999999046326</ele>
        <time>2021-12-05T10:20:21.000Z</time>
      </trkpt>
      <trkpt lat="47.28327" lon="-2.28074">
        <ele>-4.1999998092651</ele>
        <time>2021-12-05T10:20:22.000Z</time>
      </trkpt>
      <trkpt lat="47.28327" lon="-2.28083">
        <ele>-5.1999998092651</ele>
        <time>2021-12-05T10:20:23.000Z</time>
      </trkpt>
      <trkpt lat="47.28327" lon="-2.28093">
        <ele>-5.5999999046326</ele>
        <time>2021-12-05T10:20:24.000Z</time>
      </trkpt>
      <trkpt lat="47.28327" lon="-2.28102">
        <ele>-6</ele>
        <time>2021-12-05T10:20:25.000Z</time>
      </trkpt>
      <trkpt lat="47.28327" lon="-2.2811">
        <ele>-6.4000000953674</ele>
        <time>2021-12-05T10:20:26.000Z</time>
      </trkpt>
      <trkpt lat="47.28327" lon="-2.28118">
        <ele>-6.8000001907349</ele>
        <time>2021-12-05T10:20:27.000Z</time>
      </trkpt>
      <trkpt lat="47.28327" lon="-2.28126">
        <ele>-7.1999998092651</ele>
        <time>2021-12-05T10:20:28.000Z</time>
      </trkpt>
      <trkpt lat="47.28326" lon="-2.28155">
        <ele>-7.1999998092651</ele>
        <time>2021-12-05T10:20:32.000Z</time>
      </trkpt>
      <trkpt lat="47.28325" lon="-2.28167">
        <ele>-6.8000001907349</ele>
        <time>2021-12-05T10:20:34.000Z</time>
      </trkpt>
      <trkpt lat="47.28325" lon="-2.28173">
        <ele>-6.4000000953674</ele>
        <time>2021-12-05T10:20:35.000Z</time>
      </trkpt>
      <trkpt lat="47.28325" lon="-2.28179">
        <ele>-6</ele>
        <time>2021-12-05T10:20:36.000Z</time>
      </trkpt>
      <trkpt lat="47.28325" lon="-2.28185">
        <ele>-5.5999999046326</ele>
        <time>2021-12-05T10:20:37.000Z</time>
      </trkpt>
      <trkpt lat="47.28325" lon="-2.28191">
        <ele>-5.1999998092651</ele>
        <time>2021-12-05T10:20:38.000Z</time>
      </trkpt>
      <trkpt lat="47.28325" lon="-2.28216">
        <ele>-4.8000001907349</ele>
        <time>2021-12-05T10:20:42.000Z</time>
      </trkpt>
      <trkpt lat="47.28325" lon="-2.28222">
        <ele>-4.4000000953674</ele>
        <time>2021-12-05T10:20:43.000Z</time>
      </trkpt>
      <trkpt lat="47.28325" lon="-2.28229">
        <ele>-3.7999999523163</ele>
        <time>2021-12-05T10:20:44.000Z</time>
      </trkpt>
      <trkpt lat="47.28325" lon="-2.28235">
        <ele>-3.4000000953674</ele>
        <time>2021-12-05T10:20:45.000Z</time>
      </trkpt>
      <trkpt lat="47.28325" lon="-2.28241">
        <ele>-3</ele>
        <time>2021-12-05T10:20:46.000Z</time>
      </trkpt>
      <trkpt lat="47.28324" lon="-2.28264">
        <ele>-3</ele>
        <time>2021-12-05T10:20:50.000Z</time>
      </trkpt>
      <trkpt lat="47.28324" lon="-2.28277">
        <ele>-2.5999999046326</ele>
        <time>2021-12-05T10:20:53.000Z</time>
      </trkpt>
      <trkpt lat="47.28324" lon="-2.28281">
        <ele>-2.2000000476837</ele>
        <time>2021-12-05T10:20:54.000Z</time>
      </trkpt>
      <trkpt lat="47.28324" lon="-2.28285">
        <ele>-1.7999999523163</ele>
        <time>2021-12-05T10:20:55.000Z</time>
      </trkpt>
      <trkpt lat="47.28324" lon="-2.28289">
        <ele>-1.3999999761581</ele>
        <time>2021-12-05T10:20:56.000Z</time>
      </trkpt>
      <trkpt lat="47.28323" lon="-2.28292">
        <ele>-0.80000001192093</ele>
        <time>2021-12-05T10:20:57.000Z</time>
      </trkpt>
      <trkpt lat="47.28322" lon="-2.28295">
        <ele>-0.80000001192093</ele>
        <time>2021-12-05T10:20:58.000Z</time>
      </trkpt>
      <trkpt lat="47.28321" lon="-2.28299">
        <ele>-0.80000001192093</ele>
        <time>2021-12-05T10:21:00.000Z</time>
      </trkpt>
      <trkpt lat="47.28323" lon="-2.28311">
        <ele>-0.80000001192093</ele>
        <time>2021-12-05T10:21:05.000Z</time>
      </trkpt>
      <trkpt lat="47.28324" lon="-2.28313">
        <ele>-0.80000001192093</ele>
        <time>2021-12-05T10:21:06.000Z</time>
      </trkpt>
      <trkpt lat="47.28325" lon="-2.28334">
        <ele>-0.80000001192093</ele>
        <time>2021-12-05T10:21:14.000Z</time>
      </trkpt>
      <trkpt lat="47.28325" lon="-2.28352">
        <ele>-0.80000001192093</ele>
        <time>2021-12-05T10:21:20.000Z</time>
      </trkpt>
      <trkpt lat="47.28325" lon="-2.28354">
        <ele>-0.40000000596046</ele>
        <time>2021-12-05T10:21:21.000Z</time>
      </trkpt>
      <trkpt lat="47.28324" lon="-2.28356">
        <ele>31.2</ele>
        <time>2021-12-05T10:21:22.000Z</time>
      </trkpt>
      <trkpt lat="47.28324" lon="-2.28359">
        <ele>0.40000000596046</ele>
        <time>2021-12-05T10:21:23.000Z</time>
      </trkpt>
      <trkpt lat="47.28324" lon="-2.28362">
        <ele>0.80000001192093</ele>
        <time>2021-12-05T10:21:24.000Z</time>
      </trkpt>
      <trkpt lat="47.28324" lon="-2.28365">
        <ele>1.2000000476837</ele>
        <time>2021-12-05T10:21:25.000Z</time>
      </trkpt>
      <trkpt lat="47.28324" lon="-2.28369">
        <ele>1.2000000476837</ele>
        <time>2021-12-05T10:21:26.000Z</time>
      </trkpt>
      <trkpt lat="47.28319" lon="-2.28398">
        <ele>1.2000000476837</ele>
        <time>2021-12-05T10:21:32.000Z</time>
      </trkpt>
      <trkpt lat="47.28313" lon="-2.2842">
        <ele>1.2000000476837</ele>
        <time>2021-12-05T10:21:36.000Z</time>
      </trkpt>
      <trkpt lat="47.28309" lon="-2.28433">
        <ele>1.2000000476837</ele>
        <time>2021-12-05T10:21:38.000Z</time>
      </trkpt>
      <trkpt lat="47.28298" lon="-2.28481">
        <ele>1.2000000476837</ele>
        <time>2021-12-05T10:21:45.000Z</time>
      </trkpt>
      <trkpt lat="47.28293" lon="-2.28518">
        <ele>0.80000001192093</ele>
        <time>2021-12-05T10:21:50.000Z</time>
      </trkpt>
      <trkpt lat="47.28291" lon="-2.28525">
        <ele>0.40000000596046</ele>
        <time>2021-12-05T10:21:51.000Z</time>
      </trkpt>
      <trkpt lat="47.2829" lon="-2.28533">
        <ele>30.4</ele>
        <time>2021-12-05T10:21:52.000Z</time>
      </trkpt>
      <trkpt lat="47.28289" lon="-2.28539">
        <ele>-0.40000000596046</ele>
        <time>2021-12-05T10:21:53.000Z</time>
      </trkpt>
      <trkpt lat="47.28288" lon="-2.28546">
        <ele>-0.80000001192093</ele>
        <time>2021-12-05T10:21:54.000Z</time>
      </trkpt>
      <trkpt lat="47.28279" lon="-2.28589">
        <ele>-0.80000001192093</ele>
        <time>2021-12-05T10:22:00.000Z</time>
      </trkpt>
      <trkpt lat="47.28266" lon="-2.2865">
        <ele>-0.80000001192093</ele>
        <time>2021-12-05T10:22:09.000Z</time>
      </trkpt>
      <trkpt lat="47.28256" lon="-2.28701">
        <ele>-0.80000001192093</ele>
        <time>2021-12-05T10:22:16.000Z</time>
      </trkpt>
      <trkpt lat="47.28243" lon="-2.28774">
        <ele>-0.80000001192093</ele>
        <time>2021-12-05T10:22:25.000Z</time>
      </trkpt>
      <trkpt lat="47.28235" lon="-2.28829">
        <ele>-0.80000001192093</ele>
        <time>2021-12-05T10:22:32.000Z</time>
      </trkpt>
      <trkpt lat="47.28228" lon="-2.28857">
        <ele>-0.80000001192093</ele>
        <time>2021-12-05T10:22:36.000Z</time>
      </trkpt>
      <trkpt lat="47.28221" lon="-2.28867">
        <ele>-0.80000001192093</ele>
        <time>2021-12-05T10:22:38.000Z</time>
      </trkpt>
      <trkpt lat="47.28208" lon="-2.28869">
        <ele>-0.80000001192093</ele>
        <time>2021-12-05T10:22:41.000Z</time>
      </trkpt>
      <trkpt lat="47.28191" lon="-2.28856">
        <ele>-0.80000001192093</ele>
        <time>2021-12-05T10:22:45.000Z</time>
      </trkpt>
      <trkpt lat="47.28181" lon="-2.28847">
        <ele>-0.80000001192093</ele>
        <time>2021-12-05T10:22:49.000Z</time>
      </trkpt>
      <trkpt lat="47.28176" lon="-2.28845">
        <ele>-0.80000001192093</ele>
        <time>2021-12-05T10:22:53.000Z</time>
      </trkpt>
      <trkpt lat="47.28175" lon="-2.28845">
        <ele>-0.80000001192093</ele>
        <time>2021-12-05T10:24:09.000Z</time>
      </trkpt>
      <trkpt lat="47.2817" lon="-2.28839">
        <ele>-0.80000001192093</ele>
        <time>2021-12-05T10:24:12.000Z</time>
      </trkpt>
      <trkpt lat="47.28154" lon="-2.28825">
        <ele>-1.3999999761581</ele>
        <time>2021-12-05T10:24:18.000Z</time>
      </trkpt>
      <trkpt lat="47.2815" lon="-2.28823">
        <ele>-1.7999999523163</ele>
        <time>2021-12-05T10:24:19.000Z</time>
      </trkpt>
      <trkpt lat="47.28146" lon="-2.2882">
        <ele>-2.2000000476837</ele>
        <time>2021-12-05T10:24:20.000Z</time>
      </trkpt>
      <trkpt lat="47.28143" lon="-2.28817">
        <ele>-2.5999999046326</ele>
        <time>2021-12-05T10:24:21.000Z</time>
      </trkpt>
      <trkpt lat="47.28139" lon="-2.28813">
        <ele>-3</ele>
        <time>2021-12-05T10:24:22.000Z</time>
      </trkpt>
      <trkpt lat="47.28131" lon="-2.28806">
        <ele>-3</ele>
        <time>2021-12-05T10:24:24.000Z</time>
      </trkpt>
      <trkpt lat="47.28102" lon="-2.28787">
        <ele>-3</ele>
        <time>2021-12-05T10:24:30.000Z</time>
      </trkpt>
      <trkpt lat="47.28092" lon="-2.28781">
        <ele>-3.4000000953674</ele>
        <time>2021-12-05T10:24:32.000Z</time>
      </trkpt>
      <trkpt lat="47.28087" lon="-2.28779">
        <ele>-3.7999999523163</ele>
        <time>2021-12-05T10:24:33.000Z</time>
      </trkpt>
      <trkpt lat="47.28082" lon="-2.28776">
        <ele>-4.1999998092651</ele>
        <time>2021-12-05T10:24:34.000Z</time>
      </trkpt>
      <trkpt lat="47.28078" lon="-2.28773">
        <ele>-4.5999999046326</ele>
        <time>2021-12-05T10:24:35.000Z</time>
      </trkpt>
      <trkpt lat="47.28074" lon="-2.28771">
        <ele>-5</ele>
        <time>2021-12-05T10:24:36.000Z</time>
      </trkpt>
      <trkpt lat="47.2807" lon="-2.28769">
        <ele>-5</ele>
        <time>2021-12-05T10:24:37.000Z</time>
      </trkpt>
      <trkpt lat="47.28042" lon="-2.28758">
        <ele>-5</ele>
        <time>2021-12-05T10:24:44.000Z</time>
      </trkpt>
      <trkpt lat="47.28014" lon="-2.28754">
        <ele>-5</ele>
        <time>2021-12-05T10:24:50.000Z</time>
      </trkpt>
      <trkpt lat="47.27975" lon="-2.28747">
        <ele>-5</ele>
        <time>2021-12-05T10:24:58.000Z</time>
      </trkpt>
      <trkpt lat="47.27949" lon="-2.28748">
        <ele>-5</ele>
        <time>2021-12-05T10:25:04.000Z</time>
      </trkpt>
      <trkpt lat="47.27921" lon="-2.28758">
        <ele>-5</ele>
        <time>2021-12-05T10:25:11.000Z</time>
      </trkpt>
      <trkpt lat="47.27896" lon="-2.28766">
        <ele>-5</ele>
        <time>2021-12-05T10:25:18.000Z</time>
      </trkpt>
      <trkpt lat="47.27876" lon="-2.2878">
        <ele>-5</ele>
        <time>2021-12-05T10:25:24.000Z</time>
      </trkpt>
      <trkpt lat="47.27867" lon="-2.28809">
        <ele>-5</ele>
        <time>2021-12-05T10:25:30.000Z</time>
      </trkpt>
      <trkpt lat="47.27864" lon="-2.28813">
        <ele>-5</ele>
        <time>2021-12-05T10:25:31.000Z</time>
      </trkpt>
      <trkpt lat="47.27856" lon="-2.28813">
        <ele>-5</ele>
        <time>2021-12-05T10:25:33.000Z</time>
      </trkpt>
      <trkpt lat="47.27848" lon="-2.28807">
        <ele>-5</ele>
        <time>2021-12-05T10:25:35.000Z</time>
      </trkpt>
      <trkpt lat="47.2784" lon="-2.28801">
        <ele>-5</ele>
        <time>2021-12-05T10:25:37.000Z</time>
      </trkpt>
      <trkpt lat="47.27826" lon="-2.28795">
        <ele>-5</ele>
        <time>2021-12-05T10:25:40.000Z</time>
      </trkpt>
      <trkpt lat="47.27817" lon="-2.28793">
        <ele>-5</ele>
        <time>2021-12-05T10:25:42.000Z</time>
      </trkpt>
      <trkpt lat="47.27812" lon="-2.28793">
        <ele>-5</ele>
        <time>2021-12-05T10:25:43.000Z</time>
      </trkpt>
      <trkpt lat="47.27786" lon="-2.28794">
        <ele>-5</ele>
        <time>2021-12-05T10:25:49.000Z</time>
      </trkpt>
      <trkpt lat="47.27769" lon="-2.28796">
        <ele>-5</ele>
        <time>2021-12-05T10:25:53.000Z</time>
      </trkpt>
      <trkpt lat="47.27758" lon="-2.28799">
        <ele>-5</ele>
        <time>2021-12-05T10:25:55.000Z</time>
      </trkpt>
      <trkpt lat="47.27749" lon="-2.28803">
        <ele>-5</ele>
        <time>2021-12-05T10:25:57.000Z</time>
      </trkpt>
      <trkpt lat="47.2773" lon="-2.28811">
        <ele>-5</ele>
        <time>2021-12-05T10:26:01.000Z</time>
      </trkpt>
      <trkpt lat="47.27706" lon="-2.2882">
        <ele>-5</ele>
        <time>2021-12-05T10:26:06.000Z</time>
      </trkpt>
      <trkpt lat="47.27702" lon="-2.28818">
        <ele>-5</ele>
        <time>2021-12-05T10:26:07.000Z</time>
      </trkpt>
      <trkpt lat="47.27693" lon="-2.28805">
        <ele>-5</ele>
        <time>2021-12-05T10:26:10.000Z</time>
      </trkpt>
      <trkpt lat="47.27691" lon="-2.288">
        <ele>-5</ele>
        <time>2021-12-05T10:26:11.000Z</time>
      </trkpt>
      <trkpt lat="47.27681" lon="-2.2878">
        <ele>-5</ele>
        <time>2021-12-05T10:26:15.000Z</time>
      </trkpt>
      <trkpt lat="47.27664" lon="-2.28767">
        <ele>-5</ele>
        <time>2021-12-05T10:26:20.000Z</time>
      </trkpt>
      <trkpt lat="47.27632" lon="-2.28756">
        <ele>-5</ele>
        <time>2021-12-05T10:26:27.000Z</time>
      </trkpt>
      <trkpt lat="47.27597" lon="-2.28743">
        <ele>-5</ele>
        <time>2021-12-05T10:26:33.000Z</time>
      </trkpt>
      <trkpt lat="47.27567" lon="-2.28726">
        <ele>-5</ele>
        <time>2021-12-05T10:26:39.000Z</time>
      </trkpt>
      <trkpt lat="47.27563" lon="-2.28724">
        <ele>-5</ele>
        <time>2021-12-05T10:26:40.000Z</time>
      </trkpt>
      <trkpt lat="47.27547" lon="-2.28715">
        <ele>-5</ele>
        <time>2021-12-05T10:26:44.000Z</time>
      </trkpt>
      <trkpt lat="47.27523" lon="-2.28691">
        <ele>-5</ele>
        <time>2021-12-05T10:26:50.000Z</time>
      </trkpt>
      <trkpt lat="47.27511" lon="-2.28674">
        <ele>-5</ele>
        <time>2021-12-05T10:26:53.000Z</time>
      </trkpt>
      <trkpt lat="47.27502" lon="-2.28656">
        <ele>-5</ele>
        <time>2021-12-05T10:26:56.000Z</time>
      </trkpt>
      <trkpt lat="47.27481" lon="-2.28603">
        <ele>-5</ele>
        <time>2021-12-05T10:27:03.000Z</time>
      </trkpt>
      <trkpt lat="47.27481" lon="-2.28574">
        <ele>-5</ele>
        <time>2021-12-05T10:27:07.000Z</time>
      </trkpt>
      <trkpt lat="47.27483" lon="-2.28567">
        <ele>-5</ele>
        <time>2021-12-05T10:27:08.000Z</time>
      </trkpt>
      <trkpt lat="47.27486" lon="-2.28553">
        <ele>-5</ele>
        <time>2021-12-05T10:27:10.000Z</time>
      </trkpt>
      <trkpt lat="47.27491" lon="-2.28539">
        <ele>-5</ele>
        <time>2021-12-05T10:27:12.000Z</time>
      </trkpt>
      <trkpt lat="47.27497" lon="-2.28527">
        <ele>-5</ele>
        <time>2021-12-05T10:27:14.000Z</time>
      </trkpt>
      <trkpt lat="47.27503" lon="-2.28515">
        <ele>-5</ele>
        <time>2021-12-05T10:27:16.000Z</time>
      </trkpt>
      <trkpt lat="47.27508" lon="-2.28504">
        <ele>-5</ele>
        <time>2021-12-05T10:27:18.000Z</time>
      </trkpt>
      <trkpt lat="47.2751" lon="-2.28498">
        <ele>-5</ele>
        <time>2021-12-05T10:27:19.000Z</time>
      </trkpt>
      <trkpt lat="47.27514" lon="-2.28486">
        <ele>-5</ele>
        <time>2021-12-05T10:27:21.000Z</time>
      </trkpt>
      <trkpt lat="47.27517" lon="-2.28473">
        <ele>-5</ele>
        <time>2021-12-05T10:27:23.000Z</time>
      </trkpt>
      <trkpt lat="47.27528" lon="-2.28446">
        <ele>-4.5999999046326</ele>
        <time>2021-12-05T10:27:27.000Z</time>
      </trkpt>
      <trkpt lat="47.27531" lon="-2.2844">
        <ele>-4.1999998092651</ele>
        <time>2021-12-05T10:27:28.000Z</time>
      </trkpt>
      <trkpt lat="47.27534" lon="-2.28434">
        <ele>-3.7999999523163</ele>
        <time>2021-12-05T10:27:29.000Z</time>
      </trkpt>
      <trkpt lat="47.27537" lon="-2.28428">
        <ele>-3.4000000953674</ele>
        <time>2021-12-05T10:27:30.000Z</time>
      </trkpt>
      <trkpt lat="47.2754" lon="-2.28422">
        <ele>-2.7999999523163</ele>
        <time>2021-12-05T10:27:31.000Z</time>
      </trkpt>
      <trkpt lat="47.27555" lon="-2.28399">
        <ele>-2.7999999523163</ele>
        <time>2021-12-05T10:27:35.000Z</time>
      </trkpt>
      <trkpt lat="47.27559" lon="-2.28394">
        <ele>-2.7999999523163</ele>
        <time>2021-12-05T10:27:36.000Z</time>
      </trkpt>
      <trkpt lat="47.27579" lon="-2.28372">
        <ele>-2.7999999523163</ele>
        <time>2021-12-05T10:27:41.000Z</time>
      </trkpt>
      <trkpt lat="47.27585" lon="-2.28363">
        <ele>-2.7999999523163</ele>
        <time>2021-12-05T10:27:43.000Z</time>
      </trkpt>
      <trkpt lat="47.27596" lon="-2.28348">
        <ele>-2.7999999523163</ele>
        <time>2021-12-05T10:27:46.000Z</time>
      </trkpt>
      <trkpt lat="47.27634" lon="-2.28304">
        <ele>-2.7999999523163</ele>
        <time>2021-12-05T10:27:55.000Z</time>
      </trkpt>
      <trkpt lat="47.27644" lon="-2.28295">
        <ele>-2.7999999523163</ele>
        <time>2021-12-05T10:27:59.000Z</time>
      </trkpt>
      <trkpt lat="47.27645" lon="-2.2829">
        <ele>-2.7999999523163</ele>
        <time>2021-12-05T10:28:02.000Z</time>
      </trkpt>
      <trkpt lat="47.27644" lon="-2.28283">
        <ele>-2.7999999523163</ele>
        <time>2021-12-05T10:28:05.000Z</time>
      </trkpt>
      <trkpt lat="47.2764" lon="-2.28278">
        <ele>-2.7999999523163</ele>
        <time>2021-12-05T10:28:07.000Z</time>
      </trkpt>
      <trkpt lat="47.27638" lon="-2.28275">
        <ele>-2.4000000953674</ele>
        <time>2021-12-05T10:28:08.000Z</time>
      </trkpt>
      <trkpt lat="47.27635" lon="-2.28271">
        <ele>-2</ele>
        <time>2021-12-05T10:28:09.000Z</time>
      </trkpt>
      <trkpt lat="47.27631" lon="-2.28267">
        <ele>-1.6000000238419</ele>
        <time>2021-12-05T10:28:10.000Z</time>
      </trkpt>
      <trkpt lat="47.27628" lon="-2.28263">
        <ele>-1.2000000476837</ele>
        <time>2021-12-05T10:28:11.000Z</time>
      </trkpt>
      <trkpt lat="47.27624" lon="-2.28258">
        <ele>-0.80000001192093</ele>
        <time>2021-12-05T10:28:12.000Z</time>
      </trkpt>
      <trkpt lat="47.27608" lon="-2.28238">
        <ele>-0.80000001192093</ele>
        <time>2021-12-05T10:28:16.000Z</time>
      </trkpt>
      <trkpt lat="47.27574" lon="-2.28206">
        <ele>-0.80000001192093</ele>
        <time>2021-12-05T10:28:23.000Z</time>
      </trkpt>
      <trkpt lat="47.27542" lon="-2.28183">
        <ele>-0.80000001192093</ele>
        <time>2021-12-05T10:28:30.000Z</time>
      </trkpt>
      <trkpt lat="47.27506" lon="-2.28157">
        <ele>-0.80000001192093</ele>
        <time>2021-12-05T10:28:37.000Z</time>
      </trkpt>
      <trkpt lat="47.275" lon="-2.28155">
        <ele>-0.80000001192093</ele>
        <time>2021-12-05T10:28:38.000Z</time>
      </trkpt>
      <trkpt lat="47.27481" lon="-2.28154">
        <ele>-0.80000001192093</ele>
        <time>2021-12-05T10:28:41.000Z</time>
      </trkpt>
      <trkpt lat="47.27475" lon="-2.28155">
        <ele>-0.80000001192093</ele>
        <time>2021-12-05T10:28:42.000Z</time>
      </trkpt>
      <trkpt lat="47.27445" lon="-2.28162">
        <ele>-0.80000001192093</ele>
        <time>2021-12-05T10:28:47.000Z</time>
      </trkpt>
      <trkpt lat="47.2744" lon="-2.28166">
        <ele>-0.80000001192093</ele>
        <time>2021-12-05T10:28:48.000Z</time>
      </trkpt>
      <trkpt lat="47.27433" lon="-2.28166">
        <ele>-0.80000001192093</ele>
        <time>2021-12-05T10:28:50.000Z</time>
      </trkpt>
      <trkpt lat="47.27423" lon="-2.28154">
        <ele>-0.80000001192093</ele>
        <time>2021-12-05T10:28:53.000Z</time>
      </trkpt>
      <trkpt lat="47.27415" lon="-2.28143">
        <ele>-0.80000001192093</ele>
        <time>2021-12-05T10:28:55.000Z</time>
      </trkpt>
      <trkpt lat="47.27398" lon="-2.28123">
        <ele>-0.80000001192093</ele>
        <time>2021-12-05T10:28:59.000Z</time>
      </trkpt>
      <trkpt lat="47.2738" lon="-2.28102">
        <ele>-0.80000001192093</ele>
        <time>2021-12-05T10:29:03.000Z</time>
      </trkpt>
      <trkpt lat="47.27368" lon="-2.28083">
        <ele>-0.80000001192093</ele>
        <time>2021-12-05T10:29:06.000Z</time>
      </trkpt>
      <trkpt lat="47.27355" lon="-2.28056">
        <ele>-0.80000001192093</ele>
        <time>2021-12-05T10:29:10.000Z</time>
      </trkpt>
      <trkpt lat="47.27353" lon="-2.28049">
        <ele>-0.80000001192093</ele>
        <time>2021-12-05T10:29:11.000Z</time>
      </trkpt>
      <trkpt lat="47.2735" lon="-2.28026">
        <ele>-0.80000001192093</ele>
        <time>2021-12-05T10:29:14.000Z</time>
      </trkpt>
      <trkpt lat="47.27349" lon="-2.28012">
        <ele>-0.80000001192093</ele>
        <time>2021-12-05T10:29:16.000Z</time>
      </trkpt>
      <trkpt lat="47.27347" lon="-2.27987">
        <ele>-0.80000001192093</ele>
        <time>2021-12-05T10:29:19.000Z</time>
      </trkpt>
      <trkpt lat="47.27344" lon="-2.27979">
        <ele>-0.40000000596046</ele>
        <time>2021-12-05T10:29:20.000Z</time>
      </trkpt>
      <trkpt lat="47.27342" lon="-2.27971">
        <ele>32.7</ele>
        <time>2021-12-05T10:29:21.000Z</time>
      </trkpt>
      <trkpt lat="47.27338" lon="-2.27965">
        <ele>0.40000000596046</ele>
        <time>2021-12-05T10:29:22.000Z</time>
      </trkpt>
      <trkpt lat="47.27333" lon="-2.27959">
        <ele>0.80000001192093</ele>
        <time>2021-12-05T10:29:23.000Z</time>
      </trkpt>
      <trkpt lat="47.27328" lon="-2.27955">
        <ele>1.2000000476837</ele>
        <time>2021-12-05T10:29:24.000Z</time>
      </trkpt>
      <trkpt lat="47.27304" lon="-2.27946">
        <ele>1.2000000476837</ele>
        <time>2021-12-05T10:29:28.000Z</time>
      </trkpt>
      <trkpt lat="47.27277" lon="-2.27935">
        <ele>1.2000000476837</ele>
        <time>2021-12-05T10:29:33.000Z</time>
      </trkpt>
      <trkpt lat="47.27272" lon="-2.27931">
        <ele>1.2000000476837</ele>
        <time>2021-12-05T10:29:34.000Z</time>
      </trkpt>
      <trkpt lat="47.27249" lon="-2.27906">
        <ele>1.2000000476837</ele>
        <time>2021-12-05T10:29:39.000Z</time>
      </trkpt>
      <trkpt lat="47.27226" lon="-2.27864">
        <ele>1.2000000476837</ele>
        <time>2021-12-05T10:29:46.000Z</time>
      </trkpt>
      <trkpt lat="47.27199" lon="-2.27816">
        <ele>1.2000000476837</ele>
        <time>2021-12-05T10:29:53.000Z</time>
      </trkpt>
      <trkpt lat="47.27189" lon="-2.27807">
        <ele>1.6000000238419</ele>
        <time>2021-12-05T10:29:55.000Z</time>
      </trkpt>
      <trkpt lat="47.27183" lon="-2.27805">
        <ele>2</ele>
        <time>2021-12-05T10:29:56.000Z</time>
      </trkpt>
      <trkpt lat="47.27177" lon="-2.27804">
        <ele>2.4000000953674</ele>
        <time>2021-12-05T10:29:57.000Z</time>
      </trkpt>
      <trkpt lat="47.27171" lon="-2.27804">
        <ele>2.7999999523163</ele>
        <time>2021-12-05T10:29:58.000Z</time>
      </trkpt>
      <trkpt lat="47.27165" lon="-2.27804">
        <ele>3.2000000476837</ele>
        <time>2021-12-05T10:29:59.000Z</time>
      </trkpt>
      <trkpt lat="47.27148" lon="-2.27804">
        <ele>3.2000000476837</ele>
        <time>2021-12-05T10:30:02.000Z</time>
      </trkpt>
      <trkpt lat="47.27143" lon="-2.27802">
        <ele>3.2000000476837</ele>
        <time>2021-12-05T10:30:03.000Z</time>
      </trkpt>
      <trkpt lat="47.27124" lon="-2.27792">
        <ele>3.2000000476837</ele>
        <time>2021-12-05T10:30:07.000Z</time>
      </trkpt>
      <trkpt lat="47.27111" lon="-2.27792">
        <ele>3.2000000476837</ele>
        <time>2021-12-05T10:30:11.000Z</time>
      </trkpt>
      <trkpt lat="47.27109" lon="-2.2779">
        <ele>3.2000000476837</ele>
        <time>2021-12-05T10:30:12.000Z</time>
      </trkpt>
      <trkpt lat="47.27103" lon="-2.27785">
        <ele>3.2000000476837</ele>
        <time>2021-12-05T10:30:15.000Z</time>
      </trkpt>
      <trkpt lat="47.27096" lon="-2.27782">
        <ele>3.2000000476837</ele>
        <time>2021-12-05T10:30:19.000Z</time>
      </trkpt>
      <trkpt lat="47.27098" lon="-2.2779">
        <ele>3.2000000476837</ele>
        <time>2021-12-05T10:30:23.000Z</time>
      </trkpt>
      <trkpt lat="47.27108" lon="-2.2779">
        <ele>3.2000000476837</ele>
        <time>2021-12-05T10:30:28.000Z</time>
      </trkpt>
      <trkpt lat="47.27112" lon="-2.27797">
        <ele>3.2000000476837</ele>
        <time>2021-12-05T10:30:34.000Z</time>
      </trkpt>
      <trkpt lat="47.2711" lon="-2.27797">
        <ele>3.2000000476837</ele>
        <time>2021-12-05T10:30:37.000Z</time>
      </trkpt>
      <trkpt lat="47.27109" lon="-2.27794">
        <ele>3.2000000476837</ele>
        <time>2021-12-05T10:30:38.000Z</time>
      </trkpt>
      <trkpt lat="47.27106" lon="-2.27783">
        <ele>3.2000000476837</ele>
        <time>2021-12-05T10:30:41.000Z</time>
      </trkpt>
      <trkpt lat="47.27105" lon="-2.27778">
        <ele>3.2000000476837</ele>
        <time>2021-12-05T10:30:42.000Z</time>
      </trkpt>
      <trkpt lat="47.27099" lon="-2.27759">
        <ele>3.2000000476837</ele>
        <time>2021-12-05T10:30:46.000Z</time>
      </trkpt>
      <trkpt lat="47.27082" lon="-2.27747">
        <ele>3.2000000476837</ele>
        <time>2021-12-05T10:30:50.000Z</time>
      </trkpt>
      <trkpt lat="47.27077" lon="-2.27744">
        <ele>3.2000000476837</ele>
        <time>2021-12-05T10:30:51.000Z</time>
      </trkpt>
      <trkpt lat="47.27036" lon="-2.27728">
        <ele>3.2000000476837</ele>
        <time>2021-12-05T10:30:59.000Z</time>
      </trkpt>
      <trkpt lat="47.27027" lon="-2.27722">
        <ele>3.2000000476837</ele>
        <time>2021-12-05T10:31:01.000Z</time>
      </trkpt>
      <trkpt lat="47.27023" lon="-2.27709">
        <ele>3.2000000476837</ele>
        <time>2021-12-05T10:31:03.000Z</time>
      </trkpt>
      <trkpt lat="47.2703" lon="-2.2769">
        <ele>3.2000000476837</ele>
        <time>2021-12-05T10:31:06.000Z</time>
      </trkpt>
      <trkpt lat="47.27034" lon="-2.27684">
        <ele>3.2000000476837</ele>
        <time>2021-12-05T10:31:07.000Z</time>
      </trkpt>
      <trkpt lat="47.27038" lon="-2.27677">
        <ele>3.2000000476837</ele>
        <time>2021-12-05T10:31:08.000Z</time>
      </trkpt>
      <trkpt lat="47.27053" lon="-2.27661">
        <ele>3.2000000476837</ele>
        <time>2021-12-05T10:31:11.000Z</time>
      </trkpt>
      <trkpt lat="47.27078" lon="-2.27639">
        <ele>3.2000000476837</ele>
        <time>2021-12-05T10:31:16.000Z</time>
      </trkpt>
      <trkpt lat="47.27089" lon="-2.27631">
        <ele>2.7999999523163</ele>
        <time>2021-12-05T10:31:18.000Z</time>
      </trkpt>
      <trkpt lat="47.27095" lon="-2.27627">
        <ele>2.4000000953674</ele>
        <time>2021-12-05T10:31:19.000Z</time>
      </trkpt>
      <trkpt lat="47.27101" lon="-2.27624">
        <ele>2</ele>
        <time>2021-12-05T10:31:20.000Z</time>
      </trkpt>
      <trkpt lat="47.27107" lon="-2.2762">
        <ele>1.3999999761581</ele>
        <time>2021-12-05T10:31:21.000Z</time>
      </trkpt>
      <trkpt lat="47.27113" lon="-2.27617">
        <ele>1</ele>
        <time>2021-12-05T10:31:22.000Z</time>
      </trkpt>
      <trkpt lat="47.27119" lon="-2.27613">
        <ele>1</ele>
        <time>2021-12-05T10:31:23.000Z</time>
      </trkpt>
      <trkpt lat="47.27132" lon="-2.27603">
        <ele>1</ele>
        <time>2021-12-05T10:31:25.000Z</time>
      </trkpt>
      <trkpt lat="47.27142" lon="-2.2759">
        <ele>1</ele>
        <time>2021-12-05T10:31:27.000Z</time>
      </trkpt>
      <trkpt lat="47.27149" lon="-2.27561">
        <ele>1</ele>
        <time>2021-12-05T10:31:30.000Z</time>
      </trkpt>
      <trkpt lat="47.2715" lon="-2.27522">
        <ele>1</ele>
        <time>2021-12-05T10:31:34.000Z</time>
      </trkpt>
      <trkpt lat="47.27145" lon="-2.27456">
        <ele>1</ele>
        <time>2021-12-05T10:31:41.000Z</time>
      </trkpt>
      <trkpt lat="47.27135" lon="-2.27387">
        <ele>1</ele>
        <time>2021-12-05T10:31:48.000Z</time>
      </trkpt>
      <trkpt lat="47.27127" lon="-2.27327">
        <ele>1</ele>
        <time>2021-12-05T10:31:54.000Z</time>
      </trkpt>
      <trkpt lat="47.27125" lon="-2.27317">
        <ele>0.20000000298023</ele>
        <time>2021-12-05T10:31:55.000Z</time>
      </trkpt>
      <trkpt lat="47.27124" lon="-2.27307">
        <ele>-0.20000000298023</ele>
        <time>2021-12-05T10:31:56.000Z</time>
      </trkpt>
      <trkpt lat="47.27122" lon="-2.27297">
        <ele>-0.60000002384186</ele>
        <time>2021-12-05T10:31:57.000Z</time>
      </trkpt>
      <trkpt lat="47.2712" lon="-2.27288">
        <ele>-1</ele>
        <time>2021-12-05T10:31:58.000Z</time>
      </trkpt>
      <trkpt lat="47.27114" lon="-2.27272">
        <ele>-1</ele>
        <time>2021-12-05T10:32:00.000Z</time>
      </trkpt>
      <trkpt lat="47.27093" lon="-2.27231">
        <ele>-1</ele>
        <time>2021-12-05T10:32:05.000Z</time>
      </trkpt>
      <trkpt lat="47.27085" lon="-2.27218">
        <ele>-1.6000000238419</ele>
        <time>2021-12-05T10:32:07.000Z</time>
      </trkpt>
      <trkpt lat="47.2708" lon="-2.27211">
        <ele>-2</ele>
        <time>2021-12-05T10:32:08.000Z</time>
      </trkpt>
      <trkpt lat="47.27075" lon="-2.27204">
        <ele>-2.4000000953674</ele>
        <time>2021-12-05T10:32:09.000Z</time>
      </trkpt>
      <trkpt lat="47.27071" lon="-2.27196">
        <ele>-3</ele>
        <time>2021-12-05T10:32:10.000Z</time>
      </trkpt>
      <trkpt lat="47.27066" lon="-2.27189">
        <ele>-3.5999999046326</ele>
        <time>2021-12-05T10:32:11.000Z</time>
      </trkpt>
      <trkpt lat="47.27062" lon="-2.2718">
        <ele>-4.1999998092651</ele>
        <time>2021-12-05T10:32:12.000Z</time>
      </trkpt>
      <trkpt lat="47.27057" lon="-2.27172">
        <ele>-4.8000001907349</ele>
        <time>2021-12-05T10:32:13.000Z</time>
      </trkpt>
      <trkpt lat="47.27052" lon="-2.27163">
        <ele>-5.4000000953674</ele>
        <time>2021-12-05T10:32:14.000Z</time>
      </trkpt>
      <trkpt lat="47.27048" lon="-2.27155">
        <ele>-6.1999998092651</ele>
        <time>2021-12-05T10:32:15.000Z</time>
      </trkpt>
      <trkpt lat="47.27043" lon="-2.27147">
        <ele>-6.8000001907349</ele>
        <time>2021-12-05T10:32:16.000Z</time>
      </trkpt>
      <trkpt lat="47.27038" lon="-2.27139">
        <ele>-7.4000000953674</ele>
        <time>2021-12-05T10:32:17.000Z</time>
      </trkpt>
      <trkpt lat="47.27019" lon="-2.27104">
        <ele>-7.4000000953674</ele>
        <time>2021-12-05T10:32:22.000Z</time>
      </trkpt>
      <trkpt lat="47.27016" lon="-2.27098">
        <ele>-7.4000000953674</ele>
        <time>2021-12-05T10:32:23.000Z</time>
      </trkpt>
      <trkpt lat="47.2701" lon="-2.27073">
        <ele>-7.4000000953674</ele>
        <time>2021-12-05T10:32:26.000Z</time>
      </trkpt>
      <trkpt lat="47.27005" lon="-2.27055">
        <ele>-7.4000000953674</ele>
        <time>2021-12-05T10:32:28.000Z</time>
      </trkpt>
      <trkpt lat="47.26992" lon="-2.27034">
        <ele>-7.4000000953674</ele>
        <time>2021-12-05T10:32:31.000Z</time>
      </trkpt>
      <trkpt lat="47.26969" lon="-2.27005">
        <ele>-7.4000000953674</ele>
        <time>2021-12-05T10:32:36.000Z</time>
      </trkpt>
      <trkpt lat="47.26965" lon="-2.26999">
        <ele>-7.4000000953674</ele>
        <time>2021-12-05T10:32:37.000Z</time>
      </trkpt>
      <trkpt lat="47.26958" lon="-2.26994">
        <ele>-7.4000000953674</ele>
        <time>2021-12-05T10:32:39.000Z</time>
      </trkpt>
      <trkpt lat="47.26954" lon="-2.26994">
        <ele>-7.4000000953674</ele>
        <time>2021-12-05T10:32:40.000Z</time>
      </trkpt>
      <trkpt lat="47.26946" lon="-2.27002">
        <ele>-7.4000000953674</ele>
        <time>2021-12-05T10:32:43.000Z</time>
      </trkpt>
      <trkpt lat="47.26939" lon="-2.27014">
        <ele>-7.4000000953674</ele>
        <time>2021-12-05T10:32:46.000Z</time>
      </trkpt>
      <trkpt lat="47.26936" lon="-2.27019">
        <ele>-7.4000000953674</ele>
        <time>2021-12-05T10:32:47.000Z</time>
      </trkpt>
      <trkpt lat="47.26919" lon="-2.27045">
        <ele>-7.4000000953674</ele>
        <time>2021-12-05T10:32:53.000Z</time>
      </trkpt>
      <trkpt lat="47.26901" lon="-2.2707">
        <ele>-7</ele>
        <time>2021-12-05T10:32:59.000Z</time>
      </trkpt>
      <trkpt lat="47.26898" lon="-2.27074">
        <ele>-6.5999999046326</ele>
        <time>2021-12-05T10:33:00.000Z</time>
      </trkpt>
      <trkpt lat="47.26895" lon="-2.27078">
        <ele>-6.1999998092651</ele>
        <time>2021-12-05T10:33:01.000Z</time>
      </trkpt>
      <trkpt lat="47.26892" lon="-2.27082">
        <ele>-5.8000001907349</ele>
        <time>2021-12-05T10:33:02.000Z</time>
      </trkpt>
      <trkpt lat="47.26889" lon="-2.27085">
        <ele>-5.4000000953674</ele>
        <time>2021-12-05T10:33:03.000Z</time>
      </trkpt>
      <trkpt lat="47.2688" lon="-2.27096">
        <ele>-5</ele>
        <time>2021-12-05T10:33:06.000Z</time>
      </trkpt>
      <trkpt lat="47.26876" lon="-2.27099">
        <ele>-4.5999999046326</ele>
        <time>2021-12-05T10:33:07.000Z</time>
      </trkpt>
      <trkpt lat="47.26873" lon="-2.27102">
        <ele>-4</ele>
        <time>2021-12-05T10:33:08.000Z</time>
      </trkpt>
      <trkpt lat="47.26869" lon="-2.27106">
        <ele>-3.2000000476837</ele>
        <time>2021-12-05T10:33:09.000Z</time>
      </trkpt>
      <trkpt lat="47.26854" lon="-2.27117">
        <ele>-3.2000000476837</ele>
        <time>2021-12-05T10:33:13.000Z</time>
      </trkpt>
      <trkpt lat="47.2685" lon="-2.27119">
        <ele>-2.7999999523163</ele>
        <time>2021-12-05T10:33:14.000Z</time>
      </trkpt>
      <trkpt lat="47.26846" lon="-2.27121">
        <ele>-2.4000000953674</ele>
        <time>2021-12-05T10:33:15.000Z</time>
      </trkpt>
      <trkpt lat="47.26841" lon="-2.27123">
        <ele>-2</ele>
        <time>2021-12-05T10:33:16.000Z</time>
      </trkpt>
      <trkpt lat="47.26836" lon="-2.27125">
        <ele>-1.6000000238419</ele>
        <time>2021-12-05T10:33:17.000Z</time>
      </trkpt>
      <trkpt lat="47.26832" lon="-2.27125">
        <ele>-1.2000000476837</ele>
        <time>2021-12-05T10:33:18.000Z</time>
      </trkpt>
      <trkpt lat="47.26805" lon="-2.27133">
        <ele>-1.2000000476837</ele>
        <time>2021-12-05T10:33:24.000Z</time>
      </trkpt>
      <trkpt lat="47.26787" lon="-2.27138">
        <ele>-1.2000000476837</ele>
        <time>2021-12-05T10:33:28.000Z</time>
      </trkpt>
      <trkpt lat="47.26779" lon="-2.27141">
        <ele>-1.2000000476837</ele>
        <time>2021-12-05T10:33:30.000Z</time>
      </trkpt>
      <trkpt lat="47.26771" lon="-2.27146">
        <ele>-1.2000000476837</ele>
        <time>2021-12-05T10:33:32.000Z</time>
      </trkpt>
      <trkpt lat="47.26761" lon="-2.27155">
        <ele>-1.2000000476837</ele>
        <time>2021-12-05T10:33:35.000Z</time>
      </trkpt>
      <trkpt lat="47.26757" lon="-2.27158">
        <ele>-1.2000000476837</ele>
        <time>2021-12-05T10:33:36.000Z</time>
      </trkpt>
      <trkpt lat="47.26746" lon="-2.27168">
        <ele>-1.2000000476837</ele>
        <time>2021-12-05T10:33:39.000Z</time>
      </trkpt>
      <trkpt lat="47.26738" lon="-2.27175">
        <ele>-1.2000000476837</ele>
        <time>2021-12-05T10:33:41.000Z</time>
      </trkpt>
      <trkpt lat="47.26735" lon="-2.27178">
        <ele>-0.60000002384186</ele>
        <time>2021-12-05T10:33:42.000Z</time>
      </trkpt>
      <trkpt lat="47.26733" lon="-2.27181">
        <ele>-0.20000000298023</ele>
        <time>2021-12-05T10:33:43.000Z</time>
      </trkpt>
      <trkpt lat="47.2673" lon="-2.27184">
        <ele>0.20000000298023</ele>
        <time>2021-12-05T10:33:44.000Z</time>
      </trkpt>
      <trkpt lat="47.26727" lon="-2.27187">
        <ele>0.60000002384186</ele>
        <time>2021-12-05T10:33:45.000Z</time>
      </trkpt>
      <trkpt lat="47.26725" lon="-2.2719">
        <ele>1</ele>
        <time>2021-12-05T10:33:46.000Z</time>
      </trkpt>
      <trkpt lat="47.2672" lon="-2.27203">
        <ele>1</ele>
        <time>2021-12-05T10:33:50.000Z</time>
      </trkpt>
      <trkpt lat="47.26721" lon="-2.27207">
        <ele>1</ele>
        <time>2021-12-05T10:33:51.000Z</time>
      </trkpt>
      <trkpt lat="47.26724" lon="-2.27224">
        <ele>1.3999999761581</ele>
        <time>2021-12-05T10:33:54.000Z</time>
      </trkpt>
      <trkpt lat="47.26725" lon="-2.27231">
        <ele>1.7999999523163</ele>
        <time>2021-12-05T10:33:55.000Z</time>
      </trkpt>
      <trkpt lat="47.26725" lon="-2.27239">
        <ele>2.2000000476837</ele>
        <time>2021-12-05T10:33:56.000Z</time>
      </trkpt>
      <trkpt lat="47.26727" lon="-2.27246">
        <ele>2.7999999523163</ele>
        <time>2021-12-05T10:33:57.000Z</time>
      </trkpt>
      <trkpt lat="47.26728" lon="-2.27252">
        <ele>3.2000000476837</ele>
        <time>2021-12-05T10:33:58.000Z</time>
      </trkpt>
      <trkpt lat="47.26735" lon="-2.27282">
        <ele>3.2000000476837</ele>
        <time>2021-12-05T10:34:02.000Z</time>
      </trkpt>
      <trkpt lat="47.26741" lon="-2.27333">
        <ele>3.2000000476837</ele>
        <time>2021-12-05T10:34:09.000Z</time>
      </trkpt>
      <trkpt lat="47.2674" lon="-2.2734">
        <ele>3.2000000476837</ele>
        <time>2021-12-05T10:34:10.000Z</time>
      </trkpt>
      <trkpt lat="47.26735" lon="-2.27354">
        <ele>3.2000000476837</ele>
        <time>2021-12-05T10:34:12.000Z</time>
      </trkpt>
      <trkpt lat="47.2672" lon="-2.27363">
        <ele>3.2000000476837</ele>
        <time>2021-12-05T10:34:15.000Z</time>
      </trkpt>
      <trkpt lat="47.26709" lon="-2.27367">
        <ele>3.2000000476837</ele>
        <time>2021-12-05T10:34:17.000Z</time>
      </trkpt>
      <trkpt lat="47.26694" lon="-2.27373">
        <ele>3.2000000476837</ele>
        <time>2021-12-05T10:34:20.000Z</time>
      </trkpt>
      <trkpt lat="47.26685" lon="-2.27378">
        <ele>2.7999999523163</ele>
        <time>2021-12-05T10:34:22.000Z</time>
      </trkpt>
      <trkpt lat="47.2668" lon="-2.27382">
        <ele>1.7999999523163</ele>
        <time>2021-12-05T10:34:23.000Z</time>
      </trkpt>
      <trkpt lat="47.26676" lon="-2.27385">
        <ele>1.3999999761581</ele>
        <time>2021-12-05T10:34:24.000Z</time>
      </trkpt>
      <trkpt lat="47.26672" lon="-2.27389">
        <ele>1</ele>
        <time>2021-12-05T10:34:25.000Z</time>
      </trkpt>
      <trkpt lat="47.2664" lon="-2.27419">
        <ele>1</ele>
        <time>2021-12-05T10:34:33.000Z</time>
      </trkpt>
      <trkpt lat="47.26632" lon="-2.27426">
        <ele>1.3999999761581</ele>
        <time>2021-12-05T10:34:35.000Z</time>
      </trkpt>
      <trkpt lat="47.26628" lon="-2.2743">
        <ele>1.7999999523163</ele>
        <time>2021-12-05T10:34:36.000Z</time>
      </trkpt>
      <trkpt lat="47.26625" lon="-2.27433">
        <ele>2.2000000476837</ele>
        <time>2021-12-05T10:34:37.000Z</time>
      </trkpt>
      <trkpt lat="47.26621" lon="-2.27437">
        <ele>2.5999999046326</ele>
        <time>2021-12-05T10:34:38.000Z</time>
      </trkpt>
      <trkpt lat="47.26618" lon="-2.2744">
        <ele>3</ele>
        <time>2021-12-05T10:34:39.000Z</time>
      </trkpt>
      <trkpt lat="47.26614" lon="-2.27444">
        <ele>3</ele>
        <time>2021-12-05T10:34:40.000Z</time>
      </trkpt>
      <trkpt lat="47.26589" lon="-2.27474">
        <ele>3</ele>
        <time>2021-12-05T10:34:47.000Z</time>
      </trkpt>
      <trkpt lat="47.26575" lon="-2.27496">
        <ele>3</ele>
        <time>2021-12-05T10:34:51.000Z</time>
      </trkpt>
      <trkpt lat="47.2657" lon="-2.2751">
        <ele>3</ele>
        <time>2021-12-05T10:34:53.000Z</time>
      </trkpt>
      <trkpt lat="47.26561" lon="-2.2753">
        <ele>2.5999999046326</ele>
        <time>2021-12-05T10:34:56.000Z</time>
      </trkpt>
      <trkpt lat="47.26558" lon="-2.27537">
        <ele>2.2000000476837</ele>
        <time>2021-12-05T10:34:57.000Z</time>
      </trkpt>
      <trkpt lat="47.26554" lon="-2.27543">
        <ele>1.7999999523163</ele>
        <time>2021-12-05T10:34:58.000Z</time>
      </trkpt>
      <trkpt lat="47.26551" lon="-2.27549">
        <ele>1.3999999761581</ele>
        <time>2021-12-05T10:34:59.000Z</time>
      </trkpt>
      <trkpt lat="47.26547" lon="-2.27554">
        <ele>1</ele>
        <time>2021-12-05T10:35:00.000Z</time>
      </trkpt>
      <trkpt lat="47.26542" lon="-2.27558">
        <ele>1</ele>
        <time>2021-12-05T10:35:01.000Z</time>
      </trkpt>
      <trkpt lat="47.26528" lon="-2.27571">
        <ele>1</ele>
        <time>2021-12-05T10:35:04.000Z</time>
      </trkpt>
      <trkpt lat="47.26522" lon="-2.27574">
        <ele>1</ele>
        <time>2021-12-05T10:35:05.000Z</time>
      </trkpt>
      <trkpt lat="47.26517" lon="-2.27576">
        <ele>0.60000002384186</ele>
        <time>2021-12-05T10:35:06.000Z</time>
      </trkpt>
      <trkpt lat="47.26511" lon="-2.27578">
        <ele>0.20000000298023</ele>
        <time>2021-12-05T10:35:07.000Z</time>
      </trkpt>
      <trkpt lat="47.26506" lon="-2.27579">
        <ele>-0.20000000298023</ele>
        <time>2021-12-05T10:35:08.000Z</time>
      </trkpt>
      <trkpt lat="47.26501" lon="-2.27579">
        <ele>-0.60000002384186</ele>
        <time>2021-12-05T10:35:09.000Z</time>
      </trkpt>
      <trkpt lat="47.26496" lon="-2.27577">
        <ele>-1</ele>
        <time>2021-12-05T10:35:10.000Z</time>
      </trkpt>
      <trkpt lat="47.26487" lon="-2.27561">
        <ele>-1</ele>
        <time>2021-12-05T10:35:13.000Z</time>
      </trkpt>
      <trkpt lat="47.26484" lon="-2.27539">
        <ele>-1</ele>
        <time>2021-12-05T10:35:16.000Z</time>
      </trkpt>
      <trkpt lat="47.26483" lon="-2.27532">
        <ele>-1</ele>
        <time>2021-12-05T10:35:17.000Z</time>
      </trkpt>
      <trkpt lat="47.26479" lon="-2.27509">
        <ele>-1</ele>
        <time>2021-12-05T10:35:20.000Z</time>
      </trkpt>
      <trkpt lat="47.26475" lon="-2.27494">
        <ele>-1</ele>
        <time>2021-12-05T10:35:22.000Z</time>
      </trkpt>
      <trkpt lat="47.26471" lon="-2.27481">
        <ele>-0.60000002384186</ele>
        <time>2021-12-05T10:35:24.000Z</time>
      </trkpt>
      <trkpt lat="47.26469" lon="-2.27475">
        <ele>-0.20000000298023</ele>
        <time>2021-12-05T10:35:25.000Z</time>
      </trkpt>
      <trkpt lat="47.26467" lon="-2.27468">
        <ele>0.20000000298023</ele>
        <time>2021-12-05T10:35:26.000Z</time>
      </trkpt>
      <trkpt lat="47.26465" lon="-2.27462">
        <ele>0.60000002384186</ele>
        <time>2021-12-05T10:35:27.000Z</time>
      </trkpt>
      <trkpt lat="47.26463" lon="-2.27455">
        <ele>1</ele>
        <time>2021-12-05T10:35:28.000Z</time>
      </trkpt>
      <trkpt lat="47.26451" lon="-2.27417">
        <ele>1</ele>
        <time>2021-12-05T10:35:34.000Z</time>
      </trkpt>
      <trkpt lat="47.26446" lon="-2.27405">
        <ele>2</ele>
        <time>2021-12-05T10:35:36.000Z</time>
      </trkpt>
      <trkpt lat="47.26444" lon="-2.274">
        <ele>2.4000000953674</ele>
        <time>2021-12-05T10:35:37.000Z</time>
      </trkpt>
      <trkpt lat="47.26442" lon="-2.27394">
        <ele>2.7999999523163</ele>
        <time>2021-12-05T10:35:38.000Z</time>
      </trkpt>
      <trkpt lat="47.26441" lon="-2.27388">
        <ele>3.2000000476837</ele>
        <time>2021-12-05T10:35:39.000Z</time>
      </trkpt>
      <trkpt lat="47.26439" lon="-2.27382">
        <ele>3.2000000476837</ele>
        <time>2021-12-05T10:35:40.000Z</time>
      </trkpt>
      <trkpt lat="47.2643" lon="-2.27356">
        <ele>3.2000000476837</ele>
        <time>2021-12-05T10:35:45.000Z</time>
      </trkpt>
      <trkpt lat="47.2642" lon="-2.27339">
        <ele>3.2000000476837</ele>
        <time>2021-12-05T10:35:50.000Z</time>
      </trkpt>
      <trkpt lat="47.26399" lon="-2.27332">
        <ele>3.2000000476837</ele>
        <time>2021-12-05T10:35:55.000Z</time>
      </trkpt>
      <trkpt lat="47.26395" lon="-2.27332">
        <ele>3.2000000476837</ele>
        <time>2021-12-05T10:35:56.000Z</time>
      </trkpt>
      <trkpt lat="47.26386" lon="-2.27332">
        <ele>3.7999999523163</ele>
        <time>2021-12-05T10:35:58.000Z</time>
      </trkpt>
      <trkpt lat="47.26382" lon="-2.27332">
        <ele>4.1999998092651</ele>
        <time>2021-12-05T10:35:59.000Z</time>
      </trkpt>
      <trkpt lat="47.26377" lon="-2.27332">
        <ele>4.5999999046326</ele>
        <time>2021-12-05T10:36:00.000Z</time>
      </trkpt>
      <trkpt lat="47.26373" lon="-2.27332">
        <ele>5.4000000953674</ele>
        <time>2021-12-05T10:36:01.000Z</time>
      </trkpt>
      <trkpt lat="47.26365" lon="-2.27332">
        <ele>5.4000000953674</ele>
        <time>2021-12-05T10:36:03.000Z</time>
      </trkpt>
      <trkpt lat="47.26332" lon="-2.27328">
        <ele>5.4000000953674</ele>
        <time>2021-12-05T10:36:11.000Z</time>
      </trkpt>
      <trkpt lat="47.26328" lon="-2.27327">
        <ele>5.4000000953674</ele>
        <time>2021-12-05T10:36:12.000Z</time>
      </trkpt>
      <trkpt lat="47.2631" lon="-2.27327">
        <ele>5.4000000953674</ele>
        <time>2021-12-05T10:36:16.000Z</time>
      </trkpt>
      <trkpt lat="47.26284" lon="-2.27322">
        <ele>5.4000000953674</ele>
        <time>2021-12-05T10:36:22.000Z</time>
      </trkpt>
      <trkpt lat="47.26255" lon="-2.27321">
        <ele>5.4000000953674</ele>
        <time>2021-12-05T10:36:28.000Z</time>
      </trkpt>
      <trkpt lat="47.2625" lon="-2.27321">
        <ele>5.4000000953674</ele>
        <time>2021-12-05T10:36:29.000Z</time>
      </trkpt>
      <trkpt lat="47.26241" lon="-2.2732">
        <ele>5.4000000953674</ele>
        <time>2021-12-05T10:36:31.000Z</time>
      </trkpt>
      <trkpt lat="47.26229" lon="-2.27318">
        <ele>5.4000000953674</ele>
        <time>2021-12-05T10:36:34.000Z</time>
      </trkpt>
      <trkpt lat="47.26218" lon="-2.27316">
        <ele>5.4000000953674</ele>
        <time>2021-12-05T10:36:36.000Z</time>
      </trkpt>
      <trkpt lat="47.26202" lon="-2.27314">
        <ele>5.4000000953674</ele>
        <time>2021-12-05T10:36:39.000Z</time>
      </trkpt>
      <trkpt lat="47.26197" lon="-2.27314">
        <ele>5.4000000953674</ele>
        <time>2021-12-05T10:36:40.000Z</time>
      </trkpt>
      <trkpt lat="47.26183" lon="-2.27317">
        <ele>5.8000001907349</ele>
        <time>2021-12-05T10:36:43.000Z</time>
      </trkpt>
      <trkpt lat="47.26179" lon="-2.27318">
        <ele>6.1999998092651</ele>
        <time>2021-12-05T10:36:44.000Z</time>
      </trkpt>
      <trkpt lat="47.26174" lon="-2.27319">
        <ele>6.5999999046326</ele>
        <time>2021-12-05T10:36:45.000Z</time>
      </trkpt>
      <trkpt lat="47.26169" lon="-2.2732">
        <ele>7</ele>
        <time>2021-12-05T10:36:46.000Z</time>
      </trkpt>
      <trkpt lat="47.26164" lon="-2.2732">
        <ele>7.4000000953674</ele>
        <time>2021-12-05T10:36:47.000Z</time>
      </trkpt>
      <trkpt lat="47.26155" lon="-2.27319">
        <ele>7.4000000953674</ele>
        <time>2021-12-05T10:36:49.000Z</time>
      </trkpt>
      <trkpt lat="47.26146" lon="-2.2732">
        <ele>7.4000000953674</ele>
        <time>2021-12-05T10:36:51.000Z</time>
      </trkpt>
      <trkpt lat="47.26138" lon="-2.27326">
        <ele>7.4000000953674</ele>
        <time>2021-12-05T10:36:53.000Z</time>
      </trkpt>
      <trkpt lat="47.26134" lon="-2.27329">
        <ele>7.4000000953674</ele>
        <time>2021-12-05T10:36:54.000Z</time>
      </trkpt>
      <trkpt lat="47.26117" lon="-2.27346">
        <ele>7.4000000953674</ele>
        <time>2021-12-05T10:36:58.000Z</time>
      </trkpt>
      <trkpt lat="47.26094" lon="-2.27372">
        <ele>7.4000000953674</ele>
        <time>2021-12-05T10:37:04.000Z</time>
      </trkpt>
      <trkpt lat="47.2609" lon="-2.27376">
        <ele>7.4000000953674</ele>
        <time>2021-12-05T10:37:05.000Z</time>
      </trkpt>
      <trkpt lat="47.26071" lon="-2.27403">
        <ele>7.4000000953674</ele>
        <time>2021-12-05T10:37:11.000Z</time>
      </trkpt>
      <trkpt lat="47.26058" lon="-2.27429">
        <ele>7.4000000953674</ele>
        <time>2021-12-05T10:37:16.000Z</time>
      </trkpt>
      <trkpt lat="47.26045" lon="-2.27452">
        <ele>7.8000001907349</ele>
        <time>2021-12-05T10:37:21.000Z</time>
      </trkpt>
      <trkpt lat="47.26042" lon="-2.27458">
        <ele>8.1999998092651</ele>
        <time>2021-12-05T10:37:22.000Z</time>
      </trkpt>
      <trkpt lat="47.2604" lon="-2.27463">
        <ele>8.6000003814697</ele>
        <time>2021-12-05T10:37:23.000Z</time>
      </trkpt>
      <trkpt lat="47.26038" lon="-2.27469">
        <ele>9</ele>
        <time>2021-12-05T10:37:24.000Z</time>
      </trkpt>
      <trkpt lat="47.26036" lon="-2.27475">
        <ele>9.3999996185303</ele>
        <time>2021-12-05T10:37:25.000Z</time>
      </trkpt>
      <trkpt lat="47.26031" lon="-2.2749">
        <ele>9.3999996185303</ele>
        <time>2021-12-05T10:37:28.000Z</time>
      </trkpt>
      <trkpt lat="47.26024" lon="-2.27524">
        <ele>9.3999996185303</ele>
        <time>2021-12-05T10:37:35.000Z</time>
      </trkpt>
      <trkpt lat="47.2603" lon="-2.27557">
        <ele>9.3999996185303</ele>
        <time>2021-12-05T10:37:41.000Z</time>
      </trkpt>
      <trkpt lat="47.26037" lon="-2.27594">
        <ele>9.3999996185303</ele>
        <time>2021-12-05T10:37:48.000Z</time>
      </trkpt>
      <trkpt lat="47.26042" lon="-2.27616">
        <ele>9.3999996185303</ele>
        <time>2021-12-05T10:37:54.000Z</time>
      </trkpt>
      <trkpt lat="47.26043" lon="-2.27618">
        <ele>9.3999996185303</ele>
        <time>2021-12-05T10:37:55.000Z</time>
      </trkpt>
      <trkpt lat="47.26049" lon="-2.27621">
        <ele>9.3999996185303</ele>
        <time>2021-12-05T10:37:58.000Z</time>
      </trkpt>
      <trkpt lat="47.26061" lon="-2.27614">
        <ele>9.3999996185303</ele>
        <time>2021-12-05T10:38:02.000Z</time>
      </trkpt>
      <trkpt lat="47.26064" lon="-2.27612">
        <ele>9.3999996185303</ele>
        <time>2021-12-05T10:38:03.000Z</time>
      </trkpt>
      <trkpt lat="47.26088" lon="-2.27602">
        <ele>9.3999996185303</ele>
        <time>2021-12-05T10:38:09.000Z</time>
      </trkpt>
      <trkpt lat="47.26092" lon="-2.27599">
        <ele>9.3999996185303</ele>
        <time>2021-12-05T10:38:10.000Z</time>
      </trkpt>
      <trkpt lat="47.26104" lon="-2.2759">
        <ele>9.3999996185303</ele>
        <time>2021-12-05T10:38:13.000Z</time>
      </trkpt>
      <trkpt lat="47.26109" lon="-2.27588">
        <ele>9.3999996185303</ele>
        <time>2021-12-05T10:38:14.000Z</time>
      </trkpt>
      <trkpt lat="47.26128" lon="-2.27581">
        <ele>9.3999996185303</ele>
        <time>2021-12-05T10:38:18.000Z</time>
      </trkpt>
      <trkpt lat="47.26133" lon="-2.27584">
        <ele>9.3999996185303</ele>
        <time>2021-12-05T10:38:19.000Z</time>
      </trkpt>
      <trkpt lat="47.26145" lon="-2.27602">
        <ele>9.3999996185303</ele>
        <time>2021-12-05T10:38:22.000Z</time>
      </trkpt>
      <trkpt lat="47.26148" lon="-2.27616">
        <ele>9.3999996185303</ele>
        <time>2021-12-05T10:38:24.000Z</time>
      </trkpt>
      <trkpt lat="47.2615" lon="-2.2763">
        <ele>9.3999996185303</ele>
        <time>2021-12-05T10:38:26.000Z</time>
      </trkpt>
      <trkpt lat="47.26156" lon="-2.27666">
        <ele>9.3999996185303</ele>
        <time>2021-12-05T10:38:31.000Z</time>
      </trkpt>
      <trkpt lat="47.26173" lon="-2.27722">
        <ele>9.3999996185303</ele>
        <time>2021-12-05T10:38:39.000Z</time>
      </trkpt>
      <trkpt lat="47.26194" lon="-2.27787">
        <ele>9.3999996185303</ele>
        <time>2021-12-05T10:38:48.000Z</time>
      </trkpt>
      <trkpt lat="47.26216" lon="-2.27836">
        <ele>9.3999996185303</ele>
        <time>2021-12-05T10:38:55.000Z</time>
      </trkpt>
      <trkpt lat="47.26235" lon="-2.27874">
        <ele>9.3999996185303</ele>
        <time>2021-12-05T10:39:01.000Z</time>
      </trkpt>
      <trkpt lat="47.2626" lon="-2.27922">
        <ele>9.3999996185303</ele>
        <time>2021-12-05T10:39:09.000Z</time>
      </trkpt>
      <trkpt lat="47.26284" lon="-2.27968">
        <ele>9.3999996185303</ele>
        <time>2021-12-05T10:39:17.000Z</time>
      </trkpt>
      <trkpt lat="47.26287" lon="-2.27971">
        <ele>8.6000003814697</ele>
        <time>2021-12-05T10:39:18.000Z</time>
      </trkpt>
      <trkpt lat="47.26291" lon="-2.27975">
        <ele>8.1999998092651</ele>
        <time>2021-12-05T10:39:19.000Z</time>
      </trkpt>
      <trkpt lat="47.26293" lon="-2.2798">
        <ele>7.8000001907349</ele>
        <time>2021-12-05T10:39:20.000Z</time>
      </trkpt>
      <trkpt lat="47.26294" lon="-2.27986">
        <ele>7.4000000953674</ele>
        <time>2021-12-05T10:39:21.000Z</time>
      </trkpt>
      <trkpt lat="47.26296" lon="-2.27992">
        <ele>7.4000000953674</ele>
        <time>2021-12-05T10:39:22.000Z</time>
      </trkpt>
      <trkpt lat="47.26301" lon="-2.28004">
        <ele>7.4000000953674</ele>
        <time>2021-12-05T10:39:24.000Z</time>
      </trkpt>
      <trkpt lat="47.26308" lon="-2.28022">
        <ele>7.4000000953674</ele>
        <time>2021-12-05T10:39:27.000Z</time>
      </trkpt>
      <trkpt lat="47.2631" lon="-2.28028">
        <ele>7.4000000953674</ele>
        <time>2021-12-05T10:39:28.000Z</time>
      </trkpt>
      <trkpt lat="47.26324" lon="-2.28073">
        <ele>7.4000000953674</ele>
        <time>2021-12-05T10:39:35.000Z</time>
      </trkpt>
      <trkpt lat="47.26331" lon="-2.28107">
        <ele>7.4000000953674</ele>
        <time>2021-12-05T10:39:40.000Z</time>
      </trkpt>
      <trkpt lat="47.26332" lon="-2.28114">
        <ele>7.4000000953674</ele>
        <time>2021-12-05T10:39:41.000Z</time>
      </trkpt>
      <trkpt lat="47.26341" lon="-2.28164">
        <ele>7.4000000953674</ele>
        <time>2021-12-05T10:39:48.000Z</time>
      </trkpt>
      <trkpt lat="47.26343" lon="-2.28178">
        <ele>7.4000000953674</ele>
        <time>2021-12-05T10:39:50.000Z</time>
      </trkpt>
      <trkpt lat="47.26349" lon="-2.28207">
        <ele>7.8000001907349</ele>
        <time>2021-12-05T10:39:54.000Z</time>
      </trkpt>
      <trkpt lat="47.2635" lon="-2.28214">
        <ele>8.1999998092651</ele>
        <time>2021-12-05T10:39:55.000Z</time>
      </trkpt>
      <trkpt lat="47.26351" lon="-2.2822">
        <ele>8.6000003814697</ele>
        <time>2021-12-05T10:39:56.000Z</time>
      </trkpt>
      <trkpt lat="47.26353" lon="-2.28227">
        <ele>9</ele>
        <time>2021-12-05T10:39:57.000Z</time>
      </trkpt>
      <trkpt lat="47.26354" lon="-2.28234">
        <ele>9.3999996185303</ele>
        <time>2021-12-05T10:39:58.000Z</time>
      </trkpt>
      <trkpt lat="47.26356" lon="-2.28241">
        <ele>9.3999996185303</ele>
        <time>2021-12-05T10:39:59.000Z</time>
      </trkpt>
      <trkpt lat="47.26361" lon="-2.28262">
        <ele>9.3999996185303</ele>
        <time>2021-12-05T10:40:02.000Z</time>
      </trkpt>
      <trkpt lat="47.26374" lon="-2.28308">
        <ele>9.3999996185303</ele>
        <time>2021-12-05T10:40:09.000Z</time>
      </trkpt>
      <trkpt lat="47.26382" lon="-2.28328">
        <ele>9.3999996185303</ele>
        <time>2021-12-05T10:40:12.000Z</time>
      </trkpt>
      <trkpt lat="47.26393" lon="-2.28354">
        <ele>9.3999996185303</ele>
        <time>2021-12-05T10:40:16.000Z</time>
      </trkpt>
      <trkpt lat="47.26417" lon="-2.28404">
        <ele>9.3999996185303</ele>
        <time>2021-12-05T10:40:24.000Z</time>
      </trkpt>
      <trkpt lat="47.26438" lon="-2.2845">
        <ele>9.3999996185303</ele>
        <time>2021-12-05T10:40:31.000Z</time>
      </trkpt>
      <trkpt lat="47.26466" lon="-2.28505">
        <ele>9.3999996185303</ele>
        <time>2021-12-05T10:40:39.000Z</time>
      </trkpt>
      <trkpt lat="47.26492" lon="-2.28555">
        <ele>9</ele>
        <time>2021-12-05T10:40:46.000Z</time>
      </trkpt>
      <trkpt lat="47.26495" lon="-2.28563">
        <ele>8.6000003814697</ele>
        <time>2021-12-05T10:40:47.000Z</time>
      </trkpt>
      <trkpt lat="47.26498" lon="-2.2857">
        <ele>8</ele>
        <time>2021-12-05T10:40:48.000Z</time>
      </trkpt>
      <trkpt lat="47.265" lon="-2.28578">
        <ele>7.5999999046326</ele>
        <time>2021-12-05T10:40:49.000Z</time>
      </trkpt>
      <trkpt lat="47.26502" lon="-2.28585">
        <ele>7.1999998092651</ele>
        <time>2021-12-05T10:40:50.000Z</time>
      </trkpt>
      <trkpt lat="47.26504" lon="-2.28601">
        <ele>7.1999998092651</ele>
        <time>2021-12-05T10:40:52.000Z</time>
      </trkpt>
      <trkpt lat="47.26505" lon="-2.28616">
        <ele>7.1999998092651</ele>
        <time>2021-12-05T10:40:54.000Z</time>
      </trkpt>
      <trkpt lat="47.26512" lon="-2.2863">
        <ele>7.1999998092651</ele>
        <time>2021-12-05T10:40:56.000Z</time>
      </trkpt>
      <trkpt lat="47.2652" lon="-2.28641">
        <ele>7.1999998092651</ele>
        <time>2021-12-05T10:40:58.000Z</time>
      </trkpt>
      <trkpt lat="47.26528" lon="-2.28654">
        <ele>7.1999998092651</ele>
        <time>2021-12-05T10:41:00.000Z</time>
      </trkpt>
      <trkpt lat="47.26552" lon="-2.28684">
        <ele>6.8000001907349</ele>
        <time>2021-12-05T10:41:05.000Z</time>
      </trkpt>
      <trkpt lat="47.26557" lon="-2.28689">
        <ele>6.4000000953674</ele>
        <time>2021-12-05T10:41:06.000Z</time>
      </trkpt>
      <trkpt lat="47.26563" lon="-2.28695">
        <ele>6</ele>
        <time>2021-12-05T10:41:07.000Z</time>
      </trkpt>
      <trkpt lat="47.26568" lon="-2.28702">
        <ele>5.5999999046326</ele>
        <time>2021-12-05T10:41:08.000Z</time>
      </trkpt>
      <trkpt lat="47.26573" lon="-2.28708">
        <ele>5.1999998092651</ele>
        <time>2021-12-05T10:41:09.000Z</time>
      </trkpt>
      <trkpt lat="47.26588" lon="-2.28724">
        <ele>5.1999998092651</ele>
        <time>2021-12-05T10:41:12.000Z</time>
      </trkpt>
      <trkpt lat="47.26612" lon="-2.28752">
        <ele>4.8000001907349</ele>
        <time>2021-12-05T10:41:17.000Z</time>
      </trkpt>
      <trkpt lat="47.26616" lon="-2.28757">
        <ele>4.4000000953674</ele>
        <time>2021-12-05T10:41:18.000Z</time>
      </trkpt>
      <trkpt lat="47.26621" lon="-2.28763">
        <ele>4</ele>
        <time>2021-12-05T10:41:19.000Z</time>
      </trkpt>
      <trkpt lat="47.26625" lon="-2.28769">
        <ele>3.5999999046326</ele>
        <time>2021-12-05T10:41:20.000Z</time>
      </trkpt>
      <trkpt lat="47.2663" lon="-2.28774">
        <ele>3.2000000476837</ele>
        <time>2021-12-05T10:41:21.000Z</time>
      </trkpt>
      <trkpt lat="47.26642" lon="-2.28786">
        <ele>3.2000000476837</ele>
        <time>2021-12-05T10:41:23.000Z</time>
      </trkpt>
      <trkpt lat="47.26677" lon="-2.2882">
        <ele>3.2000000476837</ele>
        <time>2021-12-05T10:41:29.000Z</time>
      </trkpt>
      <trkpt lat="47.2672" lon="-2.28858">
        <ele>3.2000000476837</ele>
        <time>2021-12-05T10:41:36.000Z</time>
      </trkpt>
      <trkpt lat="47.26739" lon="-2.28872">
        <ele>2.5999999046326</ele>
        <time>2021-12-05T10:41:39.000Z</time>
      </trkpt>
      <trkpt lat="47.26745" lon="-2.28877">
        <ele>2.2000000476837</ele>
        <time>2021-12-05T10:41:40.000Z</time>
      </trkpt>
      <trkpt lat="47.26751" lon="-2.28882">
        <ele>1.7999999523163</ele>
        <time>2021-12-05T10:41:41.000Z</time>
      </trkpt>
      <trkpt lat="47.26757" lon="-2.28887">
        <ele>1.3999999761581</ele>
        <time>2021-12-05T10:41:42.000Z</time>
      </trkpt>
      <trkpt lat="47.26763" lon="-2.28891">
        <ele>1</ele>
        <time>2021-12-05T10:41:43.000Z</time>
      </trkpt>
      <trkpt lat="47.26804" lon="-2.28923">
        <ele>1</ele>
        <time>2021-12-05T10:41:50.000Z</time>
      </trkpt>
      <trkpt lat="47.26849" lon="-2.28945">
        <ele>1</ele>
        <time>2021-12-05T10:41:57.000Z</time>
      </trkpt>
      <trkpt lat="47.26892" lon="-2.28965">
        <ele>1</ele>
        <time>2021-12-05T10:42:04.000Z</time>
      </trkpt>
      <trkpt lat="47.26923" lon="-2.28981">
        <ele>1</ele>
        <time>2021-12-05T10:42:10.000Z</time>
      </trkpt>
      <trkpt lat="47.26924" lon="-2.28991">
        <ele>0.20000000298023</ele>
        <time>2021-12-05T10:42:12.000Z</time>
      </trkpt>
      <trkpt lat="47.26922" lon="-2.28994">
        <ele>-0.20000000298023</ele>
        <time>2021-12-05T10:42:13.000Z</time>
      </trkpt>
      <trkpt lat="47.26919" lon="-2.28996">
        <ele>-0.60000002384186</ele>
        <time>2021-12-05T10:42:14.000Z</time>
      </trkpt>
      <trkpt lat="47.26916" lon="-2.28997">
        <ele>-1</ele>
        <time>2021-12-05T10:42:15.000Z</time>
      </trkpt>
      <trkpt lat="47.26912" lon="-2.28999">
        <ele>-1</ele>
        <time>2021-12-05T10:42:16.000Z</time>
      </trkpt>
      <trkpt lat="47.26909" lon="-2.29">
        <ele>-1</ele>
        <time>2021-12-05T10:42:17.000Z</time>
      </trkpt>
      <trkpt lat="47.26888" lon="-2.29013">
        <ele>-1</ele>
        <time>2021-12-05T10:42:23.000Z</time>
      </trkpt>
      <trkpt lat="47.26873" lon="-2.29026">
        <ele>-1</ele>
        <time>2021-12-05T10:42:28.000Z</time>
      </trkpt>
      <trkpt lat="47.26863" lon="-2.29034">
        <ele>-1</ele>
        <time>2021-12-05T10:42:34.000Z</time>
      </trkpt>
      <trkpt lat="47.26853" lon="-2.29044">
        <ele>-1</ele>
        <time>2021-12-05T10:42:40.000Z</time>
      </trkpt>
      <trkpt lat="47.26841" lon="-2.29055">
        <ele>-1</ele>
        <time>2021-12-05T10:42:46.000Z</time>
      </trkpt>
      <trkpt lat="47.26828" lon="-2.29067">
        <ele>-1</ele>
        <time>2021-12-05T10:42:52.000Z</time>
      </trkpt>
      <trkpt lat="47.26813" lon="-2.29084">
        <ele>-1</ele>
        <time>2021-12-05T10:42:58.000Z</time>
      </trkpt>
      <trkpt lat="47.26792" lon="-2.29106">
        <ele>-1</ele>
        <time>2021-12-05T10:43:05.000Z</time>
      </trkpt>
      <trkpt lat="47.26789" lon="-2.29109">
        <ele>-0.60000002384186</ele>
        <time>2021-12-05T10:43:06.000Z</time>
      </trkpt>
      <trkpt lat="47.26786" lon="-2.29112">
        <ele>-0.20000000298023</ele>
        <time>2021-12-05T10:43:07.000Z</time>
      </trkpt>
      <trkpt lat="47.26783" lon="-2.29116">
        <ele>0.20000000298023</ele>
        <time>2021-12-05T10:43:08.000Z</time>
      </trkpt>
      <trkpt lat="47.26779" lon="-2.29119">
        <ele>0.60000002384186</ele>
        <time>2021-12-05T10:43:09.000Z</time>
      </trkpt>
      <trkpt lat="47.26776" lon="-2.29122">
        <ele>1</ele>
        <time>2021-12-05T10:43:10.000Z</time>
      </trkpt>
      <trkpt lat="47.26768" lon="-2.29129">
        <ele>1</ele>
        <time>2021-12-05T10:43:12.000Z</time>
      </trkpt>
      <trkpt lat="47.2675" lon="-2.29149">
        <ele>1</ele>
        <time>2021-12-05T10:43:18.000Z</time>
      </trkpt>
      <trkpt lat="47.26731" lon="-2.29167">
        <ele>1.3999999761581</ele>
        <time>2021-12-05T10:43:23.000Z</time>
      </trkpt>
      <trkpt lat="47.26728" lon="-2.29171">
        <ele>1.7999999523163</ele>
        <time>2021-12-05T10:43:24.000Z</time>
      </trkpt>
      <trkpt lat="47.26724" lon="-2.29175">
        <ele>2.4000000953674</ele>
        <time>2021-12-05T10:43:25.000Z</time>
      </trkpt>
      <trkpt lat="47.2672" lon="-2.29178">
        <ele>3.2000000476837</ele>
        <time>2021-12-05T10:43:26.000Z</time>
      </trkpt>
      <trkpt lat="47.26702" lon="-2.29197">
        <ele>3.2000000476837</ele>
        <time>2021-12-05T10:43:31.000Z</time>
      </trkpt>
      <trkpt lat="47.2669" lon="-2.29207">
        <ele>3.5999999046326</ele>
        <time>2021-12-05T10:43:34.000Z</time>
      </trkpt>
      <trkpt lat="47.26687" lon="-2.29211">
        <ele>4</ele>
        <time>2021-12-05T10:43:35.000Z</time>
      </trkpt>
      <trkpt lat="47.26682" lon="-2.29214">
        <ele>4.4000000953674</ele>
        <time>2021-12-05T10:43:36.000Z</time>
      </trkpt>
      <trkpt lat="47.26679" lon="-2.29218">
        <ele>4.8000001907349</ele>
        <time>2021-12-05T10:43:37.000Z</time>
      </trkpt>
      <trkpt lat="47.26675" lon="-2.29222">
        <ele>5.1999998092651</ele>
        <time>2021-12-05T10:43:38.000Z</time>
      </trkpt>
      <trkpt lat="47.26651" lon="-2.29245">
        <ele>5.1999998092651</ele>
        <time>2021-12-05T10:43:45.000Z</time>
      </trkpt>
      <trkpt lat="47.26631" lon="-2.29263">
        <ele>5.5999999046326</ele>
        <time>2021-12-05T10:43:51.000Z</time>
      </trkpt>
      <trkpt lat="47.26627" lon="-2.29266">
        <ele>6.1999998092651</ele>
        <time>2021-12-05T10:43:52.000Z</time>
      </trkpt>
      <trkpt lat="47.26624" lon="-2.29269">
        <ele>6.5999999046326</ele>
        <time>2021-12-05T10:43:53.000Z</time>
      </trkpt>
      <trkpt lat="47.2662" lon="-2.29272">
        <ele>7</ele>
        <time>2021-12-05T10:43:54.000Z</time>
      </trkpt>
      <trkpt lat="47.26616" lon="-2.29274">
        <ele>7.4000000953674</ele>
        <time>2021-12-05T10:43:55.000Z</time>
      </trkpt>
      <trkpt lat="47.26605" lon="-2.29281">
        <ele>7.4000000953674</ele>
        <time>2021-12-05T10:43:58.000Z</time>
      </trkpt>
      <trkpt lat="47.26586" lon="-2.29293">
        <ele>7.4000000953674</ele>
        <time>2021-12-05T10:44:03.000Z</time>
      </trkpt>
      <trkpt lat="47.26578" lon="-2.29298">
        <ele>7.4000000953674</ele>
        <time>2021-12-05T10:44:05.000Z</time>
      </trkpt>
      <trkpt lat="47.26555" lon="-2.29312">
        <ele>7.4000000953674</ele>
        <time>2021-12-05T10:44:11.000Z</time>
      </trkpt>
      <trkpt lat="47.26551" lon="-2.29315">
        <ele>7.4000000953674</ele>
        <time>2021-12-05T10:44:12.000Z</time>
      </trkpt>
      <trkpt lat="47.26519" lon="-2.29332">
        <ele>7.8000001907349</ele>
        <time>2021-12-05T10:44:20.000Z</time>
      </trkpt>
      <trkpt lat="47.26515" lon="-2.29334">
        <ele>8.1999998092651</ele>
        <time>2021-12-05T10:44:21.000Z</time>
      </trkpt>
      <trkpt lat="47.2651" lon="-2.29335">
        <ele>8.8000001907349</ele>
        <time>2021-12-05T10:44:22.000Z</time>
      </trkpt>
      <trkpt lat="47.26506" lon="-2.29337">
        <ele>9.1999998092651</ele>
        <time>2021-12-05T10:44:23.000Z</time>
      </trkpt>
      <trkpt lat="47.26502" lon="-2.29339">
        <ele>9.6000003814697</ele>
        <time>2021-12-05T10:44:24.000Z</time>
      </trkpt>
      <trkpt lat="47.26491" lon="-2.29339">
        <ele>9.6000003814697</ele>
        <time>2021-12-05T10:44:27.000Z</time>
      </trkpt>
      <trkpt lat="47.26486" lon="-2.2934">
        <ele>9.6000003814697</ele>
        <time>2021-12-05T10:44:28.000Z</time>
      </trkpt>
      <trkpt lat="47.26469" lon="-2.29337">
        <ele>9.6000003814697</ele>
        <time>2021-12-05T10:44:32.000Z</time>
      </trkpt>
      <trkpt lat="47.26452" lon="-2.29329">
        <ele>9.6000003814697</ele>
        <time>2021-12-05T10:44:36.000Z</time>
      </trkpt>
      <trkpt lat="47.26443" lon="-2.29323">
        <ele>9.6000003814697</ele>
        <time>2021-12-05T10:44:38.000Z</time>
      </trkpt>
      <trkpt lat="47.26413" lon="-2.29306">
        <ele>9.6000003814697</ele>
        <time>2021-12-05T10:44:45.000Z</time>
      </trkpt>
      <trkpt lat="47.26409" lon="-2.29303">
        <ele>9.6000003814697</ele>
        <time>2021-12-05T10:44:46.000Z</time>
      </trkpt>
      <trkpt lat="47.26381" lon="-2.29288">
        <ele>9.6000003814697</ele>
        <time>2021-12-05T10:44:52.000Z</time>
      </trkpt>
      <trkpt lat="47.26343" lon="-2.29275">
        <ele>9.6000003814697</ele>
        <time>2021-12-05T10:44:59.000Z</time>
      </trkpt>
      <trkpt lat="47.26332" lon="-2.29273">
        <ele>9.6000003814697</ele>
        <time>2021-12-05T10:45:01.000Z</time>
      </trkpt>
      <trkpt lat="47.26315" lon="-2.29274">
        <ele>9.6000003814697</ele>
        <time>2021-12-05T10:45:04.000Z</time>
      </trkpt>
      <trkpt lat="47.26282" lon="-2.29284">
        <ele>9.6000003814697</ele>
        <time>2021-12-05T10:45:10.000Z</time>
      </trkpt>
      <trkpt lat="47.26259" lon="-2.29297">
        <ele>9.1999998092651</ele>
        <time>2021-12-05T10:45:14.000Z</time>
      </trkpt>
      <trkpt lat="47.26253" lon="-2.29302">
        <ele>8.8000001907349</ele>
        <time>2021-12-05T10:45:15.000Z</time>
      </trkpt>
      <trkpt lat="47.26248" lon="-2.29306">
        <ele>8.1999998092651</ele>
        <time>2021-12-05T10:45:16.000Z</time>
      </trkpt>
      <trkpt lat="47.26242" lon="-2.2931">
        <ele>7.8000001907349</ele>
        <time>2021-12-05T10:45:17.000Z</time>
      </trkpt>
      <trkpt lat="47.26237" lon="-2.29314">
        <ele>7.4000000953674</ele>
        <time>2021-12-05T10:45:18.000Z</time>
      </trkpt>
      <trkpt lat="47.26218" lon="-2.29332">
        <ele>7.4000000953674</ele>
        <time>2021-12-05T10:45:22.000Z</time>
      </trkpt>
      <trkpt lat="47.26213" lon="-2.29336">
        <ele>7</ele>
        <time>2021-12-05T10:45:23.000Z</time>
      </trkpt>
      <trkpt lat="47.26207" lon="-2.29341">
        <ele>6.5999999046326</ele>
        <time>2021-12-05T10:45:24.000Z</time>
      </trkpt>
      <trkpt lat="47.26203" lon="-2.29345">
        <ele>6.1999998092651</ele>
        <time>2021-12-05T10:45:25.000Z</time>
      </trkpt>
      <trkpt lat="47.26198" lon="-2.29349">
        <ele>5.5999999046326</ele>
        <time>2021-12-05T10:45:26.000Z</time>
      </trkpt>
      <trkpt lat="47.26194" lon="-2.29352">
        <ele>5.1999998092651</ele>
        <time>2021-12-05T10:45:27.000Z</time>
      </trkpt>
      <trkpt lat="47.26189" lon="-2.29355">
        <ele>5.1999998092651</ele>
        <time>2021-12-05T10:45:28.000Z</time>
      </trkpt>
      <trkpt lat="47.26172" lon="-2.29364">
        <ele>5.1999998092651</ele>
        <time>2021-12-05T10:45:31.000Z</time>
      </trkpt>
      <trkpt lat="47.26158" lon="-2.2936">
        <ele>4.8000001907349</ele>
        <time>2021-12-05T10:45:33.000Z</time>
      </trkpt>
      <trkpt lat="47.26152" lon="-2.29358">
        <ele>4.4000000953674</ele>
        <time>2021-12-05T10:45:34.000Z</time>
      </trkpt>
      <trkpt lat="47.26146" lon="-2.29355">
        <ele>4</ele>
        <time>2021-12-05T10:45:35.000Z</time>
      </trkpt>
      <trkpt lat="47.26142" lon="-2.29353">
        <ele>3.4000000953674</ele>
        <time>2021-12-05T10:45:36.000Z</time>
      </trkpt>
      <trkpt lat="47.26137" lon="-2.29352">
        <ele>3</ele>
        <time>2021-12-05T10:45:37.000Z</time>
      </trkpt>
      <trkpt lat="47.26132" lon="-2.29366">
        <ele>3</ele>
        <time>2021-12-05T10:45:39.000Z</time>
      </trkpt>
      <trkpt lat="47.26131" lon="-2.29372">
        <ele>2.5999999046326</ele>
        <time>2021-12-05T10:45:40.000Z</time>
      </trkpt>
      <trkpt lat="47.26131" lon="-2.29379">
        <ele>2.2000000476837</ele>
        <time>2021-12-05T10:45:41.000Z</time>
      </trkpt>
      <trkpt lat="47.26131" lon="-2.29387">
        <ele>1.7999999523163</ele>
        <time>2021-12-05T10:45:42.000Z</time>
      </trkpt>
      <trkpt lat="47.2613" lon="-2.29395">
        <ele>1.3999999761581</ele>
        <time>2021-12-05T10:45:43.000Z</time>
      </trkpt>
      <trkpt lat="47.26128" lon="-2.29403">
        <ele>1</ele>
        <time>2021-12-05T10:45:44.000Z</time>
      </trkpt>
      <trkpt lat="47.26125" lon="-2.29443">
        <ele>1</ele>
        <time>2021-12-05T10:45:49.000Z</time>
      </trkpt>
      <trkpt lat="47.26133" lon="-2.29481">
        <ele>1</ele>
        <time>2021-12-05T10:45:54.000Z</time>
      </trkpt>
      <trkpt lat="47.26135" lon="-2.29487">
        <ele>1</ele>
        <time>2021-12-05T10:45:55.000Z</time>
      </trkpt>
      <trkpt lat="47.26152" lon="-2.29517">
        <ele>1</ele>
        <time>2021-12-05T10:46:00.000Z</time>
      </trkpt>
      <trkpt lat="47.26156" lon="-2.29522">
        <ele>1</ele>
        <time>2021-12-05T10:46:01.000Z</time>
      </trkpt>
      <trkpt lat="47.26173" lon="-2.29534">
        <ele>1.3999999761581</ele>
        <time>2021-12-05T10:46:05.000Z</time>
      </trkpt>
      <trkpt lat="47.26177" lon="-2.29537">
        <ele>1.7999999523163</ele>
        <time>2021-12-05T10:46:06.000Z</time>
      </trkpt>
      <trkpt lat="47.26181" lon="-2.2954">
        <ele>2.2000000476837</ele>
        <time>2021-12-05T10:46:07.000Z</time>
      </trkpt>
      <trkpt lat="47.26185" lon="-2.29543">
        <ele>2.5999999046326</ele>
        <time>2021-12-05T10:46:08.000Z</time>
      </trkpt>
      <trkpt lat="47.26187" lon="-2.29547">
        <ele>3</ele>
        <time>2021-12-05T10:46:09.000Z</time>
      </trkpt>
      <trkpt lat="47.26191" lon="-2.29555">
        <ele>3</ele>
        <time>2021-12-05T10:46:11.000Z</time>
      </trkpt>
      <trkpt lat="47.26199" lon="-2.2957">
        <ele>3</ele>
        <time>2021-12-05T10:46:16.000Z</time>
      </trkpt>
      <trkpt lat="47.26199" lon="-2.29571">
        <ele>3</ele>
        <time>2021-12-05T10:46:17.000Z</time>
      </trkpt>
      <trkpt lat="47.26199" lon="-2.29572">
        <ele>3</ele>
        <time>2021-12-05T10:48:29.000Z</time>
      </trkpt>
      <trkpt lat="47.26199" lon="-2.29575">
        <ele>3</ele>
        <time>2021-12-05T10:48:30.000Z</time>
      </trkpt>
      <trkpt lat="47.26206" lon="-2.29595">
        <ele>3</ele>
        <time>2021-12-05T10:48:35.000Z</time>
      </trkpt>
      <trkpt lat="47.26211" lon="-2.29612">
        <ele>3</ele>
        <time>2021-12-05T10:48:40.000Z</time>
      </trkpt>
      <trkpt lat="47.26217" lon="-2.29633">
        <ele>3</ele>
        <time>2021-12-05T10:48:46.000Z</time>
      </trkpt>
      <trkpt lat="47.26218" lon="-2.29637">
        <ele>3.5999999046326</ele>
        <time>2021-12-05T10:48:47.000Z</time>
      </trkpt>
      <trkpt lat="47.2622" lon="-2.29641">
        <ele>4</ele>
        <time>2021-12-05T10:48:48.000Z</time>
      </trkpt>
      <trkpt lat="47.26221" lon="-2.29645">
        <ele>4.4000000953674</ele>
        <time>2021-12-05T10:48:49.000Z</time>
      </trkpt>
      <trkpt lat="47.26223" lon="-2.29648">
        <ele>4.8000001907349</ele>
        <time>2021-12-05T10:48:50.000Z</time>
      </trkpt>
      <trkpt lat="47.26225" lon="-2.29652">
        <ele>5.1999998092651</ele>
        <time>2021-12-05T10:48:51.000Z</time>
      </trkpt>
      <trkpt lat="47.26234" lon="-2.29663">
        <ele>5.1999998092651</ele>
        <time>2021-12-05T10:48:56.000Z</time>
      </trkpt>
      <trkpt lat="47.26247" lon="-2.29667">
        <ele>5.1999998092651</ele>
        <time>2021-12-05T10:49:00.000Z</time>
      </trkpt>
      <trkpt lat="47.2627" lon="-2.2967">
        <ele>5.1999998092651</ele>
        <time>2021-12-05T10:49:05.000Z</time>
      </trkpt>
      <trkpt lat="47.26278" lon="-2.29673">
        <ele>5.1999998092651</ele>
        <time>2021-12-05T10:49:07.000Z</time>
      </trkpt>
      <trkpt lat="47.26287" lon="-2.29675">
        <ele>5.5999999046326</ele>
        <time>2021-12-05T10:49:09.000Z</time>
      </trkpt>
      <trkpt lat="47.26291" lon="-2.29676">
        <ele>6.4000000953674</ele>
        <time>2021-12-05T10:49:10.000Z</time>
      </trkpt>
      <trkpt lat="47.26294" lon="-2.29678">
        <ele>7</ele>
        <time>2021-12-05T10:49:11.000Z</time>
      </trkpt>
      <trkpt lat="47.26298" lon="-2.29679">
        <ele>7.4000000953674</ele>
        <time>2021-12-05T10:49:12.000Z</time>
      </trkpt>
      <trkpt lat="47.26301" lon="-2.29681">
        <ele>7.4000000953674</ele>
        <time>2021-12-05T10:49:13.000Z</time>
      </trkpt>
      <trkpt lat="47.26317" lon="-2.29688">
        <ele>7.4000000953674</ele>
        <time>2021-12-05T10:49:17.000Z</time>
      </trkpt>
      <trkpt lat="47.2632" lon="-2.29692">
        <ele>7.4000000953674</ele>
        <time>2021-12-05T10:49:18.000Z</time>
      </trkpt>
      <trkpt lat="47.26329" lon="-2.29714">
        <ele>7.4000000953674</ele>
        <time>2021-12-05T10:49:22.000Z</time>
      </trkpt>
      <trkpt lat="47.26338" lon="-2.29757">
        <ele>7.4000000953674</ele>
        <time>2021-12-05T10:49:29.000Z</time>
      </trkpt>
      <trkpt lat="47.26345" lon="-2.29787">
        <ele>7.4000000953674</ele>
        <time>2021-12-05T10:49:35.000Z</time>
      </trkpt>
      <trkpt lat="47.26345" lon="-2.2979">
        <ele>7.4000000953674</ele>
        <time>2021-12-05T10:49:36.000Z</time>
      </trkpt>
      <trkpt lat="47.2634" lon="-2.29797">
        <ele>7.4000000953674</ele>
        <time>2021-12-05T10:49:39.000Z</time>
      </trkpt>
      <trkpt lat="47.26337" lon="-2.29799">
        <ele>7</ele>
        <time>2021-12-05T10:49:40.000Z</time>
      </trkpt>
      <trkpt lat="47.26334" lon="-2.29802">
        <ele>6.4000000953674</ele>
        <time>2021-12-05T10:49:41.000Z</time>
      </trkpt>
      <trkpt lat="47.26331" lon="-2.29804">
        <ele>6</ele>
        <time>2021-12-05T10:49:42.000Z</time>
      </trkpt>
      <trkpt lat="47.26327" lon="-2.29806">
        <ele>5.5999999046326</ele>
        <time>2021-12-05T10:49:43.000Z</time>
      </trkpt>
      <trkpt lat="47.26323" lon="-2.29809">
        <ele>5.1999998092651</ele>
        <time>2021-12-05T10:49:44.000Z</time>
      </trkpt>
      <trkpt lat="47.26319" lon="-2.29812">
        <ele>5.1999998092651</ele>
        <time>2021-12-05T10:49:45.000Z</time>
      </trkpt>
      <trkpt lat="47.263" lon="-2.29819">
        <ele>5.1999998092651</ele>
        <time>2021-12-05T10:49:49.000Z</time>
      </trkpt>
      <trkpt lat="47.26256" lon="-2.29831">
        <ele>5.1999998092651</ele>
        <time>2021-12-05T10:49:57.000Z</time>
      </trkpt>
      <trkpt lat="47.26244" lon="-2.29835">
        <ele>4.8000001907349</ele>
        <time>2021-12-05T10:49:59.000Z</time>
      </trkpt>
      <trkpt lat="47.26238" lon="-2.29835">
        <ele>3.7999999523163</ele>
        <time>2021-12-05T10:50:00.000Z</time>
      </trkpt>
      <trkpt lat="47.26233" lon="-2.29835">
        <ele>3.4000000953674</ele>
        <time>2021-12-05T10:50:01.000Z</time>
      </trkpt>
      <trkpt lat="47.26228" lon="-2.29836">
        <ele>3</ele>
        <time>2021-12-05T10:50:02.000Z</time>
      </trkpt>
      <trkpt lat="47.26224" lon="-2.29838">
        <ele>3</ele>
        <time>2021-12-05T10:50:03.000Z</time>
      </trkpt>
      <trkpt lat="47.26219" lon="-2.29847">
        <ele>2.5999999046326</ele>
        <time>2021-12-05T10:50:05.000Z</time>
      </trkpt>
      <trkpt lat="47.26217" lon="-2.29854">
        <ele>2.2000000476837</ele>
        <time>2021-12-05T10:50:06.000Z</time>
      </trkpt>
      <trkpt lat="47.26217" lon="-2.2986">
        <ele>1.7999999523163</ele>
        <time>2021-12-05T10:50:07.000Z</time>
      </trkpt>
      <trkpt lat="47.26218" lon="-2.29867">
        <ele>1.3999999761581</ele>
        <time>2021-12-05T10:50:08.000Z</time>
      </trkpt>
      <trkpt lat="47.26219" lon="-2.29873">
        <ele>1</ele>
        <time>2021-12-05T10:50:09.000Z</time>
      </trkpt>
      <trkpt lat="47.26219" lon="-2.29879">
        <ele>1</ele>
        <time>2021-12-05T10:50:10.000Z</time>
      </trkpt>
      <trkpt lat="47.26222" lon="-2.29919">
        <ele>1</ele>
        <time>2021-12-05T10:50:16.000Z</time>
      </trkpt>
      <trkpt lat="47.26224" lon="-2.29945">
        <ele>1</ele>
        <time>2021-12-05T10:50:20.000Z</time>
      </trkpt>
      <trkpt lat="47.26225" lon="-2.29958">
        <ele>1</ele>
        <time>2021-12-05T10:50:22.000Z</time>
      </trkpt>
      <trkpt lat="47.26227" lon="-2.29986">
        <ele>1</ele>
        <time>2021-12-05T10:50:26.000Z</time>
      </trkpt>
      <trkpt lat="47.26227" lon="-2.30007">
        <ele>1</ele>
        <time>2021-12-05T10:50:29.000Z</time>
      </trkpt>
      <trkpt lat="47.26226" lon="-2.30028">
        <ele>1</ele>
        <time>2021-12-05T10:50:32.000Z</time>
      </trkpt>
      <trkpt lat="47.26226" lon="-2.30043">
        <ele>1</ele>
        <time>2021-12-05T10:50:34.000Z</time>
      </trkpt>
      <trkpt lat="47.26232" lon="-2.30072">
        <ele>1</ele>
        <time>2021-12-05T10:50:38.000Z</time>
      </trkpt>
      <trkpt lat="47.26234" lon="-2.30079">
        <ele>1</ele>
        <time>2021-12-05T10:50:39.000Z</time>
      </trkpt>
      <trkpt lat="47.26244" lon="-2.30113">
        <ele>1</ele>
        <time>2021-12-05T10:50:44.000Z</time>
      </trkpt>
      <trkpt lat="47.26245" lon="-2.30119">
        <ele>1</ele>
        <time>2021-12-05T10:50:45.000Z</time>
      </trkpt>
      <trkpt lat="47.26245" lon="-2.30124">
        <ele>1</ele>
        <time>2021-12-05T10:50:46.000Z</time>
      </trkpt>
      <trkpt lat="47.26241" lon="-2.30128">
        <ele>1</ele>
        <time>2021-12-05T10:50:48.000Z</time>
      </trkpt>
      <trkpt lat="47.26228" lon="-2.30135">
        <ele>0.40000000596046</ele>
        <time>2021-12-05T10:50:52.000Z</time>
      </trkpt>
      <trkpt lat="47.26225" lon="-2.30137">
        <ele>30.2</ele>
        <time>2021-12-05T10:50:53.000Z</time>
      </trkpt>
      <trkpt lat="47.26221" lon="-2.30138">
        <ele>-0.40000000596046</ele>
        <time>2021-12-05T10:50:54.000Z</time>
      </trkpt>
      <trkpt lat="47.26217" lon="-2.3014">
        <ele>-0.80000001192093</ele>
        <time>2021-12-05T10:50:55.000Z</time>
      </trkpt>
      <trkpt lat="47.26213" lon="-2.30141">
        <ele>-1.2000000476837</ele>
        <time>2021-12-05T10:50:56.000Z</time>
      </trkpt>
      <trkpt lat="47.26188" lon="-2.30152">
        <ele>-1.2000000476837</ele>
        <time>2021-12-05T10:51:02.000Z</time>
      </trkpt>
      <trkpt lat="47.26177" lon="-2.30155">
        <ele>-1.2000000476837</ele>
        <time>2021-12-05T10:51:05.000Z</time>
      </trkpt>
      <trkpt lat="47.26175" lon="-2.30153">
        <ele>-1.2000000476837</ele>
        <time>2021-12-05T10:51:06.000Z</time>
      </trkpt>
      <trkpt lat="47.26173" lon="-2.30147">
        <ele>-1.6000000238419</ele>
        <time>2021-12-05T10:51:08.000Z</time>
      </trkpt>
      <trkpt lat="47.26172" lon="-2.30144">
        <ele>-2</ele>
        <time>2021-12-05T10:51:09.000Z</time>
      </trkpt>
      <trkpt lat="47.2617" lon="-2.30144">
        <ele>-2.4000000953674</ele>
        <time>2021-12-05T10:51:10.000Z</time>
      </trkpt>
      <trkpt lat="47.26167" lon="-2.30144">
        <ele>-3</ele>
        <time>2021-12-05T10:51:11.000Z</time>
      </trkpt>
      <trkpt lat="47.26164" lon="-2.30146">
        <ele>-3.4000000953674</ele>
        <time>2021-12-05T10:51:12.000Z</time>
      </trkpt>
      <trkpt lat="47.26161" lon="-2.30147">
        <ele>-3.4000000953674</ele>
        <time>2021-12-05T10:51:13.000Z</time>
      </trkpt>
      <trkpt lat="47.2615" lon="-2.30152">
        <ele>-3.4000000953674</ele>
        <time>2021-12-05T10:51:16.000Z</time>
      </trkpt>
      <trkpt lat="47.26129" lon="-2.30161">
        <ele>-3.7999999523163</ele>
        <time>2021-12-05T10:51:21.000Z</time>
      </trkpt>
      <trkpt lat="47.26124" lon="-2.30162">
        <ele>-4.1999998092651</ele>
        <time>2021-12-05T10:51:22.000Z</time>
      </trkpt>
      <trkpt lat="47.2612" lon="-2.30164">
        <ele>-4.5999999046326</ele>
        <time>2021-12-05T10:51:23.000Z</time>
      </trkpt>
      <trkpt lat="47.26116" lon="-2.30164">
        <ele>-5</ele>
        <time>2021-12-05T10:51:24.000Z</time>
      </trkpt>
      <trkpt lat="47.26113" lon="-2.30165">
        <ele>-5.4000000953674</ele>
        <time>2021-12-05T10:51:25.000Z</time>
      </trkpt>
      <trkpt lat="47.26109" lon="-2.30166">
        <ele>-5.4000000953674</ele>
        <time>2021-12-05T10:51:26.000Z</time>
      </trkpt>
      <trkpt lat="47.26104" lon="-2.30162">
        <ele>-5.8000001907349</ele>
        <time>2021-12-05T10:51:28.000Z</time>
      </trkpt>
      <trkpt lat="47.26103" lon="-2.30158">
        <ele>-6.1999998092651</ele>
        <time>2021-12-05T10:51:29.000Z</time>
      </trkpt>
      <trkpt lat="47.26101" lon="-2.30156">
        <ele>-6.8000001907349</ele>
        <time>2021-12-05T10:51:30.000Z</time>
      </trkpt>
      <trkpt lat="47.26099" lon="-2.30154">
        <ele>-7.1999998092651</ele>
        <time>2021-12-05T10:51:31.000Z</time>
      </trkpt>
      <trkpt lat="47.26097" lon="-2.30154">
        <ele>-7.5999999046326</ele>
        <time>2021-12-05T10:51:32.000Z</time>
      </trkpt>
      <trkpt lat="47.26092" lon="-2.30156">
        <ele>-7.5999999046326</ele>
        <time>2021-12-05T10:51:34.000Z</time>
      </trkpt>
      <trkpt lat="47.26082" lon="-2.30154">
        <ele>-7.5999999046326</ele>
        <time>2021-12-05T10:51:38.000Z</time>
      </trkpt>
      <trkpt lat="47.26079" lon="-2.30152">
        <ele>-8.3999996185303</ele>
        <time>2021-12-05T10:51:39.000Z</time>
      </trkpt>
      <trkpt lat="47.26076" lon="-2.3015">
        <ele>-9</ele>
        <time>2021-12-05T10:51:40.000Z</time>
      </trkpt>
      <trkpt lat="47.26071" lon="-2.30145">
        <ele>-9.3999996185303</ele>
        <time>2021-12-05T10:51:41.000Z</time>
      </trkpt>
      <trkpt lat="47.26067" lon="-2.30143">
        <ele>-9.8000001907349</ele>
        <time>2021-12-05T10:51:42.000Z</time>
      </trkpt>
      <trkpt lat="47.26058" lon="-2.30142">
        <ele>-9.8000001907349</ele>
        <time>2021-12-05T10:51:44.000Z</time>
      </trkpt>
      <trkpt lat="47.26037" lon="-2.3014">
        <ele>-9.8000001907349</ele>
        <time>2021-12-05T10:51:49.000Z</time>
      </trkpt>
      <trkpt lat="47.26027" lon="-2.30136">
        <ele>-9.8000001907349</ele>
        <time>2021-12-05T10:51:51.000Z</time>
      </trkpt>
      <trkpt lat="47.26021" lon="-2.30135">
        <ele>-10.199999809265</ele>
        <time>2021-12-05T10:51:52.000Z</time>
      </trkpt>
      <trkpt lat="47.26014" lon="-2.30136">
        <ele>-10.800000190735</ele>
        <time>2021-12-05T10:51:53.000Z</time>
      </trkpt>
      <trkpt lat="47.26008" lon="-2.30135">
        <ele>-11.199999809265</ele>
        <time>2021-12-05T10:51:54.000Z</time>
      </trkpt>
      <trkpt lat="47.26002" lon="-2.30135">
        <ele>-11.60000038147</ele>
        <time>2021-12-05T10:51:55.000Z</time>
      </trkpt>
      <trkpt lat="47.25996" lon="-2.30136">
        <ele>-12</ele>
        <time>2021-12-05T10:51:56.000Z</time>
      </trkpt>
      <trkpt lat="47.25984" lon="-2.30143">
        <ele>-12</ele>
        <time>2021-12-05T10:51:58.000Z</time>
      </trkpt>
      <trkpt lat="47.25972" lon="-2.30153">
        <ele>-12</ele>
        <time>2021-12-05T10:52:00.000Z</time>
      </trkpt>
      <trkpt lat="47.25967" lon="-2.30158">
        <ele>-12</ele>
        <time>2021-12-05T10:52:01.000Z</time>
      </trkpt>
      <trkpt lat="47.2596" lon="-2.30163">
        <ele>-12</ele>
        <time>2021-12-05T10:52:02.000Z</time>
      </trkpt>
      <trkpt lat="47.25936" lon="-2.30173">
        <ele>-12</ele>
        <time>2021-12-05T10:52:06.000Z</time>
      </trkpt>
      <trkpt lat="47.25924" lon="-2.30176">
        <ele>-12</ele>
        <time>2021-12-05T10:52:08.000Z</time>
      </trkpt>
      <trkpt lat="47.25913" lon="-2.30177">
        <ele>-12</ele>
        <time>2021-12-05T10:52:10.000Z</time>
      </trkpt>
      <trkpt lat="47.25904" lon="-2.3018">
        <ele>-12</ele>
        <time>2021-12-05T10:52:12.000Z</time>
      </trkpt>
      <trkpt lat="47.25894" lon="-2.30195">
        <ele>-12</ele>
        <time>2021-12-05T10:52:15.000Z</time>
      </trkpt>
      <trkpt lat="47.25895" lon="-2.30222">
        <ele>-12</ele>
        <time>2021-12-05T10:52:19.000Z</time>
      </trkpt>
      <trkpt lat="47.25896" lon="-2.30256">
        <ele>-12</ele>
        <time>2021-12-05T10:52:24.000Z</time>
      </trkpt>
      <trkpt lat="47.25896" lon="-2.30263">
        <ele>-12</ele>
        <time>2021-12-05T10:52:25.000Z</time>
      </trkpt>
      <trkpt lat="47.25897" lon="-2.3029">
        <ele>-12</ele>
        <time>2021-12-05T10:52:29.000Z</time>
      </trkpt>
      <trkpt lat="47.25894" lon="-2.30301">
        <ele>-12</ele>
        <time>2021-12-05T10:52:31.000Z</time>
      </trkpt>
      <trkpt lat="47.25882" lon="-2.30309">
        <ele>-11.60000038147</ele>
        <time>2021-12-05T10:52:34.000Z</time>
      </trkpt>
      <trkpt lat="47.25877" lon="-2.30309">
        <ele>-11.199999809265</ele>
        <time>2021-12-05T10:52:35.000Z</time>
      </trkpt>
      <trkpt lat="47.25872" lon="-2.30309">
        <ele>-10.800000190735</ele>
        <time>2021-12-05T10:52:36.000Z</time>
      </trkpt>
      <trkpt lat="47.25867" lon="-2.30309">
        <ele>-10.39999961853</ele>
        <time>2021-12-05T10:52:37.000Z</time>
      </trkpt>
      <trkpt lat="47.25863" lon="-2.30305">
        <ele>-10</ele>
        <time>2021-12-05T10:52:38.000Z</time>
      </trkpt>
      <trkpt lat="47.2586" lon="-2.303">
        <ele>-10</ele>
        <time>2021-12-05T10:52:39.000Z</time>
      </trkpt>
      <trkpt lat="47.25853" lon="-2.30287">
        <ele>-10</ele>
        <time>2021-12-05T10:52:41.000Z</time>
      </trkpt>
      <trkpt lat="47.25844" lon="-2.30278">
        <ele>-10</ele>
        <time>2021-12-05T10:52:43.000Z</time>
      </trkpt>
      <trkpt lat="47.25832" lon="-2.30271">
        <ele>-10</ele>
        <time>2021-12-05T10:52:45.000Z</time>
      </trkpt>
      <trkpt lat="47.25813" lon="-2.30262">
        <ele>-10.39999961853</ele>
        <time>2021-12-05T10:52:48.000Z</time>
      </trkpt>
      <trkpt lat="47.25806" lon="-2.30258">
        <ele>-11</ele>
        <time>2021-12-05T10:52:49.000Z</time>
      </trkpt>
      <trkpt lat="47.25799" lon="-2.30255">
        <ele>-11.39999961853</ele>
        <time>2021-12-05T10:52:50.000Z</time>
      </trkpt>
      <trkpt lat="47.25792" lon="-2.30251">
        <ele>-12</ele>
        <time>2021-12-05T10:52:51.000Z</time>
      </trkpt>
      <trkpt lat="47.25785" lon="-2.30247">
        <ele>-12.39999961853</ele>
        <time>2021-12-05T10:52:52.000Z</time>
      </trkpt>
      <trkpt lat="47.25766" lon="-2.30238">
        <ele>-12.39999961853</ele>
        <time>2021-12-05T10:52:55.000Z</time>
      </trkpt>
      <trkpt lat="47.25734" lon="-2.30222">
        <ele>-12.39999961853</ele>
        <time>2021-12-05T10:53:01.000Z</time>
      </trkpt>
      <trkpt lat="47.25725" lon="-2.30218">
        <ele>-12.39999961853</ele>
        <time>2021-12-05T10:53:03.000Z</time>
      </trkpt>
      <trkpt lat="47.25709" lon="-2.30221">
        <ele>-12.39999961853</ele>
        <time>2021-12-05T10:53:06.000Z</time>
      </trkpt>
      <trkpt lat="47.257" lon="-2.30227">
        <ele>-12</ele>
        <time>2021-12-05T10:53:08.000Z</time>
      </trkpt>
      <trkpt lat="47.25697" lon="-2.30232">
        <ele>-11.60000038147</ele>
        <time>2021-12-05T10:53:09.000Z</time>
      </trkpt>
      <trkpt lat="47.25694" lon="-2.30238">
        <ele>-11.199999809265</ele>
        <time>2021-12-05T10:53:10.000Z</time>
      </trkpt>
      <trkpt lat="47.25691" lon="-2.30244">
        <ele>-10.800000190735</ele>
        <time>2021-12-05T10:53:11.000Z</time>
      </trkpt>
      <trkpt lat="47.25689" lon="-2.30251">
        <ele>-10.39999961853</ele>
        <time>2021-12-05T10:53:12.000Z</time>
      </trkpt>
      <trkpt lat="47.25688" lon="-2.30262">
        <ele>-10.39999961853</ele>
        <time>2021-12-05T10:53:14.000Z</time>
      </trkpt>
      <trkpt lat="47.25687" lon="-2.30281">
        <ele>-10.39999961853</ele>
        <time>2021-12-05T10:53:18.000Z</time>
      </trkpt>
      <trkpt lat="47.25685" lon="-2.30304">
        <ele>-9.8000001907349</ele>
        <time>2021-12-05T10:53:22.000Z</time>
      </trkpt>
      <trkpt lat="47.25682" lon="-2.30309">
        <ele>-9.3999996185303</ele>
        <time>2021-12-05T10:53:23.000Z</time>
      </trkpt>
      <trkpt lat="47.25679" lon="-2.30313">
        <ele>-9</ele>
        <time>2021-12-05T10:53:24.000Z</time>
      </trkpt>
      <trkpt lat="47.25675" lon="-2.30316">
        <ele>-8.3999996185303</ele>
        <time>2021-12-05T10:53:25.000Z</time>
      </trkpt>
      <trkpt lat="47.25671" lon="-2.30318">
        <ele>-8</ele>
        <time>2021-12-05T10:53:26.000Z</time>
      </trkpt>
      <trkpt lat="47.25666" lon="-2.30321">
        <ele>-8</ele>
        <time>2021-12-05T10:53:27.000Z</time>
      </trkpt>
      <trkpt lat="47.25662" lon="-2.30324">
        <ele>-8</ele>
        <time>2021-12-05T10:53:28.000Z</time>
      </trkpt>
      <trkpt lat="47.25646" lon="-2.3034">
        <ele>-8</ele>
        <time>2021-12-05T10:53:32.000Z</time>
      </trkpt>
      <trkpt lat="47.25641" lon="-2.30343">
        <ele>-8</ele>
        <time>2021-12-05T10:53:33.000Z</time>
      </trkpt>
      <trkpt lat="47.25634" lon="-2.30342">
        <ele>-8</ele>
        <time>2021-12-05T10:53:35.000Z</time>
      </trkpt>
      <trkpt lat="47.25628" lon="-2.30326">
        <ele>-8</ele>
        <time>2021-12-05T10:53:38.000Z</time>
      </trkpt>
      <trkpt lat="47.25627" lon="-2.30308">
        <ele>-8</ele>
        <time>2021-12-05T10:53:41.000Z</time>
      </trkpt>
      <trkpt lat="47.25626" lon="-2.30295">
        <ele>-8</ele>
        <time>2021-12-05T10:53:43.000Z</time>
      </trkpt>
      <trkpt lat="47.25625" lon="-2.30288">
        <ele>-8</ele>
        <time>2021-12-05T10:53:44.000Z</time>
      </trkpt>
      <trkpt lat="47.2562" lon="-2.30254">
        <ele>-8</ele>
        <time>2021-12-05T10:53:49.000Z</time>
      </trkpt>
      <trkpt lat="47.25613" lon="-2.30221">
        <ele>-8</ele>
        <time>2021-12-05T10:53:54.000Z</time>
      </trkpt>
      <trkpt lat="47.25611" lon="-2.30216">
        <ele>-8</ele>
        <time>2021-12-05T10:53:55.000Z</time>
      </trkpt>
      <trkpt lat="47.25605" lon="-2.30205">
        <ele>-8</ele>
        <time>2021-12-05T10:53:57.000Z</time>
      </trkpt>
      <trkpt lat="47.25598" lon="-2.30197">
        <ele>-8</ele>
        <time>2021-12-05T10:53:59.000Z</time>
      </trkpt>
      <trkpt lat="47.25594" lon="-2.30194">
        <ele>-8</ele>
        <time>2021-12-05T10:54:00.000Z</time>
      </trkpt>
      <trkpt lat="47.25576" lon="-2.30183">
        <ele>-8</ele>
        <time>2021-12-05T10:54:05.000Z</time>
      </trkpt>
      <trkpt lat="47.25557" lon="-2.30184">
        <ele>-8</ele>
        <time>2021-12-05T10:54:10.000Z</time>
      </trkpt>
      <trkpt lat="47.25536" lon="-2.30197">
        <ele>-8</ele>
        <time>2021-12-05T10:54:16.000Z</time>
      </trkpt>
      <trkpt lat="47.25521" lon="-2.30198">
        <ele>-8</ele>
        <time>2021-12-05T10:54:21.000Z</time>
      </trkpt>
      <trkpt lat="47.25506" lon="-2.30204">
        <ele>-8</ele>
        <time>2021-12-05T10:54:26.000Z</time>
      </trkpt>
      <trkpt lat="47.25495" lon="-2.30214">
        <ele>-8</ele>
        <time>2021-12-05T10:54:30.000Z</time>
      </trkpt>
      <trkpt lat="47.25493" lon="-2.30218">
        <ele>-8</ele>
        <time>2021-12-05T10:54:31.000Z</time>
      </trkpt>
      <trkpt lat="47.25485" lon="-2.30236">
        <ele>-8</ele>
        <time>2021-12-05T10:54:35.000Z</time>
      </trkpt>
      <trkpt lat="47.25476" lon="-2.30247">
        <ele>-8</ele>
        <time>2021-12-05T10:54:38.000Z</time>
      </trkpt>
      <trkpt lat="47.25473" lon="-2.30246">
        <ele>-8</ele>
        <time>2021-12-05T10:54:39.000Z</time>
      </trkpt>
      <trkpt lat="47.25451" lon="-2.30239">
        <ele>-7.5999999046326</ele>
        <time>2021-12-05T10:54:45.000Z</time>
      </trkpt>
      <trkpt lat="47.25447" lon="-2.30238">
        <ele>-7.1999998092651</ele>
        <time>2021-12-05T10:54:46.000Z</time>
      </trkpt>
      <trkpt lat="47.25443" lon="-2.30237">
        <ele>-6.8000001907349</ele>
        <time>2021-12-05T10:54:47.000Z</time>
      </trkpt>
      <trkpt lat="47.25439" lon="-2.30235">
        <ele>-6.1999998092651</ele>
        <time>2021-12-05T10:54:48.000Z</time>
      </trkpt>
      <trkpt lat="47.25436" lon="-2.30234">
        <ele>-5.8000001907349</ele>
        <time>2021-12-05T10:54:49.000Z</time>
      </trkpt>
      <trkpt lat="47.25424" lon="-2.30228">
        <ele>-5.8000001907349</ele>
        <time>2021-12-05T10:54:52.000Z</time>
      </trkpt>
      <trkpt lat="47.25406" lon="-2.30221">
        <ele>-5.8000001907349</ele>
        <time>2021-12-05T10:54:57.000Z</time>
      </trkpt>
      <trkpt lat="47.25386" lon="-2.30212">
        <ele>-5.8000001907349</ele>
        <time>2021-12-05T10:55:04.000Z</time>
      </trkpt>
      <trkpt lat="47.2537" lon="-2.30211">
        <ele>-5.8000001907349</ele>
        <time>2021-12-05T10:55:10.000Z</time>
      </trkpt>
      <trkpt lat="47.25363" lon="-2.30211">
        <ele>-5.4000000953674</ele>
        <time>2021-12-05T10:55:12.000Z</time>
      </trkpt>
      <trkpt lat="47.2536" lon="-2.30211">
        <ele>-5</ele>
        <time>2021-12-05T10:55:13.000Z</time>
      </trkpt>
      <trkpt lat="47.25356" lon="-2.3021">
        <ele>-4.5999999046326</ele>
        <time>2021-12-05T10:55:14.000Z</time>
      </trkpt>
      <trkpt lat="47.25352" lon="-2.3021">
        <ele>-4.1999998092651</ele>
        <time>2021-12-05T10:55:15.000Z</time>
      </trkpt>
      <trkpt lat="47.25348" lon="-2.3021">
        <ele>-3.7999999523163</ele>
        <time>2021-12-05T10:55:16.000Z</time>
      </trkpt>
      <trkpt lat="47.25327" lon="-2.30208">
        <ele>-3.7999999523163</ele>
        <time>2021-12-05T10:55:22.000Z</time>
      </trkpt>
      <trkpt lat="47.25316" lon="-2.30207">
        <ele>-3.7999999523163</ele>
        <time>2021-12-05T10:55:25.000Z</time>
      </trkpt>
      <trkpt lat="47.25312" lon="-2.30211">
        <ele>-3.7999999523163</ele>
        <time>2021-12-05T10:55:27.000Z</time>
      </trkpt>
      <trkpt lat="47.2531" lon="-2.30212">
        <ele>-3.7999999523163</ele>
        <time>2021-12-05T10:55:28.000Z</time>
      </trkpt>
      <trkpt lat="47.25303" lon="-2.30208">
        <ele>-3.7999999523163</ele>
        <time>2021-12-05T10:55:31.000Z</time>
      </trkpt>
      <trkpt lat="47.25286" lon="-2.302">
        <ele>-3.7999999523163</ele>
        <time>2021-12-05T10:55:36.000Z</time>
      </trkpt>
      <trkpt lat="47.25262" lon="-2.3019">
        <ele>-3.7999999523163</ele>
        <time>2021-12-05T10:55:42.000Z</time>
      </trkpt>
      <trkpt lat="47.25259" lon="-2.30189">
        <ele>-3.4000000953674</ele>
        <time>2021-12-05T10:55:43.000Z</time>
      </trkpt>
      <trkpt lat="47.25255" lon="-2.30187">
        <ele>-3</ele>
        <time>2021-12-05T10:55:44.000Z</time>
      </trkpt>
      <trkpt lat="47.25252" lon="-2.30186">
        <ele>-2.5999999046326</ele>
        <time>2021-12-05T10:55:45.000Z</time>
      </trkpt>
      <trkpt lat="47.25249" lon="-2.30185">
        <ele>-1.7999999523163</ele>
        <time>2021-12-05T10:55:46.000Z</time>
      </trkpt>
      <trkpt lat="47.25239" lon="-2.30182">
        <ele>-1.7999999523163</ele>
        <time>2021-12-05T10:55:49.000Z</time>
      </trkpt>
      <trkpt lat="47.25221" lon="-2.30169">
        <ele>-1.7999999523163</ele>
        <time>2021-12-05T10:55:54.000Z</time>
      </trkpt>
      <trkpt lat="47.252" lon="-2.30144">
        <ele>-1.7999999523163</ele>
        <time>2021-12-05T10:56:00.000Z</time>
      </trkpt>
      <trkpt lat="47.25196" lon="-2.3014">
        <ele>-1.3999999761581</ele>
        <time>2021-12-05T10:56:01.000Z</time>
      </trkpt>
      <trkpt lat="47.25194" lon="-2.30136">
        <ele>-1</ele>
        <time>2021-12-05T10:56:02.000Z</time>
      </trkpt>
      <trkpt lat="47.25191" lon="-2.30131">
        <ele>-0.60000002384186</ele>
        <time>2021-12-05T10:56:03.000Z</time>
      </trkpt>
      <trkpt lat="47.25189" lon="-2.30126">
        <ele>-0.20000000298023</ele>
        <time>2021-12-05T10:56:04.000Z</time>
      </trkpt>
      <trkpt lat="47.25186" lon="-2.30123">
        <ele>0.40000000596046</ele>
        <time>2021-12-05T10:56:05.000Z</time>
      </trkpt>
      <trkpt lat="47.25179" lon="-2.30116">
        <ele>0.40000000596046</ele>
        <time>2021-12-05T10:56:08.000Z</time>
      </trkpt>
      <trkpt lat="47.25174" lon="-2.30116">
        <ele>0.40000000596046</ele>
        <time>2021-12-05T10:56:10.000Z</time>
      </trkpt>
      <trkpt lat="47.25166" lon="-2.30119">
        <ele>0.40000000596046</ele>
        <time>2021-12-05T10:56:12.000Z</time>
      </trkpt>
      <trkpt lat="47.25149" lon="-2.30124">
        <ele>0.80000001192093</ele>
        <time>2021-12-05T10:56:17.000Z</time>
      </trkpt>
      <trkpt lat="47.25146" lon="-2.30125">
        <ele>1.2000000476837</ele>
        <time>2021-12-05T10:56:18.000Z</time>
      </trkpt>
      <trkpt lat="47.25143" lon="-2.30126">
        <ele>1.6000000238419</ele>
        <time>2021-12-05T10:56:19.000Z</time>
      </trkpt>
      <trkpt lat="47.2514" lon="-2.30126">
        <ele>2</ele>
        <time>2021-12-05T10:56:20.000Z</time>
      </trkpt>
      <trkpt lat="47.25136" lon="-2.30126">
        <ele>2.4000000953674</ele>
        <time>2021-12-05T10:56:21.000Z</time>
      </trkpt>
      <trkpt lat="47.25123" lon="-2.30127">
        <ele>2.4000000953674</ele>
        <time>2021-12-05T10:56:25.000Z</time>
      </trkpt>
      <trkpt lat="47.251" lon="-2.30132">
        <ele>2.4000000953674</ele>
        <time>2021-12-05T10:56:31.000Z</time>
      </trkpt>
      <trkpt lat="47.2509" lon="-2.30134">
        <ele>2.7999999523163</ele>
        <time>2021-12-05T10:56:34.000Z</time>
      </trkpt>
      <trkpt lat="47.25087" lon="-2.30135">
        <ele>3.5999999046326</ele>
        <time>2021-12-05T10:56:35.000Z</time>
      </trkpt>
      <trkpt lat="47.25084" lon="-2.30135">
        <ele>4</ele>
        <time>2021-12-05T10:56:36.000Z</time>
      </trkpt>
      <trkpt lat="47.25081" lon="-2.30134">
        <ele>4.4000000953674</ele>
        <time>2021-12-05T10:56:37.000Z</time>
      </trkpt>
      <trkpt lat="47.2507" lon="-2.30139">
        <ele>4.4000000953674</ele>
        <time>2021-12-05T10:56:41.000Z</time>
      </trkpt>
      <trkpt lat="47.25069" lon="-2.30142">
        <ele>4.4000000953674</ele>
        <time>2021-12-05T10:56:42.000Z</time>
      </trkpt>
      <trkpt lat="47.25066" lon="-2.30156">
        <ele>4.4000000953674</ele>
        <time>2021-12-05T10:56:45.000Z</time>
      </trkpt>
      <trkpt lat="47.25064" lon="-2.30167">
        <ele>4.4000000953674</ele>
        <time>2021-12-05T10:56:47.000Z</time>
      </trkpt>
      <trkpt lat="47.2506" lon="-2.30214">
        <ele>4.4000000953674</ele>
        <time>2021-12-05T10:56:55.000Z</time>
      </trkpt>
      <trkpt lat="47.25062" lon="-2.30238">
        <ele>4.4000000953674</ele>
        <time>2021-12-05T10:56:59.000Z</time>
      </trkpt>
      <trkpt lat="47.25065" lon="-2.30249">
        <ele>4.4000000953674</ele>
        <time>2021-12-05T10:57:01.000Z</time>
      </trkpt>
      <trkpt lat="47.25068" lon="-2.30261">
        <ele>4.4000000953674</ele>
        <time>2021-12-05T10:57:03.000Z</time>
      </trkpt>
      <trkpt lat="47.25076" lon="-2.30277">
        <ele>4.4000000953674</ele>
        <time>2021-12-05T10:57:06.000Z</time>
      </trkpt>
      <trkpt lat="47.25096" lon="-2.30319">
        <ele>4.4000000953674</ele>
        <time>2021-12-05T10:57:13.000Z</time>
      </trkpt>
      <trkpt lat="47.25107" lon="-2.3036">
        <ele>4.4000000953674</ele>
        <time>2021-12-05T10:57:19.000Z</time>
      </trkpt>
      <trkpt lat="47.25113" lon="-2.3039">
        <ele>4.4000000953674</ele>
        <time>2021-12-05T10:57:24.000Z</time>
      </trkpt>
      <trkpt lat="47.25114" lon="-2.30396">
        <ele>4</ele>
        <time>2021-12-05T10:57:25.000Z</time>
      </trkpt>
      <trkpt lat="47.25116" lon="-2.30402">
        <ele>3.5999999046326</ele>
        <time>2021-12-05T10:57:26.000Z</time>
      </trkpt>
      <trkpt lat="47.25118" lon="-2.30408">
        <ele>3.2000000476837</ele>
        <time>2021-12-05T10:57:27.000Z</time>
      </trkpt>
      <trkpt lat="47.2512" lon="-2.30413">
        <ele>2.7999999523163</ele>
        <time>2021-12-05T10:57:28.000Z</time>
      </trkpt>
      <trkpt lat="47.25123" lon="-2.30419">
        <ele>2.4000000953674</ele>
        <time>2021-12-05T10:57:29.000Z</time>
      </trkpt>
      <trkpt lat="47.25125" lon="-2.30425">
        <ele>2.4000000953674</ele>
        <time>2021-12-05T10:57:30.000Z</time>
      </trkpt>
      <trkpt lat="47.25147" lon="-2.30477">
        <ele>2.4000000953674</ele>
        <time>2021-12-05T10:57:39.000Z</time>
      </trkpt>
      <trkpt lat="47.2516" lon="-2.30511">
        <ele>2.4000000953674</ele>
        <time>2021-12-05T10:57:45.000Z</time>
      </trkpt>
      <trkpt lat="47.25163" lon="-2.30522">
        <ele>2.4000000953674</ele>
        <time>2021-12-05T10:57:47.000Z</time>
      </trkpt>
      <trkpt lat="47.25171" lon="-2.3055">
        <ele>2.4000000953674</ele>
        <time>2021-12-05T10:57:52.000Z</time>
      </trkpt>
      <trkpt lat="47.25174" lon="-2.30562">
        <ele>2</ele>
        <time>2021-12-05T10:57:54.000Z</time>
      </trkpt>
      <trkpt lat="47.25176" lon="-2.30567">
        <ele>1.6000000238419</ele>
        <time>2021-12-05T10:57:55.000Z</time>
      </trkpt>
      <trkpt lat="47.25177" lon="-2.30573">
        <ele>1.2000000476837</ele>
        <time>2021-12-05T10:57:56.000Z</time>
      </trkpt>
      <trkpt lat="47.25179" lon="-2.30578">
        <ele>0.80000001192093</ele>
        <time>2021-12-05T10:57:57.000Z</time>
      </trkpt>
      <trkpt lat="47.25181" lon="-2.30583">
        <ele>0.40000000596046</ele>
        <time>2021-12-05T10:57:58.000Z</time>
      </trkpt>
      <trkpt lat="47.25185" lon="-2.306">
        <ele>0.40000000596046</ele>
        <time>2021-12-05T10:58:01.000Z</time>
      </trkpt>
      <trkpt lat="47.25188" lon="-2.30606">
        <ele>0.40000000596046</ele>
        <time>2021-12-05T10:58:02.000Z</time>
      </trkpt>
      <trkpt lat="47.25198" lon="-2.30627">
        <ele>0.40000000596046</ele>
        <time>2021-12-05T10:58:06.000Z</time>
      </trkpt>
      <trkpt lat="47.25207" lon="-2.30647">
        <ele>29.7</ele>
        <time>2021-12-05T10:58:10.000Z</time>
      </trkpt>
      <trkpt lat="47.25208" lon="-2.30652">
        <ele>-0.60000002384186</ele>
        <time>2021-12-05T10:58:11.000Z</time>
      </trkpt>
      <trkpt lat="47.2521" lon="-2.30657">
        <ele>-1</ele>
        <time>2021-12-05T10:58:12.000Z</time>
      </trkpt>
      <trkpt lat="47.25212" lon="-2.30661">
        <ele>-1.7999999523163</ele>
        <time>2021-12-05T10:58:13.000Z</time>
      </trkpt>
      <trkpt lat="47.25215" lon="-2.30664">
        <ele>-1.7999999523163</ele>
        <time>2021-12-05T10:58:14.000Z</time>
      </trkpt>
      <trkpt lat="47.25223" lon="-2.30675">
        <ele>-2.4000000953674</ele>
        <time>2021-12-05T10:58:18.000Z</time>
      </trkpt>
      <trkpt lat="47.25223" lon="-2.30675">
        <ele>-2.7999999523163</ele>
        <time>2021-12-05T10:58:19.000Z</time>
      </trkpt>
      <trkpt lat="47.25223" lon="-2.30676">
        <ele>-3.2000000476837</ele>
        <time>2021-12-05T10:58:20.000Z</time>
      </trkpt>
      <trkpt lat="47.25223" lon="-2.30677">
        <ele>-4.4000000953674</ele>
        <time>2021-12-05T10:59:16.000Z</time>
      </trkpt>
      <trkpt lat="47.25232" lon="-2.30681">
        <ele>-4.4000000953674</ele>
        <time>2021-12-05T10:59:20.000Z</time>
      </trkpt>
      <trkpt lat="47.25241" lon="-2.3069">
        <ele>-4.4000000953674</ele>
        <time>2021-12-05T10:59:23.000Z</time>
      </trkpt>
      <trkpt lat="47.2525" lon="-2.30715">
        <ele>-4.4000000953674</ele>
        <time>2021-12-05T10:59:28.000Z</time>
      </trkpt>
      <trkpt lat="47.25252" lon="-2.30727">
        <ele>-4.4000000953674</ele>
        <time>2021-12-05T10:59:30.000Z</time>
      </trkpt>
      <trkpt lat="47.25254" lon="-2.30754">
        <ele>-4.4000000953674</ele>
        <time>2021-12-05T10:59:34.000Z</time>
      </trkpt>
      <trkpt lat="47.2526" lon="-2.30816">
        <ele>-4.4000000953674</ele>
        <time>2021-12-05T10:59:42.000Z</time>
      </trkpt>
      <trkpt lat="47.25263" lon="-2.30832">
        <ele>-4.8000001907349</ele>
        <time>2021-12-05T10:59:44.000Z</time>
      </trkpt>
      <trkpt lat="47.25265" lon="-2.3084">
        <ele>-5.1999998092651</ele>
        <time>2021-12-05T10:59:45.000Z</time>
      </trkpt>
      <trkpt lat="47.25267" lon="-2.30849">
        <ele>-5.5999999046326</ele>
        <time>2021-12-05T10:59:46.000Z</time>
      </trkpt>
      <trkpt lat="47.25269" lon="-2.30857">
        <ele>-6</ele>
        <time>2021-12-05T10:59:47.000Z</time>
      </trkpt>
      <trkpt lat="47.25272" lon="-2.30865">
        <ele>-6.4000000953674</ele>
        <time>2021-12-05T10:59:48.000Z</time>
      </trkpt>
      <trkpt lat="47.25285" lon="-2.30906">
        <ele>-7</ele>
        <time>2021-12-05T10:59:53.000Z</time>
      </trkpt>
      <trkpt lat="47.25287" lon="-2.30915">
        <ele>-7.4000000953674</ele>
        <time>2021-12-05T10:59:54.000Z</time>
      </trkpt>
      <trkpt lat="47.2529" lon="-2.30924">
        <ele>-7.8000001907349</ele>
        <time>2021-12-05T10:59:55.000Z</time>
      </trkpt>
      <trkpt lat="47.25292" lon="-2.30932">
        <ele>-8.1999998092651</ele>
        <time>2021-12-05T10:59:56.000Z</time>
      </trkpt>
      <trkpt lat="47.25295" lon="-2.30941">
        <ele>-8.6000003814697</ele>
        <time>2021-12-05T10:59:57.000Z</time>
      </trkpt>
      <trkpt lat="47.25307" lon="-2.30984">
        <ele>-8.6000003814697</ele>
        <time>2021-12-05T11:00:02.000Z</time>
      </trkpt>
      <trkpt lat="47.25313" lon="-2.3101">
        <ele>-9.1999998092651</ele>
        <time>2021-12-05T11:00:05.000Z</time>
      </trkpt>
      <trkpt lat="47.25315" lon="-2.31019">
        <ele>-9.6000003814697</ele>
        <time>2021-12-05T11:00:06.000Z</time>
      </trkpt>
      <trkpt lat="47.25317" lon="-2.31028">
        <ele>-10</ele>
        <time>2021-12-05T11:00:07.000Z</time>
      </trkpt>
      <trkpt lat="47.25319" lon="-2.31037">
        <ele>-10.39999961853</ele>
        <time>2021-12-05T11:00:08.000Z</time>
      </trkpt>
      <trkpt lat="47.25321" lon="-2.31045">
        <ele>-10.800000190735</ele>
        <time>2021-12-05T11:00:09.000Z</time>
      </trkpt>
      <trkpt lat="47.2533" lon="-2.31092">
        <ele>-10.800000190735</ele>
        <time>2021-12-05T11:00:15.000Z</time>
      </trkpt>
      <trkpt lat="47.25334" lon="-2.31106">
        <ele>-10.800000190735</ele>
        <time>2021-12-05T11:00:17.000Z</time>
      </trkpt>
      <trkpt lat="47.25344" lon="-2.31125">
        <ele>-10.800000190735</ele>
        <time>2021-12-05T11:00:20.000Z</time>
      </trkpt>
      <trkpt lat="47.25347" lon="-2.31133">
        <ele>-10.800000190735</ele>
        <time>2021-12-05T11:00:21.000Z</time>
      </trkpt>
      <trkpt lat="47.25347" lon="-2.31142">
        <ele>-11.39999961853</ele>
        <time>2021-12-05T11:00:22.000Z</time>
      </trkpt>
      <trkpt lat="47.25348" lon="-2.3115">
        <ele>-11.800000190735</ele>
        <time>2021-12-05T11:00:23.000Z</time>
      </trkpt>
      <trkpt lat="47.25347" lon="-2.31159">
        <ele>-12.39999961853</ele>
        <time>2021-12-05T11:00:24.000Z</time>
      </trkpt>
      <trkpt lat="47.25347" lon="-2.31167">
        <ele>-13</ele>
        <time>2021-12-05T11:00:25.000Z</time>
      </trkpt>
      <trkpt lat="47.25347" lon="-2.31176">
        <ele>-13.60000038147</ele>
        <time>2021-12-05T11:00:26.000Z</time>
      </trkpt>
      <trkpt lat="47.25348" lon="-2.31184">
        <ele>-13.60000038147</ele>
        <time>2021-12-05T11:00:27.000Z</time>
      </trkpt>
      <trkpt lat="47.25348" lon="-2.31192">
        <ele>-13.60000038147</ele>
        <time>2021-12-05T11:00:28.000Z</time>
      </trkpt>
      <trkpt lat="47.2535" lon="-2.31253">
        <ele>-13.60000038147</ele>
        <time>2021-12-05T11:00:36.000Z</time>
      </trkpt>
      <trkpt lat="47.25348" lon="-2.31283">
        <ele>-13</ele>
        <time>2021-12-05T11:00:40.000Z</time>
      </trkpt>
      <trkpt lat="47.25348" lon="-2.3129">
        <ele>-12.199999809265</ele>
        <time>2021-12-05T11:00:41.000Z</time>
      </trkpt>
      <trkpt lat="47.25347" lon="-2.31298">
        <ele>-11.800000190735</ele>
        <time>2021-12-05T11:00:42.000Z</time>
      </trkpt>
      <trkpt lat="47.25347" lon="-2.31305">
        <ele>-11.39999961853</ele>
        <time>2021-12-05T11:00:43.000Z</time>
      </trkpt>
      <trkpt lat="47.25346" lon="-2.31326">
        <ele>-11.39999961853</ele>
        <time>2021-12-05T11:00:46.000Z</time>
      </trkpt>
      <trkpt lat="47.25344" lon="-2.31346">
        <ele>-11.39999961853</ele>
        <time>2021-12-05T11:00:49.000Z</time>
      </trkpt>
      <trkpt lat="47.25342" lon="-2.31359">
        <ele>-11</ele>
        <time>2021-12-05T11:00:51.000Z</time>
      </trkpt>
      <trkpt lat="47.25342" lon="-2.31365">
        <ele>-10.60000038147</ele>
        <time>2021-12-05T11:00:52.000Z</time>
      </trkpt>
      <trkpt lat="47.25341" lon="-2.31371">
        <ele>-10</ele>
        <time>2021-12-05T11:00:53.000Z</time>
      </trkpt>
      <trkpt lat="47.25341" lon="-2.31377">
        <ele>-9.6000003814697</ele>
        <time>2021-12-05T11:00:54.000Z</time>
      </trkpt>
      <trkpt lat="47.25342" lon="-2.31383">
        <ele>-9.1999998092651</ele>
        <time>2021-12-05T11:00:55.000Z</time>
      </trkpt>
      <trkpt lat="47.25342" lon="-2.31411">
        <ele>-9.1999998092651</ele>
        <time>2021-12-05T11:01:00.000Z</time>
      </trkpt>
      <trkpt lat="47.25341" lon="-2.31417">
        <ele>-9.1999998092651</ele>
        <time>2021-12-05T11:01:01.000Z</time>
      </trkpt>
      <trkpt lat="47.25337" lon="-2.31428">
        <ele>-9.1999998092651</ele>
        <time>2021-12-05T11:01:03.000Z</time>
      </trkpt>
      <trkpt lat="47.25331" lon="-2.31444">
        <ele>-9.1999998092651</ele>
        <time>2021-12-05T11:01:06.000Z</time>
      </trkpt>
      <trkpt lat="47.2533" lon="-2.3147">
        <ele>-9.1999998092651</ele>
        <time>2021-12-05T11:01:10.000Z</time>
      </trkpt>
      <trkpt lat="47.2533" lon="-2.31476">
        <ele>-9.1999998092651</ele>
        <time>2021-12-05T11:01:11.000Z</time>
      </trkpt>
      <trkpt lat="47.25339" lon="-2.31528">
        <ele>-9.1999998092651</ele>
        <time>2021-12-05T11:01:20.000Z</time>
      </trkpt>
      <trkpt lat="47.25346" lon="-2.31551">
        <ele>-9.1999998092651</ele>
        <time>2021-12-05T11:01:24.000Z</time>
      </trkpt>
      <trkpt lat="47.2535" lon="-2.31563">
        <ele>-9.1999998092651</ele>
        <time>2021-12-05T11:01:26.000Z</time>
      </trkpt>
      <trkpt lat="47.25365" lon="-2.31594">
        <ele>-9.1999998092651</ele>
        <time>2021-12-05T11:01:32.000Z</time>
      </trkpt>
      <trkpt lat="47.25369" lon="-2.31599">
        <ele>-9.1999998092651</ele>
        <time>2021-12-05T11:01:33.000Z</time>
      </trkpt>
      <trkpt lat="47.25393" lon="-2.31638">
        <ele>-9.1999998092651</ele>
        <time>2021-12-05T11:01:40.000Z</time>
      </trkpt>
      <trkpt lat="47.25396" lon="-2.31644">
        <ele>-9.6000003814697</ele>
        <time>2021-12-05T11:01:41.000Z</time>
      </trkpt>
      <trkpt lat="47.25399" lon="-2.31651">
        <ele>-10</ele>
        <time>2021-12-05T11:01:42.000Z</time>
      </trkpt>
      <trkpt lat="47.25401" lon="-2.31656">
        <ele>-10.39999961853</ele>
        <time>2021-12-05T11:01:43.000Z</time>
      </trkpt>
      <trkpt lat="47.25405" lon="-2.31662">
        <ele>-10.800000190735</ele>
        <time>2021-12-05T11:01:44.000Z</time>
      </trkpt>
      <trkpt lat="47.25408" lon="-2.31667">
        <ele>-11.199999809265</ele>
        <time>2021-12-05T11:01:45.000Z</time>
      </trkpt>
      <trkpt lat="47.25411" lon="-2.31674">
        <ele>-11.199999809265</ele>
        <time>2021-12-05T11:01:46.000Z</time>
      </trkpt>
      <trkpt lat="47.25424" lon="-2.31705">
        <ele>-11.199999809265</ele>
        <time>2021-12-05T11:01:51.000Z</time>
      </trkpt>
      <trkpt lat="47.25438" lon="-2.31748">
        <ele>-11.199999809265</ele>
        <time>2021-12-05T11:01:58.000Z</time>
      </trkpt>
      <trkpt lat="47.25449" lon="-2.31791">
        <ele>-11.199999809265</ele>
        <time>2021-12-05T11:02:05.000Z</time>
      </trkpt>
      <trkpt lat="47.25455" lon="-2.31816">
        <ele>-11.199999809265</ele>
        <time>2021-12-05T11:02:09.000Z</time>
      </trkpt>
      <trkpt lat="47.25458" lon="-2.3182">
        <ele>-11.60000038147</ele>
        <time>2021-12-05T11:02:10.000Z</time>
      </trkpt>
      <trkpt lat="47.25461" lon="-2.31824">
        <ele>-12</ele>
        <time>2021-12-05T11:02:11.000Z</time>
      </trkpt>
      <trkpt lat="47.25465" lon="-2.31827">
        <ele>-12.39999961853</ele>
        <time>2021-12-05T11:02:12.000Z</time>
      </trkpt>
      <trkpt lat="47.25468" lon="-2.31828">
        <ele>-12.800000190735</ele>
        <time>2021-12-05T11:02:13.000Z</time>
      </trkpt>
      <trkpt lat="47.25473" lon="-2.31828">
        <ele>-13.199999809265</ele>
        <time>2021-12-05T11:02:14.000Z</time>
      </trkpt>
      <trkpt lat="47.25477" lon="-2.31827">
        <ele>-13.199999809265</ele>
        <time>2021-12-05T11:02:15.000Z</time>
      </trkpt>
      <trkpt lat="47.25489" lon="-2.31821">
        <ele>-13.199999809265</ele>
        <time>2021-12-05T11:02:18.000Z</time>
      </trkpt>
      <trkpt lat="47.25496" lon="-2.31817">
        <ele>-13.199999809265</ele>
        <time>2021-12-05T11:02:20.000Z</time>
      </trkpt>
      <trkpt lat="47.25507" lon="-2.31816">
        <ele>-13.199999809265</ele>
        <time>2021-12-05T11:02:24.000Z</time>
      </trkpt>
      <trkpt lat="47.25508" lon="-2.31819">
        <ele>-13.199999809265</ele>
        <time>2021-12-05T11:02:25.000Z</time>
      </trkpt>
      <trkpt lat="47.25504" lon="-2.31825">
        <ele>-13.199999809265</ele>
        <time>2021-12-05T11:02:28.000Z</time>
      </trkpt>
      <trkpt lat="47.25508" lon="-2.31831">
        <ele>-13.199999809265</ele>
        <time>2021-12-05T11:02:32.000Z</time>
      </trkpt>
      <trkpt lat="47.25513" lon="-2.31835">
        <ele>-13.199999809265</ele>
        <time>2021-12-05T11:02:36.000Z</time>
      </trkpt>
      <trkpt lat="47.25511" lon="-2.31842">
        <ele>-13.199999809265</ele>
        <time>2021-12-05T11:02:40.000Z</time>
      </trkpt>
      <trkpt lat="47.25504" lon="-2.31843">
        <ele>-13.199999809265</ele>
        <time>2021-12-05T11:02:44.000Z</time>
      </trkpt>
      <trkpt lat="47.25505" lon="-2.31835">
        <ele>-13.199999809265</ele>
        <time>2021-12-05T11:02:48.000Z</time>
      </trkpt>
      <trkpt lat="47.25508" lon="-2.31842">
        <ele>-13.199999809265</ele>
        <time>2021-12-05T11:02:51.000Z</time>
      </trkpt>
      <trkpt lat="47.2551" lon="-2.31854">
        <ele>-13.199999809265</ele>
        <time>2021-12-05T11:02:55.000Z</time>
      </trkpt>
      <trkpt lat="47.25512" lon="-2.31872">
        <ele>-13.199999809265</ele>
        <time>2021-12-05T11:02:59.000Z</time>
      </trkpt>
      <trkpt lat="47.25515" lon="-2.31903">
        <ele>-13.199999809265</ele>
        <time>2021-12-05T11:03:06.000Z</time>
      </trkpt>
      <trkpt lat="47.25516" lon="-2.3192">
        <ele>-13.60000038147</ele>
        <time>2021-12-05T11:03:11.000Z</time>
      </trkpt>
      <trkpt lat="47.25516" lon="-2.31925">
        <ele>-14</ele>
        <time>2021-12-05T11:03:12.000Z</time>
      </trkpt>
      <trkpt lat="47.25516" lon="-2.3193">
        <ele>-14.39999961853</ele>
        <time>2021-12-05T11:03:13.000Z</time>
      </trkpt>
      <trkpt lat="47.25516" lon="-2.31936">
        <ele>-14.800000190735</ele>
        <time>2021-12-05T11:03:14.000Z</time>
      </trkpt>
      <trkpt lat="47.25516" lon="-2.31942">
        <ele>-15.199999809265</ele>
        <time>2021-12-05T11:03:15.000Z</time>
      </trkpt>
      <trkpt lat="47.25515" lon="-2.3196">
        <ele>-15.199999809265</ele>
        <time>2021-12-05T11:03:18.000Z</time>
      </trkpt>
      <trkpt lat="47.2552" lon="-2.31981">
        <ele>-15.199999809265</ele>
        <time>2021-12-05T11:03:22.000Z</time>
      </trkpt>
      <trkpt lat="47.25529" lon="-2.32017">
        <ele>-15.60000038147</ele>
        <time>2021-12-05T11:03:28.000Z</time>
      </trkpt>
      <trkpt lat="47.2553" lon="-2.32021">
        <ele>-16</ele>
        <time>2021-12-05T11:03:29.000Z</time>
      </trkpt>
      <trkpt lat="47.25531" lon="-2.32025">
        <ele>-16.39999961853</ele>
        <time>2021-12-05T11:03:30.000Z</time>
      </trkpt>
      <trkpt lat="47.25531" lon="-2.32029">
        <ele>-16.799999237061</ele>
        <time>2021-12-05T11:03:31.000Z</time>
      </trkpt>
      <trkpt lat="47.25529" lon="-2.32032">
        <ele>-17.200000762939</ele>
        <time>2021-12-05T11:03:32.000Z</time>
      </trkpt>
      <trkpt lat="47.25516" lon="-2.32044">
        <ele>-17.200000762939</ele>
        <time>2021-12-05T11:03:36.000Z</time>
      </trkpt>
      <trkpt lat="47.25492" lon="-2.32066">
        <ele>-17.200000762939</ele>
        <time>2021-12-05T11:03:43.000Z</time>
      </trkpt>
      <trkpt lat="47.25477" lon="-2.32078">
        <ele>-17.200000762939</ele>
        <time>2021-12-05T11:03:47.000Z</time>
      </trkpt>
      <trkpt lat="47.25466" lon="-2.32089">
        <ele>-17.200000762939</ele>
        <time>2021-12-05T11:03:50.000Z</time>
      </trkpt>
      <trkpt lat="47.25445" lon="-2.32104">
        <ele>-17.200000762939</ele>
        <time>2021-12-05T11:03:55.000Z</time>
      </trkpt>
      <trkpt lat="47.25436" lon="-2.3211">
        <ele>-17.200000762939</ele>
        <time>2021-12-05T11:03:57.000Z</time>
      </trkpt>
      <trkpt lat="47.25427" lon="-2.32114">
        <ele>-17.200000762939</ele>
        <time>2021-12-05T11:03:59.000Z</time>
      </trkpt>
      <trkpt lat="47.25413" lon="-2.32114">
        <ele>-17.200000762939</ele>
        <time>2021-12-05T11:04:02.000Z</time>
      </trkpt>
      <trkpt lat="47.25391" lon="-2.32099">
        <ele>-17.200000762939</ele>
        <time>2021-12-05T11:04:07.000Z</time>
      </trkpt>
      <trkpt lat="47.25382" lon="-2.32092">
        <ele>-17.200000762939</ele>
        <time>2021-12-05T11:04:09.000Z</time>
      </trkpt>
      <trkpt lat="47.25369" lon="-2.3208">
        <ele>-17.200000762939</ele>
        <time>2021-12-05T11:04:13.000Z</time>
      </trkpt>
      <trkpt lat="47.25358" lon="-2.32072">
        <ele>-17.200000762939</ele>
        <time>2021-12-05T11:04:18.000Z</time>
      </trkpt>
      <trkpt lat="47.25349" lon="-2.32085">
        <ele>-17.200000762939</ele>
        <time>2021-12-05T11:04:23.000Z</time>
      </trkpt>
      <trkpt lat="47.25344" lon="-2.32095">
        <ele>-17.200000762939</ele>
        <time>2021-12-05T11:04:25.000Z</time>
      </trkpt>
      <trkpt lat="47.25338" lon="-2.32109">
        <ele>-17.200000762939</ele>
        <time>2021-12-05T11:04:28.000Z</time>
      </trkpt>
      <trkpt lat="47.25337" lon="-2.32114">
        <ele>-17.200000762939</ele>
        <time>2021-12-05T11:04:29.000Z</time>
      </trkpt>
      <trkpt lat="47.25339" lon="-2.3213">
        <ele>-17.200000762939</ele>
        <time>2021-12-05T11:04:32.000Z</time>
      </trkpt>
      <trkpt lat="47.25343" lon="-2.32141">
        <ele>-17.200000762939</ele>
        <time>2021-12-05T11:04:34.000Z</time>
      </trkpt>
      <trkpt lat="47.25351" lon="-2.32168">
        <ele>-17.200000762939</ele>
        <time>2021-12-05T11:04:38.000Z</time>
      </trkpt>
      <trkpt lat="47.25369" lon="-2.32221">
        <ele>-17.200000762939</ele>
        <time>2021-12-05T11:04:45.000Z</time>
      </trkpt>
      <trkpt lat="47.25386" lon="-2.32273">
        <ele>-17.200000762939</ele>
        <time>2021-12-05T11:04:52.000Z</time>
      </trkpt>
      <trkpt lat="47.25391" lon="-2.32288">
        <ele>-17.60000038147</ele>
        <time>2021-12-05T11:04:54.000Z</time>
      </trkpt>
      <trkpt lat="47.25393" lon="-2.32295">
        <ele>-18.200000762939</ele>
        <time>2021-12-05T11:04:55.000Z</time>
      </trkpt>
      <trkpt lat="47.25396" lon="-2.32303">
        <ele>-18.60000038147</ele>
        <time>2021-12-05T11:04:56.000Z</time>
      </trkpt>
      <trkpt lat="47.25398" lon="-2.32309">
        <ele>-19</ele>
        <time>2021-12-05T11:04:57.000Z</time>
      </trkpt>
      <trkpt lat="47.25401" lon="-2.32317">
        <ele>-19.60000038147</ele>
        <time>2021-12-05T11:04:58.000Z</time>
      </trkpt>
      <trkpt lat="47.25417" lon="-2.32372">
        <ele>-19.60000038147</ele>
        <time>2021-12-05T11:05:06.000Z</time>
      </trkpt>
      <trkpt lat="47.25419" lon="-2.32379">
        <ele>-19.60000038147</ele>
        <time>2021-12-05T11:05:07.000Z</time>
      </trkpt>
      <trkpt lat="47.25427" lon="-2.32411">
        <ele>-19.60000038147</ele>
        <time>2021-12-05T11:05:12.000Z</time>
      </trkpt>
      <trkpt lat="47.25442" lon="-2.32468">
        <ele>-19.60000038147</ele>
        <time>2021-12-05T11:05:21.000Z</time>
      </trkpt>
      <trkpt lat="47.25454" lon="-2.32511">
        <ele>-19.60000038147</ele>
        <time>2021-12-05T11:05:28.000Z</time>
      </trkpt>
      <trkpt lat="47.25459" lon="-2.32534">
        <ele>-19.60000038147</ele>
        <time>2021-12-05T11:05:32.000Z</time>
      </trkpt>
      <trkpt lat="47.25464" lon="-2.32552">
        <ele>-19.60000038147</ele>
        <time>2021-12-05T11:05:35.000Z</time>
      </trkpt>
      <trkpt lat="47.25466" lon="-2.32557">
        <ele>-19.60000038147</ele>
        <time>2021-12-05T11:05:36.000Z</time>
      </trkpt>
      <trkpt lat="47.25475" lon="-2.3258">
        <ele>-19.60000038147</ele>
        <time>2021-12-05T11:05:40.000Z</time>
      </trkpt>
      <trkpt lat="47.25476" lon="-2.32587">
        <ele>-19.60000038147</ele>
        <time>2021-12-05T11:05:41.000Z</time>
      </trkpt>
      <trkpt lat="47.25483" lon="-2.3263">
        <ele>-19.60000038147</ele>
        <time>2021-12-05T11:05:47.000Z</time>
      </trkpt>
      <trkpt lat="47.25495" lon="-2.32682">
        <ele>-19.60000038147</ele>
        <time>2021-12-05T11:05:55.000Z</time>
      </trkpt>
      <trkpt lat="47.25497" lon="-2.32687">
        <ele>-19.60000038147</ele>
        <time>2021-12-05T11:05:56.000Z</time>
      </trkpt>
      <trkpt lat="47.25503" lon="-2.32697">
        <ele>-19.60000038147</ele>
        <time>2021-12-05T11:05:59.000Z</time>
      </trkpt>
      <trkpt lat="47.25514" lon="-2.32699">
        <ele>-19.60000038147</ele>
        <time>2021-12-05T11:06:02.000Z</time>
      </trkpt>
      <trkpt lat="47.25522" lon="-2.327">
        <ele>-19.60000038147</ele>
        <time>2021-12-05T11:06:04.000Z</time>
      </trkpt>
      <trkpt lat="47.25535" lon="-2.32701">
        <ele>-19.60000038147</ele>
        <time>2021-12-05T11:06:07.000Z</time>
      </trkpt>
      <trkpt lat="47.25541" lon="-2.32711">
        <ele>-19.60000038147</ele>
        <time>2021-12-05T11:06:09.000Z</time>
      </trkpt>
      <trkpt lat="47.25547" lon="-2.32723">
        <ele>-19.60000038147</ele>
        <time>2021-12-05T11:06:11.000Z</time>
      </trkpt>
      <trkpt lat="47.25556" lon="-2.3275">
        <ele>-19.60000038147</ele>
        <time>2021-12-05T11:06:15.000Z</time>
      </trkpt>
      <trkpt lat="47.25568" lon="-2.32797">
        <ele>-19.60000038147</ele>
        <time>2021-12-05T11:06:22.000Z</time>
      </trkpt>
      <trkpt lat="47.2557" lon="-2.32802">
        <ele>-19.60000038147</ele>
        <time>2021-12-05T11:06:23.000Z</time>
      </trkpt>
      <trkpt lat="47.25582" lon="-2.3282">
        <ele>-19.60000038147</ele>
        <time>2021-12-05T11:06:27.000Z</time>
      </trkpt>
      <trkpt lat="47.25592" lon="-2.3284">
        <ele>-19.60000038147</ele>
        <time>2021-12-05T11:06:32.000Z</time>
      </trkpt>
      <trkpt lat="47.25597" lon="-2.32869">
        <ele>-19.60000038147</ele>
        <time>2021-12-05T11:06:38.000Z</time>
      </trkpt>
      <trkpt lat="47.25601" lon="-2.32893">
        <ele>-19.60000038147</ele>
        <time>2021-12-05T11:06:44.000Z</time>
      </trkpt>
      <trkpt lat="47.25604" lon="-2.32911">
        <ele>-19.60000038147</ele>
        <time>2021-12-05T11:06:50.000Z</time>
      </trkpt>
      <trkpt lat="47.25604" lon="-2.32911">
        <ele>-19.60000038147</ele>
        <time>2021-12-05T11:06:51.000Z</time>
      </trkpt>
      <trkpt lat="47.25602" lon="-2.32912">
        <ele>-19.60000038147</ele>
        <time>2021-12-05T11:06:56.000Z</time>
      </trkpt>
      <trkpt lat="47.25601" lon="-2.32912">
        <ele>-19.60000038147</ele>
        <time>2021-12-05T11:06:57.000Z</time>
      </trkpt>
      <trkpt lat="47.2559" lon="-2.32912">
        <ele>-19.60000038147</ele>
        <time>2021-12-05T11:07:02.000Z</time>
      </trkpt>
      <trkpt lat="47.25583" lon="-2.32912">
        <ele>-19.60000038147</ele>
        <time>2021-12-05T11:07:05.000Z</time>
      </trkpt>
      <trkpt lat="47.25576" lon="-2.32911">
        <ele>-19.60000038147</ele>
        <time>2021-12-05T11:07:08.000Z</time>
      </trkpt>
      <trkpt lat="47.2556" lon="-2.32912">
        <ele>-19.60000038147</ele>
        <time>2021-12-05T11:07:14.000Z</time>
      </trkpt>
      <trkpt lat="47.25559" lon="-2.32916">
        <ele>-19.60000038147</ele>
        <time>2021-12-05T11:07:15.000Z</time>
      </trkpt>
      <trkpt lat="47.25558" lon="-2.3292">
        <ele>-20</ele>
        <time>2021-12-05T11:07:16.000Z</time>
      </trkpt>
      <trkpt lat="47.25557" lon="-2.32925">
        <ele>-20.799999237061</ele>
        <time>2021-12-05T11:07:17.000Z</time>
      </trkpt>
      <trkpt lat="47.25556" lon="-2.3293">
        <ele>-21.200000762939</ele>
        <time>2021-12-05T11:07:18.000Z</time>
      </trkpt>
      <trkpt lat="47.25555" lon="-2.32935">
        <ele>-21.60000038147</ele>
        <time>2021-12-05T11:07:19.000Z</time>
      </trkpt>
      <trkpt lat="47.25553" lon="-2.32939">
        <ele>-21.60000038147</ele>
        <time>2021-12-05T11:07:20.000Z</time>
      </trkpt>
      <trkpt lat="47.2555" lon="-2.32941">
        <ele>-21.60000038147</ele>
        <time>2021-12-05T11:07:21.000Z</time>
      </trkpt>
      <trkpt lat="47.25544" lon="-2.32939">
        <ele>-21.60000038147</ele>
        <time>2021-12-05T11:07:23.000Z</time>
      </trkpt>
      <trkpt lat="47.25534" lon="-2.32932">
        <ele>-21.60000038147</ele>
        <time>2021-12-05T11:07:28.000Z</time>
      </trkpt>
      <trkpt lat="47.25536" lon="-2.32931">
        <ele>-21.60000038147</ele>
        <time>2021-12-05T11:07:32.000Z</time>
      </trkpt>
      <trkpt lat="47.25546" lon="-2.32935">
        <ele>-21.60000038147</ele>
        <time>2021-12-05T11:07:37.000Z</time>
      </trkpt>
      <trkpt lat="47.25556" lon="-2.32928">
        <ele>-21.60000038147</ele>
        <time>2021-12-05T11:07:41.000Z</time>
      </trkpt>
      <trkpt lat="47.25559" lon="-2.32913">
        <ele>-21.60000038147</ele>
        <time>2021-12-05T11:07:45.000Z</time>
      </trkpt>
      <trkpt lat="47.25566" lon="-2.32908">
        <ele>-21.60000038147</ele>
        <time>2021-12-05T11:07:49.000Z</time>
      </trkpt>
      <trkpt lat="47.25572" lon="-2.3291">
        <ele>-21.60000038147</ele>
        <time>2021-12-05T11:07:51.000Z</time>
      </trkpt>
      <trkpt lat="47.25582" lon="-2.32913">
        <ele>-21.60000038147</ele>
        <time>2021-12-05T11:07:55.000Z</time>
      </trkpt>
      <trkpt lat="47.25591" lon="-2.32913">
        <ele>-21.60000038147</ele>
        <time>2021-12-05T11:08:00.000Z</time>
      </trkpt>
      <trkpt lat="47.25602" lon="-2.32915">
        <ele>-21.60000038147</ele>
        <time>2021-12-05T11:08:06.000Z</time>
      </trkpt>
      <trkpt lat="47.25603" lon="-2.32917">
        <ele>-21.60000038147</ele>
        <time>2021-12-05T11:08:07.000Z</time>
      </trkpt>
      <trkpt lat="47.25604" lon="-2.32927">
        <ele>-21.60000038147</ele>
        <time>2021-12-05T11:08:10.000Z</time>
      </trkpt>
      <trkpt lat="47.25606" lon="-2.32938">
        <ele>-21.60000038147</ele>
        <time>2021-12-05T11:08:14.000Z</time>
      </trkpt>
      <trkpt lat="47.25608" lon="-2.32951">
        <ele>-21.60000038147</ele>
        <time>2021-12-05T11:08:17.000Z</time>
      </trkpt>
      <trkpt lat="47.25613" lon="-2.32981">
        <ele>-21.60000038147</ele>
        <time>2021-12-05T11:08:23.000Z</time>
      </trkpt>
      <trkpt lat="47.25616" lon="-2.32993">
        <ele>-21.60000038147</ele>
        <time>2021-12-05T11:08:25.000Z</time>
      </trkpt>
      <trkpt lat="47.25618" lon="-2.33006">
        <ele>-21.60000038147</ele>
        <time>2021-12-05T11:08:27.000Z</time>
      </trkpt>
      <trkpt lat="47.25621" lon="-2.33017">
        <ele>-21.60000038147</ele>
        <time>2021-12-05T11:08:29.000Z</time>
      </trkpt>
      <trkpt lat="47.2562" lon="-2.33031">
        <ele>-21.60000038147</ele>
        <time>2021-12-05T11:08:32.000Z</time>
      </trkpt>
      <trkpt lat="47.25617" lon="-2.33032">
        <ele>-21.60000038147</ele>
        <time>2021-12-05T11:08:33.000Z</time>
      </trkpt>
      <trkpt lat="47.25597" lon="-2.33035">
        <ele>-21.60000038147</ele>
        <time>2021-12-05T11:08:37.000Z</time>
      </trkpt>
      <trkpt lat="47.2556" lon="-2.33041">
        <ele>-21.60000038147</ele>
        <time>2021-12-05T11:08:44.000Z</time>
      </trkpt>
      <trkpt lat="47.25519" lon="-2.33054">
        <ele>-21.60000038147</ele>
        <time>2021-12-05T11:08:51.000Z</time>
      </trkpt>
      <trkpt lat="47.25514" lon="-2.33058">
        <ele>-21.60000038147</ele>
        <time>2021-12-05T11:08:52.000Z</time>
      </trkpt>
      <trkpt lat="47.2551" lon="-2.33062">
        <ele>-22</ele>
        <time>2021-12-05T11:08:53.000Z</time>
      </trkpt>
      <trkpt lat="47.25506" lon="-2.33067">
        <ele>-22.39999961853</ele>
        <time>2021-12-05T11:08:54.000Z</time>
      </trkpt>
      <trkpt lat="47.25502" lon="-2.33072">
        <ele>-23</ele>
        <time>2021-12-05T11:08:55.000Z</time>
      </trkpt>
      <trkpt lat="47.25499" lon="-2.33076">
        <ele>-23.799999237061</ele>
        <time>2021-12-05T11:08:56.000Z</time>
      </trkpt>
      <trkpt lat="47.25498" lon="-2.3308">
        <ele>-23.799999237061</ele>
        <time>2021-12-05T11:08:58.000Z</time>
      </trkpt>
      <trkpt lat="47.25497" lon="-2.33082">
        <ele>-23.799999237061</ele>
        <time>2021-12-05T11:08:59.000Z</time>
      </trkpt>
      <trkpt lat="47.25493" lon="-2.33092">
        <ele>-23.799999237061</ele>
        <time>2021-12-05T11:09:02.000Z</time>
      </trkpt>
      <trkpt lat="47.2549" lon="-2.33094">
        <ele>-23.799999237061</ele>
        <time>2021-12-05T11:09:03.000Z</time>
      </trkpt>
      <trkpt lat="47.25483" lon="-2.33096">
        <ele>-23.799999237061</ele>
        <time>2021-12-05T11:09:05.000Z</time>
      </trkpt>
      <trkpt lat="47.25474" lon="-2.33099">
        <ele>-23.799999237061</ele>
        <time>2021-12-05T11:09:07.000Z</time>
      </trkpt>
      <trkpt lat="47.25462" lon="-2.33104">
        <ele>-23.799999237061</ele>
        <time>2021-12-05T11:09:10.000Z</time>
      </trkpt>
      <trkpt lat="47.25432" lon="-2.33116">
        <ele>-23.799999237061</ele>
        <time>2021-12-05T11:09:17.000Z</time>
      </trkpt>
      <trkpt lat="47.25428" lon="-2.33117">
        <ele>-23.799999237061</ele>
        <time>2021-12-05T11:09:18.000Z</time>
      </trkpt>
      <trkpt lat="47.25405" lon="-2.33126">
        <ele>-23.799999237061</ele>
        <time>2021-12-05T11:09:24.000Z</time>
      </trkpt>
      <trkpt lat="47.25385" lon="-2.33137">
        <ele>-23.799999237061</ele>
        <time>2021-12-05T11:09:30.000Z</time>
      </trkpt>
      <trkpt lat="47.25382" lon="-2.33135">
        <ele>-23.799999237061</ele>
        <time>2021-12-05T11:09:31.000Z</time>
      </trkpt>
      <trkpt lat="47.2538" lon="-2.33127">
        <ele>-23.799999237061</ele>
        <time>2021-12-05T11:09:33.000Z</time>
      </trkpt>
      <trkpt lat="47.25371" lon="-2.331">
        <ele>-23.799999237061</ele>
        <time>2021-12-05T11:09:40.000Z</time>
      </trkpt>
      <trkpt lat="47.25365" lon="-2.33091">
        <ele>-23.799999237061</ele>
        <time>2021-12-05T11:09:47.000Z</time>
      </trkpt>
      <trkpt lat="47.25361" lon="-2.33081">
        <ele>-23.799999237061</ele>
        <time>2021-12-05T11:18:16.000Z</time>
      </trkpt>
      <trkpt lat="47.25357" lon="-2.33073">
        <ele>-23.799999237061</ele>
        <time>2021-12-05T11:18:19.000Z</time>
      </trkpt>
      <trkpt lat="47.25348" lon="-2.33047">
        <ele>-23.799999237061</ele>
        <time>2021-12-05T11:18:25.000Z</time>
      </trkpt>
      <trkpt lat="47.25331" lon="-2.33">
        <ele>-23.799999237061</ele>
        <time>2021-12-05T11:18:33.000Z</time>
      </trkpt>
      <trkpt lat="47.25327" lon="-2.32993">
        <ele>-23.39999961853</ele>
        <time>2021-12-05T11:18:34.000Z</time>
      </trkpt>
      <trkpt lat="47.25325" lon="-2.32987">
        <ele>-23</ele>
        <time>2021-12-05T11:18:35.000Z</time>
      </trkpt>
      <trkpt lat="47.25322" lon="-2.32981">
        <ele>-22.60000038147</ele>
        <time>2021-12-05T11:18:36.000Z</time>
      </trkpt>
      <trkpt lat="47.2532" lon="-2.32975">
        <ele>-22.200000762939</ele>
        <time>2021-12-05T11:18:37.000Z</time>
      </trkpt>
      <trkpt lat="47.25318" lon="-2.32969">
        <ele>-21.799999237061</ele>
        <time>2021-12-05T11:18:38.000Z</time>
      </trkpt>
      <trkpt lat="47.25312" lon="-2.32952">
        <ele>-21.799999237061</ele>
        <time>2021-12-05T11:18:41.000Z</time>
      </trkpt>
      <trkpt lat="47.25307" lon="-2.32936">
        <ele>-21.799999237061</ele>
        <time>2021-12-05T11:18:44.000Z</time>
      </trkpt>
      <trkpt lat="47.25307" lon="-2.32924">
        <ele>-21.799999237061</ele>
        <time>2021-12-05T11:18:46.000Z</time>
      </trkpt>
      <trkpt lat="47.25319" lon="-2.32905">
        <ele>-21.799999237061</ele>
        <time>2021-12-05T11:18:50.000Z</time>
      </trkpt>
      <trkpt lat="47.25331" lon="-2.32894">
        <ele>-21.799999237061</ele>
        <time>2021-12-05T11:18:53.000Z</time>
      </trkpt>
      <trkpt lat="47.25343" lon="-2.32884">
        <ele>-21.799999237061</ele>
        <time>2021-12-05T11:18:56.000Z</time>
      </trkpt>
      <trkpt lat="47.2536" lon="-2.3287">
        <ele>-21.799999237061</ele>
        <time>2021-12-05T11:19:00.000Z</time>
      </trkpt>
      <trkpt lat="47.2537" lon="-2.32857">
        <ele>-21.799999237061</ele>
        <time>2021-12-05T11:19:03.000Z</time>
      </trkpt>
      <trkpt lat="47.25374" lon="-2.32854">
        <ele>-21.799999237061</ele>
        <time>2021-12-05T11:19:04.000Z</time>
      </trkpt>
      <trkpt lat="47.25389" lon="-2.32836">
        <ele>-21.799999237061</ele>
        <time>2021-12-05T11:19:08.000Z</time>
      </trkpt>
      <trkpt lat="47.25416" lon="-2.328">
        <ele>-21.799999237061</ele>
        <time>2021-12-05T11:19:16.000Z</time>
      </trkpt>
      <trkpt lat="47.25437" lon="-2.32765">
        <ele>-21.799999237061</ele>
        <time>2021-12-05T11:19:24.000Z</time>
      </trkpt>
      <trkpt lat="47.25442" lon="-2.32755">
        <ele>-21.39999961853</ele>
        <time>2021-12-05T11:19:26.000Z</time>
      </trkpt>
      <trkpt lat="47.25445" lon="-2.3275">
        <ele>-21</ele>
        <time>2021-12-05T11:19:27.000Z</time>
      </trkpt>
      <trkpt lat="47.25448" lon="-2.32746">
        <ele>-20.60000038147</ele>
        <time>2021-12-05T11:19:28.000Z</time>
      </trkpt>
      <trkpt lat="47.25451" lon="-2.32741">
        <ele>-20.200000762939</ele>
        <time>2021-12-05T11:19:29.000Z</time>
      </trkpt>
      <trkpt lat="47.25454" lon="-2.32738">
        <ele>-19.799999237061</ele>
        <time>2021-12-05T11:19:30.000Z</time>
      </trkpt>
      <trkpt lat="47.25457" lon="-2.32734">
        <ele>-19.799999237061</ele>
        <time>2021-12-05T11:19:31.000Z</time>
      </trkpt>
      <trkpt lat="47.25484" lon="-2.32697">
        <ele>-19.799999237061</ele>
        <time>2021-12-05T11:19:40.000Z</time>
      </trkpt>
      <trkpt lat="47.25489" lon="-2.3268">
        <ele>-19.799999237061</ele>
        <time>2021-12-05T11:19:43.000Z</time>
      </trkpt>
      <trkpt lat="47.2549" lon="-2.32667">
        <ele>-19.799999237061</ele>
        <time>2021-12-05T11:19:45.000Z</time>
      </trkpt>
      <trkpt lat="47.25489" lon="-2.32661">
        <ele>-19.799999237061</ele>
        <time>2021-12-05T11:19:46.000Z</time>
      </trkpt>
      <trkpt lat="47.25486" lon="-2.32641">
        <ele>-19.799999237061</ele>
        <time>2021-12-05T11:19:49.000Z</time>
      </trkpt>
      <trkpt lat="47.25479" lon="-2.32593">
        <ele>-19.799999237061</ele>
        <time>2021-12-05T11:19:56.000Z</time>
      </trkpt>
      <trkpt lat="47.25478" lon="-2.32572">
        <ele>-19.799999237061</ele>
        <time>2021-12-05T11:19:59.000Z</time>
      </trkpt>
      <trkpt lat="47.25483" lon="-2.32561">
        <ele>-19.799999237061</ele>
        <time>2021-12-05T11:20:01.000Z</time>
      </trkpt>
      <trkpt lat="47.25495" lon="-2.32545">
        <ele>-19.799999237061</ele>
        <time>2021-12-05T11:20:04.000Z</time>
      </trkpt>
      <trkpt lat="47.255" lon="-2.3254">
        <ele>-19.799999237061</ele>
        <time>2021-12-05T11:20:05.000Z</time>
      </trkpt>
      <trkpt lat="47.25534" lon="-2.32509">
        <ele>-19.799999237061</ele>
        <time>2021-12-05T11:20:12.000Z</time>
      </trkpt>
      <trkpt lat="47.25556" lon="-2.3249">
        <ele>-19.799999237061</ele>
        <time>2021-12-05T11:20:16.000Z</time>
      </trkpt>
      <trkpt lat="47.25568" lon="-2.32479">
        <ele>-19.799999237061</ele>
        <time>2021-12-05T11:20:18.000Z</time>
      </trkpt>
      <trkpt lat="47.25579" lon="-2.32467">
        <ele>-20.200000762939</ele>
        <time>2021-12-05T11:20:20.000Z</time>
      </trkpt>
      <trkpt lat="47.25585" lon="-2.32461">
        <ele>-20.60000038147</ele>
        <time>2021-12-05T11:20:21.000Z</time>
      </trkpt>
      <trkpt lat="47.2559" lon="-2.32456">
        <ele>-21</ele>
        <time>2021-12-05T11:20:22.000Z</time>
      </trkpt>
      <trkpt lat="47.25597" lon="-2.3245">
        <ele>-21.39999961853</ele>
        <time>2021-12-05T11:20:23.000Z</time>
      </trkpt>
      <trkpt lat="47.25603" lon="-2.32444">
        <ele>-22</ele>
        <time>2021-12-05T11:20:24.000Z</time>
      </trkpt>
      <trkpt lat="47.2563" lon="-2.32413">
        <ele>-22.39999961853</ele>
        <time>2021-12-05T11:20:29.000Z</time>
      </trkpt>
      <trkpt lat="47.25636" lon="-2.32408">
        <ele>-22.799999237061</ele>
        <time>2021-12-05T11:20:30.000Z</time>
      </trkpt>
      <trkpt lat="47.25642" lon="-2.32404">
        <ele>-23.200000762939</ele>
        <time>2021-12-05T11:20:31.000Z</time>
      </trkpt>
      <trkpt lat="47.25648" lon="-2.32403">
        <ele>-23.60000038147</ele>
        <time>2021-12-05T11:20:32.000Z</time>
      </trkpt>
      <trkpt lat="47.25654" lon="-2.32404">
        <ele>-24.200000762939</ele>
        <time>2021-12-05T11:20:33.000Z</time>
      </trkpt>
      <trkpt lat="47.25674" lon="-2.32414">
        <ele>-24.200000762939</ele>
        <time>2021-12-05T11:20:37.000Z</time>
      </trkpt>
      <trkpt lat="47.25679" lon="-2.32418">
        <ele>-24.200000762939</ele>
        <time>2021-12-05T11:20:38.000Z</time>
      </trkpt>
      <trkpt lat="47.2569" lon="-2.3242">
        <ele>-24.200000762939</ele>
        <time>2021-12-05T11:20:40.000Z</time>
      </trkpt>
      <trkpt lat="47.25696" lon="-2.32421">
        <ele>-24.200000762939</ele>
        <time>2021-12-05T11:20:41.000Z</time>
      </trkpt>
      <trkpt lat="47.2573" lon="-2.32423">
        <ele>-24.200000762939</ele>
        <time>2021-12-05T11:20:47.000Z</time>
      </trkpt>
      <trkpt lat="47.25753" lon="-2.32422">
        <ele>-24.200000762939</ele>
        <time>2021-12-05T11:20:52.000Z</time>
      </trkpt>
      <trkpt lat="47.2576" lon="-2.32421">
        <ele>-24.200000762939</ele>
        <time>2021-12-05T11:20:55.000Z</time>
      </trkpt>
      <trkpt lat="47.25766" lon="-2.32415">
        <ele>-24.200000762939</ele>
        <time>2021-12-05T11:21:01.000Z</time>
      </trkpt>
      <trkpt lat="47.25769" lon="-2.32411">
        <ele>-24.200000762939</ele>
        <time>2021-12-05T11:21:04.000Z</time>
      </trkpt>
      <trkpt lat="47.25774" lon="-2.32412">
        <ele>-24.200000762939</ele>
        <time>2021-12-05T11:21:06.000Z</time>
      </trkpt>
      <trkpt lat="47.25787" lon="-2.32425">
        <ele>-24.200000762939</ele>
        <time>2021-12-05T11:21:11.000Z</time>
      </trkpt>
      <trkpt lat="47.25799" lon="-2.32444">
        <ele>-24.200000762939</ele>
        <time>2021-12-05T11:21:15.000Z</time>
      </trkpt>
      <trkpt lat="47.25807" lon="-2.32452">
        <ele>-24.200000762939</ele>
        <time>2021-12-05T11:21:17.000Z</time>
      </trkpt>
      <trkpt lat="47.25816" lon="-2.32457">
        <ele>-24.200000762939</ele>
        <time>2021-12-05T11:21:19.000Z</time>
      </trkpt>
      <trkpt lat="47.2583" lon="-2.32465">
        <ele>-24.200000762939</ele>
        <time>2021-12-05T11:21:22.000Z</time>
      </trkpt>
      <trkpt lat="47.2584" lon="-2.32469">
        <ele>-24.200000762939</ele>
        <time>2021-12-05T11:21:24.000Z</time>
      </trkpt>
      <trkpt lat="47.25858" lon="-2.32472">
        <ele>-24.200000762939</ele>
        <time>2021-12-05T11:21:28.000Z</time>
      </trkpt>
      <trkpt lat="47.25877" lon="-2.3247">
        <ele>-24.60000038147</ele>
        <time>2021-12-05T11:21:32.000Z</time>
      </trkpt>
      <trkpt lat="47.25881" lon="-2.32469">
        <ele>-25</ele>
        <time>2021-12-05T11:21:33.000Z</time>
      </trkpt>
      <trkpt lat="47.25886" lon="-2.32468">
        <ele>-25.39999961853</ele>
        <time>2021-12-05T11:21:34.000Z</time>
      </trkpt>
      <trkpt lat="47.2589" lon="-2.32467">
        <ele>-25.799999237061</ele>
        <time>2021-12-05T11:21:35.000Z</time>
      </trkpt>
      <trkpt lat="47.25895" lon="-2.32463">
        <ele>-26.200000762939</ele>
        <time>2021-12-05T11:21:36.000Z</time>
      </trkpt>
      <trkpt lat="47.25903" lon="-2.32454">
        <ele>-26.200000762939</ele>
        <time>2021-12-05T11:21:38.000Z</time>
      </trkpt>
      <trkpt lat="47.25937" lon="-2.32413">
        <ele>-26.200000762939</ele>
        <time>2021-12-05T11:21:46.000Z</time>
      </trkpt>
      <trkpt lat="47.25966" lon="-2.32372">
        <ele>-26.200000762939</ele>
        <time>2021-12-05T11:21:54.000Z</time>
      </trkpt>
      <trkpt lat="47.25997" lon="-2.32332">
        <ele>-26.200000762939</ele>
        <time>2021-12-05T11:22:02.000Z</time>
      </trkpt>
      <trkpt lat="47.26001" lon="-2.32327">
        <ele>-26.200000762939</ele>
        <time>2021-12-05T11:22:03.000Z</time>
      </trkpt>
      <trkpt lat="47.26027" lon="-2.32295">
        <ele>-26.200000762939</ele>
        <time>2021-12-05T11:22:10.000Z</time>
      </trkpt>
      <trkpt lat="47.26055" lon="-2.32264">
        <ele>-26.200000762939</ele>
        <time>2021-12-05T11:22:17.000Z</time>
      </trkpt>
      <trkpt lat="47.26081" lon="-2.32232">
        <ele>-26.200000762939</ele>
        <time>2021-12-05T11:22:24.000Z</time>
      </trkpt>
      <trkpt lat="47.26101" lon="-2.32201">
        <ele>-26.200000762939</ele>
        <time>2021-12-05T11:22:30.000Z</time>
      </trkpt>
      <trkpt lat="47.26104" lon="-2.32194">
        <ele>-26.200000762939</ele>
        <time>2021-12-05T11:22:31.000Z</time>
      </trkpt>
      <trkpt lat="47.26117" lon="-2.32163">
        <ele>-26.200000762939</ele>
        <time>2021-12-05T11:22:36.000Z</time>
      </trkpt>
      <trkpt lat="47.2612" lon="-2.32156">
        <ele>-26.200000762939</ele>
        <time>2021-12-05T11:22:37.000Z</time>
      </trkpt>
      <trkpt lat="47.26135" lon="-2.3211">
        <ele>-26.200000762939</ele>
        <time>2021-12-05T11:22:44.000Z</time>
      </trkpt>
      <trkpt lat="47.26151" lon="-2.3206">
        <ele>-26.200000762939</ele>
        <time>2021-12-05T11:22:52.000Z</time>
      </trkpt>
      <trkpt lat="47.26166" lon="-2.32022">
        <ele>-26.200000762939</ele>
        <time>2021-12-05T11:22:59.000Z</time>
      </trkpt>
      <trkpt lat="47.26173" lon="-2.3202">
        <ele>-26.200000762939</ele>
        <time>2021-12-05T11:23:01.000Z</time>
      </trkpt>
      <trkpt lat="47.26177" lon="-2.32021">
        <ele>-26.200000762939</ele>
        <time>2021-12-05T11:23:02.000Z</time>
      </trkpt>
      <trkpt lat="47.2619" lon="-2.32025">
        <ele>-26.200000762939</ele>
        <time>2021-12-05T11:23:07.000Z</time>
      </trkpt>
      <trkpt lat="47.26191" lon="-2.32026">
        <ele>-26.200000762939</ele>
        <time>2021-12-05T11:23:09.000Z</time>
      </trkpt>
      <trkpt lat="47.26193" lon="-2.32026">
        <ele>-26.200000762939</ele>
        <time>2021-12-05T11:23:20.000Z</time>
      </trkpt>
      <trkpt lat="47.26194" lon="-2.32027">
        <ele>-26.200000762939</ele>
        <time>2021-12-05T11:23:21.000Z</time>
      </trkpt>
      <trkpt lat="47.26195" lon="-2.32026">
        <ele>-26.200000762939</ele>
        <time>2021-12-05T11:23:22.000Z</time>
      </trkpt>
      <trkpt lat="47.26197" lon="-2.32019">
        <ele>-26.200000762939</ele>
        <time>2021-12-05T11:23:25.000Z</time>
      </trkpt>
      <trkpt lat="47.26202" lon="-2.32008">
        <ele>-26.200000762939</ele>
        <time>2021-12-05T11:23:29.000Z</time>
      </trkpt>
      <trkpt lat="47.26213" lon="-2.31996">
        <ele>-26.200000762939</ele>
        <time>2021-12-05T11:23:34.000Z</time>
      </trkpt>
      <trkpt lat="47.26219" lon="-2.31991">
        <ele>-26.200000762939</ele>
        <time>2021-12-05T11:23:36.000Z</time>
      </trkpt>
      <trkpt lat="47.2623" lon="-2.31979">
        <ele>-26.200000762939</ele>
        <time>2021-12-05T11:23:40.000Z</time>
      </trkpt>
      <trkpt lat="47.26248" lon="-2.31961">
        <ele>-26.200000762939</ele>
        <time>2021-12-05T11:23:46.000Z</time>
      </trkpt>
      <trkpt lat="47.26253" lon="-2.31946">
        <ele>-26.200000762939</ele>
        <time>2021-12-05T11:23:50.000Z</time>
      </trkpt>
      <trkpt lat="47.26267" lon="-2.31922">
        <ele>-26.200000762939</ele>
        <time>2021-12-05T11:23:56.000Z</time>
      </trkpt>
      <trkpt lat="47.26286" lon="-2.31903">
        <ele>-26.200000762939</ele>
        <time>2021-12-05T11:24:01.000Z</time>
      </trkpt>
      <trkpt lat="47.26299" lon="-2.3189">
        <ele>-26.200000762939</ele>
        <time>2021-12-05T11:24:05.000Z</time>
      </trkpt>
      <trkpt lat="47.26299" lon="-2.3187">
        <ele>-26.200000762939</ele>
        <time>2021-12-05T11:24:09.000Z</time>
      </trkpt>
      <trkpt lat="47.263" lon="-2.31842">
        <ele>-26.200000762939</ele>
        <time>2021-12-05T11:24:15.000Z</time>
      </trkpt>
      <trkpt lat="47.26303" lon="-2.31817">
        <ele>-26.200000762939</ele>
        <time>2021-12-05T11:24:20.000Z</time>
      </trkpt>
      <trkpt lat="47.26302" lon="-2.31785">
        <ele>-26.200000762939</ele>
        <time>2021-12-05T11:24:26.000Z</time>
      </trkpt>
      <trkpt lat="47.26301" lon="-2.31749">
        <ele>-26.200000762939</ele>
        <time>2021-12-05T11:24:32.000Z</time>
      </trkpt>
      <trkpt lat="47.26301" lon="-2.31733">
        <ele>-26.200000762939</ele>
        <time>2021-12-05T11:24:35.000Z</time>
      </trkpt>
      <trkpt lat="47.26302" lon="-2.31727">
        <ele>-26.200000762939</ele>
        <time>2021-12-05T11:24:36.000Z</time>
      </trkpt>
      <trkpt lat="47.26312" lon="-2.31713">
        <ele>-26.200000762939</ele>
        <time>2021-12-05T11:24:40.000Z</time>
      </trkpt>
      <trkpt lat="47.26322" lon="-2.31708">
        <ele>-26.200000762939</ele>
        <time>2021-12-05T11:24:43.000Z</time>
      </trkpt>
      <trkpt lat="47.26329" lon="-2.31705">
        <ele>-25.799999237061</ele>
        <time>2021-12-05T11:24:45.000Z</time>
      </trkpt>
      <trkpt lat="47.26331" lon="-2.31702">
        <ele>-25.39999961853</ele>
        <time>2021-12-05T11:24:46.000Z</time>
      </trkpt>
      <trkpt lat="47.26332" lon="-2.31698">
        <ele>-25</ele>
        <time>2021-12-05T11:24:47.000Z</time>
      </trkpt>
      <trkpt lat="47.26333" lon="-2.31694">
        <ele>-24.60000038147</ele>
        <time>2021-12-05T11:24:48.000Z</time>
      </trkpt>
      <trkpt lat="47.26335" lon="-2.31691">
        <ele>-24.200000762939</ele>
        <time>2021-12-05T11:24:49.000Z</time>
      </trkpt>
      <trkpt lat="47.26343" lon="-2.31685">
        <ele>-24.200000762939</ele>
        <time>2021-12-05T11:24:52.000Z</time>
      </trkpt>
      <trkpt lat="47.26349" lon="-2.31681">
        <ele>-24.200000762939</ele>
        <time>2021-12-05T11:24:54.000Z</time>
      </trkpt>
      <trkpt lat="47.26357" lon="-2.31677">
        <ele>-23.799999237061</ele>
        <time>2021-12-05T11:24:57.000Z</time>
      </trkpt>
      <trkpt lat="47.2636" lon="-2.31675">
        <ele>-23.39999961853</ele>
        <time>2021-12-05T11:24:58.000Z</time>
      </trkpt>
      <trkpt lat="47.26362" lon="-2.31674">
        <ele>-22.60000038147</ele>
        <time>2021-12-05T11:24:59.000Z</time>
      </trkpt>
      <trkpt lat="47.26365" lon="-2.31672">
        <ele>-22.200000762939</ele>
        <time>2021-12-05T11:25:00.000Z</time>
      </trkpt>
      <trkpt lat="47.26374" lon="-2.31669">
        <ele>-22.200000762939</ele>
        <time>2021-12-05T11:25:03.000Z</time>
      </trkpt>
      <trkpt lat="47.26388" lon="-2.31661">
        <ele>-22.200000762939</ele>
        <time>2021-12-05T11:25:08.000Z</time>
      </trkpt>
      <trkpt lat="47.26401" lon="-2.31655">
        <ele>-22.200000762939</ele>
        <time>2021-12-05T11:25:13.000Z</time>
      </trkpt>
      <trkpt lat="47.26405" lon="-2.31651">
        <ele>-22.200000762939</ele>
        <time>2021-12-05T11:25:15.000Z</time>
      </trkpt>
      <trkpt lat="47.26407" lon="-2.31643">
        <ele>-22.200000762939</ele>
        <time>2021-12-05T11:25:17.000Z</time>
      </trkpt>
      <trkpt lat="47.26407" lon="-2.31612">
        <ele>-22.200000762939</ele>
        <time>2021-12-05T11:25:24.000Z</time>
      </trkpt>
      <trkpt lat="47.26405" lon="-2.31581">
        <ele>-22.200000762939</ele>
        <time>2021-12-05T11:25:30.000Z</time>
      </trkpt>
      <trkpt lat="47.26404" lon="-2.31568">
        <ele>-21.799999237061</ele>
        <time>2021-12-05T11:25:33.000Z</time>
      </trkpt>
      <trkpt lat="47.26405" lon="-2.31564">
        <ele>-21.39999961853</ele>
        <time>2021-12-05T11:25:34.000Z</time>
      </trkpt>
      <trkpt lat="47.26406" lon="-2.31561">
        <ele>-21</ele>
        <time>2021-12-05T11:25:35.000Z</time>
      </trkpt>
      <trkpt lat="47.26406" lon="-2.31558">
        <ele>-20.60000038147</ele>
        <time>2021-12-05T11:25:36.000Z</time>
      </trkpt>
      <trkpt lat="47.26407" lon="-2.31554">
        <ele>-20.200000762939</ele>
        <time>2021-12-05T11:25:37.000Z</time>
      </trkpt>
      <trkpt lat="47.26408" lon="-2.31551">
        <ele>-20.200000762939</ele>
        <time>2021-12-05T11:25:38.000Z</time>
      </trkpt>
      <trkpt lat="47.26412" lon="-2.31551">
        <ele>-20.200000762939</ele>
        <time>2021-12-05T11:25:39.000Z</time>
      </trkpt>
      <trkpt lat="47.26418" lon="-2.31553">
        <ele>-20.200000762939</ele>
        <time>2021-12-05T11:25:42.000Z</time>
      </trkpt>
      <trkpt lat="47.26418" lon="-2.31553">
        <ele>-19.60000038147</ele>
        <time>2021-12-05T11:25:43.000Z</time>
      </trkpt>
      <trkpt lat="47.26419" lon="-2.31554">
        <ele>-19.200000762939</ele>
        <time>2021-12-05T11:25:44.000Z</time>
      </trkpt>
    </trkseg>
  </trk>
</gpx>